<?xml version="1.0" encoding="UTF-8" standalone="no" ?>
<gpx xmlns="http://www.topografix.com/GPX/1/1" xmlns:xsi="http://www.w3.org/2001/XMLSchema-instance" xsi:schemaLocation="http://www.topografix.com/GPX/1/1 http://www.topografix.com/GPX/1/1/gpx.xsd" version="1.1" creator="VisuGPX - https://www.visugpx.com">
  <metadata>
    <name>Lac de Longemer - Lac de Lisbach </name>
  </metadata>
  <trk>
    <name><![CDATA[2022-11-01 11:29:53]]></name>
    <extensions>
      <line xmlns="http://www.topografix.com/GPX/gpx_style/0/2">
        <color>0000FF</color>
        <width>4</width>
      </line>
    </extensions>
    <trkseg>
      <trkpt lat="48.06655" lon="6.94953">
        <ele>751</ele>
        <time>2022-11-01T10:29:53.000Z</time>
      </trkpt>
      <trkpt lat="48.06652" lon="6.94956">
        <ele>751</ele>
        <time>2022-11-01T10:29:58.000Z</time>
      </trkpt>
      <trkpt lat="48.06647" lon="6.94963">
        <ele>751</ele>
        <time>2022-11-01T10:30:05.000Z</time>
      </trkpt>
      <trkpt lat="48.06645" lon="6.94966">
        <ele>750.80004882812</ele>
        <time>2022-11-01T10:30:08.000Z</time>
      </trkpt>
      <trkpt lat="48.06644" lon="6.94969">
        <ele>750.40002441406</ele>
        <time>2022-11-01T10:30:12.000Z</time>
      </trkpt>
      <trkpt lat="48.06639" lon="6.94978">
        <ele>750.19995117188</ele>
        <time>2022-11-01T10:30:21.000Z</time>
      </trkpt>
      <trkpt lat="48.06638" lon="6.94978">
        <ele>750.19995117188</ele>
        <time>2022-11-01T10:30:22.000Z</time>
      </trkpt>
      <trkpt lat="48.06637" lon="6.9498">
        <ele>750</ele>
        <time>2022-11-01T10:30:24.000Z</time>
      </trkpt>
      <trkpt lat="48.06633" lon="6.94984">
        <ele>749.80004882812</ele>
        <time>2022-11-01T10:30:29.000Z</time>
      </trkpt>
      <trkpt lat="48.06628" lon="6.94987">
        <ele>749.59997558594</ele>
        <time>2022-11-01T10:30:33.000Z</time>
      </trkpt>
      <trkpt lat="48.06623" lon="6.94994">
        <ele>749.19995117188</ele>
        <time>2022-11-01T10:30:38.000Z</time>
      </trkpt>
      <trkpt lat="48.06617" lon="6.94997">
        <ele>749</ele>
        <time>2022-11-01T10:30:43.000Z</time>
      </trkpt>
      <trkpt lat="48.06616" lon="6.94997">
        <ele>748.80004882812</ele>
        <time>2022-11-01T10:30:45.000Z</time>
      </trkpt>
      <trkpt lat="48.06612" lon="6.95005">
        <ele>748.40002441406</ele>
        <time>2022-11-01T10:30:51.000Z</time>
      </trkpt>
      <trkpt lat="48.06608" lon="6.95012">
        <ele>748</ele>
        <time>2022-11-01T10:30:56.000Z</time>
      </trkpt>
      <trkpt lat="48.06607" lon="6.95013">
        <ele>748</ele>
        <time>2022-11-01T10:30:57.000Z</time>
      </trkpt>
      <trkpt lat="48.06603" lon="6.95016">
        <ele>747.80004882812</ele>
        <time>2022-11-01T10:31:01.000Z</time>
      </trkpt>
      <trkpt lat="48.066" lon="6.95018">
        <ele>747.59997558594</ele>
        <time>2022-11-01T10:31:06.000Z</time>
      </trkpt>
      <trkpt lat="48.066" lon="6.95022">
        <ele>747.80004882812</ele>
        <time>2022-11-01T10:31:12.000Z</time>
      </trkpt>
      <trkpt lat="48.066" lon="6.95022">
        <ele>747.80004882812</ele>
        <time>2022-11-01T10:31:13.000Z</time>
      </trkpt>
      <trkpt lat="48.06595" lon="6.95021">
        <ele>747.40002441406</ele>
        <time>2022-11-01T10:31:26.000Z</time>
      </trkpt>
      <trkpt lat="48.06592" lon="6.95022">
        <ele>747.40002441406</ele>
        <time>2022-11-01T10:31:28.000Z</time>
      </trkpt>
      <trkpt lat="48.06588" lon="6.95026">
        <ele>747.19995117188</ele>
        <time>2022-11-01T10:31:31.000Z</time>
      </trkpt>
      <trkpt lat="48.06585" lon="6.95028">
        <ele>746.80004882812</ele>
        <time>2022-11-01T10:31:34.000Z</time>
      </trkpt>
      <trkpt lat="48.06581" lon="6.95031">
        <ele>746.59997558594</ele>
        <time>2022-11-01T10:31:37.000Z</time>
      </trkpt>
      <trkpt lat="48.0658" lon="6.95032">
        <ele>746.59997558594</ele>
        <time>2022-11-01T10:31:39.000Z</time>
      </trkpt>
      <trkpt lat="48.06578" lon="6.95038">
        <ele>746.40002441406</ele>
        <time>2022-11-01T10:31:43.000Z</time>
      </trkpt>
      <trkpt lat="48.06576" lon="6.95042">
        <ele>746.19995117188</ele>
        <time>2022-11-01T10:31:46.000Z</time>
      </trkpt>
      <trkpt lat="48.06575" lon="6.95045">
        <ele>746.19995117188</ele>
        <time>2022-11-01T10:31:52.000Z</time>
      </trkpt>
      <trkpt lat="48.06575" lon="6.95039">
        <ele>746.19995117188</ele>
        <time>2022-11-01T10:32:02.000Z</time>
      </trkpt>
      <trkpt lat="48.06575" lon="6.95033">
        <ele>746.19995117188</ele>
        <time>2022-11-01T10:32:07.000Z</time>
      </trkpt>
      <trkpt lat="48.0658" lon="6.95026">
        <ele>746.80004882812</ele>
        <time>2022-11-01T10:32:13.000Z</time>
      </trkpt>
      <trkpt lat="48.0658" lon="6.95026">
        <ele>747.40002441406</ele>
        <time>2022-11-01T10:32:18.000Z</time>
      </trkpt>
      <trkpt lat="48.06579" lon="6.95026">
        <ele>747.40002441406</ele>
        <time>2022-11-01T10:32:19.000Z</time>
      </trkpt>
      <trkpt lat="48.06579" lon="6.95018">
        <ele>747.19995117188</ele>
        <time>2022-11-01T10:32:26.000Z</time>
      </trkpt>
      <trkpt lat="48.06582" lon="6.95013">
        <ele>748</ele>
        <time>2022-11-01T10:32:30.000Z</time>
      </trkpt>
      <trkpt lat="48.06585" lon="6.95009">
        <ele>748.19995117188</ele>
        <time>2022-11-01T10:32:33.000Z</time>
      </trkpt>
      <trkpt lat="48.06588" lon="6.95004">
        <ele>749</ele>
        <time>2022-11-01T10:32:39.000Z</time>
      </trkpt>
      <trkpt lat="48.06588" lon="6.95001">
        <ele>749.19995117188</ele>
        <time>2022-11-01T10:32:41.000Z</time>
      </trkpt>
      <trkpt lat="48.06589" lon="6.94997">
        <ele>750.19995117188</ele>
        <time>2022-11-01T10:32:45.000Z</time>
      </trkpt>
      <trkpt lat="48.06591" lon="6.94992">
        <ele>750.80004882812</ele>
        <time>2022-11-01T10:32:48.000Z</time>
      </trkpt>
      <trkpt lat="48.06593" lon="6.94991">
        <ele>751.19995117188</ele>
        <time>2022-11-01T10:32:50.000Z</time>
      </trkpt>
      <trkpt lat="48.06594" lon="6.9499">
        <ele>751.40002441406</ele>
        <time>2022-11-01T10:32:52.000Z</time>
      </trkpt>
      <trkpt lat="48.06593" lon="6.94987">
        <ele>751.59997558594</ele>
        <time>2022-11-01T10:32:54.000Z</time>
      </trkpt>
      <trkpt lat="48.06593" lon="6.94986">
        <ele>751.80004882812</ele>
        <time>2022-11-01T10:32:55.000Z</time>
      </trkpt>
      <trkpt lat="48.06594" lon="6.94985">
        <ele>752.19995117188</ele>
        <time>2022-11-01T10:32:57.000Z</time>
      </trkpt>
      <trkpt lat="48.06594" lon="6.94983">
        <ele>752.80004882812</ele>
        <time>2022-11-01T10:33:00.000Z</time>
      </trkpt>
      <trkpt lat="48.06595" lon="6.94981">
        <ele>753.19995117188</ele>
        <time>2022-11-01T10:33:02.000Z</time>
      </trkpt>
      <trkpt lat="48.06596" lon="6.9498">
        <ele>753.40002441406</ele>
        <time>2022-11-01T10:33:03.000Z</time>
      </trkpt>
      <trkpt lat="48.06596" lon="6.94974">
        <ele>754.59997558594</ele>
        <time>2022-11-01T10:33:07.000Z</time>
      </trkpt>
      <trkpt lat="48.06596" lon="6.94973">
        <ele>755</ele>
        <time>2022-11-01T10:33:09.000Z</time>
      </trkpt>
      <trkpt lat="48.06597" lon="6.9497">
        <ele>755.80004882812</ele>
        <time>2022-11-01T10:33:13.000Z</time>
      </trkpt>
      <trkpt lat="48.06596" lon="6.94967">
        <ele>756.40002441406</ele>
        <time>2022-11-01T10:33:16.000Z</time>
      </trkpt>
      <trkpt lat="48.06596" lon="6.94965">
        <ele>756.80004882812</ele>
        <time>2022-11-01T10:33:18.000Z</time>
      </trkpt>
      <trkpt lat="48.06597" lon="6.94964">
        <ele>757.19995117188</ele>
        <time>2022-11-01T10:33:20.000Z</time>
      </trkpt>
      <trkpt lat="48.06598" lon="6.94963">
        <ele>757.59997558594</ele>
        <time>2022-11-01T10:33:23.000Z</time>
      </trkpt>
      <trkpt lat="48.06598" lon="6.94963">
        <ele>757.80004882812</ele>
        <time>2022-11-01T10:33:26.000Z</time>
      </trkpt>
      <trkpt lat="48.06599" lon="6.94963">
        <ele>758</ele>
        <time>2022-11-01T10:33:27.000Z</time>
      </trkpt>
      <trkpt lat="48.06599" lon="6.94962">
        <ele>758.19995117188</ele>
        <time>2022-11-01T10:33:31.000Z</time>
      </trkpt>
      <trkpt lat="48.06604" lon="6.94964">
        <ele>758.59997558594</ele>
        <time>2022-11-01T10:33:36.000Z</time>
      </trkpt>
      <trkpt lat="48.06608" lon="6.94966">
        <ele>758.59997558594</ele>
        <time>2022-11-01T10:33:46.000Z</time>
      </trkpt>
      <trkpt lat="48.0661" lon="6.94962">
        <ele>758.80004882812</ele>
        <time>2022-11-01T10:33:53.000Z</time>
      </trkpt>
      <trkpt lat="48.06609" lon="6.94961">
        <ele>758.59997558594</ele>
        <time>2022-11-01T10:33:58.000Z</time>
      </trkpt>
      <trkpt lat="48.06609" lon="6.94962">
        <ele>758.59997558594</ele>
        <time>2022-11-01T10:33:59.000Z</time>
      </trkpt>
      <trkpt lat="48.06606" lon="6.94961">
        <ele>758.40002441406</ele>
        <time>2022-11-01T10:34:03.000Z</time>
      </trkpt>
      <trkpt lat="48.06603" lon="6.94955">
        <ele>758.80004882812</ele>
        <time>2022-11-01T10:34:08.000Z</time>
      </trkpt>
      <trkpt lat="48.06602" lon="6.94954">
        <ele>759</ele>
        <time>2022-11-01T10:34:09.000Z</time>
      </trkpt>
      <trkpt lat="48.066" lon="6.94947">
        <ele>759.59997558594</ele>
        <time>2022-11-01T10:34:14.000Z</time>
      </trkpt>
      <trkpt lat="48.06601" lon="6.94944">
        <ele>760</ele>
        <time>2022-11-01T10:34:16.000Z</time>
      </trkpt>
      <trkpt lat="48.06601" lon="6.94942">
        <ele>760.19995117188</ele>
        <time>2022-11-01T10:34:17.000Z</time>
      </trkpt>
      <trkpt lat="48.06598" lon="6.94937">
        <ele>760.80004882812</ele>
        <time>2022-11-01T10:34:22.000Z</time>
      </trkpt>
      <trkpt lat="48.06599" lon="6.94937">
        <ele>761.19995117188</ele>
        <time>2022-11-01T10:34:23.000Z</time>
      </trkpt>
      <trkpt lat="48.066" lon="6.94933">
        <ele>762</ele>
        <time>2022-11-01T10:34:27.000Z</time>
      </trkpt>
      <trkpt lat="48.06599" lon="6.94932">
        <ele>762.19995117188</ele>
        <time>2022-11-01T10:34:29.000Z</time>
      </trkpt>
      <trkpt lat="48.06599" lon="6.94932">
        <ele>762.80004882812</ele>
        <time>2022-11-01T10:34:32.000Z</time>
      </trkpt>
      <trkpt lat="48.06599" lon="6.94931">
        <ele>763.19995117188</ele>
        <time>2022-11-01T10:34:35.000Z</time>
      </trkpt>
      <trkpt lat="48.066" lon="6.94927">
        <ele>763.59997558594</ele>
        <time>2022-11-01T10:34:37.000Z</time>
      </trkpt>
      <trkpt lat="48.06598" lon="6.94924">
        <ele>764.40002441406</ele>
        <time>2022-11-01T10:34:40.000Z</time>
      </trkpt>
      <trkpt lat="48.06597" lon="6.94922">
        <ele>765</ele>
        <time>2022-11-01T10:34:43.000Z</time>
      </trkpt>
      <trkpt lat="48.06596" lon="6.94919">
        <ele>765.40002441406</ele>
        <time>2022-11-01T10:34:45.000Z</time>
      </trkpt>
      <trkpt lat="48.06597" lon="6.94915">
        <ele>766</ele>
        <time>2022-11-01T10:34:48.000Z</time>
      </trkpt>
      <trkpt lat="48.06599" lon="6.94918">
        <ele>766.40002441406</ele>
        <time>2022-11-01T10:34:54.000Z</time>
      </trkpt>
      <trkpt lat="48.06599" lon="6.94918">
        <ele>766.40002441406</ele>
        <time>2022-11-01T10:34:59.000Z</time>
      </trkpt>
      <trkpt lat="48.066" lon="6.94917">
        <ele>766.40002441406</ele>
        <time>2022-11-01T10:35:03.000Z</time>
      </trkpt>
      <trkpt lat="48.066" lon="6.94917">
        <ele>766.40002441406</ele>
        <time>2022-11-01T10:35:12.000Z</time>
      </trkpt>
      <trkpt lat="48.06601" lon="6.94917">
        <ele>766.19995117188</ele>
        <time>2022-11-01T10:35:19.000Z</time>
      </trkpt>
      <trkpt lat="48.06602" lon="6.94917">
        <ele>766.19995117188</ele>
        <time>2022-11-01T10:35:29.000Z</time>
      </trkpt>
      <trkpt lat="48.06602" lon="6.94917">
        <ele>766.19995117188</ele>
        <time>2022-11-01T10:35:30.000Z</time>
      </trkpt>
      <trkpt lat="48.06602" lon="6.94919">
        <ele>766</ele>
        <time>2022-11-01T10:35:36.000Z</time>
      </trkpt>
      <trkpt lat="48.06602" lon="6.94921">
        <ele>766.40002441406</ele>
        <time>2022-11-01T10:35:54.000Z</time>
      </trkpt>
      <trkpt lat="48.06602" lon="6.94921">
        <ele>766.40002441406</ele>
        <time>2022-11-01T10:35:55.000Z</time>
      </trkpt>
      <trkpt lat="48.06602" lon="6.94921">
        <ele>766.40002441406</ele>
        <time>2022-11-01T10:35:56.000Z</time>
      </trkpt>
      <trkpt lat="48.06596" lon="6.94919">
        <ele>767</ele>
        <time>2022-11-01T10:36:01.000Z</time>
      </trkpt>
      <trkpt lat="48.06594" lon="6.94917">
        <ele>767.59997558594</ele>
        <time>2022-11-01T10:36:04.000Z</time>
      </trkpt>
      <trkpt lat="48.06594" lon="6.94917">
        <ele>768</ele>
        <time>2022-11-01T10:36:06.000Z</time>
      </trkpt>
      <trkpt lat="48.06594" lon="6.94917">
        <ele>768.19995117188</ele>
        <time>2022-11-01T10:36:10.000Z</time>
      </trkpt>
      <trkpt lat="48.06595" lon="6.94916">
        <ele>768.19995117188</ele>
        <time>2022-11-01T10:36:11.000Z</time>
      </trkpt>
      <trkpt lat="48.06596" lon="6.94915">
        <ele>768.19995117188</ele>
        <time>2022-11-01T10:36:13.000Z</time>
      </trkpt>
      <trkpt lat="48.06596" lon="6.94916">
        <ele>768.19995117188</ele>
        <time>2022-11-01T10:36:14.000Z</time>
      </trkpt>
      <trkpt lat="48.06593" lon="6.94919">
        <ele>768.40002441406</ele>
        <time>2022-11-01T10:36:17.000Z</time>
      </trkpt>
      <trkpt lat="48.06591" lon="6.94921">
        <ele>768.59997558594</ele>
        <time>2022-11-01T10:36:19.000Z</time>
      </trkpt>
      <trkpt lat="48.06591" lon="6.94921">
        <ele>770.80004882812</ele>
        <time>2022-11-01T10:36:34.000Z</time>
      </trkpt>
      <trkpt lat="48.06587" lon="6.94922">
        <ele>771.80004882812</ele>
        <time>2022-11-01T10:36:42.000Z</time>
      </trkpt>
      <trkpt lat="48.06587" lon="6.94922">
        <ele>772</ele>
        <time>2022-11-01T10:36:43.000Z</time>
      </trkpt>
      <trkpt lat="48.06578" lon="6.94927">
        <ele>772.59997558594</ele>
        <time>2022-11-01T10:36:50.000Z</time>
      </trkpt>
      <trkpt lat="48.06573" lon="6.94928">
        <ele>773</ele>
        <time>2022-11-01T10:36:52.000Z</time>
      </trkpt>
      <trkpt lat="48.06566" lon="6.9493">
        <ele>773.59997558594</ele>
        <time>2022-11-01T10:36:56.000Z</time>
      </trkpt>
      <trkpt lat="48.06563" lon="6.94933">
        <ele>774.19995117188</ele>
        <time>2022-11-01T10:37:01.000Z</time>
      </trkpt>
      <trkpt lat="48.06559" lon="6.94934">
        <ele>774.59997558594</ele>
        <time>2022-11-01T10:37:05.000Z</time>
      </trkpt>
      <trkpt lat="48.06558" lon="6.94934">
        <ele>774.80004882812</ele>
        <time>2022-11-01T10:37:07.000Z</time>
      </trkpt>
      <trkpt lat="48.06559" lon="6.94936">
        <ele>774.59997558594</ele>
        <time>2022-11-01T10:37:11.000Z</time>
      </trkpt>
      <trkpt lat="48.06559" lon="6.94935">
        <ele>774.59997558594</ele>
        <time>2022-11-01T10:37:15.000Z</time>
      </trkpt>
      <trkpt lat="48.06554" lon="6.94935">
        <ele>775</ele>
        <time>2022-11-01T10:37:19.000Z</time>
      </trkpt>
      <trkpt lat="48.06554" lon="6.94936">
        <ele>775.19995117188</ele>
        <time>2022-11-01T10:37:21.000Z</time>
      </trkpt>
      <trkpt lat="48.0655" lon="6.94936">
        <ele>776</ele>
        <time>2022-11-01T10:37:26.000Z</time>
      </trkpt>
      <trkpt lat="48.06546" lon="6.94938">
        <ele>776.40002441406</ele>
        <time>2022-11-01T10:37:29.000Z</time>
      </trkpt>
      <trkpt lat="48.06542" lon="6.94942">
        <ele>776.80004882812</ele>
        <time>2022-11-01T10:37:32.000Z</time>
      </trkpt>
      <trkpt lat="48.06534" lon="6.94945">
        <ele>777.40002441406</ele>
        <time>2022-11-01T10:37:37.000Z</time>
      </trkpt>
      <trkpt lat="48.06532" lon="6.94944">
        <ele>778</ele>
        <time>2022-11-01T10:37:41.000Z</time>
      </trkpt>
      <trkpt lat="48.06527" lon="6.94949">
        <ele>778.59997558594</ele>
        <time>2022-11-01T10:37:46.000Z</time>
      </trkpt>
      <trkpt lat="48.06526" lon="6.9495">
        <ele>778.80004882812</ele>
        <time>2022-11-01T10:37:47.000Z</time>
      </trkpt>
      <trkpt lat="48.06521" lon="6.94951">
        <ele>779.19995117188</ele>
        <time>2022-11-01T10:37:51.000Z</time>
      </trkpt>
      <trkpt lat="48.06519" lon="6.94952">
        <ele>779.59997558594</ele>
        <time>2022-11-01T10:37:53.000Z</time>
      </trkpt>
      <trkpt lat="48.06516" lon="6.94954">
        <ele>780.19995117188</ele>
        <time>2022-11-01T10:37:58.000Z</time>
      </trkpt>
      <trkpt lat="48.06514" lon="6.94954">
        <ele>780.19995117188</ele>
        <time>2022-11-01T10:37:59.000Z</time>
      </trkpt>
      <trkpt lat="48.06511" lon="6.94956">
        <ele>780.59997558594</ele>
        <time>2022-11-01T10:38:02.000Z</time>
      </trkpt>
      <trkpt lat="48.06507" lon="6.94959">
        <ele>781.19995117188</ele>
        <time>2022-11-01T10:38:06.000Z</time>
      </trkpt>
      <trkpt lat="48.06504" lon="6.94961">
        <ele>781.80004882812</ele>
        <time>2022-11-01T10:38:11.000Z</time>
      </trkpt>
      <trkpt lat="48.06503" lon="6.9496">
        <ele>782.19995117188</ele>
        <time>2022-11-01T10:38:13.000Z</time>
      </trkpt>
      <trkpt lat="48.06499" lon="6.9496">
        <ele>783</ele>
        <time>2022-11-01T10:38:17.000Z</time>
      </trkpt>
      <trkpt lat="48.06499" lon="6.9496">
        <ele>783</ele>
        <time>2022-11-01T10:38:18.000Z</time>
      </trkpt>
      <trkpt lat="48.06495" lon="6.94964">
        <ele>783.80004882812</ele>
        <time>2022-11-01T10:38:24.000Z</time>
      </trkpt>
      <trkpt lat="48.06495" lon="6.94964">
        <ele>784</ele>
        <time>2022-11-01T10:38:25.000Z</time>
      </trkpt>
      <trkpt lat="48.06491" lon="6.94968">
        <ele>784.59997558594</ele>
        <time>2022-11-01T10:38:30.000Z</time>
      </trkpt>
      <trkpt lat="48.06489" lon="6.9497">
        <ele>785</ele>
        <time>2022-11-01T10:38:33.000Z</time>
      </trkpt>
      <trkpt lat="48.06486" lon="6.94973">
        <ele>785.59997558594</ele>
        <time>2022-11-01T10:38:36.000Z</time>
      </trkpt>
      <trkpt lat="48.06482" lon="6.9498">
        <ele>786</ele>
        <time>2022-11-01T10:38:43.000Z</time>
      </trkpt>
      <trkpt lat="48.06482" lon="6.94979">
        <ele>786</ele>
        <time>2022-11-01T10:38:44.000Z</time>
      </trkpt>
      <trkpt lat="48.06479" lon="6.94975">
        <ele>786.59997558594</ele>
        <time>2022-11-01T10:38:49.000Z</time>
      </trkpt>
      <trkpt lat="48.06478" lon="6.94975">
        <ele>786.80004882812</ele>
        <time>2022-11-01T10:38:50.000Z</time>
      </trkpt>
      <trkpt lat="48.06475" lon="6.94978">
        <ele>787.19995117188</ele>
        <time>2022-11-01T10:38:55.000Z</time>
      </trkpt>
      <trkpt lat="48.06474" lon="6.94979">
        <ele>787.19995117188</ele>
        <time>2022-11-01T10:38:56.000Z</time>
      </trkpt>
      <trkpt lat="48.0647" lon="6.9498">
        <ele>788</ele>
        <time>2022-11-01T10:39:03.000Z</time>
      </trkpt>
      <trkpt lat="48.0647" lon="6.94979">
        <ele>788.19995117188</ele>
        <time>2022-11-01T10:39:04.000Z</time>
      </trkpt>
      <trkpt lat="48.0647" lon="6.94978">
        <ele>788.19995117188</ele>
        <time>2022-11-01T10:39:05.000Z</time>
      </trkpt>
      <trkpt lat="48.06469" lon="6.94977">
        <ele>788.40002441406</ele>
        <time>2022-11-01T10:39:07.000Z</time>
      </trkpt>
      <trkpt lat="48.06464" lon="6.9498">
        <ele>789</ele>
        <time>2022-11-01T10:39:13.000Z</time>
      </trkpt>
      <trkpt lat="48.06463" lon="6.94981">
        <ele>789.40002441406</ele>
        <time>2022-11-01T10:39:15.000Z</time>
      </trkpt>
      <trkpt lat="48.06464" lon="6.94979">
        <ele>790</ele>
        <time>2022-11-01T10:39:19.000Z</time>
      </trkpt>
      <trkpt lat="48.06469" lon="6.94974">
        <ele>790.19995117188</ele>
        <time>2022-11-01T10:39:25.000Z</time>
      </trkpt>
      <trkpt lat="48.0647" lon="6.94973">
        <ele>790.40002441406</ele>
        <time>2022-11-01T10:39:29.000Z</time>
      </trkpt>
      <trkpt lat="48.06471" lon="6.94974">
        <ele>790.40002441406</ele>
        <time>2022-11-01T10:39:30.000Z</time>
      </trkpt>
      <trkpt lat="48.06471" lon="6.94974">
        <ele>790.40002441406</ele>
        <time>2022-11-01T10:39:38.000Z</time>
      </trkpt>
      <trkpt lat="48.06471" lon="6.94974">
        <ele>790.40002441406</ele>
        <time>2022-11-01T10:39:46.000Z</time>
      </trkpt>
      <trkpt lat="48.06471" lon="6.94974">
        <ele>790.40002441406</ele>
        <time>2022-11-01T10:39:49.000Z</time>
      </trkpt>
      <trkpt lat="48.06472" lon="6.94973">
        <ele>790.40002441406</ele>
        <time>2022-11-01T10:39:51.000Z</time>
      </trkpt>
      <trkpt lat="48.06472" lon="6.94973">
        <ele>790.40002441406</ele>
        <time>2022-11-01T10:39:54.000Z</time>
      </trkpt>
      <trkpt lat="48.06472" lon="6.94971">
        <ele>790.40002441406</ele>
        <time>2022-11-01T10:39:58.000Z</time>
      </trkpt>
      <trkpt lat="48.06473" lon="6.94967">
        <ele>790.59997558594</ele>
        <time>2022-11-01T10:40:16.000Z</time>
      </trkpt>
      <trkpt lat="48.06473" lon="6.94967">
        <ele>791</ele>
        <time>2022-11-01T10:40:21.000Z</time>
      </trkpt>
      <trkpt lat="48.06473" lon="6.94967">
        <ele>791.59997558594</ele>
        <time>2022-11-01T10:40:25.000Z</time>
      </trkpt>
      <trkpt lat="48.06475" lon="6.94969">
        <ele>792.59997558594</ele>
        <time>2022-11-01T10:40:36.000Z</time>
      </trkpt>
      <trkpt lat="48.06476" lon="6.94971">
        <ele>792.80004882812</ele>
        <time>2022-11-01T10:40:38.000Z</time>
      </trkpt>
      <trkpt lat="48.06476" lon="6.94974">
        <ele>793.19995117188</ele>
        <time>2022-11-01T10:40:42.000Z</time>
      </trkpt>
      <trkpt lat="48.06477" lon="6.94975">
        <ele>793.59997558594</ele>
        <time>2022-11-01T10:40:44.000Z</time>
      </trkpt>
      <trkpt lat="48.06477" lon="6.94979">
        <ele>794.40002441406</ele>
        <time>2022-11-01T10:40:50.000Z</time>
      </trkpt>
      <trkpt lat="48.06477" lon="6.9498">
        <ele>794.59997558594</ele>
        <time>2022-11-01T10:40:51.000Z</time>
      </trkpt>
      <trkpt lat="48.06474" lon="6.94988">
        <ele>795.59997558594</ele>
        <time>2022-11-01T10:40:58.000Z</time>
      </trkpt>
      <trkpt lat="48.06469" lon="6.94999">
        <ele>796.19995117188</ele>
        <time>2022-11-01T10:41:02.000Z</time>
      </trkpt>
      <trkpt lat="48.06466" lon="6.95004">
        <ele>796.80004882812</ele>
        <time>2022-11-01T10:41:05.000Z</time>
      </trkpt>
      <trkpt lat="48.06466" lon="6.95005">
        <ele>797</ele>
        <time>2022-11-01T10:41:07.000Z</time>
      </trkpt>
      <trkpt lat="48.06469" lon="6.95007">
        <ele>797.59997558594</ele>
        <time>2022-11-01T10:41:11.000Z</time>
      </trkpt>
      <trkpt lat="48.06469" lon="6.95009">
        <ele>798</ele>
        <time>2022-11-01T10:41:13.000Z</time>
      </trkpt>
      <trkpt lat="48.06469" lon="6.95011">
        <ele>798.59997558594</ele>
        <time>2022-11-01T10:41:17.000Z</time>
      </trkpt>
      <trkpt lat="48.06467" lon="6.95014">
        <ele>799</ele>
        <time>2022-11-01T10:41:19.000Z</time>
      </trkpt>
      <trkpt lat="48.06465" lon="6.95018">
        <ele>799.59997558594</ele>
        <time>2022-11-01T10:41:23.000Z</time>
      </trkpt>
      <trkpt lat="48.06465" lon="6.9502">
        <ele>799.59997558594</ele>
        <time>2022-11-01T10:41:24.000Z</time>
      </trkpt>
      <trkpt lat="48.06463" lon="6.95022">
        <ele>800</ele>
        <time>2022-11-01T10:41:26.000Z</time>
      </trkpt>
      <trkpt lat="48.06461" lon="6.95025">
        <ele>800.59997558594</ele>
        <time>2022-11-01T10:41:30.000Z</time>
      </trkpt>
      <trkpt lat="48.06452" lon="6.95016">
        <ele>800.80004882812</ele>
        <time>2022-11-01T10:41:35.000Z</time>
      </trkpt>
      <trkpt lat="48.06448" lon="6.95013">
        <ele>800.80004882812</ele>
        <time>2022-11-01T10:41:42.000Z</time>
      </trkpt>
      <trkpt lat="48.06447" lon="6.9501">
        <ele>800.80004882812</ele>
        <time>2022-11-01T10:41:48.000Z</time>
      </trkpt>
      <trkpt lat="48.06447" lon="6.95008">
        <ele>800.80004882812</ele>
        <time>2022-11-01T10:41:49.000Z</time>
      </trkpt>
      <trkpt lat="48.06444" lon="6.95006">
        <ele>800.80004882812</ele>
        <time>2022-11-01T10:41:54.000Z</time>
      </trkpt>
      <trkpt lat="48.06442" lon="6.95007">
        <ele>800.80004882812</ele>
        <time>2022-11-01T10:41:57.000Z</time>
      </trkpt>
      <trkpt lat="48.06442" lon="6.95006">
        <ele>800.80004882812</ele>
        <time>2022-11-01T10:42:04.000Z</time>
      </trkpt>
      <trkpt lat="48.06441" lon="6.95012">
        <ele>800.80004882812</ele>
        <time>2022-11-01T10:42:10.000Z</time>
      </trkpt>
      <trkpt lat="48.06439" lon="6.95015">
        <ele>801</ele>
        <time>2022-11-01T10:42:13.000Z</time>
      </trkpt>
      <trkpt lat="48.06438" lon="6.95017">
        <ele>801.40002441406</ele>
        <time>2022-11-01T10:42:16.000Z</time>
      </trkpt>
      <trkpt lat="48.06439" lon="6.95019">
        <ele>801.59997558594</ele>
        <time>2022-11-01T10:42:18.000Z</time>
      </trkpt>
      <trkpt lat="48.06438" lon="6.9502">
        <ele>801.80004882812</ele>
        <time>2022-11-01T10:42:22.000Z</time>
      </trkpt>
      <trkpt lat="48.06438" lon="6.95022">
        <ele>802.19995117188</ele>
        <time>2022-11-01T10:42:24.000Z</time>
      </trkpt>
      <trkpt lat="48.06436" lon="6.95024">
        <ele>802.19995117188</ele>
        <time>2022-11-01T10:42:27.000Z</time>
      </trkpt>
      <trkpt lat="48.06432" lon="6.95027">
        <ele>803.19995117188</ele>
        <time>2022-11-01T10:42:33.000Z</time>
      </trkpt>
      <trkpt lat="48.06432" lon="6.95029">
        <ele>803.19995117188</ele>
        <time>2022-11-01T10:42:40.000Z</time>
      </trkpt>
      <trkpt lat="48.06433" lon="6.95029">
        <ele>803.19995117188</ele>
        <time>2022-11-01T10:42:43.000Z</time>
      </trkpt>
      <trkpt lat="48.06434" lon="6.95029">
        <ele>803.19995117188</ele>
        <time>2022-11-01T10:42:45.000Z</time>
      </trkpt>
      <trkpt lat="48.06432" lon="6.9503">
        <ele>803</ele>
        <time>2022-11-01T10:42:49.000Z</time>
      </trkpt>
      <trkpt lat="48.06432" lon="6.9503">
        <ele>803.19995117188</ele>
        <time>2022-11-01T10:42:51.000Z</time>
      </trkpt>
      <trkpt lat="48.06432" lon="6.95029">
        <ele>804</ele>
        <time>2022-11-01T10:43:11.000Z</time>
      </trkpt>
      <trkpt lat="48.06431" lon="6.9503">
        <ele>804.40002441406</ele>
        <time>2022-11-01T10:43:16.000Z</time>
      </trkpt>
      <trkpt lat="48.0643" lon="6.9503">
        <ele>805.40002441406</ele>
        <time>2022-11-01T10:43:23.000Z</time>
      </trkpt>
      <trkpt lat="48.06425" lon="6.95034">
        <ele>806.40002441406</ele>
        <time>2022-11-01T10:43:29.000Z</time>
      </trkpt>
      <trkpt lat="48.06425" lon="6.95034">
        <ele>806.59997558594</ele>
        <time>2022-11-01T10:43:30.000Z</time>
      </trkpt>
      <trkpt lat="48.06418" lon="6.95041">
        <ele>807</ele>
        <time>2022-11-01T10:43:36.000Z</time>
      </trkpt>
      <trkpt lat="48.06411" lon="6.95045">
        <ele>807</ele>
        <time>2022-11-01T10:43:42.000Z</time>
      </trkpt>
      <trkpt lat="48.06411" lon="6.95045">
        <ele>807</ele>
        <time>2022-11-01T10:43:43.000Z</time>
      </trkpt>
      <trkpt lat="48.06411" lon="6.95045">
        <ele>807</ele>
        <time>2022-11-01T10:43:52.000Z</time>
      </trkpt>
      <trkpt lat="48.06411" lon="6.95045">
        <ele>808.19995117188</ele>
        <time>2022-11-01T10:44:03.000Z</time>
      </trkpt>
      <trkpt lat="48.06411" lon="6.95045">
        <ele>808.59997558594</ele>
        <time>2022-11-01T10:44:06.000Z</time>
      </trkpt>
      <trkpt lat="48.06411" lon="6.95045">
        <ele>808.80004882812</ele>
        <time>2022-11-01T10:44:09.000Z</time>
      </trkpt>
      <trkpt lat="48.06408" lon="6.95046">
        <ele>809.40002441406</ele>
        <time>2022-11-01T10:44:14.000Z</time>
      </trkpt>
      <trkpt lat="48.06408" lon="6.95046">
        <ele>809.59997558594</ele>
        <time>2022-11-01T10:44:15.000Z</time>
      </trkpt>
      <trkpt lat="48.06406" lon="6.95047">
        <ele>810.80004882812</ele>
        <time>2022-11-01T10:44:24.000Z</time>
      </trkpt>
      <trkpt lat="48.06405" lon="6.9505">
        <ele>811.80004882812</ele>
        <time>2022-11-01T10:44:29.000Z</time>
      </trkpt>
      <trkpt lat="48.06404" lon="6.95051">
        <ele>812.40002441406</ele>
        <time>2022-11-01T10:44:33.000Z</time>
      </trkpt>
      <trkpt lat="48.06402" lon="6.95056">
        <ele>813</ele>
        <time>2022-11-01T10:44:37.000Z</time>
      </trkpt>
      <trkpt lat="48.06399" lon="6.95057">
        <ele>814</ele>
        <time>2022-11-01T10:44:44.000Z</time>
      </trkpt>
      <trkpt lat="48.06395" lon="6.95065">
        <ele>815.19995117188</ele>
        <time>2022-11-01T10:44:52.000Z</time>
      </trkpt>
      <trkpt lat="48.06392" lon="6.95069">
        <ele>816.19995117188</ele>
        <time>2022-11-01T10:45:00.000Z</time>
      </trkpt>
      <trkpt lat="48.06387" lon="6.95076">
        <ele>816.40002441406</ele>
        <time>2022-11-01T10:45:15.000Z</time>
      </trkpt>
      <trkpt lat="48.06385" lon="6.95078">
        <ele>816.80004882812</ele>
        <time>2022-11-01T10:45:19.000Z</time>
      </trkpt>
      <trkpt lat="48.06383" lon="6.95079">
        <ele>817.19995117188</ele>
        <time>2022-11-01T10:45:23.000Z</time>
      </trkpt>
      <trkpt lat="48.06382" lon="6.9508">
        <ele>818.40002441406</ele>
        <time>2022-11-01T10:45:30.000Z</time>
      </trkpt>
      <trkpt lat="48.06379" lon="6.95088">
        <ele>819.19995117188</ele>
        <time>2022-11-01T10:45:58.000Z</time>
      </trkpt>
      <trkpt lat="48.06379" lon="6.95088">
        <ele>819.19995117188</ele>
        <time>2022-11-01T10:46:01.000Z</time>
      </trkpt>
      <trkpt lat="48.06379" lon="6.95088">
        <ele>819.19995117188</ele>
        <time>2022-11-01T10:46:03.000Z</time>
      </trkpt>
      <trkpt lat="48.06379" lon="6.95088">
        <ele>819.19995117188</ele>
        <time>2022-11-01T10:46:06.000Z</time>
      </trkpt>
      <trkpt lat="48.06379" lon="6.95088">
        <ele>819.40002441406</ele>
        <time>2022-11-01T10:46:11.000Z</time>
      </trkpt>
      <trkpt lat="48.06379" lon="6.95088">
        <ele>820.40002441406</ele>
        <time>2022-11-01T10:46:23.000Z</time>
      </trkpt>
      <trkpt lat="48.06375" lon="6.95094">
        <ele>821.19995117188</ele>
        <time>2022-11-01T10:46:29.000Z</time>
      </trkpt>
      <trkpt lat="48.0637" lon="6.95104">
        <ele>821.59997558594</ele>
        <time>2022-11-01T10:46:33.000Z</time>
      </trkpt>
      <trkpt lat="48.06369" lon="6.9511">
        <ele>821.80004882812</ele>
        <time>2022-11-01T10:46:35.000Z</time>
      </trkpt>
      <trkpt lat="48.06365" lon="6.95115">
        <ele>822.19995117188</ele>
        <time>2022-11-01T10:46:40.000Z</time>
      </trkpt>
      <trkpt lat="48.06365" lon="6.95117">
        <ele>822.59997558594</ele>
        <time>2022-11-01T10:46:42.000Z</time>
      </trkpt>
      <trkpt lat="48.06366" lon="6.95119">
        <ele>822.80004882812</ele>
        <time>2022-11-01T10:46:45.000Z</time>
      </trkpt>
      <trkpt lat="48.06368" lon="6.95121">
        <ele>823.40002441406</ele>
        <time>2022-11-01T10:46:50.000Z</time>
      </trkpt>
      <trkpt lat="48.06368" lon="6.95122">
        <ele>823.59997558594</ele>
        <time>2022-11-01T10:46:52.000Z</time>
      </trkpt>
      <trkpt lat="48.06367" lon="6.95123">
        <ele>824</ele>
        <time>2022-11-01T10:46:55.000Z</time>
      </trkpt>
      <trkpt lat="48.06365" lon="6.95127">
        <ele>824.19995117188</ele>
        <time>2022-11-01T10:47:00.000Z</time>
      </trkpt>
      <trkpt lat="48.06364" lon="6.95131">
        <ele>824.59997558594</ele>
        <time>2022-11-01T10:47:04.000Z</time>
      </trkpt>
      <trkpt lat="48.06364" lon="6.95132">
        <ele>825</ele>
        <time>2022-11-01T10:47:06.000Z</time>
      </trkpt>
      <trkpt lat="48.06357" lon="6.9514">
        <ele>825.80004882812</ele>
        <time>2022-11-01T10:47:13.000Z</time>
      </trkpt>
      <trkpt lat="48.06356" lon="6.95141">
        <ele>826</ele>
        <time>2022-11-01T10:47:14.000Z</time>
      </trkpt>
      <trkpt lat="48.06353" lon="6.95145">
        <ele>826.80004882812</ele>
        <time>2022-11-01T10:47:20.000Z</time>
      </trkpt>
      <trkpt lat="48.06352" lon="6.95146">
        <ele>827</ele>
        <time>2022-11-01T10:47:21.000Z</time>
      </trkpt>
      <trkpt lat="48.0635" lon="6.9515">
        <ele>828</ele>
        <time>2022-11-01T10:47:27.000Z</time>
      </trkpt>
      <trkpt lat="48.0635" lon="6.95151">
        <ele>828</ele>
        <time>2022-11-01T10:47:28.000Z</time>
      </trkpt>
      <trkpt lat="48.06347" lon="6.95155">
        <ele>828.80004882812</ele>
        <time>2022-11-01T10:47:34.000Z</time>
      </trkpt>
      <trkpt lat="48.06346" lon="6.95156">
        <ele>829</ele>
        <time>2022-11-01T10:47:35.000Z</time>
      </trkpt>
      <trkpt lat="48.06345" lon="6.95158">
        <ele>829.40002441406</ele>
        <time>2022-11-01T10:47:39.000Z</time>
      </trkpt>
      <trkpt lat="48.06346" lon="6.95162">
        <ele>830</ele>
        <time>2022-11-01T10:47:43.000Z</time>
      </trkpt>
      <trkpt lat="48.06346" lon="6.95163">
        <ele>830.19995117188</ele>
        <time>2022-11-01T10:47:44.000Z</time>
      </trkpt>
      <trkpt lat="48.06346" lon="6.95164">
        <ele>830.40002441406</ele>
        <time>2022-11-01T10:47:46.000Z</time>
      </trkpt>
      <trkpt lat="48.06346" lon="6.95166">
        <ele>830.59997558594</ele>
        <time>2022-11-01T10:47:48.000Z</time>
      </trkpt>
      <trkpt lat="48.06344" lon="6.9517">
        <ele>831.19995117188</ele>
        <time>2022-11-01T10:47:52.000Z</time>
      </trkpt>
      <trkpt lat="48.06344" lon="6.95172">
        <ele>831.59997558594</ele>
        <time>2022-11-01T10:47:55.000Z</time>
      </trkpt>
      <trkpt lat="48.06341" lon="6.95173">
        <ele>832.19995117188</ele>
        <time>2022-11-01T10:47:58.000Z</time>
      </trkpt>
      <trkpt lat="48.0634" lon="6.95174">
        <ele>832.59997558594</ele>
        <time>2022-11-01T10:48:01.000Z</time>
      </trkpt>
      <trkpt lat="48.06336" lon="6.95181">
        <ele>833.19995117188</ele>
        <time>2022-11-01T10:48:06.000Z</time>
      </trkpt>
      <trkpt lat="48.06336" lon="6.95182">
        <ele>833.19995117188</ele>
        <time>2022-11-01T10:48:07.000Z</time>
      </trkpt>
      <trkpt lat="48.06338" lon="6.95188">
        <ele>834.19995117188</ele>
        <time>2022-11-01T10:48:13.000Z</time>
      </trkpt>
      <trkpt lat="48.06338" lon="6.95189">
        <ele>834.19995117188</ele>
        <time>2022-11-01T10:48:14.000Z</time>
      </trkpt>
      <trkpt lat="48.06338" lon="6.95191">
        <ele>834.59997558594</ele>
        <time>2022-11-01T10:48:17.000Z</time>
      </trkpt>
      <trkpt lat="48.06335" lon="6.95185">
        <ele>834.80004882812</ele>
        <time>2022-11-01T10:48:24.000Z</time>
      </trkpt>
      <trkpt lat="48.06335" lon="6.95185">
        <ele>834.80004882812</ele>
        <time>2022-11-01T10:48:41.000Z</time>
      </trkpt>
      <trkpt lat="48.06334" lon="6.95183">
        <ele>834.80004882812</ele>
        <time>2022-11-01T10:48:45.000Z</time>
      </trkpt>
      <trkpt lat="48.06335" lon="6.95184">
        <ele>834.80004882812</ele>
        <time>2022-11-01T10:48:49.000Z</time>
      </trkpt>
      <trkpt lat="48.06336" lon="6.95187">
        <ele>834.80004882812</ele>
        <time>2022-11-01T10:48:52.000Z</time>
      </trkpt>
      <trkpt lat="48.06339" lon="6.95196">
        <ele>835</ele>
        <time>2022-11-01T10:48:59.000Z</time>
      </trkpt>
      <trkpt lat="48.06337" lon="6.95205">
        <ele>835</ele>
        <time>2022-11-01T10:49:05.000Z</time>
      </trkpt>
      <trkpt lat="48.06336" lon="6.95208">
        <ele>835</ele>
        <time>2022-11-01T10:49:06.000Z</time>
      </trkpt>
      <trkpt lat="48.06334" lon="6.95212">
        <ele>835</ele>
        <time>2022-11-01T10:49:09.000Z</time>
      </trkpt>
      <trkpt lat="48.06332" lon="6.95215">
        <ele>835</ele>
        <time>2022-11-01T10:49:11.000Z</time>
      </trkpt>
      <trkpt lat="48.06329" lon="6.95219">
        <ele>835.19995117188</ele>
        <time>2022-11-01T10:49:15.000Z</time>
      </trkpt>
      <trkpt lat="48.06327" lon="6.95226">
        <ele>835.19995117188</ele>
        <time>2022-11-01T10:49:19.000Z</time>
      </trkpt>
      <trkpt lat="48.06321" lon="6.95238">
        <ele>835.19995117188</ele>
        <time>2022-11-01T10:49:26.000Z</time>
      </trkpt>
      <trkpt lat="48.06317" lon="6.95242">
        <ele>835.40002441406</ele>
        <time>2022-11-01T10:49:29.000Z</time>
      </trkpt>
      <trkpt lat="48.06314" lon="6.95246">
        <ele>835.59997558594</ele>
        <time>2022-11-01T10:49:37.000Z</time>
      </trkpt>
      <trkpt lat="48.06312" lon="6.95251">
        <ele>835.59997558594</ele>
        <time>2022-11-01T10:49:42.000Z</time>
      </trkpt>
      <trkpt lat="48.06303" lon="6.9526">
        <ele>835.59997558594</ele>
        <time>2022-11-01T10:49:48.000Z</time>
      </trkpt>
      <trkpt lat="48.06295" lon="6.95271">
        <ele>835.40002441406</ele>
        <time>2022-11-01T10:49:54.000Z</time>
      </trkpt>
      <trkpt lat="48.06295" lon="6.95274">
        <ele>835.19995117188</ele>
        <time>2022-11-01T10:49:59.000Z</time>
      </trkpt>
      <trkpt lat="48.06294" lon="6.9528">
        <ele>835.19995117188</ele>
        <time>2022-11-01T10:50:03.000Z</time>
      </trkpt>
      <trkpt lat="48.06291" lon="6.95282">
        <ele>835</ele>
        <time>2022-11-01T10:50:07.000Z</time>
      </trkpt>
      <trkpt lat="48.06291" lon="6.95281">
        <ele>834.59997558594</ele>
        <time>2022-11-01T10:50:11.000Z</time>
      </trkpt>
      <trkpt lat="48.06291" lon="6.95282">
        <ele>834.19995117188</ele>
        <time>2022-11-01T10:50:15.000Z</time>
      </trkpt>
      <trkpt lat="48.06291" lon="6.95282">
        <ele>834</ele>
        <time>2022-11-01T10:50:16.000Z</time>
      </trkpt>
      <trkpt lat="48.06289" lon="6.95285">
        <ele>833.80004882812</ele>
        <time>2022-11-01T10:50:22.000Z</time>
      </trkpt>
      <trkpt lat="48.06286" lon="6.95284">
        <ele>833.19995117188</ele>
        <time>2022-11-01T10:50:27.000Z</time>
      </trkpt>
      <trkpt lat="48.06286" lon="6.95284">
        <ele>833.19995117188</ele>
        <time>2022-11-01T10:50:28.000Z</time>
      </trkpt>
      <trkpt lat="48.06284" lon="6.95285">
        <ele>832.80004882812</ele>
        <time>2022-11-01T10:50:33.000Z</time>
      </trkpt>
      <trkpt lat="48.06286" lon="6.95285">
        <ele>832.80004882812</ele>
        <time>2022-11-01T10:50:37.000Z</time>
      </trkpt>
      <trkpt lat="48.06283" lon="6.95285">
        <ele>832.80004882812</ele>
        <time>2022-11-01T10:50:42.000Z</time>
      </trkpt>
      <trkpt lat="48.06282" lon="6.95286">
        <ele>832.80004882812</ele>
        <time>2022-11-01T10:50:46.000Z</time>
      </trkpt>
      <trkpt lat="48.06284" lon="6.95288">
        <ele>832.80004882812</ele>
        <time>2022-11-01T10:50:51.000Z</time>
      </trkpt>
      <trkpt lat="48.06287" lon="6.95287">
        <ele>833</ele>
        <time>2022-11-01T10:50:57.000Z</time>
      </trkpt>
      <trkpt lat="48.06286" lon="6.95289">
        <ele>833.19995117188</ele>
        <time>2022-11-01T10:51:01.000Z</time>
      </trkpt>
      <trkpt lat="48.06285" lon="6.9529">
        <ele>833.59997558594</ele>
        <time>2022-11-01T10:51:04.000Z</time>
      </trkpt>
      <trkpt lat="48.06284" lon="6.95292">
        <ele>834.19995117188</ele>
        <time>2022-11-01T10:51:07.000Z</time>
      </trkpt>
      <trkpt lat="48.06284" lon="6.95293">
        <ele>834.19995117188</ele>
        <time>2022-11-01T10:51:08.000Z</time>
      </trkpt>
      <trkpt lat="48.06283" lon="6.95295">
        <ele>834.59997558594</ele>
        <time>2022-11-01T10:51:18.000Z</time>
      </trkpt>
      <trkpt lat="48.06287" lon="6.95297">
        <ele>834.59997558594</ele>
        <time>2022-11-01T10:51:24.000Z</time>
      </trkpt>
      <trkpt lat="48.06283" lon="6.95299">
        <ele>834.19995117188</ele>
        <time>2022-11-01T10:51:30.000Z</time>
      </trkpt>
      <trkpt lat="48.06282" lon="6.95299">
        <ele>833.59997558594</ele>
        <time>2022-11-01T10:51:34.000Z</time>
      </trkpt>
      <trkpt lat="48.06282" lon="6.95299">
        <ele>833.59997558594</ele>
        <time>2022-11-01T10:51:39.000Z</time>
      </trkpt>
      <trkpt lat="48.06279" lon="6.95299">
        <ele>834.19995117188</ele>
        <time>2022-11-01T10:51:44.000Z</time>
      </trkpt>
      <trkpt lat="48.06276" lon="6.95303">
        <ele>834.40002441406</ele>
        <time>2022-11-01T10:51:48.000Z</time>
      </trkpt>
      <trkpt lat="48.06276" lon="6.95303">
        <ele>834.59997558594</ele>
        <time>2022-11-01T10:51:54.000Z</time>
      </trkpt>
      <trkpt lat="48.06278" lon="6.95303">
        <ele>834.59997558594</ele>
        <time>2022-11-01T10:51:59.000Z</time>
      </trkpt>
      <trkpt lat="48.06278" lon="6.95303">
        <ele>834.40002441406</ele>
        <time>2022-11-01T10:52:03.000Z</time>
      </trkpt>
      <trkpt lat="48.06276" lon="6.95299">
        <ele>834.40002441406</ele>
        <time>2022-11-01T10:52:10.000Z</time>
      </trkpt>
      <trkpt lat="48.06274" lon="6.953">
        <ele>834.40002441406</ele>
        <time>2022-11-01T10:52:17.000Z</time>
      </trkpt>
      <trkpt lat="48.06273" lon="6.95297">
        <ele>834.40002441406</ele>
        <time>2022-11-01T10:52:21.000Z</time>
      </trkpt>
      <trkpt lat="48.06271" lon="6.95299">
        <ele>834.40002441406</ele>
        <time>2022-11-01T10:52:25.000Z</time>
      </trkpt>
      <trkpt lat="48.0627" lon="6.95299">
        <ele>835.19995117188</ele>
        <time>2022-11-01T10:52:41.000Z</time>
      </trkpt>
      <trkpt lat="48.06272" lon="6.95301">
        <ele>835.40002441406</ele>
        <time>2022-11-01T10:52:46.000Z</time>
      </trkpt>
      <trkpt lat="48.06272" lon="6.95303">
        <ele>835.40002441406</ele>
        <time>2022-11-01T10:52:50.000Z</time>
      </trkpt>
      <trkpt lat="48.06273" lon="6.95307">
        <ele>835.40002441406</ele>
        <time>2022-11-01T10:52:57.000Z</time>
      </trkpt>
      <trkpt lat="48.0627" lon="6.9531">
        <ele>835.40002441406</ele>
        <time>2022-11-01T10:53:02.000Z</time>
      </trkpt>
      <trkpt lat="48.06268" lon="6.9531">
        <ele>835.40002441406</ele>
        <time>2022-11-01T10:53:03.000Z</time>
      </trkpt>
      <trkpt lat="48.06267" lon="6.95312">
        <ele>835.40002441406</ele>
        <time>2022-11-01T10:53:06.000Z</time>
      </trkpt>
      <trkpt lat="48.06266" lon="6.95314">
        <ele>835.19995117188</ele>
        <time>2022-11-01T10:53:12.000Z</time>
      </trkpt>
      <trkpt lat="48.06265" lon="6.95315">
        <ele>834.80004882812</ele>
        <time>2022-11-01T10:53:17.000Z</time>
      </trkpt>
      <trkpt lat="48.06264" lon="6.95318">
        <ele>834.80004882812</ele>
        <time>2022-11-01T10:53:22.000Z</time>
      </trkpt>
      <trkpt lat="48.06266" lon="6.95321">
        <ele>834.40002441406</ele>
        <time>2022-11-01T10:53:27.000Z</time>
      </trkpt>
      <trkpt lat="48.06266" lon="6.95324">
        <ele>834.40002441406</ele>
        <time>2022-11-01T10:53:32.000Z</time>
      </trkpt>
      <trkpt lat="48.06267" lon="6.95327">
        <ele>834.59997558594</ele>
        <time>2022-11-01T10:53:38.000Z</time>
      </trkpt>
      <trkpt lat="48.06268" lon="6.95326">
        <ele>835</ele>
        <time>2022-11-01T10:53:43.000Z</time>
      </trkpt>
      <trkpt lat="48.06271" lon="6.95328">
        <ele>834.80004882812</ele>
        <time>2022-11-01T10:53:49.000Z</time>
      </trkpt>
      <trkpt lat="48.06271" lon="6.95328">
        <ele>834.40002441406</ele>
        <time>2022-11-01T10:54:03.000Z</time>
      </trkpt>
      <trkpt lat="48.06266" lon="6.95339">
        <ele>834.40002441406</ele>
        <time>2022-11-01T10:54:09.000Z</time>
      </trkpt>
      <trkpt lat="48.06264" lon="6.95343">
        <ele>834.59997558594</ele>
        <time>2022-11-01T10:54:13.000Z</time>
      </trkpt>
      <trkpt lat="48.06258" lon="6.95349">
        <ele>834.80004882812</ele>
        <time>2022-11-01T10:54:18.000Z</time>
      </trkpt>
      <trkpt lat="48.06254" lon="6.95357">
        <ele>835.40002441406</ele>
        <time>2022-11-01T10:54:25.000Z</time>
      </trkpt>
      <trkpt lat="48.06248" lon="6.95359">
        <ele>835.80004882812</ele>
        <time>2022-11-01T10:54:30.000Z</time>
      </trkpt>
      <trkpt lat="48.06238" lon="6.95372">
        <ele>836</ele>
        <time>2022-11-01T10:54:38.000Z</time>
      </trkpt>
      <trkpt lat="48.06236" lon="6.95372">
        <ele>836</ele>
        <time>2022-11-01T10:54:44.000Z</time>
      </trkpt>
      <trkpt lat="48.06233" lon="6.95369">
        <ele>835.80004882812</ele>
        <time>2022-11-01T10:54:50.000Z</time>
      </trkpt>
      <trkpt lat="48.06232" lon="6.95369">
        <ele>835.80004882812</ele>
        <time>2022-11-01T10:54:51.000Z</time>
      </trkpt>
      <trkpt lat="48.0623" lon="6.95369">
        <ele>835.80004882812</ele>
        <time>2022-11-01T10:54:58.000Z</time>
      </trkpt>
      <trkpt lat="48.0623" lon="6.95367">
        <ele>835.80004882812</ele>
        <time>2022-11-01T10:55:03.000Z</time>
      </trkpt>
      <trkpt lat="48.06232" lon="6.95364">
        <ele>835.80004882812</ele>
        <time>2022-11-01T10:55:06.000Z</time>
      </trkpt>
      <trkpt lat="48.06236" lon="6.95364">
        <ele>835.80004882812</ele>
        <time>2022-11-01T10:55:12.000Z</time>
      </trkpt>
      <trkpt lat="48.06235" lon="6.95361">
        <ele>835.80004882812</ele>
        <time>2022-11-01T10:55:21.000Z</time>
      </trkpt>
      <trkpt lat="48.06236" lon="6.95361">
        <ele>835.80004882812</ele>
        <time>2022-11-01T10:55:27.000Z</time>
      </trkpt>
      <trkpt lat="48.06236" lon="6.95361">
        <ele>835.80004882812</ele>
        <time>2022-11-01T10:55:34.000Z</time>
      </trkpt>
      <trkpt lat="48.06235" lon="6.95361">
        <ele>835.80004882812</ele>
        <time>2022-11-01T10:55:46.000Z</time>
      </trkpt>
      <trkpt lat="48.06234" lon="6.95361">
        <ele>838.80004882812</ele>
        <time>2022-11-01T10:55:55.000Z</time>
      </trkpt>
      <trkpt lat="48.06232" lon="6.95365">
        <ele>838.40002441406</ele>
        <time>2022-11-01T10:55:59.000Z</time>
      </trkpt>
      <trkpt lat="48.06231" lon="6.95368">
        <ele>837.80004882812</ele>
        <time>2022-11-01T10:56:01.000Z</time>
      </trkpt>
      <trkpt lat="48.06229" lon="6.95372">
        <ele>837.59997558594</ele>
        <time>2022-11-01T10:56:05.000Z</time>
      </trkpt>
      <trkpt lat="48.06225" lon="6.95377">
        <ele>838.19995117188</ele>
        <time>2022-11-01T10:56:11.000Z</time>
      </trkpt>
      <trkpt lat="48.06222" lon="6.95379">
        <ele>838.80004882812</ele>
        <time>2022-11-01T10:56:15.000Z</time>
      </trkpt>
      <trkpt lat="48.06222" lon="6.95381">
        <ele>838.80004882812</ele>
        <time>2022-11-01T10:56:19.000Z</time>
      </trkpt>
      <trkpt lat="48.06219" lon="6.95385">
        <ele>838.80004882812</ele>
        <time>2022-11-01T10:56:23.000Z</time>
      </trkpt>
      <trkpt lat="48.06218" lon="6.95386">
        <ele>839</ele>
        <time>2022-11-01T10:56:24.000Z</time>
      </trkpt>
      <trkpt lat="48.06218" lon="6.95388">
        <ele>839.40002441406</ele>
        <time>2022-11-01T10:56:28.000Z</time>
      </trkpt>
      <trkpt lat="48.06213" lon="6.95392">
        <ele>840</ele>
        <time>2022-11-01T10:56:34.000Z</time>
      </trkpt>
      <trkpt lat="48.06213" lon="6.95396">
        <ele>840.19995117188</ele>
        <time>2022-11-01T10:56:37.000Z</time>
      </trkpt>
      <trkpt lat="48.06211" lon="6.95398">
        <ele>840.19995117188</ele>
        <time>2022-11-01T10:56:39.000Z</time>
      </trkpt>
      <trkpt lat="48.0621" lon="6.95402">
        <ele>840.80004882812</ele>
        <time>2022-11-01T10:56:43.000Z</time>
      </trkpt>
      <trkpt lat="48.06208" lon="6.95404">
        <ele>841.19995117188</ele>
        <time>2022-11-01T10:56:45.000Z</time>
      </trkpt>
      <trkpt lat="48.06212" lon="6.95407">
        <ele>841.59997558594</ele>
        <time>2022-11-01T10:56:50.000Z</time>
      </trkpt>
      <trkpt lat="48.06213" lon="6.95409">
        <ele>841.80004882812</ele>
        <time>2022-11-01T10:56:52.000Z</time>
      </trkpt>
      <trkpt lat="48.06212" lon="6.9541">
        <ele>842</ele>
        <time>2022-11-01T10:56:55.000Z</time>
      </trkpt>
      <trkpt lat="48.06212" lon="6.95412">
        <ele>842.19995117188</ele>
        <time>2022-11-01T10:56:59.000Z</time>
      </trkpt>
      <trkpt lat="48.06208" lon="6.95417">
        <ele>842.40002441406</ele>
        <time>2022-11-01T10:57:05.000Z</time>
      </trkpt>
      <trkpt lat="48.06204" lon="6.9542">
        <ele>842.80004882812</ele>
        <time>2022-11-01T10:57:09.000Z</time>
      </trkpt>
      <trkpt lat="48.06204" lon="6.95422">
        <ele>843</ele>
        <time>2022-11-01T10:57:12.000Z</time>
      </trkpt>
      <trkpt lat="48.06205" lon="6.95423">
        <ele>843.40002441406</ele>
        <time>2022-11-01T10:57:17.000Z</time>
      </trkpt>
      <trkpt lat="48.06204" lon="6.95424">
        <ele>843.59997558594</ele>
        <time>2022-11-01T10:57:25.000Z</time>
      </trkpt>
      <trkpt lat="48.06202" lon="6.95426">
        <ele>843.59997558594</ele>
        <time>2022-11-01T10:57:29.000Z</time>
      </trkpt>
      <trkpt lat="48.06201" lon="6.95428">
        <ele>843.40002441406</ele>
        <time>2022-11-01T10:57:31.000Z</time>
      </trkpt>
      <trkpt lat="48.06195" lon="6.95433">
        <ele>843.80004882812</ele>
        <time>2022-11-01T10:57:37.000Z</time>
      </trkpt>
      <trkpt lat="48.06195" lon="6.95434">
        <ele>843.80004882812</ele>
        <time>2022-11-01T10:57:38.000Z</time>
      </trkpt>
      <trkpt lat="48.06192" lon="6.95438">
        <ele>844.19995117188</ele>
        <time>2022-11-01T10:57:42.000Z</time>
      </trkpt>
      <trkpt lat="48.06191" lon="6.9544">
        <ele>844.59997558594</ele>
        <time>2022-11-01T10:57:46.000Z</time>
      </trkpt>
      <trkpt lat="48.06187" lon="6.95443">
        <ele>844.80004882812</ele>
        <time>2022-11-01T10:57:49.000Z</time>
      </trkpt>
      <trkpt lat="48.06184" lon="6.9545">
        <ele>845.19995117188</ele>
        <time>2022-11-01T10:57:52.000Z</time>
      </trkpt>
      <trkpt lat="48.06176" lon="6.95459">
        <ele>845.59997558594</ele>
        <time>2022-11-01T10:57:56.000Z</time>
      </trkpt>
      <trkpt lat="48.06174" lon="6.9546">
        <ele>845.59997558594</ele>
        <time>2022-11-01T10:57:58.000Z</time>
      </trkpt>
      <trkpt lat="48.06172" lon="6.95462">
        <ele>845.59997558594</ele>
        <time>2022-11-01T10:57:59.000Z</time>
      </trkpt>
      <trkpt lat="48.0617" lon="6.95464">
        <ele>845.80004882812</ele>
        <time>2022-11-01T10:58:01.000Z</time>
      </trkpt>
      <trkpt lat="48.06168" lon="6.95465">
        <ele>846</ele>
        <time>2022-11-01T10:58:02.000Z</time>
      </trkpt>
      <trkpt lat="48.06166" lon="6.95465">
        <ele>846.19995117188</ele>
        <time>2022-11-01T10:58:03.000Z</time>
      </trkpt>
      <trkpt lat="48.06162" lon="6.95468">
        <ele>847.19995117188</ele>
        <time>2022-11-01T10:58:09.000Z</time>
      </trkpt>
      <trkpt lat="48.0616" lon="6.95471">
        <ele>847.80004882812</ele>
        <time>2022-11-01T10:58:13.000Z</time>
      </trkpt>
      <trkpt lat="48.06158" lon="6.95471">
        <ele>847.80004882812</ele>
        <time>2022-11-01T10:58:14.000Z</time>
      </trkpt>
      <trkpt lat="48.06158" lon="6.9547">
        <ele>848</ele>
        <time>2022-11-01T10:58:15.000Z</time>
      </trkpt>
      <trkpt lat="48.06156" lon="6.95471">
        <ele>848.19995117188</ele>
        <time>2022-11-01T10:58:17.000Z</time>
      </trkpt>
      <trkpt lat="48.06156" lon="6.95471">
        <ele>848.40002441406</ele>
        <time>2022-11-01T10:58:19.000Z</time>
      </trkpt>
      <trkpt lat="48.06153" lon="6.95474">
        <ele>849</ele>
        <time>2022-11-01T10:58:24.000Z</time>
      </trkpt>
      <trkpt lat="48.06151" lon="6.95476">
        <ele>849.19995117188</ele>
        <time>2022-11-01T10:58:27.000Z</time>
      </trkpt>
      <trkpt lat="48.06152" lon="6.95475">
        <ele>849.59997558594</ele>
        <time>2022-11-01T10:58:30.000Z</time>
      </trkpt>
      <trkpt lat="48.06153" lon="6.95469">
        <ele>849.59997558594</ele>
        <time>2022-11-01T10:58:37.000Z</time>
      </trkpt>
      <trkpt lat="48.06152" lon="6.95466">
        <ele>849.59997558594</ele>
        <time>2022-11-01T10:58:57.000Z</time>
      </trkpt>
      <trkpt lat="48.06152" lon="6.95461">
        <ele>849.80004882812</ele>
        <time>2022-11-01T10:59:07.000Z</time>
      </trkpt>
      <trkpt lat="48.06149" lon="6.95464">
        <ele>850.19995117188</ele>
        <time>2022-11-01T10:59:12.000Z</time>
      </trkpt>
      <trkpt lat="48.06143" lon="6.95465">
        <ele>849</ele>
        <time>2022-11-01T10:59:17.000Z</time>
      </trkpt>
      <trkpt lat="48.06142" lon="6.95466">
        <ele>849.19995117188</ele>
        <time>2022-11-01T10:59:18.000Z</time>
      </trkpt>
      <trkpt lat="48.06141" lon="6.95467">
        <ele>849.40002441406</ele>
        <time>2022-11-01T10:59:21.000Z</time>
      </trkpt>
      <trkpt lat="48.06139" lon="6.95467">
        <ele>850</ele>
        <time>2022-11-01T10:59:23.000Z</time>
      </trkpt>
      <trkpt lat="48.06138" lon="6.95468">
        <ele>850.19995117188</ele>
        <time>2022-11-01T10:59:25.000Z</time>
      </trkpt>
      <trkpt lat="48.06137" lon="6.9547">
        <ele>850.40002441406</ele>
        <time>2022-11-01T10:59:27.000Z</time>
      </trkpt>
      <trkpt lat="48.06137" lon="6.9547">
        <ele>850.59997558594</ele>
        <time>2022-11-01T10:59:28.000Z</time>
      </trkpt>
      <trkpt lat="48.06136" lon="6.9547">
        <ele>850.80004882812</ele>
        <time>2022-11-01T10:59:29.000Z</time>
      </trkpt>
      <trkpt lat="48.06138" lon="6.95471">
        <ele>851</ele>
        <time>2022-11-01T10:59:32.000Z</time>
      </trkpt>
      <trkpt lat="48.06138" lon="6.95471">
        <ele>851</ele>
        <time>2022-11-01T10:59:34.000Z</time>
      </trkpt>
      <trkpt lat="48.06136" lon="6.95469">
        <ele>851.19995117188</ele>
        <time>2022-11-01T10:59:40.000Z</time>
      </trkpt>
      <trkpt lat="48.06136" lon="6.9547">
        <ele>851.19995117188</ele>
        <time>2022-11-01T10:59:51.000Z</time>
      </trkpt>
      <trkpt lat="48.06135" lon="6.9547">
        <ele>851.19995117188</ele>
        <time>2022-11-01T10:59:53.000Z</time>
      </trkpt>
      <trkpt lat="48.06134" lon="6.95469">
        <ele>851</ele>
        <time>2022-11-01T11:00:04.000Z</time>
      </trkpt>
      <trkpt lat="48.06127" lon="6.95468">
        <ele>851.40002441406</ele>
        <time>2022-11-01T11:00:12.000Z</time>
      </trkpt>
      <trkpt lat="48.06126" lon="6.95468">
        <ele>851.59997558594</ele>
        <time>2022-11-01T11:00:13.000Z</time>
      </trkpt>
      <trkpt lat="48.06123" lon="6.95468">
        <ele>851.59997558594</ele>
        <time>2022-11-01T11:00:15.000Z</time>
      </trkpt>
      <trkpt lat="48.06121" lon="6.95466">
        <ele>852</ele>
        <time>2022-11-01T11:00:17.000Z</time>
      </trkpt>
      <trkpt lat="48.06119" lon="6.95466">
        <ele>852.40002441406</ele>
        <time>2022-11-01T11:00:20.000Z</time>
      </trkpt>
      <trkpt lat="48.06118" lon="6.95465">
        <ele>852.59997558594</ele>
        <time>2022-11-01T11:00:21.000Z</time>
      </trkpt>
      <trkpt lat="48.06117" lon="6.95465">
        <ele>852.59997558594</ele>
        <time>2022-11-01T11:00:22.000Z</time>
      </trkpt>
      <trkpt lat="48.06112" lon="6.95467">
        <ele>853.40002441406</ele>
        <time>2022-11-01T11:00:27.000Z</time>
      </trkpt>
      <trkpt lat="48.0611" lon="6.95468">
        <ele>853.59997558594</ele>
        <time>2022-11-01T11:00:28.000Z</time>
      </trkpt>
      <trkpt lat="48.06108" lon="6.95469">
        <ele>853.59997558594</ele>
        <time>2022-11-01T11:00:29.000Z</time>
      </trkpt>
      <trkpt lat="48.06106" lon="6.95472">
        <ele>853.80004882812</ele>
        <time>2022-11-01T11:00:31.000Z</time>
      </trkpt>
      <trkpt lat="48.06104" lon="6.95474">
        <ele>854</ele>
        <time>2022-11-01T11:00:33.000Z</time>
      </trkpt>
      <trkpt lat="48.06101" lon="6.95475">
        <ele>854.19995117188</ele>
        <time>2022-11-01T11:00:35.000Z</time>
      </trkpt>
      <trkpt lat="48.061" lon="6.95473">
        <ele>854.40002441406</ele>
        <time>2022-11-01T11:00:37.000Z</time>
      </trkpt>
      <trkpt lat="48.061" lon="6.95473">
        <ele>854.59997558594</ele>
        <time>2022-11-01T11:00:38.000Z</time>
      </trkpt>
      <trkpt lat="48.06098" lon="6.95476">
        <ele>854.80004882812</ele>
        <time>2022-11-01T11:00:45.000Z</time>
      </trkpt>
      <trkpt lat="48.06096" lon="6.9548">
        <ele>855.19995117188</ele>
        <time>2022-11-01T11:00:51.000Z</time>
      </trkpt>
      <trkpt lat="48.06096" lon="6.95481">
        <ele>855.40002441406</ele>
        <time>2022-11-01T11:00:52.000Z</time>
      </trkpt>
      <trkpt lat="48.06094" lon="6.95483">
        <ele>856</ele>
        <time>2022-11-01T11:00:57.000Z</time>
      </trkpt>
      <trkpt lat="48.06094" lon="6.95478">
        <ele>856</ele>
        <time>2022-11-01T11:01:04.000Z</time>
      </trkpt>
      <trkpt lat="48.06094" lon="6.95477">
        <ele>856.19995117188</ele>
        <time>2022-11-01T11:01:15.000Z</time>
      </trkpt>
      <trkpt lat="48.06093" lon="6.95478">
        <ele>856.59997558594</ele>
        <time>2022-11-01T11:01:17.000Z</time>
      </trkpt>
      <trkpt lat="48.06092" lon="6.9548">
        <ele>857.40002441406</ele>
        <time>2022-11-01T11:01:21.000Z</time>
      </trkpt>
      <trkpt lat="48.0609" lon="6.95483">
        <ele>857.80004882812</ele>
        <time>2022-11-01T11:01:24.000Z</time>
      </trkpt>
      <trkpt lat="48.06087" lon="6.95486">
        <ele>858.59997558594</ele>
        <time>2022-11-01T11:01:27.000Z</time>
      </trkpt>
      <trkpt lat="48.06084" lon="6.95489">
        <ele>859</ele>
        <time>2022-11-01T11:01:30.000Z</time>
      </trkpt>
      <trkpt lat="48.06083" lon="6.9549">
        <ele>859.59997558594</ele>
        <time>2022-11-01T11:01:35.000Z</time>
      </trkpt>
      <trkpt lat="48.06084" lon="6.95488">
        <ele>859.40002441406</ele>
        <time>2022-11-01T11:01:43.000Z</time>
      </trkpt>
      <trkpt lat="48.06085" lon="6.95487">
        <ele>859.40002441406</ele>
        <time>2022-11-01T11:01:48.000Z</time>
      </trkpt>
      <trkpt lat="48.06086" lon="6.95488">
        <ele>859.40002441406</ele>
        <time>2022-11-01T11:01:53.000Z</time>
      </trkpt>
      <trkpt lat="48.06081" lon="6.95495">
        <ele>859.40002441406</ele>
        <time>2022-11-01T11:01:58.000Z</time>
      </trkpt>
      <trkpt lat="48.0608" lon="6.95498">
        <ele>860</ele>
        <time>2022-11-01T11:02:02.000Z</time>
      </trkpt>
      <trkpt lat="48.0608" lon="6.95498">
        <ele>860.19995117188</ele>
        <time>2022-11-01T11:02:03.000Z</time>
      </trkpt>
      <trkpt lat="48.06078" lon="6.955">
        <ele>860.80004882812</ele>
        <time>2022-11-01T11:02:07.000Z</time>
      </trkpt>
      <trkpt lat="48.06076" lon="6.955">
        <ele>860.80004882812</ele>
        <time>2022-11-01T11:02:09.000Z</time>
      </trkpt>
      <trkpt lat="48.06074" lon="6.95501">
        <ele>861</ele>
        <time>2022-11-01T11:02:11.000Z</time>
      </trkpt>
      <trkpt lat="48.06074" lon="6.95502">
        <ele>861.19995117188</ele>
        <time>2022-11-01T11:02:12.000Z</time>
      </trkpt>
      <trkpt lat="48.06074" lon="6.95501">
        <ele>861.40002441406</ele>
        <time>2022-11-01T11:02:13.000Z</time>
      </trkpt>
      <trkpt lat="48.06074" lon="6.95501">
        <ele>861.59997558594</ele>
        <time>2022-11-01T11:02:14.000Z</time>
      </trkpt>
      <trkpt lat="48.06072" lon="6.95507">
        <ele>862</ele>
        <time>2022-11-01T11:02:19.000Z</time>
      </trkpt>
      <trkpt lat="48.06072" lon="6.95508">
        <ele>862</ele>
        <time>2022-11-01T11:02:20.000Z</time>
      </trkpt>
      <trkpt lat="48.0607" lon="6.9551">
        <ele>862.40002441406</ele>
        <time>2022-11-01T11:02:23.000Z</time>
      </trkpt>
      <trkpt lat="48.0607" lon="6.9551">
        <ele>862.59997558594</ele>
        <time>2022-11-01T11:02:24.000Z</time>
      </trkpt>
      <trkpt lat="48.06068" lon="6.95511">
        <ele>862.59997558594</ele>
        <time>2022-11-01T11:02:25.000Z</time>
      </trkpt>
      <trkpt lat="48.06066" lon="6.95512">
        <ele>862.80004882812</ele>
        <time>2022-11-01T11:02:28.000Z</time>
      </trkpt>
      <trkpt lat="48.06065" lon="6.95513">
        <ele>863.19995117188</ele>
        <time>2022-11-01T11:02:30.000Z</time>
      </trkpt>
      <trkpt lat="48.06068" lon="6.95513">
        <ele>863.59997558594</ele>
        <time>2022-11-01T11:02:32.000Z</time>
      </trkpt>
      <trkpt lat="48.06066" lon="6.95516">
        <ele>864.19995117188</ele>
        <time>2022-11-01T11:02:37.000Z</time>
      </trkpt>
      <trkpt lat="48.06065" lon="6.95517">
        <ele>864.40002441406</ele>
        <time>2022-11-01T11:02:39.000Z</time>
      </trkpt>
      <trkpt lat="48.06062" lon="6.95519">
        <ele>865.19995117188</ele>
        <time>2022-11-01T11:02:45.000Z</time>
      </trkpt>
      <trkpt lat="48.06062" lon="6.9552">
        <ele>865.40002441406</ele>
        <time>2022-11-01T11:02:47.000Z</time>
      </trkpt>
      <trkpt lat="48.06061" lon="6.95522">
        <ele>866.40002441406</ele>
        <time>2022-11-01T11:02:52.000Z</time>
      </trkpt>
      <trkpt lat="48.06063" lon="6.95522">
        <ele>866.59997558594</ele>
        <time>2022-11-01T11:02:54.000Z</time>
      </trkpt>
      <trkpt lat="48.06062" lon="6.95527">
        <ele>867.19995117188</ele>
        <time>2022-11-01T11:03:00.000Z</time>
      </trkpt>
      <trkpt lat="48.06061" lon="6.95528">
        <ele>867.40002441406</ele>
        <time>2022-11-01T11:03:02.000Z</time>
      </trkpt>
      <trkpt lat="48.06059" lon="6.95531">
        <ele>868</ele>
        <time>2022-11-01T11:03:07.000Z</time>
      </trkpt>
      <trkpt lat="48.06055" lon="6.95534">
        <ele>868.59997558594</ele>
        <time>2022-11-01T11:03:12.000Z</time>
      </trkpt>
      <trkpt lat="48.06054" lon="6.95536">
        <ele>868.80004882812</ele>
        <time>2022-11-01T11:03:13.000Z</time>
      </trkpt>
      <trkpt lat="48.06052" lon="6.9554">
        <ele>869.19995117188</ele>
        <time>2022-11-01T11:03:18.000Z</time>
      </trkpt>
      <trkpt lat="48.06051" lon="6.9554">
        <ele>869.59997558594</ele>
        <time>2022-11-01T11:03:21.000Z</time>
      </trkpt>
      <trkpt lat="48.06051" lon="6.95538">
        <ele>869.80004882812</ele>
        <time>2022-11-01T11:03:23.000Z</time>
      </trkpt>
      <trkpt lat="48.0605" lon="6.95539">
        <ele>870</ele>
        <time>2022-11-01T11:03:30.000Z</time>
      </trkpt>
      <trkpt lat="48.0605" lon="6.9554">
        <ele>870</ele>
        <time>2022-11-01T11:03:49.000Z</time>
      </trkpt>
      <trkpt lat="48.06047" lon="6.95544">
        <ele>870.80004882812</ele>
        <time>2022-11-01T11:03:53.000Z</time>
      </trkpt>
      <trkpt lat="48.06046" lon="6.95544">
        <ele>870.80004882812</ele>
        <time>2022-11-01T11:03:54.000Z</time>
      </trkpt>
      <trkpt lat="48.0604" lon="6.95551">
        <ele>871.40002441406</ele>
        <time>2022-11-01T11:04:00.000Z</time>
      </trkpt>
      <trkpt lat="48.06038" lon="6.95555">
        <ele>871.80004882812</ele>
        <time>2022-11-01T11:04:04.000Z</time>
      </trkpt>
      <trkpt lat="48.06037" lon="6.95556">
        <ele>872</ele>
        <time>2022-11-01T11:04:05.000Z</time>
      </trkpt>
      <trkpt lat="48.06037" lon="6.95556">
        <ele>872.19995117188</ele>
        <time>2022-11-01T11:04:06.000Z</time>
      </trkpt>
      <trkpt lat="48.06036" lon="6.95558">
        <ele>872.80004882812</ele>
        <time>2022-11-01T11:04:09.000Z</time>
      </trkpt>
      <trkpt lat="48.06036" lon="6.95556">
        <ele>873.40002441406</ele>
        <time>2022-11-01T11:04:12.000Z</time>
      </trkpt>
      <trkpt lat="48.06035" lon="6.95556">
        <ele>873.59997558594</ele>
        <time>2022-11-01T11:04:13.000Z</time>
      </trkpt>
      <trkpt lat="48.06035" lon="6.95557">
        <ele>874</ele>
        <time>2022-11-01T11:04:15.000Z</time>
      </trkpt>
      <trkpt lat="48.06034" lon="6.95558">
        <ele>874.19995117188</ele>
        <time>2022-11-01T11:04:16.000Z</time>
      </trkpt>
      <trkpt lat="48.06033" lon="6.95564">
        <ele>874.80004882812</ele>
        <time>2022-11-01T11:04:22.000Z</time>
      </trkpt>
      <trkpt lat="48.0603" lon="6.95566">
        <ele>875</ele>
        <time>2022-11-01T11:04:25.000Z</time>
      </trkpt>
      <trkpt lat="48.06028" lon="6.95568">
        <ele>875.40002441406</ele>
        <time>2022-11-01T11:04:28.000Z</time>
      </trkpt>
      <trkpt lat="48.06027" lon="6.9557">
        <ele>876.19995117188</ele>
        <time>2022-11-01T11:04:32.000Z</time>
      </trkpt>
      <trkpt lat="48.06027" lon="6.95572">
        <ele>876.59997558594</ele>
        <time>2022-11-01T11:04:35.000Z</time>
      </trkpt>
      <trkpt lat="48.06027" lon="6.95575">
        <ele>877.19995117188</ele>
        <time>2022-11-01T11:04:38.000Z</time>
      </trkpt>
      <trkpt lat="48.06029" lon="6.95577">
        <ele>877.80004882812</ele>
        <time>2022-11-01T11:04:42.000Z</time>
      </trkpt>
      <trkpt lat="48.06033" lon="6.95576">
        <ele>878</ele>
        <time>2022-11-01T11:04:47.000Z</time>
      </trkpt>
      <trkpt lat="48.06034" lon="6.95573">
        <ele>877.59997558594</ele>
        <time>2022-11-01T11:04:55.000Z</time>
      </trkpt>
      <trkpt lat="48.0603" lon="6.95572">
        <ele>877.40002441406</ele>
        <time>2022-11-01T11:05:01.000Z</time>
      </trkpt>
      <trkpt lat="48.0603" lon="6.95571">
        <ele>877.40002441406</ele>
        <time>2022-11-01T11:05:06.000Z</time>
      </trkpt>
      <trkpt lat="48.0603" lon="6.95571">
        <ele>877</ele>
        <time>2022-11-01T11:05:17.000Z</time>
      </trkpt>
      <trkpt lat="48.06031" lon="6.95571">
        <ele>877</ele>
        <time>2022-11-01T11:05:20.000Z</time>
      </trkpt>
      <trkpt lat="48.06033" lon="6.95569">
        <ele>877</ele>
        <time>2022-11-01T11:05:27.000Z</time>
      </trkpt>
      <trkpt lat="48.06035" lon="6.95566">
        <ele>877</ele>
        <time>2022-11-01T11:05:31.000Z</time>
      </trkpt>
      <trkpt lat="48.06035" lon="6.95566">
        <ele>877</ele>
        <time>2022-11-01T11:05:37.000Z</time>
      </trkpt>
      <trkpt lat="48.06035" lon="6.95565">
        <ele>877</ele>
        <time>2022-11-01T11:05:39.000Z</time>
      </trkpt>
      <trkpt lat="48.06035" lon="6.95566">
        <ele>877</ele>
        <time>2022-11-01T11:05:47.000Z</time>
      </trkpt>
      <trkpt lat="48.06034" lon="6.95566">
        <ele>877.19995117188</ele>
        <time>2022-11-01T11:05:52.000Z</time>
      </trkpt>
      <trkpt lat="48.06033" lon="6.95571">
        <ele>877.19995117188</ele>
        <time>2022-11-01T11:06:00.000Z</time>
      </trkpt>
      <trkpt lat="48.06033" lon="6.95572">
        <ele>877</ele>
        <time>2022-11-01T11:06:02.000Z</time>
      </trkpt>
      <trkpt lat="48.06032" lon="6.95572">
        <ele>877</ele>
        <time>2022-11-01T11:06:04.000Z</time>
      </trkpt>
      <trkpt lat="48.06023" lon="6.95586">
        <ele>878.40002441406</ele>
        <time>2022-11-01T11:06:16.000Z</time>
      </trkpt>
      <trkpt lat="48.06021" lon="6.9559">
        <ele>879.19995117188</ele>
        <time>2022-11-01T11:06:24.000Z</time>
      </trkpt>
      <trkpt lat="48.06021" lon="6.95591">
        <ele>879.40002441406</ele>
        <time>2022-11-01T11:06:25.000Z</time>
      </trkpt>
      <trkpt lat="48.06018" lon="6.95594">
        <ele>880.40002441406</ele>
        <time>2022-11-01T11:06:29.000Z</time>
      </trkpt>
      <trkpt lat="48.06018" lon="6.95595">
        <ele>880.59997558594</ele>
        <time>2022-11-01T11:06:30.000Z</time>
      </trkpt>
      <trkpt lat="48.06018" lon="6.95597">
        <ele>880.59997558594</ele>
        <time>2022-11-01T11:06:32.000Z</time>
      </trkpt>
      <trkpt lat="48.0602" lon="6.956">
        <ele>881</ele>
        <time>2022-11-01T11:06:35.000Z</time>
      </trkpt>
      <trkpt lat="48.0602" lon="6.95601">
        <ele>881</ele>
        <time>2022-11-01T11:06:37.000Z</time>
      </trkpt>
      <trkpt lat="48.06019" lon="6.95601">
        <ele>881.19995117188</ele>
        <time>2022-11-01T11:06:38.000Z</time>
      </trkpt>
      <trkpt lat="48.06017" lon="6.95603">
        <ele>881.59997558594</ele>
        <time>2022-11-01T11:06:42.000Z</time>
      </trkpt>
      <trkpt lat="48.06016" lon="6.95603">
        <ele>882</ele>
        <time>2022-11-01T11:06:44.000Z</time>
      </trkpt>
      <trkpt lat="48.06014" lon="6.95605">
        <ele>882.40002441406</ele>
        <time>2022-11-01T11:06:49.000Z</time>
      </trkpt>
      <trkpt lat="48.06013" lon="6.95607">
        <ele>882.19995117188</ele>
        <time>2022-11-01T11:06:57.000Z</time>
      </trkpt>
      <trkpt lat="48.06011" lon="6.95611">
        <ele>881.80004882812</ele>
        <time>2022-11-01T11:07:02.000Z</time>
      </trkpt>
      <trkpt lat="48.0601" lon="6.95609">
        <ele>881.59997558594</ele>
        <time>2022-11-01T11:07:06.000Z</time>
      </trkpt>
      <trkpt lat="48.06009" lon="6.95607">
        <ele>881.59997558594</ele>
        <time>2022-11-01T11:07:10.000Z</time>
      </trkpt>
      <trkpt lat="48.06007" lon="6.95609">
        <ele>881.59997558594</ele>
        <time>2022-11-01T11:07:14.000Z</time>
      </trkpt>
      <trkpt lat="48.0601" lon="6.95611">
        <ele>881.59997558594</ele>
        <time>2022-11-01T11:07:20.000Z</time>
      </trkpt>
      <trkpt lat="48.0601" lon="6.95614">
        <ele>881.40002441406</ele>
        <time>2022-11-01T11:07:25.000Z</time>
      </trkpt>
      <trkpt lat="48.06013" lon="6.95618">
        <ele>881.40002441406</ele>
        <time>2022-11-01T11:07:30.000Z</time>
      </trkpt>
      <trkpt lat="48.06012" lon="6.95616">
        <ele>881.59997558594</ele>
        <time>2022-11-01T11:07:36.000Z</time>
      </trkpt>
      <trkpt lat="48.06013" lon="6.95619">
        <ele>882</ele>
        <time>2022-11-01T11:07:43.000Z</time>
      </trkpt>
      <trkpt lat="48.06011" lon="6.95621">
        <ele>882.40002441406</ele>
        <time>2022-11-01T11:07:49.000Z</time>
      </trkpt>
      <trkpt lat="48.06011" lon="6.9562">
        <ele>882.59997558594</ele>
        <time>2022-11-01T11:07:50.000Z</time>
      </trkpt>
      <trkpt lat="48.0601" lon="6.9562">
        <ele>883.19995117188</ele>
        <time>2022-11-01T11:07:54.000Z</time>
      </trkpt>
      <trkpt lat="48.06009" lon="6.95622">
        <ele>883.80004882812</ele>
        <time>2022-11-01T11:08:00.000Z</time>
      </trkpt>
      <trkpt lat="48.06009" lon="6.95621">
        <ele>883.80004882812</ele>
        <time>2022-11-01T11:08:05.000Z</time>
      </trkpt>
      <trkpt lat="48.0601" lon="6.95619">
        <ele>883.80004882812</ele>
        <time>2022-11-01T11:08:10.000Z</time>
      </trkpt>
      <trkpt lat="48.06006" lon="6.95617">
        <ele>883.80004882812</ele>
        <time>2022-11-01T11:08:16.000Z</time>
      </trkpt>
      <trkpt lat="48.06004" lon="6.95617">
        <ele>883.80004882812</ele>
        <time>2022-11-01T11:08:22.000Z</time>
      </trkpt>
      <trkpt lat="48.06003" lon="6.95617">
        <ele>883.80004882812</ele>
        <time>2022-11-01T11:08:30.000Z</time>
      </trkpt>
      <trkpt lat="48.06004" lon="6.95619">
        <ele>884.19995117188</ele>
        <time>2022-11-01T11:08:44.000Z</time>
      </trkpt>
      <trkpt lat="48.06005" lon="6.95619">
        <ele>884.19995117188</ele>
        <time>2022-11-01T11:08:45.000Z</time>
      </trkpt>
      <trkpt lat="48.06004" lon="6.9562">
        <ele>884.40002441406</ele>
        <time>2022-11-01T11:08:50.000Z</time>
      </trkpt>
      <trkpt lat="48.06004" lon="6.95621">
        <ele>884.80004882812</ele>
        <time>2022-11-01T11:08:52.000Z</time>
      </trkpt>
      <trkpt lat="48.06005" lon="6.95625">
        <ele>885.59997558594</ele>
        <time>2022-11-01T11:08:55.000Z</time>
      </trkpt>
      <trkpt lat="48.06006" lon="6.95627">
        <ele>886</ele>
        <time>2022-11-01T11:08:57.000Z</time>
      </trkpt>
      <trkpt lat="48.06008" lon="6.95629">
        <ele>886</ele>
        <time>2022-11-01T11:08:59.000Z</time>
      </trkpt>
      <trkpt lat="48.06007" lon="6.95631">
        <ele>886.59997558594</ele>
        <time>2022-11-01T11:09:03.000Z</time>
      </trkpt>
      <trkpt lat="48.06004" lon="6.95629">
        <ele>886.59997558594</ele>
        <time>2022-11-01T11:09:10.000Z</time>
      </trkpt>
      <trkpt lat="48.06004" lon="6.95629">
        <ele>886.80004882812</ele>
        <time>2022-11-01T11:09:16.000Z</time>
      </trkpt>
      <trkpt lat="48.06001" lon="6.95632">
        <ele>887</ele>
        <time>2022-11-01T11:09:18.000Z</time>
      </trkpt>
      <trkpt lat="48.05996" lon="6.95634">
        <ele>887.80004882812</ele>
        <time>2022-11-01T11:09:28.000Z</time>
      </trkpt>
      <trkpt lat="48.05996" lon="6.95634">
        <ele>888</ele>
        <time>2022-11-01T11:09:37.000Z</time>
      </trkpt>
      <trkpt lat="48.05996" lon="6.95634">
        <ele>888.40002441406</ele>
        <time>2022-11-01T11:09:40.000Z</time>
      </trkpt>
      <trkpt lat="48.05995" lon="6.95638">
        <ele>889.19995117188</ele>
        <time>2022-11-01T11:09:44.000Z</time>
      </trkpt>
      <trkpt lat="48.05995" lon="6.9564">
        <ele>889.19995117188</ele>
        <time>2022-11-01T11:09:45.000Z</time>
      </trkpt>
      <trkpt lat="48.05995" lon="6.95647">
        <ele>889.59997558594</ele>
        <time>2022-11-01T11:09:48.000Z</time>
      </trkpt>
      <trkpt lat="48.05996" lon="6.95654">
        <ele>890</ele>
        <time>2022-11-01T11:09:51.000Z</time>
      </trkpt>
      <trkpt lat="48.05995" lon="6.95656">
        <ele>890.19995117188</ele>
        <time>2022-11-01T11:09:53.000Z</time>
      </trkpt>
      <trkpt lat="48.05993" lon="6.9566">
        <ele>890.59997558594</ele>
        <time>2022-11-01T11:09:56.000Z</time>
      </trkpt>
      <trkpt lat="48.05992" lon="6.95663">
        <ele>891.19995117188</ele>
        <time>2022-11-01T11:09:58.000Z</time>
      </trkpt>
      <trkpt lat="48.05992" lon="6.95664">
        <ele>891.19995117188</ele>
        <time>2022-11-01T11:09:59.000Z</time>
      </trkpt>
      <trkpt lat="48.05993" lon="6.95671">
        <ele>891.80004882812</ele>
        <time>2022-11-01T11:10:02.000Z</time>
      </trkpt>
      <trkpt lat="48.05992" lon="6.95674">
        <ele>892</ele>
        <time>2022-11-01T11:10:04.000Z</time>
      </trkpt>
      <trkpt lat="48.05992" lon="6.95677">
        <ele>892.19995117188</ele>
        <time>2022-11-01T11:10:07.000Z</time>
      </trkpt>
      <trkpt lat="48.05992" lon="6.95678">
        <ele>892.19995117188</ele>
        <time>2022-11-01T11:10:08.000Z</time>
      </trkpt>
      <trkpt lat="48.05993" lon="6.95679">
        <ele>892.19995117188</ele>
        <time>2022-11-01T11:10:10.000Z</time>
      </trkpt>
      <trkpt lat="48.05991" lon="6.95687">
        <ele>892.40002441406</ele>
        <time>2022-11-01T11:10:17.000Z</time>
      </trkpt>
      <trkpt lat="48.05991" lon="6.95691">
        <ele>892.40002441406</ele>
        <time>2022-11-01T11:10:22.000Z</time>
      </trkpt>
      <trkpt lat="48.05989" lon="6.95694">
        <ele>892.40002441406</ele>
        <time>2022-11-01T11:10:25.000Z</time>
      </trkpt>
      <trkpt lat="48.05987" lon="6.957">
        <ele>893</ele>
        <time>2022-11-01T11:10:30.000Z</time>
      </trkpt>
      <trkpt lat="48.05988" lon="6.95701">
        <ele>893.40002441406</ele>
        <time>2022-11-01T11:10:33.000Z</time>
      </trkpt>
      <trkpt lat="48.05985" lon="6.95698">
        <ele>894</ele>
        <time>2022-11-01T11:10:37.000Z</time>
      </trkpt>
      <trkpt lat="48.05983" lon="6.957">
        <ele>894.40002441406</ele>
        <time>2022-11-01T11:10:40.000Z</time>
      </trkpt>
      <trkpt lat="48.05983" lon="6.957">
        <ele>894.59997558594</ele>
        <time>2022-11-01T11:10:43.000Z</time>
      </trkpt>
      <trkpt lat="48.05982" lon="6.95704">
        <ele>895.40002441406</ele>
        <time>2022-11-01T11:10:49.000Z</time>
      </trkpt>
      <trkpt lat="48.0598" lon="6.95704">
        <ele>895.40002441406</ele>
        <time>2022-11-01T11:10:50.000Z</time>
      </trkpt>
      <trkpt lat="48.0598" lon="6.95705">
        <ele>896</ele>
        <time>2022-11-01T11:10:53.000Z</time>
      </trkpt>
      <trkpt lat="48.0598" lon="6.95706">
        <ele>896.40002441406</ele>
        <time>2022-11-01T11:10:55.000Z</time>
      </trkpt>
      <trkpt lat="48.05979" lon="6.95707">
        <ele>896.59997558594</ele>
        <time>2022-11-01T11:10:57.000Z</time>
      </trkpt>
      <trkpt lat="48.05978" lon="6.95709">
        <ele>897.19995117188</ele>
        <time>2022-11-01T11:11:00.000Z</time>
      </trkpt>
      <trkpt lat="48.05977" lon="6.95712">
        <ele>897.40002441406</ele>
        <time>2022-11-01T11:11:03.000Z</time>
      </trkpt>
      <trkpt lat="48.05977" lon="6.95712">
        <ele>897.59997558594</ele>
        <time>2022-11-01T11:11:04.000Z</time>
      </trkpt>
      <trkpt lat="48.05977" lon="6.95711">
        <ele>897.59997558594</ele>
        <time>2022-11-01T11:11:06.000Z</time>
      </trkpt>
      <trkpt lat="48.05978" lon="6.95711">
        <ele>897.59997558594</ele>
        <time>2022-11-01T11:11:10.000Z</time>
      </trkpt>
      <trkpt lat="48.05981" lon="6.95709">
        <ele>898</ele>
        <time>2022-11-01T11:11:15.000Z</time>
      </trkpt>
      <trkpt lat="48.05981" lon="6.95709">
        <ele>898.19995117188</ele>
        <time>2022-11-01T11:11:23.000Z</time>
      </trkpt>
      <trkpt lat="48.05982" lon="6.95709">
        <ele>898.40002441406</ele>
        <time>2022-11-01T11:11:33.000Z</time>
      </trkpt>
      <trkpt lat="48.05984" lon="6.95709">
        <ele>898.59997558594</ele>
        <time>2022-11-01T11:11:39.000Z</time>
      </trkpt>
      <trkpt lat="48.05985" lon="6.95709">
        <ele>898.59997558594</ele>
        <time>2022-11-01T11:11:47.000Z</time>
      </trkpt>
      <trkpt lat="48.05985" lon="6.9571">
        <ele>898.59997558594</ele>
        <time>2022-11-01T11:11:53.000Z</time>
      </trkpt>
      <trkpt lat="48.05985" lon="6.9571">
        <ele>898.40002441406</ele>
        <time>2022-11-01T11:11:59.000Z</time>
      </trkpt>
      <trkpt lat="48.05985" lon="6.9571">
        <ele>898.40002441406</ele>
        <time>2022-11-01T11:12:02.000Z</time>
      </trkpt>
      <trkpt lat="48.05985" lon="6.9571">
        <ele>898.19995117188</ele>
        <time>2022-11-01T11:12:04.000Z</time>
      </trkpt>
      <trkpt lat="48.05984" lon="6.95708">
        <ele>898.19995117188</ele>
        <time>2022-11-01T11:12:14.000Z</time>
      </trkpt>
      <trkpt lat="48.05983" lon="6.95708">
        <ele>898.19995117188</ele>
        <time>2022-11-01T11:12:21.000Z</time>
      </trkpt>
      <trkpt lat="48.0598" lon="6.95707">
        <ele>898</ele>
        <time>2022-11-01T11:12:34.000Z</time>
      </trkpt>
      <trkpt lat="48.05978" lon="6.95707">
        <ele>898</ele>
        <time>2022-11-01T11:12:37.000Z</time>
      </trkpt>
      <trkpt lat="48.05977" lon="6.95707">
        <ele>898</ele>
        <time>2022-11-01T11:12:42.000Z</time>
      </trkpt>
      <trkpt lat="48.05976" lon="6.95707">
        <ele>898</ele>
        <time>2022-11-01T11:12:57.000Z</time>
      </trkpt>
      <trkpt lat="48.05978" lon="6.95712">
        <ele>897.80004882812</ele>
        <time>2022-11-01T11:13:21.000Z</time>
      </trkpt>
      <trkpt lat="48.05978" lon="6.9571">
        <ele>897.59997558594</ele>
        <time>2022-11-01T11:13:30.000Z</time>
      </trkpt>
      <trkpt lat="48.05978" lon="6.95706">
        <ele>897.80004882812</ele>
        <time>2022-11-01T11:13:48.000Z</time>
      </trkpt>
      <trkpt lat="48.05982" lon="6.95707">
        <ele>897.80004882812</ele>
        <time>2022-11-01T11:14:05.000Z</time>
      </trkpt>
      <trkpt lat="48.05981" lon="6.95713">
        <ele>898.59997558594</ele>
        <time>2022-11-01T11:14:10.000Z</time>
      </trkpt>
      <trkpt lat="48.05981" lon="6.95724">
        <ele>899.59997558594</ele>
        <time>2022-11-01T11:14:16.000Z</time>
      </trkpt>
      <trkpt lat="48.05981" lon="6.95725">
        <ele>899.59997558594</ele>
        <time>2022-11-01T11:14:17.000Z</time>
      </trkpt>
      <trkpt lat="48.05976" lon="6.95729">
        <ele>899.80004882812</ele>
        <time>2022-11-01T11:14:24.000Z</time>
      </trkpt>
      <trkpt lat="48.05973" lon="6.9573">
        <ele>899.59997558594</ele>
        <time>2022-11-01T11:14:28.000Z</time>
      </trkpt>
      <trkpt lat="48.05973" lon="6.95734">
        <ele>899.59997558594</ele>
        <time>2022-11-01T11:14:33.000Z</time>
      </trkpt>
      <trkpt lat="48.05968" lon="6.95745">
        <ele>899.80004882812</ele>
        <time>2022-11-01T11:14:40.000Z</time>
      </trkpt>
      <trkpt lat="48.05965" lon="6.95748">
        <ele>900.59997558594</ele>
        <time>2022-11-01T11:14:47.000Z</time>
      </trkpt>
      <trkpt lat="48.05966" lon="6.95748">
        <ele>900.59997558594</ele>
        <time>2022-11-01T11:14:48.000Z</time>
      </trkpt>
      <trkpt lat="48.05966" lon="6.95748">
        <ele>900.59997558594</ele>
        <time>2022-11-01T11:14:51.000Z</time>
      </trkpt>
      <trkpt lat="48.05966" lon="6.95749">
        <ele>900.59997558594</ele>
        <time>2022-11-01T11:14:53.000Z</time>
      </trkpt>
      <trkpt lat="48.05966" lon="6.95749">
        <ele>901.59997558594</ele>
        <time>2022-11-01T11:15:09.000Z</time>
      </trkpt>
      <trkpt lat="48.05966" lon="6.95751">
        <ele>902.59997558594</ele>
        <time>2022-11-01T11:15:18.000Z</time>
      </trkpt>
      <trkpt lat="48.05958" lon="6.95758">
        <ele>903.40002441406</ele>
        <time>2022-11-01T11:15:29.000Z</time>
      </trkpt>
      <trkpt lat="48.05956" lon="6.95759">
        <ele>903.80004882812</ele>
        <time>2022-11-01T11:15:31.000Z</time>
      </trkpt>
      <trkpt lat="48.05954" lon="6.9576">
        <ele>904.40002441406</ele>
        <time>2022-11-01T11:15:36.000Z</time>
      </trkpt>
      <trkpt lat="48.05954" lon="6.95761">
        <ele>904.59997558594</ele>
        <time>2022-11-01T11:15:38.000Z</time>
      </trkpt>
      <trkpt lat="48.05954" lon="6.95762">
        <ele>904.80004882812</ele>
        <time>2022-11-01T11:15:39.000Z</time>
      </trkpt>
      <trkpt lat="48.05954" lon="6.95765">
        <ele>905.40002441406</ele>
        <time>2022-11-01T11:15:44.000Z</time>
      </trkpt>
      <trkpt lat="48.05954" lon="6.95765">
        <ele>905.80004882812</ele>
        <time>2022-11-01T11:15:46.000Z</time>
      </trkpt>
      <trkpt lat="48.05954" lon="6.95766">
        <ele>905.80004882812</ele>
        <time>2022-11-01T11:15:47.000Z</time>
      </trkpt>
      <trkpt lat="48.05955" lon="6.95771">
        <ele>906.40002441406</ele>
        <time>2022-11-01T11:15:52.000Z</time>
      </trkpt>
      <trkpt lat="48.05955" lon="6.95777">
        <ele>907</ele>
        <time>2022-11-01T11:15:58.000Z</time>
      </trkpt>
      <trkpt lat="48.05956" lon="6.9578">
        <ele>907.40002441406</ele>
        <time>2022-11-01T11:16:01.000Z</time>
      </trkpt>
      <trkpt lat="48.05958" lon="6.95781">
        <ele>907.80004882812</ele>
        <time>2022-11-01T11:16:04.000Z</time>
      </trkpt>
      <trkpt lat="48.05956" lon="6.95779">
        <ele>908</ele>
        <time>2022-11-01T11:16:06.000Z</time>
      </trkpt>
      <trkpt lat="48.05955" lon="6.95779">
        <ele>908</ele>
        <time>2022-11-01T11:16:11.000Z</time>
      </trkpt>
      <trkpt lat="48.05955" lon="6.95779">
        <ele>907.80004882812</ele>
        <time>2022-11-01T11:16:31.000Z</time>
      </trkpt>
      <trkpt lat="48.05955" lon="6.95779">
        <ele>907.59997558594</ele>
        <time>2022-11-01T11:16:37.000Z</time>
      </trkpt>
      <trkpt lat="48.05955" lon="6.95777">
        <ele>907.59997558594</ele>
        <time>2022-11-01T11:16:43.000Z</time>
      </trkpt>
      <trkpt lat="48.05954" lon="6.95776">
        <ele>907.40002441406</ele>
        <time>2022-11-01T11:16:51.000Z</time>
      </trkpt>
      <trkpt lat="48.05953" lon="6.95776">
        <ele>907.40002441406</ele>
        <time>2022-11-01T11:16:59.000Z</time>
      </trkpt>
      <trkpt lat="48.05952" lon="6.95777">
        <ele>907.19995117188</ele>
        <time>2022-11-01T11:17:08.000Z</time>
      </trkpt>
      <trkpt lat="48.05952" lon="6.95775">
        <ele>907</ele>
        <time>2022-11-01T11:17:38.000Z</time>
      </trkpt>
      <trkpt lat="48.05952" lon="6.95775">
        <ele>907</ele>
        <time>2022-11-01T11:17:41.000Z</time>
      </trkpt>
      <trkpt lat="48.05954" lon="6.95776">
        <ele>907</ele>
        <time>2022-11-01T11:17:51.000Z</time>
      </trkpt>
      <trkpt lat="48.05952" lon="6.95775">
        <ele>906.59997558594</ele>
        <time>2022-11-01T11:18:05.000Z</time>
      </trkpt>
      <trkpt lat="48.05953" lon="6.95776">
        <ele>906.80004882812</ele>
        <time>2022-11-01T11:18:10.000Z</time>
      </trkpt>
      <trkpt lat="48.05952" lon="6.95778">
        <ele>906.80004882812</ele>
        <time>2022-11-01T11:18:13.000Z</time>
      </trkpt>
      <trkpt lat="48.0595" lon="6.95779">
        <ele>906.80004882812</ele>
        <time>2022-11-01T11:18:17.000Z</time>
      </trkpt>
      <trkpt lat="48.05953" lon="6.95781">
        <ele>906.80004882812</ele>
        <time>2022-11-01T11:18:24.000Z</time>
      </trkpt>
      <trkpt lat="48.05954" lon="6.95782">
        <ele>906.59997558594</ele>
        <time>2022-11-01T11:18:33.000Z</time>
      </trkpt>
      <trkpt lat="48.05956" lon="6.95788">
        <ele>906</ele>
        <time>2022-11-01T11:18:39.000Z</time>
      </trkpt>
      <trkpt lat="48.05956" lon="6.9579">
        <ele>905.80004882812</ele>
        <time>2022-11-01T11:18:40.000Z</time>
      </trkpt>
      <trkpt lat="48.05957" lon="6.958">
        <ele>906</ele>
        <time>2022-11-01T11:18:46.000Z</time>
      </trkpt>
      <trkpt lat="48.05959" lon="6.95801">
        <ele>906.19995117188</ele>
        <time>2022-11-01T11:18:53.000Z</time>
      </trkpt>
      <trkpt lat="48.05959" lon="6.95801">
        <ele>906.19995117188</ele>
        <time>2022-11-01T11:18:55.000Z</time>
      </trkpt>
      <trkpt lat="48.05958" lon="6.95805">
        <ele>906.19995117188</ele>
        <time>2022-11-01T11:18:59.000Z</time>
      </trkpt>
      <trkpt lat="48.05958" lon="6.95809">
        <ele>906.59997558594</ele>
        <time>2022-11-01T11:19:03.000Z</time>
      </trkpt>
      <trkpt lat="48.05956" lon="6.9581">
        <ele>907</ele>
        <time>2022-11-01T11:19:07.000Z</time>
      </trkpt>
      <trkpt lat="48.05956" lon="6.95812">
        <ele>907.19995117188</ele>
        <time>2022-11-01T11:19:09.000Z</time>
      </trkpt>
      <trkpt lat="48.05956" lon="6.95813">
        <ele>908</ele>
        <time>2022-11-01T11:19:15.000Z</time>
      </trkpt>
      <trkpt lat="48.05955" lon="6.95815">
        <ele>908.40002441406</ele>
        <time>2022-11-01T11:19:18.000Z</time>
      </trkpt>
      <trkpt lat="48.05954" lon="6.95816">
        <ele>908.80004882812</ele>
        <time>2022-11-01T11:19:20.000Z</time>
      </trkpt>
      <trkpt lat="48.05954" lon="6.95816">
        <ele>909</ele>
        <time>2022-11-01T11:19:22.000Z</time>
      </trkpt>
      <trkpt lat="48.05953" lon="6.95817">
        <ele>909.19995117188</ele>
        <time>2022-11-01T11:19:23.000Z</time>
      </trkpt>
      <trkpt lat="48.05954" lon="6.95817">
        <ele>909.19995117188</ele>
        <time>2022-11-01T11:19:24.000Z</time>
      </trkpt>
      <trkpt lat="48.05954" lon="6.95816">
        <ele>909.40002441406</ele>
        <time>2022-11-01T11:19:26.000Z</time>
      </trkpt>
      <trkpt lat="48.05954" lon="6.95816">
        <ele>910.19995117188</ele>
        <time>2022-11-01T11:19:43.000Z</time>
      </trkpt>
      <trkpt lat="48.05954" lon="6.95815">
        <ele>910.19995117188</ele>
        <time>2022-11-01T11:19:46.000Z</time>
      </trkpt>
      <trkpt lat="48.05951" lon="6.95815">
        <ele>910.19995117188</ele>
        <time>2022-11-01T11:19:53.000Z</time>
      </trkpt>
      <trkpt lat="48.05948" lon="6.95814">
        <ele>910</ele>
        <time>2022-11-01T11:20:03.000Z</time>
      </trkpt>
      <trkpt lat="48.05948" lon="6.95813">
        <ele>910</ele>
        <time>2022-11-01T11:20:05.000Z</time>
      </trkpt>
      <trkpt lat="48.05947" lon="6.95811">
        <ele>910</ele>
        <time>2022-11-01T11:20:10.000Z</time>
      </trkpt>
      <trkpt lat="48.05947" lon="6.9581">
        <ele>910</ele>
        <time>2022-11-01T11:20:12.000Z</time>
      </trkpt>
      <trkpt lat="48.05946" lon="6.9581">
        <ele>909.80004882812</ele>
        <time>2022-11-01T11:20:16.000Z</time>
      </trkpt>
      <trkpt lat="48.05946" lon="6.9581">
        <ele>909.80004882812</ele>
        <time>2022-11-01T11:20:19.000Z</time>
      </trkpt>
      <trkpt lat="48.05945" lon="6.95812">
        <ele>909.80004882812</ele>
        <time>2022-11-01T11:20:33.000Z</time>
      </trkpt>
      <trkpt lat="48.05946" lon="6.95812">
        <ele>909.59997558594</ele>
        <time>2022-11-01T11:20:43.000Z</time>
      </trkpt>
      <trkpt lat="48.05945" lon="6.95811">
        <ele>910.19995117188</ele>
        <time>2022-11-01T11:20:56.000Z</time>
      </trkpt>
      <trkpt lat="48.0594" lon="6.95816">
        <ele>910.59997558594</ele>
        <time>2022-11-01T11:21:00.000Z</time>
      </trkpt>
      <trkpt lat="48.05936" lon="6.95819">
        <ele>910.80004882812</ele>
        <time>2022-11-01T11:21:03.000Z</time>
      </trkpt>
      <trkpt lat="48.05933" lon="6.95823">
        <ele>911</ele>
        <time>2022-11-01T11:21:06.000Z</time>
      </trkpt>
      <trkpt lat="48.05932" lon="6.95824">
        <ele>911.40002441406</ele>
        <time>2022-11-01T11:21:08.000Z</time>
      </trkpt>
      <trkpt lat="48.05928" lon="6.95828">
        <ele>911.80004882812</ele>
        <time>2022-11-01T11:21:12.000Z</time>
      </trkpt>
      <trkpt lat="48.05929" lon="6.95828">
        <ele>912.40002441406</ele>
        <time>2022-11-01T11:21:14.000Z</time>
      </trkpt>
      <trkpt lat="48.05929" lon="6.95826">
        <ele>912.59997558594</ele>
        <time>2022-11-01T11:21:17.000Z</time>
      </trkpt>
      <trkpt lat="48.05927" lon="6.95829">
        <ele>913</ele>
        <time>2022-11-01T11:21:23.000Z</time>
      </trkpt>
      <trkpt lat="48.05926" lon="6.9583">
        <ele>913.40002441406</ele>
        <time>2022-11-01T11:21:26.000Z</time>
      </trkpt>
      <trkpt lat="48.05926" lon="6.95831">
        <ele>913.59997558594</ele>
        <time>2022-11-01T11:21:27.000Z</time>
      </trkpt>
      <trkpt lat="48.05924" lon="6.95834">
        <ele>914</ele>
        <time>2022-11-01T11:21:33.000Z</time>
      </trkpt>
      <trkpt lat="48.05925" lon="6.95835">
        <ele>914.40002441406</ele>
        <time>2022-11-01T11:21:36.000Z</time>
      </trkpt>
      <trkpt lat="48.05924" lon="6.95835">
        <ele>914.59997558594</ele>
        <time>2022-11-01T11:21:39.000Z</time>
      </trkpt>
      <trkpt lat="48.05924" lon="6.95836">
        <ele>914.59997558594</ele>
        <time>2022-11-01T11:21:44.000Z</time>
      </trkpt>
      <trkpt lat="48.05924" lon="6.95837">
        <ele>915.40002441406</ele>
        <time>2022-11-01T11:21:58.000Z</time>
      </trkpt>
      <trkpt lat="48.05924" lon="6.95837">
        <ele>915.59997558594</ele>
        <time>2022-11-01T11:21:59.000Z</time>
      </trkpt>
      <trkpt lat="48.05924" lon="6.95839">
        <ele>916.19995117188</ele>
        <time>2022-11-01T11:22:02.000Z</time>
      </trkpt>
      <trkpt lat="48.05923" lon="6.95839">
        <ele>916.59997558594</ele>
        <time>2022-11-01T11:22:05.000Z</time>
      </trkpt>
      <trkpt lat="48.05922" lon="6.95843">
        <ele>917</ele>
        <time>2022-11-01T11:22:10.000Z</time>
      </trkpt>
      <trkpt lat="48.05923" lon="6.95846">
        <ele>917.19995117188</ele>
        <time>2022-11-01T11:22:27.000Z</time>
      </trkpt>
      <trkpt lat="48.05925" lon="6.95846">
        <ele>917.40002441406</ele>
        <time>2022-11-01T11:22:32.000Z</time>
      </trkpt>
      <trkpt lat="48.05926" lon="6.95847">
        <ele>917.59997558594</ele>
        <time>2022-11-01T11:22:37.000Z</time>
      </trkpt>
      <trkpt lat="48.05926" lon="6.95847">
        <ele>917.59997558594</ele>
        <time>2022-11-01T11:22:38.000Z</time>
      </trkpt>
      <trkpt lat="48.05926" lon="6.9585">
        <ele>918.40002441406</ele>
        <time>2022-11-01T11:22:43.000Z</time>
      </trkpt>
      <trkpt lat="48.05918" lon="6.95857">
        <ele>918</ele>
        <time>2022-11-01T11:22:49.000Z</time>
      </trkpt>
      <trkpt lat="48.05909" lon="6.95863">
        <ele>917.80004882812</ele>
        <time>2022-11-01T11:22:55.000Z</time>
      </trkpt>
      <trkpt lat="48.05909" lon="6.95863">
        <ele>918.80004882812</ele>
        <time>2022-11-01T11:22:59.000Z</time>
      </trkpt>
      <trkpt lat="48.05907" lon="6.95865">
        <ele>918.80004882812</ele>
        <time>2022-11-01T11:23:00.000Z</time>
      </trkpt>
      <trkpt lat="48.05906" lon="6.95867">
        <ele>919.59997558594</ele>
        <time>2022-11-01T11:23:05.000Z</time>
      </trkpt>
      <trkpt lat="48.05907" lon="6.95867">
        <ele>919.80004882812</ele>
        <time>2022-11-01T11:23:06.000Z</time>
      </trkpt>
      <trkpt lat="48.05908" lon="6.95869">
        <ele>920.19995117188</ele>
        <time>2022-11-01T11:23:11.000Z</time>
      </trkpt>
      <trkpt lat="48.05908" lon="6.95868">
        <ele>920.40002441406</ele>
        <time>2022-11-01T11:23:12.000Z</time>
      </trkpt>
      <trkpt lat="48.05907" lon="6.95868">
        <ele>920.80004882812</ele>
        <time>2022-11-01T11:23:16.000Z</time>
      </trkpt>
      <trkpt lat="48.05907" lon="6.95868">
        <ele>921</ele>
        <time>2022-11-01T11:23:17.000Z</time>
      </trkpt>
      <trkpt lat="48.05908" lon="6.95865">
        <ele>921.40002441406</ele>
        <time>2022-11-01T11:23:22.000Z</time>
      </trkpt>
      <trkpt lat="48.05906" lon="6.95863">
        <ele>921.40002441406</ele>
        <time>2022-11-01T11:23:25.000Z</time>
      </trkpt>
      <trkpt lat="48.05907" lon="6.95863">
        <ele>921.59997558594</ele>
        <time>2022-11-01T11:23:29.000Z</time>
      </trkpt>
      <trkpt lat="48.05908" lon="6.95864">
        <ele>921.59997558594</ele>
        <time>2022-11-01T11:23:37.000Z</time>
      </trkpt>
      <trkpt lat="48.05906" lon="6.95865">
        <ele>921.59997558594</ele>
        <time>2022-11-01T11:23:43.000Z</time>
      </trkpt>
      <trkpt lat="48.05906" lon="6.95865">
        <ele>921.59997558594</ele>
        <time>2022-11-01T11:23:48.000Z</time>
      </trkpt>
      <trkpt lat="48.05905" lon="6.95865">
        <ele>922</ele>
        <time>2022-11-01T11:23:53.000Z</time>
      </trkpt>
      <trkpt lat="48.05905" lon="6.95865">
        <ele>923</ele>
        <time>2022-11-01T11:24:09.000Z</time>
      </trkpt>
      <trkpt lat="48.05905" lon="6.95865">
        <ele>923</ele>
        <time>2022-11-01T11:24:10.000Z</time>
      </trkpt>
      <trkpt lat="48.05905" lon="6.95865">
        <ele>923</ele>
        <time>2022-11-01T11:24:11.000Z</time>
      </trkpt>
      <trkpt lat="48.05905" lon="6.95865">
        <ele>923.59997558594</ele>
        <time>2022-11-01T11:24:20.000Z</time>
      </trkpt>
      <trkpt lat="48.05904" lon="6.95865">
        <ele>924</ele>
        <time>2022-11-01T11:24:24.000Z</time>
      </trkpt>
      <trkpt lat="48.05902" lon="6.95875">
        <ele>925</ele>
        <time>2022-11-01T11:24:30.000Z</time>
      </trkpt>
      <trkpt lat="48.05901" lon="6.95878">
        <ele>925</ele>
        <time>2022-11-01T11:24:32.000Z</time>
      </trkpt>
      <trkpt lat="48.05897" lon="6.95884">
        <ele>925.40002441406</ele>
        <time>2022-11-01T11:24:35.000Z</time>
      </trkpt>
      <trkpt lat="48.05896" lon="6.95888">
        <ele>925.80004882812</ele>
        <time>2022-11-01T11:24:40.000Z</time>
      </trkpt>
      <trkpt lat="48.05896" lon="6.95888">
        <ele>925.80004882812</ele>
        <time>2022-11-01T11:24:41.000Z</time>
      </trkpt>
      <trkpt lat="48.05895" lon="6.9589">
        <ele>926.19995117188</ele>
        <time>2022-11-01T11:24:45.000Z</time>
      </trkpt>
      <trkpt lat="48.05895" lon="6.9589">
        <ele>926.40002441406</ele>
        <time>2022-11-01T11:24:46.000Z</time>
      </trkpt>
      <trkpt lat="48.0589" lon="6.95894">
        <ele>927</ele>
        <time>2022-11-01T11:24:52.000Z</time>
      </trkpt>
      <trkpt lat="48.05886" lon="6.95899">
        <ele>927.19995117188</ele>
        <time>2022-11-01T11:24:56.000Z</time>
      </trkpt>
      <trkpt lat="48.0588" lon="6.95909">
        <ele>928</ele>
        <time>2022-11-01T11:25:03.000Z</time>
      </trkpt>
      <trkpt lat="48.0588" lon="6.9591">
        <ele>928.40002441406</ele>
        <time>2022-11-01T11:25:06.000Z</time>
      </trkpt>
      <trkpt lat="48.05878" lon="6.95912">
        <ele>928.40002441406</ele>
        <time>2022-11-01T11:25:10.000Z</time>
      </trkpt>
      <trkpt lat="48.05879" lon="6.95913">
        <ele>929</ele>
        <time>2022-11-01T11:25:14.000Z</time>
      </trkpt>
      <trkpt lat="48.05878" lon="6.95914">
        <ele>929.40002441406</ele>
        <time>2022-11-01T11:25:16.000Z</time>
      </trkpt>
      <trkpt lat="48.05876" lon="6.95915">
        <ele>929.59997558594</ele>
        <time>2022-11-01T11:25:19.000Z</time>
      </trkpt>
      <trkpt lat="48.05876" lon="6.95915">
        <ele>929.59997558594</ele>
        <time>2022-11-01T11:25:20.000Z</time>
      </trkpt>
      <trkpt lat="48.05876" lon="6.95915">
        <ele>930.40002441406</ele>
        <time>2022-11-01T11:25:30.000Z</time>
      </trkpt>
      <trkpt lat="48.05876" lon="6.95915">
        <ele>930.59997558594</ele>
        <time>2022-11-01T11:25:31.000Z</time>
      </trkpt>
      <trkpt lat="48.05877" lon="6.95918">
        <ele>931.19995117188</ele>
        <time>2022-11-01T11:25:37.000Z</time>
      </trkpt>
      <trkpt lat="48.05879" lon="6.95921">
        <ele>931.40002441406</ele>
        <time>2022-11-01T11:25:41.000Z</time>
      </trkpt>
      <trkpt lat="48.05879" lon="6.95921">
        <ele>931.59997558594</ele>
        <time>2022-11-01T11:25:42.000Z</time>
      </trkpt>
      <trkpt lat="48.05881" lon="6.95923">
        <ele>932</ele>
        <time>2022-11-01T11:25:46.000Z</time>
      </trkpt>
      <trkpt lat="48.05881" lon="6.95925">
        <ele>932.19995117188</ele>
        <time>2022-11-01T11:25:48.000Z</time>
      </trkpt>
      <trkpt lat="48.05885" lon="6.95929">
        <ele>932.80004882812</ele>
        <time>2022-11-01T11:25:52.000Z</time>
      </trkpt>
      <trkpt lat="48.05886" lon="6.95934">
        <ele>933.59997558594</ele>
        <time>2022-11-01T11:26:01.000Z</time>
      </trkpt>
      <trkpt lat="48.05887" lon="6.95935">
        <ele>933.80004882812</ele>
        <time>2022-11-01T11:26:03.000Z</time>
      </trkpt>
      <trkpt lat="48.05886" lon="6.95936">
        <ele>934</ele>
        <time>2022-11-01T11:26:05.000Z</time>
      </trkpt>
      <trkpt lat="48.05886" lon="6.95937">
        <ele>934.19995117188</ele>
        <time>2022-11-01T11:26:06.000Z</time>
      </trkpt>
      <trkpt lat="48.05885" lon="6.95938">
        <ele>934.80004882812</ele>
        <time>2022-11-01T11:26:08.000Z</time>
      </trkpt>
      <trkpt lat="48.05885" lon="6.95939">
        <ele>935.40002441406</ele>
        <time>2022-11-01T11:26:10.000Z</time>
      </trkpt>
      <trkpt lat="48.05886" lon="6.95943">
        <ele>936</ele>
        <time>2022-11-01T11:26:14.000Z</time>
      </trkpt>
      <trkpt lat="48.05886" lon="6.95946">
        <ele>936.40002441406</ele>
        <time>2022-11-01T11:26:17.000Z</time>
      </trkpt>
      <trkpt lat="48.05886" lon="6.95947">
        <ele>936.40002441406</ele>
        <time>2022-11-01T11:26:18.000Z</time>
      </trkpt>
      <trkpt lat="48.05886" lon="6.95951">
        <ele>936.59997558594</ele>
        <time>2022-11-01T11:26:21.000Z</time>
      </trkpt>
      <trkpt lat="48.05886" lon="6.95953">
        <ele>937</ele>
        <time>2022-11-01T11:26:23.000Z</time>
      </trkpt>
      <trkpt lat="48.05886" lon="6.95955">
        <ele>937.19995117188</ele>
        <time>2022-11-01T11:26:24.000Z</time>
      </trkpt>
      <trkpt lat="48.05885" lon="6.95958">
        <ele>937.19995117188</ele>
        <time>2022-11-01T11:26:26.000Z</time>
      </trkpt>
      <trkpt lat="48.05887" lon="6.95961">
        <ele>937.80004882812</ele>
        <time>2022-11-01T11:26:32.000Z</time>
      </trkpt>
      <trkpt lat="48.05887" lon="6.95962">
        <ele>938</ele>
        <time>2022-11-01T11:26:33.000Z</time>
      </trkpt>
      <trkpt lat="48.05888" lon="6.95963">
        <ele>938</ele>
        <time>2022-11-01T11:26:34.000Z</time>
      </trkpt>
      <trkpt lat="48.05887" lon="6.95967">
        <ele>939.19995117188</ele>
        <time>2022-11-01T11:26:40.000Z</time>
      </trkpt>
      <trkpt lat="48.05884" lon="6.95972">
        <ele>940</ele>
        <time>2022-11-01T11:26:47.000Z</time>
      </trkpt>
      <trkpt lat="48.05883" lon="6.95974">
        <ele>940.19995117188</ele>
        <time>2022-11-01T11:26:49.000Z</time>
      </trkpt>
      <trkpt lat="48.0588" lon="6.95978">
        <ele>940.40002441406</ele>
        <time>2022-11-01T11:26:53.000Z</time>
      </trkpt>
      <trkpt lat="48.05877" lon="6.95981">
        <ele>940.80004882812</ele>
        <time>2022-11-01T11:26:55.000Z</time>
      </trkpt>
      <trkpt lat="48.05873" lon="6.95985">
        <ele>940.80004882812</ele>
        <time>2022-11-01T11:26:59.000Z</time>
      </trkpt>
      <trkpt lat="48.0587" lon="6.95989">
        <ele>940.59997558594</ele>
        <time>2022-11-01T11:27:02.000Z</time>
      </trkpt>
      <trkpt lat="48.0587" lon="6.95991">
        <ele>940.40002441406</ele>
        <time>2022-11-01T11:27:05.000Z</time>
      </trkpt>
      <trkpt lat="48.05872" lon="6.95993">
        <ele>940.40002441406</ele>
        <time>2022-11-01T11:27:12.000Z</time>
      </trkpt>
      <trkpt lat="48.05871" lon="6.95993">
        <ele>940.40002441406</ele>
        <time>2022-11-01T11:27:15.000Z</time>
      </trkpt>
      <trkpt lat="48.05871" lon="6.95994">
        <ele>940.40002441406</ele>
        <time>2022-11-01T11:27:17.000Z</time>
      </trkpt>
      <trkpt lat="48.05871" lon="6.95995">
        <ele>940.40002441406</ele>
        <time>2022-11-01T11:27:23.000Z</time>
      </trkpt>
      <trkpt lat="48.05871" lon="6.95995">
        <ele>940.59997558594</ele>
        <time>2022-11-01T11:27:30.000Z</time>
      </trkpt>
      <trkpt lat="48.05872" lon="6.9599">
        <ele>940.59997558594</ele>
        <time>2022-11-01T11:27:52.000Z</time>
      </trkpt>
      <trkpt lat="48.05872" lon="6.95988">
        <ele>940</ele>
        <time>2022-11-01T11:28:04.000Z</time>
      </trkpt>
      <trkpt lat="48.05872" lon="6.95987">
        <ele>940</ele>
        <time>2022-11-01T11:28:07.000Z</time>
      </trkpt>
      <trkpt lat="48.05872" lon="6.95985">
        <ele>939.59997558594</ele>
        <time>2022-11-01T11:28:14.000Z</time>
      </trkpt>
      <trkpt lat="48.05872" lon="6.95985">
        <ele>939.40002441406</ele>
        <time>2022-11-01T11:28:15.000Z</time>
      </trkpt>
      <trkpt lat="48.05872" lon="6.95985">
        <ele>939.19995117188</ele>
        <time>2022-11-01T11:28:18.000Z</time>
      </trkpt>
      <trkpt lat="48.05871" lon="6.95987">
        <ele>938.40002441406</ele>
        <time>2022-11-01T11:28:27.000Z</time>
      </trkpt>
      <trkpt lat="48.05871" lon="6.9599">
        <ele>938.80004882812</ele>
        <time>2022-11-01T11:28:32.000Z</time>
      </trkpt>
      <trkpt lat="48.05871" lon="6.95993">
        <ele>939.19995117188</ele>
        <time>2022-11-01T11:28:36.000Z</time>
      </trkpt>
      <trkpt lat="48.05871" lon="6.95993">
        <ele>939.59997558594</ele>
        <time>2022-11-01T11:28:40.000Z</time>
      </trkpt>
      <trkpt lat="48.05871" lon="6.95993">
        <ele>940.19995117188</ele>
        <time>2022-11-01T11:28:45.000Z</time>
      </trkpt>
      <trkpt lat="48.0587" lon="6.95994">
        <ele>941.19995117188</ele>
        <time>2022-11-01T11:28:58.000Z</time>
      </trkpt>
      <trkpt lat="48.05865" lon="6.96001">
        <ele>942.19995117188</ele>
        <time>2022-11-01T11:29:07.000Z</time>
      </trkpt>
      <trkpt lat="48.05865" lon="6.96003">
        <ele>942.40002441406</ele>
        <time>2022-11-01T11:29:08.000Z</time>
      </trkpt>
      <trkpt lat="48.05864" lon="6.96013">
        <ele>943.19995117188</ele>
        <time>2022-11-01T11:29:14.000Z</time>
      </trkpt>
      <trkpt lat="48.05863" lon="6.96014">
        <ele>943.19995117188</ele>
        <time>2022-11-01T11:29:15.000Z</time>
      </trkpt>
      <trkpt lat="48.05862" lon="6.9602">
        <ele>943.59997558594</ele>
        <time>2022-11-01T11:29:19.000Z</time>
      </trkpt>
      <trkpt lat="48.05861" lon="6.96023">
        <ele>944.19995117188</ele>
        <time>2022-11-01T11:29:25.000Z</time>
      </trkpt>
      <trkpt lat="48.05861" lon="6.96023">
        <ele>944.40002441406</ele>
        <time>2022-11-01T11:29:27.000Z</time>
      </trkpt>
      <trkpt lat="48.05865" lon="6.96025">
        <ele>945</ele>
        <time>2022-11-01T11:29:31.000Z</time>
      </trkpt>
      <trkpt lat="48.05863" lon="6.96028">
        <ele>945.40002441406</ele>
        <time>2022-11-01T11:29:36.000Z</time>
      </trkpt>
      <trkpt lat="48.05863" lon="6.96028">
        <ele>945.80004882812</ele>
        <time>2022-11-01T11:29:39.000Z</time>
      </trkpt>
      <trkpt lat="48.05862" lon="6.96027">
        <ele>946</ele>
        <time>2022-11-01T11:29:41.000Z</time>
      </trkpt>
      <trkpt lat="48.05862" lon="6.96027">
        <ele>946.40002441406</ele>
        <time>2022-11-01T11:29:45.000Z</time>
      </trkpt>
      <trkpt lat="48.05862" lon="6.96027">
        <ele>946.59997558594</ele>
        <time>2022-11-01T11:29:47.000Z</time>
      </trkpt>
      <trkpt lat="48.05862" lon="6.96027">
        <ele>946.80004882812</ele>
        <time>2022-11-01T11:29:48.000Z</time>
      </trkpt>
      <trkpt lat="48.05862" lon="6.96026">
        <ele>947</ele>
        <time>2022-11-01T11:29:50.000Z</time>
      </trkpt>
      <trkpt lat="48.05864" lon="6.96027">
        <ele>947.19995117188</ele>
        <time>2022-11-01T11:29:53.000Z</time>
      </trkpt>
      <trkpt lat="48.05865" lon="6.96028">
        <ele>947.40002441406</ele>
        <time>2022-11-01T11:29:54.000Z</time>
      </trkpt>
      <trkpt lat="48.05866" lon="6.96029">
        <ele>947.40002441406</ele>
        <time>2022-11-01T11:29:56.000Z</time>
      </trkpt>
      <trkpt lat="48.05867" lon="6.96028">
        <ele>947.59997558594</ele>
        <time>2022-11-01T11:29:57.000Z</time>
      </trkpt>
      <trkpt lat="48.05869" lon="6.96028">
        <ele>948</ele>
        <time>2022-11-01T11:30:00.000Z</time>
      </trkpt>
      <trkpt lat="48.0587" lon="6.96028">
        <ele>948</ele>
        <time>2022-11-01T11:30:01.000Z</time>
      </trkpt>
      <trkpt lat="48.05875" lon="6.96032">
        <ele>948.80004882812</ele>
        <time>2022-11-01T11:30:06.000Z</time>
      </trkpt>
      <trkpt lat="48.05876" lon="6.96035">
        <ele>949.19995117188</ele>
        <time>2022-11-01T11:30:10.000Z</time>
      </trkpt>
      <trkpt lat="48.05876" lon="6.96038">
        <ele>949.80004882812</ele>
        <time>2022-11-01T11:30:14.000Z</time>
      </trkpt>
      <trkpt lat="48.05874" lon="6.96041">
        <ele>950.19995117188</ele>
        <time>2022-11-01T11:30:20.000Z</time>
      </trkpt>
      <trkpt lat="48.05874" lon="6.96042">
        <ele>950.19995117188</ele>
        <time>2022-11-01T11:30:26.000Z</time>
      </trkpt>
      <trkpt lat="48.05878" lon="6.9605">
        <ele>950</ele>
        <time>2022-11-01T11:30:33.000Z</time>
      </trkpt>
      <trkpt lat="48.05879" lon="6.96054">
        <ele>951</ele>
        <time>2022-11-01T11:30:38.000Z</time>
      </trkpt>
      <trkpt lat="48.05877" lon="6.96057">
        <ele>952</ele>
        <time>2022-11-01T11:30:43.000Z</time>
      </trkpt>
      <trkpt lat="48.05877" lon="6.96056">
        <ele>952.80004882812</ele>
        <time>2022-11-01T11:30:48.000Z</time>
      </trkpt>
      <trkpt lat="48.05876" lon="6.96054">
        <ele>953.19995117188</ele>
        <time>2022-11-01T11:30:51.000Z</time>
      </trkpt>
      <trkpt lat="48.05876" lon="6.96054">
        <ele>953.59997558594</ele>
        <time>2022-11-01T11:30:53.000Z</time>
      </trkpt>
      <trkpt lat="48.05876" lon="6.96056">
        <ele>954</ele>
        <time>2022-11-01T11:30:58.000Z</time>
      </trkpt>
      <trkpt lat="48.05875" lon="6.96058">
        <ele>953.80004882812</ele>
        <time>2022-11-01T11:31:03.000Z</time>
      </trkpt>
      <trkpt lat="48.05875" lon="6.96058">
        <ele>954.40002441406</ele>
        <time>2022-11-01T11:31:12.000Z</time>
      </trkpt>
      <trkpt lat="48.05876" lon="6.96058">
        <ele>955.19995117188</ele>
        <time>2022-11-01T11:31:20.000Z</time>
      </trkpt>
      <trkpt lat="48.05876" lon="6.96058">
        <ele>955.40002441406</ele>
        <time>2022-11-01T11:31:22.000Z</time>
      </trkpt>
      <trkpt lat="48.05876" lon="6.96059">
        <ele>955.80004882812</ele>
        <time>2022-11-01T11:31:26.000Z</time>
      </trkpt>
      <trkpt lat="48.05877" lon="6.96061">
        <ele>956.40002441406</ele>
        <time>2022-11-01T11:31:32.000Z</time>
      </trkpt>
      <trkpt lat="48.05882" lon="6.96061">
        <ele>957</ele>
        <time>2022-11-01T11:31:40.000Z</time>
      </trkpt>
      <trkpt lat="48.05886" lon="6.96063">
        <ele>957.40002441406</ele>
        <time>2022-11-01T11:31:48.000Z</time>
      </trkpt>
      <trkpt lat="48.05887" lon="6.96066">
        <ele>957.59997558594</ele>
        <time>2022-11-01T11:31:50.000Z</time>
      </trkpt>
      <trkpt lat="48.05895" lon="6.96075">
        <ele>958</ele>
        <time>2022-11-01T11:31:54.000Z</time>
      </trkpt>
      <trkpt lat="48.059" lon="6.96082">
        <ele>958.40002441406</ele>
        <time>2022-11-01T11:31:58.000Z</time>
      </trkpt>
      <trkpt lat="48.059" lon="6.96084">
        <ele>958.40002441406</ele>
        <time>2022-11-01T11:31:59.000Z</time>
      </trkpt>
      <trkpt lat="48.059" lon="6.96092">
        <ele>958.59997558594</ele>
        <time>2022-11-01T11:32:03.000Z</time>
      </trkpt>
      <trkpt lat="48.05902" lon="6.96104">
        <ele>959</ele>
        <time>2022-11-01T11:32:08.000Z</time>
      </trkpt>
      <trkpt lat="48.05901" lon="6.9611">
        <ele>959.19995117188</ele>
        <time>2022-11-01T11:32:12.000Z</time>
      </trkpt>
      <trkpt lat="48.05903" lon="6.96111">
        <ele>959.40002441406</ele>
        <time>2022-11-01T11:32:15.000Z</time>
      </trkpt>
      <trkpt lat="48.05901" lon="6.96117">
        <ele>959.40002441406</ele>
        <time>2022-11-01T11:32:20.000Z</time>
      </trkpt>
      <trkpt lat="48.05905" lon="6.96124">
        <ele>959.80004882812</ele>
        <time>2022-11-01T11:32:26.000Z</time>
      </trkpt>
      <trkpt lat="48.05903" lon="6.96128">
        <ele>960.40002441406</ele>
        <time>2022-11-01T11:32:31.000Z</time>
      </trkpt>
      <trkpt lat="48.05903" lon="6.9613">
        <ele>960.40002441406</ele>
        <time>2022-11-01T11:32:38.000Z</time>
      </trkpt>
      <trkpt lat="48.05896" lon="6.96131">
        <ele>960.40002441406</ele>
        <time>2022-11-01T11:32:45.000Z</time>
      </trkpt>
      <trkpt lat="48.05901" lon="6.9613">
        <ele>960.19995117188</ele>
        <time>2022-11-01T11:32:56.000Z</time>
      </trkpt>
      <trkpt lat="48.05902" lon="6.9613">
        <ele>960.19995117188</ele>
        <time>2022-11-01T11:33:06.000Z</time>
      </trkpt>
      <trkpt lat="48.05903" lon="6.96129">
        <ele>960</ele>
        <time>2022-11-01T11:33:15.000Z</time>
      </trkpt>
      <trkpt lat="48.05904" lon="6.96129">
        <ele>960</ele>
        <time>2022-11-01T11:33:18.000Z</time>
      </trkpt>
      <trkpt lat="48.05904" lon="6.96129">
        <ele>960</ele>
        <time>2022-11-01T11:33:25.000Z</time>
      </trkpt>
      <trkpt lat="48.05904" lon="6.96129">
        <ele>960</ele>
        <time>2022-11-01T11:33:27.000Z</time>
      </trkpt>
      <trkpt lat="48.05904" lon="6.96129">
        <ele>960</ele>
        <time>2022-11-01T11:33:33.000Z</time>
      </trkpt>
      <trkpt lat="48.05901" lon="6.96136">
        <ele>960.40002441406</ele>
        <time>2022-11-01T11:33:44.000Z</time>
      </trkpt>
      <trkpt lat="48.059" lon="6.96138">
        <ele>960.59997558594</ele>
        <time>2022-11-01T11:33:45.000Z</time>
      </trkpt>
      <trkpt lat="48.05896" lon="6.96152">
        <ele>961.40002441406</ele>
        <time>2022-11-01T11:33:51.000Z</time>
      </trkpt>
      <trkpt lat="48.05896" lon="6.96154">
        <ele>961.59997558594</ele>
        <time>2022-11-01T11:33:53.000Z</time>
      </trkpt>
      <trkpt lat="48.05895" lon="6.96159">
        <ele>962</ele>
        <time>2022-11-01T11:33:56.000Z</time>
      </trkpt>
      <trkpt lat="48.05892" lon="6.96164">
        <ele>962.19995117188</ele>
        <time>2022-11-01T11:33:58.000Z</time>
      </trkpt>
      <trkpt lat="48.05885" lon="6.96169">
        <ele>962.59997558594</ele>
        <time>2022-11-01T11:34:03.000Z</time>
      </trkpt>
      <trkpt lat="48.05884" lon="6.9617">
        <ele>962.59997558594</ele>
        <time>2022-11-01T11:34:04.000Z</time>
      </trkpt>
      <trkpt lat="48.05882" lon="6.96173">
        <ele>963</ele>
        <time>2022-11-01T11:34:10.000Z</time>
      </trkpt>
      <trkpt lat="48.05881" lon="6.96174">
        <ele>963</ele>
        <time>2022-11-01T11:34:11.000Z</time>
      </trkpt>
      <trkpt lat="48.05878" lon="6.96179">
        <ele>963.19995117188</ele>
        <time>2022-11-01T11:34:14.000Z</time>
      </trkpt>
      <trkpt lat="48.05875" lon="6.9618">
        <ele>963.19995117188</ele>
        <time>2022-11-01T11:34:16.000Z</time>
      </trkpt>
      <trkpt lat="48.0587" lon="6.96184">
        <ele>963.40002441406</ele>
        <time>2022-11-01T11:34:20.000Z</time>
      </trkpt>
      <trkpt lat="48.05868" lon="6.96187">
        <ele>963.40002441406</ele>
        <time>2022-11-01T11:34:24.000Z</time>
      </trkpt>
      <trkpt lat="48.05867" lon="6.96188">
        <ele>963.59997558594</ele>
        <time>2022-11-01T11:34:26.000Z</time>
      </trkpt>
      <trkpt lat="48.05864" lon="6.9619">
        <ele>963.80004882812</ele>
        <time>2022-11-01T11:34:29.000Z</time>
      </trkpt>
      <trkpt lat="48.05863" lon="6.96191">
        <ele>963.80004882812</ele>
        <time>2022-11-01T11:34:30.000Z</time>
      </trkpt>
      <trkpt lat="48.0586" lon="6.96195">
        <ele>964.19995117188</ele>
        <time>2022-11-01T11:34:35.000Z</time>
      </trkpt>
      <trkpt lat="48.05857" lon="6.96196">
        <ele>964.40002441406</ele>
        <time>2022-11-01T11:34:37.000Z</time>
      </trkpt>
      <trkpt lat="48.05855" lon="6.96202">
        <ele>964.59997558594</ele>
        <time>2022-11-01T11:34:40.000Z</time>
      </trkpt>
      <trkpt lat="48.05854" lon="6.96203">
        <ele>964.59997558594</ele>
        <time>2022-11-01T11:34:41.000Z</time>
      </trkpt>
      <trkpt lat="48.05845" lon="6.96209">
        <ele>964.80004882812</ele>
        <time>2022-11-01T11:34:47.000Z</time>
      </trkpt>
      <trkpt lat="48.05844" lon="6.9621">
        <ele>964.80004882812</ele>
        <time>2022-11-01T11:34:48.000Z</time>
      </trkpt>
      <trkpt lat="48.0584" lon="6.96212">
        <ele>965.40002441406</ele>
        <time>2022-11-01T11:34:53.000Z</time>
      </trkpt>
      <trkpt lat="48.05838" lon="6.96211">
        <ele>965.59997558594</ele>
        <time>2022-11-01T11:34:57.000Z</time>
      </trkpt>
      <trkpt lat="48.05837" lon="6.96211">
        <ele>965.80004882812</ele>
        <time>2022-11-01T11:34:58.000Z</time>
      </trkpt>
      <trkpt lat="48.05833" lon="6.96211">
        <ele>966</ele>
        <time>2022-11-01T11:35:03.000Z</time>
      </trkpt>
      <trkpt lat="48.05831" lon="6.96212">
        <ele>966</ele>
        <time>2022-11-01T11:35:05.000Z</time>
      </trkpt>
      <trkpt lat="48.05827" lon="6.96215">
        <ele>966.19995117188</ele>
        <time>2022-11-01T11:35:09.000Z</time>
      </trkpt>
      <trkpt lat="48.0582" lon="6.96218">
        <ele>966.19995117188</ele>
        <time>2022-11-01T11:35:14.000Z</time>
      </trkpt>
      <trkpt lat="48.0582" lon="6.96217">
        <ele>966.19995117188</ele>
        <time>2022-11-01T11:35:15.000Z</time>
      </trkpt>
      <trkpt lat="48.05818" lon="6.96215">
        <ele>966.19995117188</ele>
        <time>2022-11-01T11:35:20.000Z</time>
      </trkpt>
      <trkpt lat="48.05817" lon="6.96216">
        <ele>966.40002441406</ele>
        <time>2022-11-01T11:35:24.000Z</time>
      </trkpt>
      <trkpt lat="48.05814" lon="6.96217">
        <ele>966.59997558594</ele>
        <time>2022-11-01T11:35:27.000Z</time>
      </trkpt>
      <trkpt lat="48.05814" lon="6.96216">
        <ele>966.59997558594</ele>
        <time>2022-11-01T11:35:28.000Z</time>
      </trkpt>
      <trkpt lat="48.05813" lon="6.96219">
        <ele>966.80004882812</ele>
        <time>2022-11-01T11:35:32.000Z</time>
      </trkpt>
      <trkpt lat="48.05813" lon="6.96219">
        <ele>966.80004882812</ele>
        <time>2022-11-01T11:35:33.000Z</time>
      </trkpt>
      <trkpt lat="48.05812" lon="6.9622">
        <ele>967</ele>
        <time>2022-11-01T11:35:36.000Z</time>
      </trkpt>
      <trkpt lat="48.05807" lon="6.96221">
        <ele>967.19995117188</ele>
        <time>2022-11-01T11:35:40.000Z</time>
      </trkpt>
      <trkpt lat="48.05806" lon="6.96221">
        <ele>967.19995117188</ele>
        <time>2022-11-01T11:35:43.000Z</time>
      </trkpt>
      <trkpt lat="48.05804" lon="6.96221">
        <ele>967.59997558594</ele>
        <time>2022-11-01T11:35:47.000Z</time>
      </trkpt>
      <trkpt lat="48.05803" lon="6.96221">
        <ele>967.80004882812</ele>
        <time>2022-11-01T11:35:49.000Z</time>
      </trkpt>
      <trkpt lat="48.05801" lon="6.96222">
        <ele>968</ele>
        <time>2022-11-01T11:35:51.000Z</time>
      </trkpt>
      <trkpt lat="48.058" lon="6.96223">
        <ele>968.19995117188</ele>
        <time>2022-11-01T11:35:55.000Z</time>
      </trkpt>
      <trkpt lat="48.05797" lon="6.96229">
        <ele>968.59997558594</ele>
        <time>2022-11-01T11:36:01.000Z</time>
      </trkpt>
      <trkpt lat="48.05791" lon="6.96236">
        <ele>968.59997558594</ele>
        <time>2022-11-01T11:36:05.000Z</time>
      </trkpt>
      <trkpt lat="48.05789" lon="6.96237">
        <ele>968.59997558594</ele>
        <time>2022-11-01T11:36:06.000Z</time>
      </trkpt>
      <trkpt lat="48.05788" lon="6.96238">
        <ele>968.80004882812</ele>
        <time>2022-11-01T11:36:07.000Z</time>
      </trkpt>
      <trkpt lat="48.05787" lon="6.96238">
        <ele>969</ele>
        <time>2022-11-01T11:36:09.000Z</time>
      </trkpt>
      <trkpt lat="48.05787" lon="6.96238">
        <ele>969.19995117188</ele>
        <time>2022-11-01T11:36:11.000Z</time>
      </trkpt>
      <trkpt lat="48.05786" lon="6.96239">
        <ele>969.59997558594</ele>
        <time>2022-11-01T11:36:15.000Z</time>
      </trkpt>
      <trkpt lat="48.05786" lon="6.9624">
        <ele>969.80004882812</ele>
        <time>2022-11-01T11:36:17.000Z</time>
      </trkpt>
      <trkpt lat="48.05785" lon="6.96241">
        <ele>970.19995117188</ele>
        <time>2022-11-01T11:36:20.000Z</time>
      </trkpt>
      <trkpt lat="48.05781" lon="6.96245">
        <ele>970.80004882812</ele>
        <time>2022-11-01T11:36:25.000Z</time>
      </trkpt>
      <trkpt lat="48.05781" lon="6.96246">
        <ele>970.80004882812</ele>
        <time>2022-11-01T11:36:26.000Z</time>
      </trkpt>
      <trkpt lat="48.05781" lon="6.96246">
        <ele>971</ele>
        <time>2022-11-01T11:36:27.000Z</time>
      </trkpt>
      <trkpt lat="48.0578" lon="6.96248">
        <ele>971.19995117188</ele>
        <time>2022-11-01T11:36:30.000Z</time>
      </trkpt>
      <trkpt lat="48.05781" lon="6.96249">
        <ele>971.40002441406</ele>
        <time>2022-11-01T11:36:34.000Z</time>
      </trkpt>
      <trkpt lat="48.05778" lon="6.96249">
        <ele>971.80004882812</ele>
        <time>2022-11-01T11:36:39.000Z</time>
      </trkpt>
      <trkpt lat="48.05776" lon="6.96249">
        <ele>972</ele>
        <time>2022-11-01T11:36:40.000Z</time>
      </trkpt>
      <trkpt lat="48.0577" lon="6.96246">
        <ele>972.40002441406</ele>
        <time>2022-11-01T11:36:45.000Z</time>
      </trkpt>
      <trkpt lat="48.05764" lon="6.96247">
        <ele>973</ele>
        <time>2022-11-01T11:36:51.000Z</time>
      </trkpt>
      <trkpt lat="48.05765" lon="6.96246">
        <ele>973.40002441406</ele>
        <time>2022-11-01T11:36:56.000Z</time>
      </trkpt>
      <trkpt lat="48.05761" lon="6.96246">
        <ele>973.80004882812</ele>
        <time>2022-11-01T11:37:00.000Z</time>
      </trkpt>
      <trkpt lat="48.05757" lon="6.96246">
        <ele>974</ele>
        <time>2022-11-01T11:37:03.000Z</time>
      </trkpt>
      <trkpt lat="48.05755" lon="6.96248">
        <ele>974.19995117188</ele>
        <time>2022-11-01T11:37:06.000Z</time>
      </trkpt>
      <trkpt lat="48.05753" lon="6.96248">
        <ele>974.40002441406</ele>
        <time>2022-11-01T11:37:08.000Z</time>
      </trkpt>
      <trkpt lat="48.05748" lon="6.96249">
        <ele>974.80004882812</ele>
        <time>2022-11-01T11:37:11.000Z</time>
      </trkpt>
      <trkpt lat="48.05745" lon="6.96249">
        <ele>975</ele>
        <time>2022-11-01T11:37:13.000Z</time>
      </trkpt>
      <trkpt lat="48.05743" lon="6.96248">
        <ele>975.19995117188</ele>
        <time>2022-11-01T11:37:15.000Z</time>
      </trkpt>
      <trkpt lat="48.05741" lon="6.96248">
        <ele>975.40002441406</ele>
        <time>2022-11-01T11:37:17.000Z</time>
      </trkpt>
      <trkpt lat="48.05741" lon="6.96248">
        <ele>975.59997558594</ele>
        <time>2022-11-01T11:37:18.000Z</time>
      </trkpt>
      <trkpt lat="48.0574" lon="6.96248">
        <ele>975.80004882812</ele>
        <time>2022-11-01T11:37:21.000Z</time>
      </trkpt>
      <trkpt lat="48.05733" lon="6.9625">
        <ele>975.80004882812</ele>
        <time>2022-11-01T11:37:26.000Z</time>
      </trkpt>
      <trkpt lat="48.05729" lon="6.96252">
        <ele>975.80004882812</ele>
        <time>2022-11-01T11:37:31.000Z</time>
      </trkpt>
      <trkpt lat="48.05729" lon="6.96252">
        <ele>976</ele>
        <time>2022-11-01T11:37:32.000Z</time>
      </trkpt>
      <trkpt lat="48.05727" lon="6.96255">
        <ele>976</ele>
        <time>2022-11-01T11:37:37.000Z</time>
      </trkpt>
      <trkpt lat="48.05722" lon="6.96256">
        <ele>976</ele>
        <time>2022-11-01T11:37:43.000Z</time>
      </trkpt>
      <trkpt lat="48.05722" lon="6.96255">
        <ele>976</ele>
        <time>2022-11-01T11:37:44.000Z</time>
      </trkpt>
      <trkpt lat="48.05721" lon="6.96257">
        <ele>976.40002441406</ele>
        <time>2022-11-01T11:37:47.000Z</time>
      </trkpt>
      <trkpt lat="48.05717" lon="6.96253">
        <ele>977</ele>
        <time>2022-11-01T11:37:53.000Z</time>
      </trkpt>
      <trkpt lat="48.05717" lon="6.96254">
        <ele>977.19995117188</ele>
        <time>2022-11-01T11:37:54.000Z</time>
      </trkpt>
      <trkpt lat="48.05717" lon="6.96254">
        <ele>977.59997558594</ele>
        <time>2022-11-01T11:37:56.000Z</time>
      </trkpt>
      <trkpt lat="48.05714" lon="6.96259">
        <ele>977.80004882812</ele>
        <time>2022-11-01T11:37:59.000Z</time>
      </trkpt>
      <trkpt lat="48.05715" lon="6.96259">
        <ele>977.80004882812</ele>
        <time>2022-11-01T11:38:02.000Z</time>
      </trkpt>
      <trkpt lat="48.05716" lon="6.96259">
        <ele>977.80004882812</ele>
        <time>2022-11-01T11:38:03.000Z</time>
      </trkpt>
      <trkpt lat="48.05716" lon="6.96259">
        <ele>978</ele>
        <time>2022-11-01T11:38:07.000Z</time>
      </trkpt>
      <trkpt lat="48.05715" lon="6.96259">
        <ele>979.40002441406</ele>
        <time>2022-11-01T11:38:21.000Z</time>
      </trkpt>
      <trkpt lat="48.05708" lon="6.96264">
        <ele>979.40002441406</ele>
        <time>2022-11-01T11:38:26.000Z</time>
      </trkpt>
      <trkpt lat="48.05701" lon="6.96271">
        <ele>980</ele>
        <time>2022-11-01T11:38:32.000Z</time>
      </trkpt>
      <trkpt lat="48.05697" lon="6.96272">
        <ele>980.40002441406</ele>
        <time>2022-11-01T11:38:35.000Z</time>
      </trkpt>
      <trkpt lat="48.05697" lon="6.96274">
        <ele>980.59997558594</ele>
        <time>2022-11-01T11:38:38.000Z</time>
      </trkpt>
      <trkpt lat="48.05691" lon="6.96277">
        <ele>981.40002441406</ele>
        <time>2022-11-01T11:38:45.000Z</time>
      </trkpt>
      <trkpt lat="48.0569" lon="6.96276">
        <ele>981.40002441406</ele>
        <time>2022-11-01T11:38:46.000Z</time>
      </trkpt>
      <trkpt lat="48.05686" lon="6.96273">
        <ele>982.19995117188</ele>
        <time>2022-11-01T11:38:51.000Z</time>
      </trkpt>
      <trkpt lat="48.05684" lon="6.9627">
        <ele>982.40002441406</ele>
        <time>2022-11-01T11:38:53.000Z</time>
      </trkpt>
      <trkpt lat="48.05684" lon="6.96271">
        <ele>982.59997558594</ele>
        <time>2022-11-01T11:38:54.000Z</time>
      </trkpt>
      <trkpt lat="48.05682" lon="6.96269">
        <ele>983.19995117188</ele>
        <time>2022-11-01T11:38:58.000Z</time>
      </trkpt>
      <trkpt lat="48.05682" lon="6.96267">
        <ele>983.40002441406</ele>
        <time>2022-11-01T11:39:02.000Z</time>
      </trkpt>
      <trkpt lat="48.05683" lon="6.96266">
        <ele>983.59997558594</ele>
        <time>2022-11-01T11:39:06.000Z</time>
      </trkpt>
      <trkpt lat="48.05681" lon="6.96267">
        <ele>983.59997558594</ele>
        <time>2022-11-01T11:39:09.000Z</time>
      </trkpt>
      <trkpt lat="48.05674" lon="6.96271">
        <ele>983.59997558594</ele>
        <time>2022-11-01T11:39:13.000Z</time>
      </trkpt>
      <trkpt lat="48.05669" lon="6.96274">
        <ele>983.59997558594</ele>
        <time>2022-11-01T11:39:19.000Z</time>
      </trkpt>
      <trkpt lat="48.05666" lon="6.96278">
        <ele>983.80004882812</ele>
        <time>2022-11-01T11:39:23.000Z</time>
      </trkpt>
      <trkpt lat="48.05665" lon="6.96279">
        <ele>983.59997558594</ele>
        <time>2022-11-01T11:39:30.000Z</time>
      </trkpt>
      <trkpt lat="48.05666" lon="6.96282">
        <ele>983.59997558594</ele>
        <time>2022-11-01T11:39:36.000Z</time>
      </trkpt>
      <trkpt lat="48.05666" lon="6.96281">
        <ele>983.59997558594</ele>
        <time>2022-11-01T11:39:40.000Z</time>
      </trkpt>
      <trkpt lat="48.05665" lon="6.96281">
        <ele>983.80004882812</ele>
        <time>2022-11-01T11:39:43.000Z</time>
      </trkpt>
      <trkpt lat="48.05663" lon="6.96281">
        <ele>983.59997558594</ele>
        <time>2022-11-01T11:39:49.000Z</time>
      </trkpt>
      <trkpt lat="48.05662" lon="6.96281">
        <ele>984</ele>
        <time>2022-11-01T11:39:55.000Z</time>
      </trkpt>
      <trkpt lat="48.05663" lon="6.96282">
        <ele>984.19995117188</ele>
        <time>2022-11-01T11:39:59.000Z</time>
      </trkpt>
      <trkpt lat="48.05663" lon="6.96284">
        <ele>984.40002441406</ele>
        <time>2022-11-01T11:40:03.000Z</time>
      </trkpt>
      <trkpt lat="48.05663" lon="6.96283">
        <ele>984.59997558594</ele>
        <time>2022-11-01T11:40:16.000Z</time>
      </trkpt>
      <trkpt lat="48.05662" lon="6.96283">
        <ele>984.80004882812</ele>
        <time>2022-11-01T11:40:21.000Z</time>
      </trkpt>
      <trkpt lat="48.05663" lon="6.96286">
        <ele>985.19995117188</ele>
        <time>2022-11-01T11:40:27.000Z</time>
      </trkpt>
      <trkpt lat="48.05665" lon="6.96291">
        <ele>985.80004882812</ele>
        <time>2022-11-01T11:40:32.000Z</time>
      </trkpt>
      <trkpt lat="48.05665" lon="6.96291">
        <ele>985.80004882812</ele>
        <time>2022-11-01T11:40:33.000Z</time>
      </trkpt>
      <trkpt lat="48.05668" lon="6.96291">
        <ele>986.19995117188</ele>
        <time>2022-11-01T11:40:37.000Z</time>
      </trkpt>
      <trkpt lat="48.05667" lon="6.96294">
        <ele>986.59997558594</ele>
        <time>2022-11-01T11:40:41.000Z</time>
      </trkpt>
      <trkpt lat="48.05666" lon="6.96294">
        <ele>986.80004882812</ele>
        <time>2022-11-01T11:40:42.000Z</time>
      </trkpt>
      <trkpt lat="48.05667" lon="6.96294">
        <ele>987.19995117188</ele>
        <time>2022-11-01T11:40:47.000Z</time>
      </trkpt>
      <trkpt lat="48.05669" lon="6.96297">
        <ele>987.80004882812</ele>
        <time>2022-11-01T11:40:54.000Z</time>
      </trkpt>
      <trkpt lat="48.0567" lon="6.96298">
        <ele>987.80004882812</ele>
        <time>2022-11-01T11:40:55.000Z</time>
      </trkpt>
      <trkpt lat="48.05669" lon="6.96304">
        <ele>988.59997558594</ele>
        <time>2022-11-01T11:41:01.000Z</time>
      </trkpt>
      <trkpt lat="48.0567" lon="6.96305">
        <ele>988.80004882812</ele>
        <time>2022-11-01T11:41:02.000Z</time>
      </trkpt>
      <trkpt lat="48.0567" lon="6.96306">
        <ele>988.80004882812</ele>
        <time>2022-11-01T11:41:04.000Z</time>
      </trkpt>
      <trkpt lat="48.05668" lon="6.96307">
        <ele>988.80004882812</ele>
        <time>2022-11-01T11:41:07.000Z</time>
      </trkpt>
      <trkpt lat="48.05667" lon="6.96311">
        <ele>988.59997558594</ele>
        <time>2022-11-01T11:41:09.000Z</time>
      </trkpt>
      <trkpt lat="48.05666" lon="6.96312">
        <ele>988.59997558594</ele>
        <time>2022-11-01T11:41:10.000Z</time>
      </trkpt>
      <trkpt lat="48.05667" lon="6.96317">
        <ele>988.59997558594</ele>
        <time>2022-11-01T11:41:15.000Z</time>
      </trkpt>
      <trkpt lat="48.0567" lon="6.96321">
        <ele>989.59997558594</ele>
        <time>2022-11-01T11:41:21.000Z</time>
      </trkpt>
      <trkpt lat="48.05672" lon="6.96322">
        <ele>990.19995117188</ele>
        <time>2022-11-01T11:41:23.000Z</time>
      </trkpt>
      <trkpt lat="48.05675" lon="6.96323">
        <ele>990.80004882812</ele>
        <time>2022-11-01T11:41:26.000Z</time>
      </trkpt>
      <trkpt lat="48.05674" lon="6.96323">
        <ele>991.19995117188</ele>
        <time>2022-11-01T11:41:31.000Z</time>
      </trkpt>
      <trkpt lat="48.05674" lon="6.96324">
        <ele>991</ele>
        <time>2022-11-01T11:41:36.000Z</time>
      </trkpt>
      <trkpt lat="48.05674" lon="6.96326">
        <ele>991.19995117188</ele>
        <time>2022-11-01T11:41:39.000Z</time>
      </trkpt>
      <trkpt lat="48.05674" lon="6.96328">
        <ele>991.59997558594</ele>
        <time>2022-11-01T11:41:42.000Z</time>
      </trkpt>
      <trkpt lat="48.05673" lon="6.96329">
        <ele>992.19995117188</ele>
        <time>2022-11-01T11:41:46.000Z</time>
      </trkpt>
      <trkpt lat="48.05672" lon="6.96328">
        <ele>992.40002441406</ele>
        <time>2022-11-01T11:41:47.000Z</time>
      </trkpt>
      <trkpt lat="48.05672" lon="6.96325">
        <ele>992.80004882812</ele>
        <time>2022-11-01T11:41:55.000Z</time>
      </trkpt>
      <trkpt lat="48.05672" lon="6.96323">
        <ele>992.80004882812</ele>
        <time>2022-11-01T11:42:15.000Z</time>
      </trkpt>
      <trkpt lat="48.05671" lon="6.9632">
        <ele>992.80004882812</ele>
        <time>2022-11-01T11:42:23.000Z</time>
      </trkpt>
      <trkpt lat="48.05671" lon="6.96318">
        <ele>993.19995117188</ele>
        <time>2022-11-01T11:42:35.000Z</time>
      </trkpt>
      <trkpt lat="48.05673" lon="6.96327">
        <ele>993.40002441406</ele>
        <time>2022-11-01T11:42:45.000Z</time>
      </trkpt>
      <trkpt lat="48.05673" lon="6.96338">
        <ele>994</ele>
        <time>2022-11-01T11:42:48.000Z</time>
      </trkpt>
      <trkpt lat="48.05674" lon="6.96348">
        <ele>994.59997558594</ele>
        <time>2022-11-01T11:42:51.000Z</time>
      </trkpt>
      <trkpt lat="48.05672" lon="6.96355">
        <ele>995</ele>
        <time>2022-11-01T11:42:54.000Z</time>
      </trkpt>
      <trkpt lat="48.05672" lon="6.96356">
        <ele>995</ele>
        <time>2022-11-01T11:42:55.000Z</time>
      </trkpt>
      <trkpt lat="48.05671" lon="6.96362">
        <ele>995.59997558594</ele>
        <time>2022-11-01T11:43:00.000Z</time>
      </trkpt>
      <trkpt lat="48.0567" lon="6.96365">
        <ele>996.19995117188</ele>
        <time>2022-11-01T11:43:04.000Z</time>
      </trkpt>
      <trkpt lat="48.0567" lon="6.9637">
        <ele>996.40002441406</ele>
        <time>2022-11-01T11:43:09.000Z</time>
      </trkpt>
      <trkpt lat="48.05674" lon="6.96374">
        <ele>996.59997558594</ele>
        <time>2022-11-01T11:43:16.000Z</time>
      </trkpt>
      <trkpt lat="48.05676" lon="6.96378">
        <ele>996.80004882812</ele>
        <time>2022-11-01T11:43:22.000Z</time>
      </trkpt>
      <trkpt lat="48.05677" lon="6.96378">
        <ele>996.80004882812</ele>
        <time>2022-11-01T11:43:23.000Z</time>
      </trkpt>
      <trkpt lat="48.05676" lon="6.96378">
        <ele>996.80004882812</ele>
        <time>2022-11-01T11:43:25.000Z</time>
      </trkpt>
      <trkpt lat="48.05677" lon="6.96381">
        <ele>997</ele>
        <time>2022-11-01T11:43:29.000Z</time>
      </trkpt>
      <trkpt lat="48.05675" lon="6.96386">
        <ele>997.80004882812</ele>
        <time>2022-11-01T11:43:36.000Z</time>
      </trkpt>
      <trkpt lat="48.05676" lon="6.96389">
        <ele>997.80004882812</ele>
        <time>2022-11-01T11:43:42.000Z</time>
      </trkpt>
      <trkpt lat="48.05676" lon="6.96391">
        <ele>997.59997558594</ele>
        <time>2022-11-01T11:43:48.000Z</time>
      </trkpt>
      <trkpt lat="48.05677" lon="6.96391">
        <ele>997.80004882812</ele>
        <time>2022-11-01T11:43:53.000Z</time>
      </trkpt>
      <trkpt lat="48.05677" lon="6.96393">
        <ele>999</ele>
        <time>2022-11-01T11:44:06.000Z</time>
      </trkpt>
      <trkpt lat="48.05678" lon="6.964">
        <ele>999.59997558594</ele>
        <time>2022-11-01T11:44:10.000Z</time>
      </trkpt>
      <trkpt lat="48.05679" lon="6.96402">
        <ele>999.80004882812</ele>
        <time>2022-11-01T11:44:14.000Z</time>
      </trkpt>
      <trkpt lat="48.05679" lon="6.96403">
        <ele>1000</ele>
        <time>2022-11-01T11:44:15.000Z</time>
      </trkpt>
      <trkpt lat="48.05678" lon="6.96401">
        <ele>1000</ele>
        <time>2022-11-01T11:44:22.000Z</time>
      </trkpt>
      <trkpt lat="48.05681" lon="6.96402">
        <ele>1000.1999511719</ele>
        <time>2022-11-01T11:44:29.000Z</time>
      </trkpt>
      <trkpt lat="48.05679" lon="6.96407">
        <ele>1000.1999511719</ele>
        <time>2022-11-01T11:44:35.000Z</time>
      </trkpt>
      <trkpt lat="48.05679" lon="6.96408">
        <ele>1000</ele>
        <time>2022-11-01T11:44:39.000Z</time>
      </trkpt>
      <trkpt lat="48.0568" lon="6.96414">
        <ele>999.80004882812</ele>
        <time>2022-11-01T11:44:45.000Z</time>
      </trkpt>
      <trkpt lat="48.05682" lon="6.96416">
        <ele>1000</ele>
        <time>2022-11-01T11:44:50.000Z</time>
      </trkpt>
      <trkpt lat="48.0568" lon="6.96407">
        <ele>1000.5999755859</ele>
        <time>2022-11-01T11:44:54.000Z</time>
      </trkpt>
      <trkpt lat="48.0568" lon="6.96405">
        <ele>1001.1999511719</ele>
        <time>2022-11-01T11:44:56.000Z</time>
      </trkpt>
      <trkpt lat="48.0568" lon="6.96404">
        <ele>1001.5999755859</ele>
        <time>2022-11-01T11:44:58.000Z</time>
      </trkpt>
      <trkpt lat="48.05682" lon="6.96405">
        <ele>1002.1999511719</ele>
        <time>2022-11-01T11:45:02.000Z</time>
      </trkpt>
      <trkpt lat="48.05682" lon="6.96405">
        <ele>1002.1999511719</ele>
        <time>2022-11-01T11:45:03.000Z</time>
      </trkpt>
      <trkpt lat="48.05683" lon="6.96404">
        <ele>1002.4000244141</ele>
        <time>2022-11-01T11:45:06.000Z</time>
      </trkpt>
      <trkpt lat="48.05683" lon="6.96404">
        <ele>1002.5999755859</ele>
        <time>2022-11-01T11:45:11.000Z</time>
      </trkpt>
      <trkpt lat="48.05685" lon="6.96404">
        <ele>1002.8000488281</ele>
        <time>2022-11-01T11:45:15.000Z</time>
      </trkpt>
      <trkpt lat="48.05685" lon="6.96405">
        <ele>1002.8000488281</ele>
        <time>2022-11-01T11:45:16.000Z</time>
      </trkpt>
      <trkpt lat="48.05687" lon="6.96407">
        <ele>1003</ele>
        <time>2022-11-01T11:45:20.000Z</time>
      </trkpt>
      <trkpt lat="48.05688" lon="6.96407">
        <ele>1003.4000244141</ele>
        <time>2022-11-01T11:45:23.000Z</time>
      </trkpt>
      <trkpt lat="48.05689" lon="6.96407">
        <ele>1003.8000488281</ele>
        <time>2022-11-01T11:45:24.000Z</time>
      </trkpt>
      <trkpt lat="48.05692" lon="6.9641">
        <ele>1003.8000488281</ele>
        <time>2022-11-01T11:45:31.000Z</time>
      </trkpt>
      <trkpt lat="48.05697" lon="6.96411">
        <ele>1004</ele>
        <time>2022-11-01T11:45:36.000Z</time>
      </trkpt>
      <trkpt lat="48.05698" lon="6.96409">
        <ele>1004</ele>
        <time>2022-11-01T11:45:40.000Z</time>
      </trkpt>
      <trkpt lat="48.05697" lon="6.9641">
        <ele>1004.1999511719</ele>
        <time>2022-11-01T11:45:45.000Z</time>
      </trkpt>
      <trkpt lat="48.05698" lon="6.96406">
        <ele>1004.4000244141</ele>
        <time>2022-11-01T11:45:52.000Z</time>
      </trkpt>
      <trkpt lat="48.05697" lon="6.96406">
        <ele>1005</ele>
        <time>2022-11-01T11:46:05.000Z</time>
      </trkpt>
      <trkpt lat="48.05697" lon="6.96406">
        <ele>1005.1999511719</ele>
        <time>2022-11-01T11:46:15.000Z</time>
      </trkpt>
      <trkpt lat="48.05697" lon="6.96406">
        <ele>1005.1999511719</ele>
        <time>2022-11-01T11:46:17.000Z</time>
      </trkpt>
      <trkpt lat="48.05692" lon="6.96404">
        <ele>1005</ele>
        <time>2022-11-01T11:46:51.000Z</time>
      </trkpt>
      <trkpt lat="48.05692" lon="6.96404">
        <ele>1005</ele>
        <time>2022-11-01T11:46:54.000Z</time>
      </trkpt>
      <trkpt lat="48.05699" lon="6.96412">
        <ele>1004.5999755859</ele>
        <time>2022-11-01T11:47:13.000Z</time>
      </trkpt>
      <trkpt lat="48.05704" lon="6.96415">
        <ele>1004.8000488281</ele>
        <time>2022-11-01T11:47:18.000Z</time>
      </trkpt>
      <trkpt lat="48.05705" lon="6.96421">
        <ele>1005</ele>
        <time>2022-11-01T11:47:23.000Z</time>
      </trkpt>
      <trkpt lat="48.05709" lon="6.96432">
        <ele>1004.5999755859</ele>
        <time>2022-11-01T11:47:30.000Z</time>
      </trkpt>
      <trkpt lat="48.05711" lon="6.96442">
        <ele>1004.4000244141</ele>
        <time>2022-11-01T11:47:37.000Z</time>
      </trkpt>
      <trkpt lat="48.05715" lon="6.96448">
        <ele>1004.1999511719</ele>
        <time>2022-11-01T11:47:43.000Z</time>
      </trkpt>
      <trkpt lat="48.05712" lon="6.96449">
        <ele>1004.5999755859</ele>
        <time>2022-11-01T11:47:48.000Z</time>
      </trkpt>
      <trkpt lat="48.05716" lon="6.96452">
        <ele>1004.5999755859</ele>
        <time>2022-11-01T11:47:53.000Z</time>
      </trkpt>
      <trkpt lat="48.0572" lon="6.96458">
        <ele>1004.8000488281</ele>
        <time>2022-11-01T11:47:58.000Z</time>
      </trkpt>
      <trkpt lat="48.0572" lon="6.9646">
        <ele>1004.8000488281</ele>
        <time>2022-11-01T11:48:03.000Z</time>
      </trkpt>
      <trkpt lat="48.05718" lon="6.96463">
        <ele>1004.5999755859</ele>
        <time>2022-11-01T11:48:09.000Z</time>
      </trkpt>
      <trkpt lat="48.05719" lon="6.96464">
        <ele>1004.4000244141</ele>
        <time>2022-11-01T11:48:16.000Z</time>
      </trkpt>
      <trkpt lat="48.05722" lon="6.96468">
        <ele>1004.4000244141</ele>
        <time>2022-11-01T11:48:20.000Z</time>
      </trkpt>
      <trkpt lat="48.05723" lon="6.96475">
        <ele>1004.1999511719</ele>
        <time>2022-11-01T11:48:25.000Z</time>
      </trkpt>
      <trkpt lat="48.05728" lon="6.96483">
        <ele>1004.1999511719</ele>
        <time>2022-11-01T11:48:30.000Z</time>
      </trkpt>
      <trkpt lat="48.05728" lon="6.96491">
        <ele>1004.5999755859</ele>
        <time>2022-11-01T11:48:35.000Z</time>
      </trkpt>
      <trkpt lat="48.05731" lon="6.965">
        <ele>1004.5999755859</ele>
        <time>2022-11-01T11:48:41.000Z</time>
      </trkpt>
      <trkpt lat="48.05734" lon="6.96508">
        <ele>1004.4000244141</ele>
        <time>2022-11-01T11:48:47.000Z</time>
      </trkpt>
      <trkpt lat="48.05736" lon="6.96509">
        <ele>1004.1999511719</ele>
        <time>2022-11-01T11:48:49.000Z</time>
      </trkpt>
      <trkpt lat="48.05738" lon="6.96509">
        <ele>1004.1999511719</ele>
        <time>2022-11-01T11:48:52.000Z</time>
      </trkpt>
      <trkpt lat="48.0574" lon="6.96511">
        <ele>1004.4000244141</ele>
        <time>2022-11-01T11:48:54.000Z</time>
      </trkpt>
      <trkpt lat="48.05741" lon="6.96514">
        <ele>1004.5999755859</ele>
        <time>2022-11-01T11:48:56.000Z</time>
      </trkpt>
      <trkpt lat="48.05741" lon="6.96517">
        <ele>1004.5999755859</ele>
        <time>2022-11-01T11:48:59.000Z</time>
      </trkpt>
      <trkpt lat="48.05742" lon="6.96519">
        <ele>1004.5999755859</ele>
        <time>2022-11-01T11:49:00.000Z</time>
      </trkpt>
      <trkpt lat="48.05742" lon="6.96524">
        <ele>1004.8000488281</ele>
        <time>2022-11-01T11:49:02.000Z</time>
      </trkpt>
      <trkpt lat="48.05742" lon="6.96529">
        <ele>1004.8000488281</ele>
        <time>2022-11-01T11:49:06.000Z</time>
      </trkpt>
      <trkpt lat="48.05742" lon="6.96527">
        <ele>1004.8000488281</ele>
        <time>2022-11-01T11:49:11.000Z</time>
      </trkpt>
      <trkpt lat="48.05741" lon="6.96527">
        <ele>1004.4000244141</ele>
        <time>2022-11-01T11:49:14.000Z</time>
      </trkpt>
      <trkpt lat="48.05741" lon="6.96528">
        <ele>1004.4000244141</ele>
        <time>2022-11-01T11:49:17.000Z</time>
      </trkpt>
      <trkpt lat="48.05739" lon="6.96525">
        <ele>1004.4000244141</ele>
        <time>2022-11-01T11:49:25.000Z</time>
      </trkpt>
      <trkpt lat="48.05738" lon="6.96525">
        <ele>1005.4000244141</ele>
        <time>2022-11-01T11:49:41.000Z</time>
      </trkpt>
      <trkpt lat="48.05737" lon="6.96522">
        <ele>1005.4000244141</ele>
        <time>2022-11-01T11:49:46.000Z</time>
      </trkpt>
      <trkpt lat="48.05737" lon="6.96521">
        <ele>1005.4000244141</ele>
        <time>2022-11-01T11:49:48.000Z</time>
      </trkpt>
      <trkpt lat="48.05736" lon="6.96521">
        <ele>1005.1999511719</ele>
        <time>2022-11-01T11:49:51.000Z</time>
      </trkpt>
      <trkpt lat="48.05737" lon="6.96524">
        <ele>1004.8000488281</ele>
        <time>2022-11-01T11:50:16.000Z</time>
      </trkpt>
      <trkpt lat="48.05737" lon="6.96527">
        <ele>1004.8000488281</ele>
        <time>2022-11-01T11:50:27.000Z</time>
      </trkpt>
      <trkpt lat="48.05736" lon="6.96527">
        <ele>1004.5999755859</ele>
        <time>2022-11-01T11:50:36.000Z</time>
      </trkpt>
      <trkpt lat="48.05733" lon="6.96526">
        <ele>1004.5999755859</ele>
        <time>2022-11-01T11:50:44.000Z</time>
      </trkpt>
      <trkpt lat="48.05733" lon="6.96526">
        <ele>1004.5999755859</ele>
        <time>2022-11-01T11:50:48.000Z</time>
      </trkpt>
      <trkpt lat="48.05732" lon="6.96526">
        <ele>1004.5999755859</ele>
        <time>2022-11-01T11:50:53.000Z</time>
      </trkpt>
      <trkpt lat="48.05728" lon="6.96527">
        <ele>1004.5999755859</ele>
        <time>2022-11-01T11:51:02.000Z</time>
      </trkpt>
      <trkpt lat="48.05728" lon="6.9653">
        <ele>1004.4000244141</ele>
        <time>2022-11-01T11:51:08.000Z</time>
      </trkpt>
      <trkpt lat="48.05735" lon="6.96531">
        <ele>1004.4000244141</ele>
        <time>2022-11-01T11:51:38.000Z</time>
      </trkpt>
      <trkpt lat="48.05736" lon="6.96534">
        <ele>1004.4000244141</ele>
        <time>2022-11-01T11:51:40.000Z</time>
      </trkpt>
      <trkpt lat="48.05738" lon="6.96535">
        <ele>1004.4000244141</ele>
        <time>2022-11-01T11:51:41.000Z</time>
      </trkpt>
      <trkpt lat="48.05741" lon="6.96546">
        <ele>1004.8000488281</ele>
        <time>2022-11-01T11:51:47.000Z</time>
      </trkpt>
      <trkpt lat="48.05743" lon="6.9655">
        <ele>1005</ele>
        <time>2022-11-01T11:51:50.000Z</time>
      </trkpt>
      <trkpt lat="48.05742" lon="6.96555">
        <ele>1005</ele>
        <time>2022-11-01T11:51:53.000Z</time>
      </trkpt>
      <trkpt lat="48.05742" lon="6.96561">
        <ele>1005</ele>
        <time>2022-11-01T11:51:58.000Z</time>
      </trkpt>
      <trkpt lat="48.05737" lon="6.96569">
        <ele>1005</ele>
        <time>2022-11-01T11:52:05.000Z</time>
      </trkpt>
      <trkpt lat="48.05733" lon="6.96575">
        <ele>1005</ele>
        <time>2022-11-01T11:52:10.000Z</time>
      </trkpt>
      <trkpt lat="48.05732" lon="6.96577">
        <ele>1005.1999511719</ele>
        <time>2022-11-01T11:52:12.000Z</time>
      </trkpt>
      <trkpt lat="48.0573" lon="6.9658">
        <ele>1005.5999755859</ele>
        <time>2022-11-01T11:52:15.000Z</time>
      </trkpt>
      <trkpt lat="48.05729" lon="6.96582">
        <ele>1005.5999755859</ele>
        <time>2022-11-01T11:52:16.000Z</time>
      </trkpt>
      <trkpt lat="48.05729" lon="6.96584">
        <ele>1005.8000488281</ele>
        <time>2022-11-01T11:52:17.000Z</time>
      </trkpt>
      <trkpt lat="48.05732" lon="6.96596">
        <ele>1006.1999511719</ele>
        <time>2022-11-01T11:52:23.000Z</time>
      </trkpt>
      <trkpt lat="48.05732" lon="6.96598">
        <ele>1006.5999755859</ele>
        <time>2022-11-01T11:52:25.000Z</time>
      </trkpt>
      <trkpt lat="48.05734" lon="6.96601">
        <ele>1007.1999511719</ele>
        <time>2022-11-01T11:52:30.000Z</time>
      </trkpt>
      <trkpt lat="48.0573" lon="6.96596">
        <ele>1007.4000244141</ele>
        <time>2022-11-01T11:52:38.000Z</time>
      </trkpt>
      <trkpt lat="48.05731" lon="6.96598">
        <ele>1007.4000244141</ele>
        <time>2022-11-01T11:52:41.000Z</time>
      </trkpt>
      <trkpt lat="48.05732" lon="6.96601">
        <ele>1007.1999511719</ele>
        <time>2022-11-01T11:52:45.000Z</time>
      </trkpt>
      <trkpt lat="48.05732" lon="6.96603">
        <ele>1007.1999511719</ele>
        <time>2022-11-01T11:52:47.000Z</time>
      </trkpt>
      <trkpt lat="48.05731" lon="6.96605">
        <ele>1007.4000244141</ele>
        <time>2022-11-01T11:52:54.000Z</time>
      </trkpt>
      <trkpt lat="48.05732" lon="6.96615">
        <ele>1007.5999755859</ele>
        <time>2022-11-01T11:53:00.000Z</time>
      </trkpt>
      <trkpt lat="48.05733" lon="6.96617">
        <ele>1007.5999755859</ele>
        <time>2022-11-01T11:53:01.000Z</time>
      </trkpt>
      <trkpt lat="48.05734" lon="6.96622">
        <ele>1007.5999755859</ele>
        <time>2022-11-01T11:53:04.000Z</time>
      </trkpt>
      <trkpt lat="48.05735" lon="6.96629">
        <ele>1007.4000244141</ele>
        <time>2022-11-01T11:53:08.000Z</time>
      </trkpt>
      <trkpt lat="48.05736" lon="6.96638">
        <ele>1007.4000244141</ele>
        <time>2022-11-01T11:53:15.000Z</time>
      </trkpt>
      <trkpt lat="48.05733" lon="6.96645">
        <ele>1007</ele>
        <time>2022-11-01T11:53:22.000Z</time>
      </trkpt>
      <trkpt lat="48.0573" lon="6.96653">
        <ele>1007</ele>
        <time>2022-11-01T11:53:27.000Z</time>
      </trkpt>
      <trkpt lat="48.05729" lon="6.96655">
        <ele>1007</ele>
        <time>2022-11-01T11:53:29.000Z</time>
      </trkpt>
      <trkpt lat="48.05728" lon="6.96657">
        <ele>1007</ele>
        <time>2022-11-01T11:53:30.000Z</time>
      </trkpt>
      <trkpt lat="48.05727" lon="6.9666">
        <ele>1006.8000488281</ele>
        <time>2022-11-01T11:53:33.000Z</time>
      </trkpt>
      <trkpt lat="48.05727" lon="6.96664">
        <ele>1006.5999755859</ele>
        <time>2022-11-01T11:53:38.000Z</time>
      </trkpt>
      <trkpt lat="48.05727" lon="6.96668">
        <ele>1006.5999755859</ele>
        <time>2022-11-01T11:53:40.000Z</time>
      </trkpt>
      <trkpt lat="48.05729" lon="6.96675">
        <ele>1006.4000244141</ele>
        <time>2022-11-01T11:53:44.000Z</time>
      </trkpt>
      <trkpt lat="48.05723" lon="6.96683">
        <ele>1006.1999511719</ele>
        <time>2022-11-01T11:53:49.000Z</time>
      </trkpt>
      <trkpt lat="48.05722" lon="6.96683">
        <ele>1006</ele>
        <time>2022-11-01T11:53:50.000Z</time>
      </trkpt>
      <trkpt lat="48.05719" lon="6.96686">
        <ele>1005.4000244141</ele>
        <time>2022-11-01T11:53:55.000Z</time>
      </trkpt>
      <trkpt lat="48.05718" lon="6.96687">
        <ele>1005.4000244141</ele>
        <time>2022-11-01T11:53:56.000Z</time>
      </trkpt>
      <trkpt lat="48.05714" lon="6.96694">
        <ele>1005.1999511719</ele>
        <time>2022-11-01T11:54:03.000Z</time>
      </trkpt>
      <trkpt lat="48.05713" lon="6.96701">
        <ele>1005.1999511719</ele>
        <time>2022-11-01T11:54:07.000Z</time>
      </trkpt>
      <trkpt lat="48.05713" lon="6.96707">
        <ele>1004.8000488281</ele>
        <time>2022-11-01T11:54:11.000Z</time>
      </trkpt>
      <trkpt lat="48.05714" lon="6.96711">
        <ele>1004.4000244141</ele>
        <time>2022-11-01T11:54:14.000Z</time>
      </trkpt>
      <trkpt lat="48.05714" lon="6.96714">
        <ele>1004.1999511719</ele>
        <time>2022-11-01T11:54:17.000Z</time>
      </trkpt>
      <trkpt lat="48.05719" lon="6.96728">
        <ele>1003.1999511719</ele>
        <time>2022-11-01T11:54:26.000Z</time>
      </trkpt>
      <trkpt lat="48.05719" lon="6.9673">
        <ele>1003.1999511719</ele>
        <time>2022-11-01T11:54:27.000Z</time>
      </trkpt>
      <trkpt lat="48.0572" lon="6.96731">
        <ele>1003.1999511719</ele>
        <time>2022-11-01T11:54:28.000Z</time>
      </trkpt>
      <trkpt lat="48.05721" lon="6.96735">
        <ele>1002.8000488281</ele>
        <time>2022-11-01T11:54:31.000Z</time>
      </trkpt>
      <trkpt lat="48.05722" lon="6.9674">
        <ele>1002.1999511719</ele>
        <time>2022-11-01T11:54:34.000Z</time>
      </trkpt>
      <trkpt lat="48.05722" lon="6.96746">
        <ele>1001.8000488281</ele>
        <time>2022-11-01T11:54:38.000Z</time>
      </trkpt>
      <trkpt lat="48.05723" lon="6.96754">
        <ele>1002.4000244141</ele>
        <time>2022-11-01T11:54:45.000Z</time>
      </trkpt>
      <trkpt lat="48.05723" lon="6.96757">
        <ele>1002.5999755859</ele>
        <time>2022-11-01T11:54:48.000Z</time>
      </trkpt>
      <trkpt lat="48.05726" lon="6.96757">
        <ele>1002.5999755859</ele>
        <time>2022-11-01T11:54:52.000Z</time>
      </trkpt>
      <trkpt lat="48.05724" lon="6.96756">
        <ele>1001.8000488281</ele>
        <time>2022-11-01T11:55:00.000Z</time>
      </trkpt>
      <trkpt lat="48.05725" lon="6.96762">
        <ele>1001.5999755859</ele>
        <time>2022-11-01T11:55:07.000Z</time>
      </trkpt>
      <trkpt lat="48.05725" lon="6.96766">
        <ele>1001.1999511719</ele>
        <time>2022-11-01T11:55:14.000Z</time>
      </trkpt>
      <trkpt lat="48.05725" lon="6.96767">
        <ele>1001.1999511719</ele>
        <time>2022-11-01T11:55:15.000Z</time>
      </trkpt>
      <trkpt lat="48.05725" lon="6.96771">
        <ele>1001</ele>
        <time>2022-11-01T11:55:22.000Z</time>
      </trkpt>
      <trkpt lat="48.05726" lon="6.96774">
        <ele>1000.8000488281</ele>
        <time>2022-11-01T11:55:26.000Z</time>
      </trkpt>
      <trkpt lat="48.05727" lon="6.96778">
        <ele>1000.4000244141</ele>
        <time>2022-11-01T11:55:29.000Z</time>
      </trkpt>
      <trkpt lat="48.05727" lon="6.9678">
        <ele>1000.1999511719</ele>
        <time>2022-11-01T11:55:33.000Z</time>
      </trkpt>
      <trkpt lat="48.0573" lon="6.96785">
        <ele>999.80004882812</ele>
        <time>2022-11-01T11:55:37.000Z</time>
      </trkpt>
      <trkpt lat="48.05731" lon="6.96786">
        <ele>999.80004882812</ele>
        <time>2022-11-01T11:55:38.000Z</time>
      </trkpt>
      <trkpt lat="48.05729" lon="6.96793">
        <ele>999.40002441406</ele>
        <time>2022-11-01T11:55:42.000Z</time>
      </trkpt>
      <trkpt lat="48.05729" lon="6.96795">
        <ele>999.19995117188</ele>
        <time>2022-11-01T11:55:47.000Z</time>
      </trkpt>
      <trkpt lat="48.05733" lon="6.96798">
        <ele>999.40002441406</ele>
        <time>2022-11-01T11:55:54.000Z</time>
      </trkpt>
      <trkpt lat="48.05734" lon="6.96801">
        <ele>999.19995117188</ele>
        <time>2022-11-01T11:55:57.000Z</time>
      </trkpt>
      <trkpt lat="48.05735" lon="6.96802">
        <ele>999</ele>
        <time>2022-11-01T11:56:01.000Z</time>
      </trkpt>
      <trkpt lat="48.05737" lon="6.96802">
        <ele>999</ele>
        <time>2022-11-01T11:56:04.000Z</time>
      </trkpt>
      <trkpt lat="48.05736" lon="6.96802">
        <ele>999.19995117188</ele>
        <time>2022-11-01T11:56:07.000Z</time>
      </trkpt>
      <trkpt lat="48.05735" lon="6.96803">
        <ele>999.40002441406</ele>
        <time>2022-11-01T11:56:10.000Z</time>
      </trkpt>
      <trkpt lat="48.05735" lon="6.96806">
        <ele>998.80004882812</ele>
        <time>2022-11-01T11:56:32.000Z</time>
      </trkpt>
      <trkpt lat="48.05733" lon="6.96806">
        <ele>998.80004882812</ele>
        <time>2022-11-01T11:56:33.000Z</time>
      </trkpt>
      <trkpt lat="48.05724" lon="6.96817">
        <ele>998.40002441406</ele>
        <time>2022-11-01T11:57:22.000Z</time>
      </trkpt>
      <trkpt lat="48.05724" lon="6.96817">
        <ele>998.40002441406</ele>
        <time>2022-11-01T11:57:24.000Z</time>
      </trkpt>
      <trkpt lat="48.05724" lon="6.96817">
        <ele>998.40002441406</ele>
        <time>2022-11-01T11:57:28.000Z</time>
      </trkpt>
      <trkpt lat="48.05724" lon="6.96817">
        <ele>998.40002441406</ele>
        <time>2022-11-01T11:57:33.000Z</time>
      </trkpt>
      <trkpt lat="48.05724" lon="6.96817">
        <ele>998.40002441406</ele>
        <time>2022-11-01T11:57:35.000Z</time>
      </trkpt>
      <trkpt lat="48.05722" lon="6.96814">
        <ele>998.19995117188</ele>
        <time>2022-11-01T11:58:02.000Z</time>
      </trkpt>
      <trkpt lat="48.05722" lon="6.96814">
        <ele>998.19995117188</ele>
        <time>2022-11-01T11:58:03.000Z</time>
      </trkpt>
      <trkpt lat="48.0572" lon="6.96817">
        <ele>998</ele>
        <time>2022-11-01T11:58:25.000Z</time>
      </trkpt>
      <trkpt lat="48.0572" lon="6.96817">
        <ele>998.19995117188</ele>
        <time>2022-11-01T11:58:26.000Z</time>
      </trkpt>
      <trkpt lat="48.05719" lon="6.96816">
        <ele>998</ele>
        <time>2022-11-01T11:58:38.000Z</time>
      </trkpt>
      <trkpt lat="48.05719" lon="6.96816">
        <ele>998</ele>
        <time>2022-11-01T11:58:40.000Z</time>
      </trkpt>
      <trkpt lat="48.0572" lon="6.9682">
        <ele>998.40002441406</ele>
        <time>2022-11-01T11:59:05.000Z</time>
      </trkpt>
      <trkpt lat="48.05727" lon="6.96826">
        <ele>998.40002441406</ele>
        <time>2022-11-01T11:59:11.000Z</time>
      </trkpt>
      <trkpt lat="48.05727" lon="6.96827">
        <ele>998.19995117188</ele>
        <time>2022-11-01T11:59:14.000Z</time>
      </trkpt>
      <trkpt lat="48.05727" lon="6.96827">
        <ele>998.19995117188</ele>
        <time>2022-11-01T11:59:15.000Z</time>
      </trkpt>
      <trkpt lat="48.05727" lon="6.96832">
        <ele>997.80004882812</ele>
        <time>2022-11-01T11:59:21.000Z</time>
      </trkpt>
      <trkpt lat="48.05724" lon="6.96835">
        <ele>997.59997558594</ele>
        <time>2022-11-01T11:59:52.000Z</time>
      </trkpt>
      <trkpt lat="48.05719" lon="6.9683">
        <ele>997.19995117188</ele>
        <time>2022-11-01T12:00:17.000Z</time>
      </trkpt>
      <trkpt lat="48.05718" lon="6.96834">
        <ele>997</ele>
        <time>2022-11-01T12:00:23.000Z</time>
      </trkpt>
      <trkpt lat="48.05718" lon="6.96839">
        <ele>996.59997558594</ele>
        <time>2022-11-01T12:00:31.000Z</time>
      </trkpt>
      <trkpt lat="48.05719" lon="6.96841">
        <ele>996.59997558594</ele>
        <time>2022-11-01T12:00:37.000Z</time>
      </trkpt>
      <trkpt lat="48.0572" lon="6.96844">
        <ele>996.59997558594</ele>
        <time>2022-11-01T12:00:44.000Z</time>
      </trkpt>
      <trkpt lat="48.0572" lon="6.96847">
        <ele>996</ele>
        <time>2022-11-01T12:00:53.000Z</time>
      </trkpt>
      <trkpt lat="48.0572" lon="6.96848">
        <ele>995.80004882812</ele>
        <time>2022-11-01T12:00:57.000Z</time>
      </trkpt>
      <trkpt lat="48.0572" lon="6.96848">
        <ele>994.80004882812</ele>
        <time>2022-11-01T12:01:06.000Z</time>
      </trkpt>
      <trkpt lat="48.0572" lon="6.96854">
        <ele>994</ele>
        <time>2022-11-01T12:01:18.000Z</time>
      </trkpt>
      <trkpt lat="48.0572" lon="6.96855">
        <ele>993.80004882812</ele>
        <time>2022-11-01T12:01:20.000Z</time>
      </trkpt>
      <trkpt lat="48.05714" lon="6.96863">
        <ele>993.19995117188</ele>
        <time>2022-11-01T12:01:35.000Z</time>
      </trkpt>
      <trkpt lat="48.0571" lon="6.96867">
        <ele>992.80004882812</ele>
        <time>2022-11-01T12:01:39.000Z</time>
      </trkpt>
      <trkpt lat="48.05709" lon="6.96866">
        <ele>992.59997558594</ele>
        <time>2022-11-01T12:01:42.000Z</time>
      </trkpt>
      <trkpt lat="48.05711" lon="6.96863">
        <ele>992.19995117188</ele>
        <time>2022-11-01T12:01:47.000Z</time>
      </trkpt>
      <trkpt lat="48.05714" lon="6.96857">
        <ele>992.19995117188</ele>
        <time>2022-11-01T12:01:53.000Z</time>
      </trkpt>
      <trkpt lat="48.05712" lon="6.96863">
        <ele>992.40002441406</ele>
        <time>2022-11-01T12:02:00.000Z</time>
      </trkpt>
      <trkpt lat="48.05703" lon="6.96873">
        <ele>992.59997558594</ele>
        <time>2022-11-01T12:02:10.000Z</time>
      </trkpt>
      <trkpt lat="48.05699" lon="6.96877">
        <ele>992.80004882812</ele>
        <time>2022-11-01T12:02:16.000Z</time>
      </trkpt>
      <trkpt lat="48.05694" lon="6.96873">
        <ele>993</ele>
        <time>2022-11-01T12:02:23.000Z</time>
      </trkpt>
      <trkpt lat="48.05692" lon="6.96875">
        <ele>993.19995117188</ele>
        <time>2022-11-01T12:02:29.000Z</time>
      </trkpt>
      <trkpt lat="48.05691" lon="6.9688">
        <ele>993.19995117188</ele>
        <time>2022-11-01T12:02:35.000Z</time>
      </trkpt>
      <trkpt lat="48.05691" lon="6.96885">
        <ele>993</ele>
        <time>2022-11-01T12:02:39.000Z</time>
      </trkpt>
      <trkpt lat="48.05696" lon="6.96884">
        <ele>993</ele>
        <time>2022-11-01T12:02:44.000Z</time>
      </trkpt>
      <trkpt lat="48.05707" lon="6.96886">
        <ele>993</ele>
        <time>2022-11-01T12:02:52.000Z</time>
      </trkpt>
      <trkpt lat="48.05709" lon="6.96885">
        <ele>993</ele>
        <time>2022-11-01T12:02:56.000Z</time>
      </trkpt>
      <trkpt lat="48.05707" lon="6.96884">
        <ele>993</ele>
        <time>2022-11-01T12:03:00.000Z</time>
      </trkpt>
      <trkpt lat="48.05702" lon="6.96878">
        <ele>993</ele>
        <time>2022-11-01T12:03:08.000Z</time>
      </trkpt>
      <trkpt lat="48.05693" lon="6.9687">
        <ele>993</ele>
        <time>2022-11-01T12:03:14.000Z</time>
      </trkpt>
      <trkpt lat="48.05694" lon="6.96868">
        <ele>993</ele>
        <time>2022-11-01T12:03:16.000Z</time>
      </trkpt>
      <trkpt lat="48.05697" lon="6.96874">
        <ele>993</ele>
        <time>2022-11-01T12:03:21.000Z</time>
      </trkpt>
      <trkpt lat="48.05698" lon="6.96877">
        <ele>993</ele>
        <time>2022-11-01T12:03:26.000Z</time>
      </trkpt>
      <trkpt lat="48.05697" lon="6.96884">
        <ele>993</ele>
        <time>2022-11-01T12:03:34.000Z</time>
      </trkpt>
      <trkpt lat="48.05697" lon="6.96888">
        <ele>993</ele>
        <time>2022-11-01T12:03:40.000Z</time>
      </trkpt>
      <trkpt lat="48.05694" lon="6.96888">
        <ele>990.19995117188</ele>
        <time>2022-11-01T12:03:44.000Z</time>
      </trkpt>
      <trkpt lat="48.05695" lon="6.96888">
        <ele>990.19995117188</ele>
        <time>2022-11-01T12:03:45.000Z</time>
      </trkpt>
      <trkpt lat="48.05695" lon="6.96888">
        <ele>990.19995117188</ele>
        <time>2022-11-01T12:03:47.000Z</time>
      </trkpt>
      <trkpt lat="48.05697" lon="6.96891">
        <ele>990.19995117188</ele>
        <time>2022-11-01T12:03:52.000Z</time>
      </trkpt>
      <trkpt lat="48.057" lon="6.96897">
        <ele>989.19995117188</ele>
        <time>2022-11-01T12:03:59.000Z</time>
      </trkpt>
      <trkpt lat="48.05702" lon="6.969">
        <ele>988.19995117188</ele>
        <time>2022-11-01T12:04:05.000Z</time>
      </trkpt>
      <trkpt lat="48.05703" lon="6.96901">
        <ele>988.19995117188</ele>
        <time>2022-11-01T12:04:06.000Z</time>
      </trkpt>
      <trkpt lat="48.05704" lon="6.96905">
        <ele>987.80004882812</ele>
        <time>2022-11-01T12:04:09.000Z</time>
      </trkpt>
      <trkpt lat="48.05704" lon="6.96909">
        <ele>987.59997558594</ele>
        <time>2022-11-01T12:04:11.000Z</time>
      </trkpt>
      <trkpt lat="48.05703" lon="6.96911">
        <ele>987</ele>
        <time>2022-11-01T12:04:14.000Z</time>
      </trkpt>
      <trkpt lat="48.05703" lon="6.96916">
        <ele>986.59997558594</ele>
        <time>2022-11-01T12:04:18.000Z</time>
      </trkpt>
      <trkpt lat="48.05703" lon="6.96924">
        <ele>985.80004882812</ele>
        <time>2022-11-01T12:04:23.000Z</time>
      </trkpt>
      <trkpt lat="48.05702" lon="6.96926">
        <ele>985.59997558594</ele>
        <time>2022-11-01T12:04:25.000Z</time>
      </trkpt>
      <trkpt lat="48.05701" lon="6.96929">
        <ele>985.19995117188</ele>
        <time>2022-11-01T12:04:28.000Z</time>
      </trkpt>
      <trkpt lat="48.057" lon="6.96929">
        <ele>985.19995117188</ele>
        <time>2022-11-01T12:04:29.000Z</time>
      </trkpt>
      <trkpt lat="48.05696" lon="6.96931">
        <ele>984.80004882812</ele>
        <time>2022-11-01T12:04:32.000Z</time>
      </trkpt>
      <trkpt lat="48.05697" lon="6.96931">
        <ele>984.59997558594</ele>
        <time>2022-11-01T12:04:34.000Z</time>
      </trkpt>
      <trkpt lat="48.05696" lon="6.96933">
        <ele>984</ele>
        <time>2022-11-01T12:04:39.000Z</time>
      </trkpt>
      <trkpt lat="48.05696" lon="6.96932">
        <ele>984</ele>
        <time>2022-11-01T12:04:41.000Z</time>
      </trkpt>
      <trkpt lat="48.05696" lon="6.96932">
        <ele>984</ele>
        <time>2022-11-01T12:04:42.000Z</time>
      </trkpt>
      <trkpt lat="48.05696" lon="6.96933">
        <ele>983.59997558594</ele>
        <time>2022-11-01T12:04:44.000Z</time>
      </trkpt>
      <trkpt lat="48.05696" lon="6.96933">
        <ele>983.59997558594</ele>
        <time>2022-11-01T12:04:45.000Z</time>
      </trkpt>
      <trkpt lat="48.05698" lon="6.96937">
        <ele>982.59997558594</ele>
        <time>2022-11-01T12:04:52.000Z</time>
      </trkpt>
      <trkpt lat="48.05698" lon="6.96939">
        <ele>982.19995117188</ele>
        <time>2022-11-01T12:04:54.000Z</time>
      </trkpt>
      <trkpt lat="48.057" lon="6.96942">
        <ele>981.59997558594</ele>
        <time>2022-11-01T12:05:00.000Z</time>
      </trkpt>
      <trkpt lat="48.05702" lon="6.96943">
        <ele>981.59997558594</ele>
        <time>2022-11-01T12:05:02.000Z</time>
      </trkpt>
      <trkpt lat="48.05703" lon="6.96945">
        <ele>981.19995117188</ele>
        <time>2022-11-01T12:05:05.000Z</time>
      </trkpt>
      <trkpt lat="48.05699" lon="6.96946">
        <ele>980.80004882812</ele>
        <time>2022-11-01T12:05:12.000Z</time>
      </trkpt>
      <trkpt lat="48.057" lon="6.9695">
        <ele>980.59997558594</ele>
        <time>2022-11-01T12:05:19.000Z</time>
      </trkpt>
      <trkpt lat="48.05701" lon="6.96952">
        <ele>980.40002441406</ele>
        <time>2022-11-01T12:05:21.000Z</time>
      </trkpt>
      <trkpt lat="48.05703" lon="6.96953">
        <ele>980.19995117188</ele>
        <time>2022-11-01T12:05:25.000Z</time>
      </trkpt>
      <trkpt lat="48.05704" lon="6.96955">
        <ele>979.59997558594</ele>
        <time>2022-11-01T12:05:31.000Z</time>
      </trkpt>
      <trkpt lat="48.05704" lon="6.96957">
        <ele>979.40002441406</ele>
        <time>2022-11-01T12:05:33.000Z</time>
      </trkpt>
      <trkpt lat="48.05703" lon="6.96958">
        <ele>979.40002441406</ele>
        <time>2022-11-01T12:05:35.000Z</time>
      </trkpt>
      <trkpt lat="48.05702" lon="6.96958">
        <ele>979.40002441406</ele>
        <time>2022-11-01T12:05:36.000Z</time>
      </trkpt>
      <trkpt lat="48.05701" lon="6.96958">
        <ele>979.40002441406</ele>
        <time>2022-11-01T12:05:37.000Z</time>
      </trkpt>
      <trkpt lat="48.057" lon="6.96958">
        <ele>979.40002441406</ele>
        <time>2022-11-01T12:05:38.000Z</time>
      </trkpt>
      <trkpt lat="48.05703" lon="6.96958">
        <ele>979.40002441406</ele>
        <time>2022-11-01T12:05:43.000Z</time>
      </trkpt>
      <trkpt lat="48.05703" lon="6.96958">
        <ele>979.40002441406</ele>
        <time>2022-11-01T12:05:44.000Z</time>
      </trkpt>
      <trkpt lat="48.05704" lon="6.96958">
        <ele>979</ele>
        <time>2022-11-01T12:05:53.000Z</time>
      </trkpt>
      <trkpt lat="48.05705" lon="6.96958">
        <ele>978.40002441406</ele>
        <time>2022-11-01T12:06:07.000Z</time>
      </trkpt>
      <trkpt lat="48.05707" lon="6.96958">
        <ele>977.59997558594</ele>
        <time>2022-11-01T12:06:18.000Z</time>
      </trkpt>
      <trkpt lat="48.05707" lon="6.96958">
        <ele>977.40002441406</ele>
        <time>2022-11-01T12:06:20.000Z</time>
      </trkpt>
      <trkpt lat="48.05706" lon="6.96962">
        <ele>977.59997558594</ele>
        <time>2022-11-01T12:06:44.000Z</time>
      </trkpt>
      <trkpt lat="48.05703" lon="6.96963">
        <ele>977.59997558594</ele>
        <time>2022-11-01T12:06:48.000Z</time>
      </trkpt>
      <trkpt lat="48.05703" lon="6.96963">
        <ele>978.19995117188</ele>
        <time>2022-11-01T12:06:55.000Z</time>
      </trkpt>
      <trkpt lat="48.05702" lon="6.96963">
        <ele>978.40002441406</ele>
        <time>2022-11-01T12:06:58.000Z</time>
      </trkpt>
      <trkpt lat="48.05702" lon="6.96963">
        <ele>978.40002441406</ele>
        <time>2022-11-01T12:07:19.000Z</time>
      </trkpt>
      <trkpt lat="48.05702" lon="6.96963">
        <ele>978.80004882812</ele>
        <time>2022-11-01T12:07:23.000Z</time>
      </trkpt>
      <trkpt lat="48.05705" lon="6.96967">
        <ele>979.19995117188</ele>
        <time>2022-11-01T12:07:34.000Z</time>
      </trkpt>
      <trkpt lat="48.05707" lon="6.96971">
        <ele>979.19995117188</ele>
        <time>2022-11-01T12:07:38.000Z</time>
      </trkpt>
      <trkpt lat="48.0571" lon="6.96973">
        <ele>978.80004882812</ele>
        <time>2022-11-01T12:07:41.000Z</time>
      </trkpt>
      <trkpt lat="48.05716" lon="6.9698">
        <ele>978</ele>
        <time>2022-11-01T12:07:47.000Z</time>
      </trkpt>
      <trkpt lat="48.05718" lon="6.96987">
        <ele>977.40002441406</ele>
        <time>2022-11-01T12:07:53.000Z</time>
      </trkpt>
      <trkpt lat="48.05716" lon="6.96988">
        <ele>977.40002441406</ele>
        <time>2022-11-01T12:07:54.000Z</time>
      </trkpt>
      <trkpt lat="48.05708" lon="6.96994">
        <ele>977.19995117188</ele>
        <time>2022-11-01T12:08:02.000Z</time>
      </trkpt>
      <trkpt lat="48.05706" lon="6.96999">
        <ele>976.59997558594</ele>
        <time>2022-11-01T12:08:08.000Z</time>
      </trkpt>
      <trkpt lat="48.057" lon="6.97005">
        <ele>976.40002441406</ele>
        <time>2022-11-01T12:08:14.000Z</time>
      </trkpt>
      <trkpt lat="48.05699" lon="6.97006">
        <ele>976.40002441406</ele>
        <time>2022-11-01T12:08:16.000Z</time>
      </trkpt>
      <trkpt lat="48.05698" lon="6.9701">
        <ele>976</ele>
        <time>2022-11-01T12:08:20.000Z</time>
      </trkpt>
      <trkpt lat="48.05698" lon="6.97015">
        <ele>975.80004882812</ele>
        <time>2022-11-01T12:08:25.000Z</time>
      </trkpt>
      <trkpt lat="48.05698" lon="6.97019">
        <ele>975.80004882812</ele>
        <time>2022-11-01T12:08:29.000Z</time>
      </trkpt>
      <trkpt lat="48.05699" lon="6.97019">
        <ele>975.80004882812</ele>
        <time>2022-11-01T12:08:30.000Z</time>
      </trkpt>
      <trkpt lat="48.05698" lon="6.97022">
        <ele>975.80004882812</ele>
        <time>2022-11-01T12:08:35.000Z</time>
      </trkpt>
      <trkpt lat="48.05701" lon="6.9703">
        <ele>975.59997558594</ele>
        <time>2022-11-01T12:08:42.000Z</time>
      </trkpt>
      <trkpt lat="48.05701" lon="6.97032">
        <ele>975.59997558594</ele>
        <time>2022-11-01T12:08:43.000Z</time>
      </trkpt>
      <trkpt lat="48.057" lon="6.97035">
        <ele>975.59997558594</ele>
        <time>2022-11-01T12:08:45.000Z</time>
      </trkpt>
      <trkpt lat="48.057" lon="6.97036">
        <ele>975.59997558594</ele>
        <time>2022-11-01T12:08:46.000Z</time>
      </trkpt>
      <trkpt lat="48.057" lon="6.97037">
        <ele>975.59997558594</ele>
        <time>2022-11-01T12:08:47.000Z</time>
      </trkpt>
      <trkpt lat="48.057" lon="6.97042">
        <ele>975.59997558594</ele>
        <time>2022-11-01T12:08:51.000Z</time>
      </trkpt>
      <trkpt lat="48.05699" lon="6.9705">
        <ele>975.59997558594</ele>
        <time>2022-11-01T12:08:58.000Z</time>
      </trkpt>
      <trkpt lat="48.057" lon="6.97065">
        <ele>975.80004882812</ele>
        <time>2022-11-01T12:09:07.000Z</time>
      </trkpt>
      <trkpt lat="48.05698" lon="6.97067">
        <ele>975.80004882812</ele>
        <time>2022-11-01T12:09:11.000Z</time>
      </trkpt>
      <trkpt lat="48.05698" lon="6.97067">
        <ele>975.80004882812</ele>
        <time>2022-11-01T12:09:12.000Z</time>
      </trkpt>
      <trkpt lat="48.05699" lon="6.9707">
        <ele>975.80004882812</ele>
        <time>2022-11-01T12:09:19.000Z</time>
      </trkpt>
      <trkpt lat="48.05701" lon="6.97077">
        <ele>975.59997558594</ele>
        <time>2022-11-01T12:09:24.000Z</time>
      </trkpt>
      <trkpt lat="48.05703" lon="6.97083">
        <ele>975.80004882812</ele>
        <time>2022-11-01T12:09:28.000Z</time>
      </trkpt>
      <trkpt lat="48.05703" lon="6.97084">
        <ele>975.80004882812</ele>
        <time>2022-11-01T12:09:29.000Z</time>
      </trkpt>
      <trkpt lat="48.05705" lon="6.97088">
        <ele>975.59997558594</ele>
        <time>2022-11-01T12:09:31.000Z</time>
      </trkpt>
      <trkpt lat="48.05705" lon="6.97097">
        <ele>976.19995117188</ele>
        <time>2022-11-01T12:09:37.000Z</time>
      </trkpt>
      <trkpt lat="48.05708" lon="6.97105">
        <ele>976.40002441406</ele>
        <time>2022-11-01T12:09:42.000Z</time>
      </trkpt>
      <trkpt lat="48.05708" lon="6.97106">
        <ele>976.40002441406</ele>
        <time>2022-11-01T12:09:43.000Z</time>
      </trkpt>
      <trkpt lat="48.05708" lon="6.97116">
        <ele>976.80004882812</ele>
        <time>2022-11-01T12:09:49.000Z</time>
      </trkpt>
      <trkpt lat="48.05707" lon="6.97118">
        <ele>976.80004882812</ele>
        <time>2022-11-01T12:09:50.000Z</time>
      </trkpt>
      <trkpt lat="48.05707" lon="6.9712">
        <ele>977</ele>
        <time>2022-11-01T12:09:51.000Z</time>
      </trkpt>
      <trkpt lat="48.05706" lon="6.97123">
        <ele>977</ele>
        <time>2022-11-01T12:09:53.000Z</time>
      </trkpt>
      <trkpt lat="48.05705" lon="6.97126">
        <ele>977</ele>
        <time>2022-11-01T12:09:55.000Z</time>
      </trkpt>
      <trkpt lat="48.05704" lon="6.9713">
        <ele>977.19995117188</ele>
        <time>2022-11-01T12:09:57.000Z</time>
      </trkpt>
      <trkpt lat="48.05704" lon="6.97133">
        <ele>977.40002441406</ele>
        <time>2022-11-01T12:09:59.000Z</time>
      </trkpt>
      <trkpt lat="48.05705" lon="6.97142">
        <ele>977.80004882812</ele>
        <time>2022-11-01T12:10:03.000Z</time>
      </trkpt>
      <trkpt lat="48.05705" lon="6.97144">
        <ele>977.80004882812</ele>
        <time>2022-11-01T12:10:04.000Z</time>
      </trkpt>
      <trkpt lat="48.05706" lon="6.97146">
        <ele>977.80004882812</ele>
        <time>2022-11-01T12:10:05.000Z</time>
      </trkpt>
      <trkpt lat="48.05706" lon="6.97148">
        <ele>978</ele>
        <time>2022-11-01T12:10:06.000Z</time>
      </trkpt>
      <trkpt lat="48.05707" lon="6.97152">
        <ele>978.19995117188</ele>
        <time>2022-11-01T12:10:08.000Z</time>
      </trkpt>
      <trkpt lat="48.05707" lon="6.97153">
        <ele>978.19995117188</ele>
        <time>2022-11-01T12:10:09.000Z</time>
      </trkpt>
      <trkpt lat="48.05708" lon="6.97155">
        <ele>978.40002441406</ele>
        <time>2022-11-01T12:10:11.000Z</time>
      </trkpt>
      <trkpt lat="48.05708" lon="6.97157">
        <ele>978.40002441406</ele>
        <time>2022-11-01T12:10:13.000Z</time>
      </trkpt>
      <trkpt lat="48.05708" lon="6.97159">
        <ele>978.40002441406</ele>
        <time>2022-11-01T12:10:14.000Z</time>
      </trkpt>
      <trkpt lat="48.05706" lon="6.97164">
        <ele>978.40002441406</ele>
        <time>2022-11-01T12:10:17.000Z</time>
      </trkpt>
      <trkpt lat="48.05706" lon="6.97166">
        <ele>978.40002441406</ele>
        <time>2022-11-01T12:10:18.000Z</time>
      </trkpt>
      <trkpt lat="48.05704" lon="6.97171">
        <ele>978.40002441406</ele>
        <time>2022-11-01T12:10:22.000Z</time>
      </trkpt>
      <trkpt lat="48.05706" lon="6.97171">
        <ele>978.19995117188</ele>
        <time>2022-11-01T12:10:26.000Z</time>
      </trkpt>
      <trkpt lat="48.05708" lon="6.97174">
        <ele>978.40002441406</ele>
        <time>2022-11-01T12:10:35.000Z</time>
      </trkpt>
      <trkpt lat="48.05706" lon="6.97175">
        <ele>978.19995117188</ele>
        <time>2022-11-01T12:10:42.000Z</time>
      </trkpt>
      <trkpt lat="48.05708" lon="6.97181">
        <ele>978.19995117188</ele>
        <time>2022-11-01T12:10:49.000Z</time>
      </trkpt>
      <trkpt lat="48.05711" lon="6.97189">
        <ele>979.19995117188</ele>
        <time>2022-11-01T12:10:55.000Z</time>
      </trkpt>
      <trkpt lat="48.0571" lon="6.97193">
        <ele>979.40002441406</ele>
        <time>2022-11-01T12:10:58.000Z</time>
      </trkpt>
      <trkpt lat="48.05709" lon="6.97195">
        <ele>979.40002441406</ele>
        <time>2022-11-01T12:10:59.000Z</time>
      </trkpt>
      <trkpt lat="48.05705" lon="6.972">
        <ele>979.59997558594</ele>
        <time>2022-11-01T12:11:02.000Z</time>
      </trkpt>
      <trkpt lat="48.05704" lon="6.97201">
        <ele>979.59997558594</ele>
        <time>2022-11-01T12:11:03.000Z</time>
      </trkpt>
      <trkpt lat="48.05704" lon="6.97206">
        <ele>979.80004882812</ele>
        <time>2022-11-01T12:11:08.000Z</time>
      </trkpt>
      <trkpt lat="48.05704" lon="6.97209">
        <ele>979.80004882812</ele>
        <time>2022-11-01T12:11:10.000Z</time>
      </trkpt>
      <trkpt lat="48.05701" lon="6.97211">
        <ele>980.19995117188</ele>
        <time>2022-11-01T12:11:14.000Z</time>
      </trkpt>
      <trkpt lat="48.05701" lon="6.9721">
        <ele>980.40002441406</ele>
        <time>2022-11-01T12:11:17.000Z</time>
      </trkpt>
      <trkpt lat="48.057" lon="6.97212">
        <ele>980.59997558594</ele>
        <time>2022-11-01T12:11:20.000Z</time>
      </trkpt>
      <trkpt lat="48.05699" lon="6.97212">
        <ele>980.59997558594</ele>
        <time>2022-11-01T12:11:22.000Z</time>
      </trkpt>
      <trkpt lat="48.05696" lon="6.97214">
        <ele>980.40002441406</ele>
        <time>2022-11-01T12:11:27.000Z</time>
      </trkpt>
      <trkpt lat="48.05688" lon="6.9722">
        <ele>979.59997558594</ele>
        <time>2022-11-01T12:11:35.000Z</time>
      </trkpt>
      <trkpt lat="48.05688" lon="6.97225">
        <ele>979.40002441406</ele>
        <time>2022-11-01T12:11:40.000Z</time>
      </trkpt>
      <trkpt lat="48.05681" lon="6.97229">
        <ele>979</ele>
        <time>2022-11-01T12:11:47.000Z</time>
      </trkpt>
      <trkpt lat="48.05672" lon="6.97231">
        <ele>978.80004882812</ele>
        <time>2022-11-01T12:11:53.000Z</time>
      </trkpt>
      <trkpt lat="48.05667" lon="6.97233">
        <ele>978.40002441406</ele>
        <time>2022-11-01T12:11:57.000Z</time>
      </trkpt>
      <trkpt lat="48.05662" lon="6.97233">
        <ele>978.19995117188</ele>
        <time>2022-11-01T12:12:00.000Z</time>
      </trkpt>
      <trkpt lat="48.05657" lon="6.97237">
        <ele>978</ele>
        <time>2022-11-01T12:12:04.000Z</time>
      </trkpt>
      <trkpt lat="48.05655" lon="6.97238">
        <ele>977.40002441406</ele>
        <time>2022-11-01T12:12:09.000Z</time>
      </trkpt>
      <trkpt lat="48.05654" lon="6.97238">
        <ele>977.40002441406</ele>
        <time>2022-11-01T12:12:10.000Z</time>
      </trkpt>
      <trkpt lat="48.0565" lon="6.97241">
        <ele>977.19995117188</ele>
        <time>2022-11-01T12:12:13.000Z</time>
      </trkpt>
      <trkpt lat="48.05647" lon="6.97241">
        <ele>977.19995117188</ele>
        <time>2022-11-01T12:12:15.000Z</time>
      </trkpt>
      <trkpt lat="48.05644" lon="6.9724">
        <ele>977.19995117188</ele>
        <time>2022-11-01T12:12:20.000Z</time>
      </trkpt>
      <trkpt lat="48.0564" lon="6.97242">
        <ele>977</ele>
        <time>2022-11-01T12:12:22.000Z</time>
      </trkpt>
      <trkpt lat="48.05638" lon="6.97242">
        <ele>976.80004882812</ele>
        <time>2022-11-01T12:12:24.000Z</time>
      </trkpt>
      <trkpt lat="48.05637" lon="6.97243">
        <ele>976.59997558594</ele>
        <time>2022-11-01T12:12:26.000Z</time>
      </trkpt>
      <trkpt lat="48.05633" lon="6.97244">
        <ele>976.59997558594</ele>
        <time>2022-11-01T12:12:29.000Z</time>
      </trkpt>
      <trkpt lat="48.05629" lon="6.97244">
        <ele>976.40002441406</ele>
        <time>2022-11-01T12:12:31.000Z</time>
      </trkpt>
      <trkpt lat="48.05624" lon="6.97247">
        <ele>976.59997558594</ele>
        <time>2022-11-01T12:12:35.000Z</time>
      </trkpt>
      <trkpt lat="48.05625" lon="6.97248">
        <ele>976.59997558594</ele>
        <time>2022-11-01T12:12:36.000Z</time>
      </trkpt>
      <trkpt lat="48.05624" lon="6.97251">
        <ele>976.59997558594</ele>
        <time>2022-11-01T12:12:39.000Z</time>
      </trkpt>
      <trkpt lat="48.05624" lon="6.97251">
        <ele>976.59997558594</ele>
        <time>2022-11-01T12:12:40.000Z</time>
      </trkpt>
      <trkpt lat="48.05621" lon="6.97254">
        <ele>976.80004882812</ele>
        <time>2022-11-01T12:12:45.000Z</time>
      </trkpt>
      <trkpt lat="48.05619" lon="6.97258">
        <ele>977.19995117188</ele>
        <time>2022-11-01T12:12:51.000Z</time>
      </trkpt>
      <trkpt lat="48.05615" lon="6.97258">
        <ele>977.80004882812</ele>
        <time>2022-11-01T12:12:54.000Z</time>
      </trkpt>
      <trkpt lat="48.05614" lon="6.97257">
        <ele>977.80004882812</ele>
        <time>2022-11-01T12:12:55.000Z</time>
      </trkpt>
      <trkpt lat="48.05615" lon="6.97255">
        <ele>977.80004882812</ele>
        <time>2022-11-01T12:12:57.000Z</time>
      </trkpt>
      <trkpt lat="48.05617" lon="6.97254">
        <ele>977.80004882812</ele>
        <time>2022-11-01T12:12:59.000Z</time>
      </trkpt>
      <trkpt lat="48.05616" lon="6.97254">
        <ele>977.80004882812</ele>
        <time>2022-11-01T12:13:00.000Z</time>
      </trkpt>
      <trkpt lat="48.05613" lon="6.97255">
        <ele>977.80004882812</ele>
        <time>2022-11-01T12:13:07.000Z</time>
      </trkpt>
      <trkpt lat="48.05606" lon="6.97261">
        <ele>977.80004882812</ele>
        <time>2022-11-01T12:13:13.000Z</time>
      </trkpt>
      <trkpt lat="48.05604" lon="6.97262">
        <ele>977.80004882812</ele>
        <time>2022-11-01T12:13:17.000Z</time>
      </trkpt>
      <trkpt lat="48.05603" lon="6.97263">
        <ele>977.80004882812</ele>
        <time>2022-11-01T12:13:19.000Z</time>
      </trkpt>
      <trkpt lat="48.05601" lon="6.97264">
        <ele>977.80004882812</ele>
        <time>2022-11-01T12:13:23.000Z</time>
      </trkpt>
      <trkpt lat="48.05595" lon="6.97267">
        <ele>977.80004882812</ele>
        <time>2022-11-01T12:13:28.000Z</time>
      </trkpt>
      <trkpt lat="48.05594" lon="6.97268">
        <ele>977.80004882812</ele>
        <time>2022-11-01T12:13:29.000Z</time>
      </trkpt>
      <trkpt lat="48.05593" lon="6.97271">
        <ele>977.80004882812</ele>
        <time>2022-11-01T12:13:33.000Z</time>
      </trkpt>
      <trkpt lat="48.05592" lon="6.97275">
        <ele>977.80004882812</ele>
        <time>2022-11-01T12:13:38.000Z</time>
      </trkpt>
      <trkpt lat="48.05587" lon="6.97274">
        <ele>977.80004882812</ele>
        <time>2022-11-01T12:13:44.000Z</time>
      </trkpt>
      <trkpt lat="48.05583" lon="6.97275">
        <ele>977.80004882812</ele>
        <time>2022-11-01T12:13:48.000Z</time>
      </trkpt>
      <trkpt lat="48.05583" lon="6.97276">
        <ele>977.80004882812</ele>
        <time>2022-11-01T12:13:49.000Z</time>
      </trkpt>
      <trkpt lat="48.05584" lon="6.97282">
        <ele>977.80004882812</ele>
        <time>2022-11-01T12:13:54.000Z</time>
      </trkpt>
      <trkpt lat="48.05584" lon="6.97287">
        <ele>977.80004882812</ele>
        <time>2022-11-01T12:14:00.000Z</time>
      </trkpt>
      <trkpt lat="48.05578" lon="6.97294">
        <ele>977.80004882812</ele>
        <time>2022-11-01T12:14:05.000Z</time>
      </trkpt>
      <trkpt lat="48.05576" lon="6.97296">
        <ele>977.80004882812</ele>
        <time>2022-11-01T12:14:10.000Z</time>
      </trkpt>
      <trkpt lat="48.05574" lon="6.97298">
        <ele>977.80004882812</ele>
        <time>2022-11-01T12:14:16.000Z</time>
      </trkpt>
      <trkpt lat="48.05572" lon="6.97302">
        <ele>977.80004882812</ele>
        <time>2022-11-01T12:14:19.000Z</time>
      </trkpt>
      <trkpt lat="48.05572" lon="6.97305">
        <ele>977.80004882812</ele>
        <time>2022-11-01T12:14:22.000Z</time>
      </trkpt>
      <trkpt lat="48.05569" lon="6.97308">
        <ele>977.80004882812</ele>
        <time>2022-11-01T12:14:26.000Z</time>
      </trkpt>
      <trkpt lat="48.05564" lon="6.97307">
        <ele>977.80004882812</ele>
        <time>2022-11-01T12:14:34.000Z</time>
      </trkpt>
      <trkpt lat="48.05563" lon="6.97312">
        <ele>977.80004882812</ele>
        <time>2022-11-01T12:14:40.000Z</time>
      </trkpt>
      <trkpt lat="48.05563" lon="6.97315">
        <ele>977.80004882812</ele>
        <time>2022-11-01T12:14:43.000Z</time>
      </trkpt>
      <trkpt lat="48.05566" lon="6.97317">
        <ele>977.80004882812</ele>
        <time>2022-11-01T12:14:47.000Z</time>
      </trkpt>
      <trkpt lat="48.05564" lon="6.97315">
        <ele>977.80004882812</ele>
        <time>2022-11-01T12:14:51.000Z</time>
      </trkpt>
      <trkpt lat="48.05561" lon="6.97312">
        <ele>977.80004882812</ele>
        <time>2022-11-01T12:14:56.000Z</time>
      </trkpt>
      <trkpt lat="48.05561" lon="6.97312">
        <ele>977.80004882812</ele>
        <time>2022-11-01T12:15:02.000Z</time>
      </trkpt>
      <trkpt lat="48.05562" lon="6.97317">
        <ele>977.80004882812</ele>
        <time>2022-11-01T12:15:15.000Z</time>
      </trkpt>
      <trkpt lat="48.05562" lon="6.97319">
        <ele>977.80004882812</ele>
        <time>2022-11-01T12:15:17.000Z</time>
      </trkpt>
      <trkpt lat="48.05562" lon="6.97325">
        <ele>977.80004882812</ele>
        <time>2022-11-01T12:15:23.000Z</time>
      </trkpt>
      <trkpt lat="48.05561" lon="6.97347">
        <ele>977.80004882812</ele>
        <time>2022-11-01T12:15:37.000Z</time>
      </trkpt>
      <trkpt lat="48.05557" lon="6.97359">
        <ele>977.80004882812</ele>
        <time>2022-11-01T12:15:41.000Z</time>
      </trkpt>
      <trkpt lat="48.05555" lon="6.97362">
        <ele>977.80004882812</ele>
        <time>2022-11-01T12:15:42.000Z</time>
      </trkpt>
      <trkpt lat="48.05554" lon="6.97364">
        <ele>977.80004882812</ele>
        <time>2022-11-01T12:15:44.000Z</time>
      </trkpt>
      <trkpt lat="48.05553" lon="6.97364">
        <ele>977.80004882812</ele>
        <time>2022-11-01T12:15:45.000Z</time>
      </trkpt>
      <trkpt lat="48.05553" lon="6.97365">
        <ele>977.80004882812</ele>
        <time>2022-11-01T12:15:46.000Z</time>
      </trkpt>
      <trkpt lat="48.05553" lon="6.97366">
        <ele>977.80004882812</ele>
        <time>2022-11-01T12:15:47.000Z</time>
      </trkpt>
      <trkpt lat="48.05553" lon="6.97366">
        <ele>977.80004882812</ele>
        <time>2022-11-01T12:15:48.000Z</time>
      </trkpt>
      <trkpt lat="48.05553" lon="6.97367">
        <ele>977.80004882812</ele>
        <time>2022-11-01T12:15:50.000Z</time>
      </trkpt>
      <trkpt lat="48.05553" lon="6.97368">
        <ele>977.80004882812</ele>
        <time>2022-11-01T12:15:51.000Z</time>
      </trkpt>
      <trkpt lat="48.05553" lon="6.97369">
        <ele>977.80004882812</ele>
        <time>2022-11-01T12:15:52.000Z</time>
      </trkpt>
      <trkpt lat="48.05555" lon="6.97383">
        <ele>977.80004882812</ele>
        <time>2022-11-01T12:15:59.000Z</time>
      </trkpt>
      <trkpt lat="48.05557" lon="6.97388">
        <ele>977.80004882812</ele>
        <time>2022-11-01T12:16:01.000Z</time>
      </trkpt>
      <trkpt lat="48.05554" lon="6.97395">
        <ele>977.80004882812</ele>
        <time>2022-11-01T12:16:04.000Z</time>
      </trkpt>
      <trkpt lat="48.05553" lon="6.97396">
        <ele>977.80004882812</ele>
        <time>2022-11-01T12:16:05.000Z</time>
      </trkpt>
      <trkpt lat="48.05554" lon="6.97404">
        <ele>977.80004882812</ele>
        <time>2022-11-01T12:16:10.000Z</time>
      </trkpt>
      <trkpt lat="48.05554" lon="6.97407">
        <ele>977.80004882812</ele>
        <time>2022-11-01T12:16:12.000Z</time>
      </trkpt>
      <trkpt lat="48.05554" lon="6.9741">
        <ele>977.80004882812</ele>
        <time>2022-11-01T12:16:14.000Z</time>
      </trkpt>
      <trkpt lat="48.05553" lon="6.97411">
        <ele>977.80004882812</ele>
        <time>2022-11-01T12:16:15.000Z</time>
      </trkpt>
      <trkpt lat="48.05552" lon="6.97416">
        <ele>977.80004882812</ele>
        <time>2022-11-01T12:16:18.000Z</time>
      </trkpt>
      <trkpt lat="48.05551" lon="6.97419">
        <ele>977.80004882812</ele>
        <time>2022-11-01T12:16:20.000Z</time>
      </trkpt>
      <trkpt lat="48.05551" lon="6.9742">
        <ele>977.80004882812</ele>
        <time>2022-11-01T12:16:21.000Z</time>
      </trkpt>
      <trkpt lat="48.05548" lon="6.97427">
        <ele>977.80004882812</ele>
        <time>2022-11-01T12:16:26.000Z</time>
      </trkpt>
      <trkpt lat="48.05544" lon="6.97427">
        <ele>977.80004882812</ele>
        <time>2022-11-01T12:16:31.000Z</time>
      </trkpt>
      <trkpt lat="48.05544" lon="6.97429">
        <ele>977.80004882812</ele>
        <time>2022-11-01T12:16:36.000Z</time>
      </trkpt>
      <trkpt lat="48.05543" lon="6.97429">
        <ele>977.80004882812</ele>
        <time>2022-11-01T12:16:37.000Z</time>
      </trkpt>
      <trkpt lat="48.05544" lon="6.9743">
        <ele>977.80004882812</ele>
        <time>2022-11-01T12:16:38.000Z</time>
      </trkpt>
      <trkpt lat="48.05545" lon="6.97432">
        <ele>977.80004882812</ele>
        <time>2022-11-01T12:16:40.000Z</time>
      </trkpt>
      <trkpt lat="48.05544" lon="6.97437">
        <ele>977.80004882812</ele>
        <time>2022-11-01T12:16:44.000Z</time>
      </trkpt>
      <trkpt lat="48.05544" lon="6.9744">
        <ele>977.80004882812</ele>
        <time>2022-11-01T12:16:46.000Z</time>
      </trkpt>
      <trkpt lat="48.05544" lon="6.97443">
        <ele>977.80004882812</ele>
        <time>2022-11-01T12:16:48.000Z</time>
      </trkpt>
      <trkpt lat="48.05543" lon="6.97445">
        <ele>977.80004882812</ele>
        <time>2022-11-01T12:16:49.000Z</time>
      </trkpt>
      <trkpt lat="48.05543" lon="6.97447">
        <ele>977.80004882812</ele>
        <time>2022-11-01T12:16:51.000Z</time>
      </trkpt>
      <trkpt lat="48.05543" lon="6.97448">
        <ele>977.80004882812</ele>
        <time>2022-11-01T12:16:52.000Z</time>
      </trkpt>
      <trkpt lat="48.05544" lon="6.97451">
        <ele>977.80004882812</ele>
        <time>2022-11-01T12:16:54.000Z</time>
      </trkpt>
      <trkpt lat="48.05543" lon="6.97464">
        <ele>977.80004882812</ele>
        <time>2022-11-01T12:17:01.000Z</time>
      </trkpt>
      <trkpt lat="48.05547" lon="6.97469">
        <ele>977.80004882812</ele>
        <time>2022-11-01T12:17:06.000Z</time>
      </trkpt>
      <trkpt lat="48.05547" lon="6.9747">
        <ele>977.80004882812</ele>
        <time>2022-11-01T12:17:07.000Z</time>
      </trkpt>
      <trkpt lat="48.05548" lon="6.97471">
        <ele>977.80004882812</ele>
        <time>2022-11-01T12:17:09.000Z</time>
      </trkpt>
      <trkpt lat="48.05549" lon="6.97474">
        <ele>977.80004882812</ele>
        <time>2022-11-01T12:17:11.000Z</time>
      </trkpt>
      <trkpt lat="48.05549" lon="6.97477">
        <ele>977.80004882812</ele>
        <time>2022-11-01T12:17:14.000Z</time>
      </trkpt>
      <trkpt lat="48.05553" lon="6.97483">
        <ele>977.80004882812</ele>
        <time>2022-11-01T12:17:20.000Z</time>
      </trkpt>
      <trkpt lat="48.05554" lon="6.97487">
        <ele>977.80004882812</ele>
        <time>2022-11-01T12:17:23.000Z</time>
      </trkpt>
      <trkpt lat="48.05555" lon="6.97489">
        <ele>977.80004882812</ele>
        <time>2022-11-01T12:17:24.000Z</time>
      </trkpt>
      <trkpt lat="48.05557" lon="6.97492">
        <ele>977.80004882812</ele>
        <time>2022-11-01T12:17:26.000Z</time>
      </trkpt>
      <trkpt lat="48.05561" lon="6.97498">
        <ele>977.80004882812</ele>
        <time>2022-11-01T12:17:32.000Z</time>
      </trkpt>
      <trkpt lat="48.05561" lon="6.97503">
        <ele>977.80004882812</ele>
        <time>2022-11-01T12:17:38.000Z</time>
      </trkpt>
      <trkpt lat="48.05565" lon="6.97509">
        <ele>977.80004882812</ele>
        <time>2022-11-01T12:17:43.000Z</time>
      </trkpt>
      <trkpt lat="48.0557" lon="6.9752">
        <ele>977.80004882812</ele>
        <time>2022-11-01T12:17:50.000Z</time>
      </trkpt>
      <trkpt lat="48.05571" lon="6.97529">
        <ele>977.80004882812</ele>
        <time>2022-11-01T12:17:56.000Z</time>
      </trkpt>
      <trkpt lat="48.05571" lon="6.97534">
        <ele>977.80004882812</ele>
        <time>2022-11-01T12:18:01.000Z</time>
      </trkpt>
      <trkpt lat="48.05574" lon="6.97544">
        <ele>977.80004882812</ele>
        <time>2022-11-01T12:18:06.000Z</time>
      </trkpt>
      <trkpt lat="48.05577" lon="6.97548">
        <ele>977.80004882812</ele>
        <time>2022-11-01T12:18:09.000Z</time>
      </trkpt>
      <trkpt lat="48.05583" lon="6.97559">
        <ele>977.80004882812</ele>
        <time>2022-11-01T12:18:16.000Z</time>
      </trkpt>
      <trkpt lat="48.05584" lon="6.97563">
        <ele>977.80004882812</ele>
        <time>2022-11-01T12:18:18.000Z</time>
      </trkpt>
      <trkpt lat="48.05587" lon="6.97568">
        <ele>977.80004882812</ele>
        <time>2022-11-01T12:18:21.000Z</time>
      </trkpt>
      <trkpt lat="48.05588" lon="6.97572">
        <ele>977.80004882812</ele>
        <time>2022-11-01T12:18:23.000Z</time>
      </trkpt>
      <trkpt lat="48.05588" lon="6.97575">
        <ele>977.80004882812</ele>
        <time>2022-11-01T12:18:24.000Z</time>
      </trkpt>
      <trkpt lat="48.05589" lon="6.97577">
        <ele>977.80004882812</ele>
        <time>2022-11-01T12:18:25.000Z</time>
      </trkpt>
      <trkpt lat="48.05589" lon="6.97584">
        <ele>977.80004882812</ele>
        <time>2022-11-01T12:18:30.000Z</time>
      </trkpt>
      <trkpt lat="48.05584" lon="6.9759">
        <ele>977.80004882812</ele>
        <time>2022-11-01T12:18:34.000Z</time>
      </trkpt>
      <trkpt lat="48.05583" lon="6.9759">
        <ele>977.80004882812</ele>
        <time>2022-11-01T12:18:36.000Z</time>
      </trkpt>
      <trkpt lat="48.05581" lon="6.97592">
        <ele>977.80004882812</ele>
        <time>2022-11-01T12:18:40.000Z</time>
      </trkpt>
      <trkpt lat="48.05579" lon="6.97593">
        <ele>977.80004882812</ele>
        <time>2022-11-01T12:18:43.000Z</time>
      </trkpt>
      <trkpt lat="48.05576" lon="6.97596">
        <ele>977.80004882812</ele>
        <time>2022-11-01T12:18:48.000Z</time>
      </trkpt>
      <trkpt lat="48.05575" lon="6.97597">
        <ele>977.80004882812</ele>
        <time>2022-11-01T12:18:53.000Z</time>
      </trkpt>
      <trkpt lat="48.05573" lon="6.97599">
        <ele>977.80004882812</ele>
        <time>2022-11-01T12:18:57.000Z</time>
      </trkpt>
      <trkpt lat="48.05572" lon="6.976">
        <ele>977.80004882812</ele>
        <time>2022-11-01T12:18:59.000Z</time>
      </trkpt>
      <trkpt lat="48.05567" lon="6.97601">
        <ele>977.80004882812</ele>
        <time>2022-11-01T12:19:04.000Z</time>
      </trkpt>
      <trkpt lat="48.05559" lon="6.97601">
        <ele>977.80004882812</ele>
        <time>2022-11-01T12:19:10.000Z</time>
      </trkpt>
      <trkpt lat="48.05552" lon="6.97602">
        <ele>977.80004882812</ele>
        <time>2022-11-01T12:19:16.000Z</time>
      </trkpt>
      <trkpt lat="48.05549" lon="6.97607">
        <ele>977.80004882812</ele>
        <time>2022-11-01T12:19:20.000Z</time>
      </trkpt>
      <trkpt lat="48.05547" lon="6.97609">
        <ele>977.80004882812</ele>
        <time>2022-11-01T12:19:22.000Z</time>
      </trkpt>
      <trkpt lat="48.05545" lon="6.97609">
        <ele>977.80004882812</ele>
        <time>2022-11-01T12:19:24.000Z</time>
      </trkpt>
      <trkpt lat="48.05541" lon="6.9761">
        <ele>977.80004882812</ele>
        <time>2022-11-01T12:19:28.000Z</time>
      </trkpt>
      <trkpt lat="48.05536" lon="6.97614">
        <ele>977.80004882812</ele>
        <time>2022-11-01T12:19:34.000Z</time>
      </trkpt>
      <trkpt lat="48.05528" lon="6.97613">
        <ele>977.80004882812</ele>
        <time>2022-11-01T12:19:40.000Z</time>
      </trkpt>
      <trkpt lat="48.05526" lon="6.97613">
        <ele>977.80004882812</ele>
        <time>2022-11-01T12:19:41.000Z</time>
      </trkpt>
      <trkpt lat="48.0552" lon="6.97612">
        <ele>977.80004882812</ele>
        <time>2022-11-01T12:19:47.000Z</time>
      </trkpt>
      <trkpt lat="48.05518" lon="6.97611">
        <ele>977.80004882812</ele>
        <time>2022-11-01T12:19:50.000Z</time>
      </trkpt>
      <trkpt lat="48.05517" lon="6.97611">
        <ele>977.80004882812</ele>
        <time>2022-11-01T12:19:51.000Z</time>
      </trkpt>
      <trkpt lat="48.0551" lon="6.97609">
        <ele>977.80004882812</ele>
        <time>2022-11-01T12:19:55.000Z</time>
      </trkpt>
      <trkpt lat="48.0551" lon="6.97609">
        <ele>977.80004882812</ele>
        <time>2022-11-01T12:19:56.000Z</time>
      </trkpt>
      <trkpt lat="48.05507" lon="6.97607">
        <ele>977.80004882812</ele>
        <time>2022-11-01T12:19:59.000Z</time>
      </trkpt>
      <trkpt lat="48.05505" lon="6.97606">
        <ele>977.80004882812</ele>
        <time>2022-11-01T12:20:01.000Z</time>
      </trkpt>
      <trkpt lat="48.05504" lon="6.97603">
        <ele>977.80004882812</ele>
        <time>2022-11-01T12:20:03.000Z</time>
      </trkpt>
      <trkpt lat="48.05502" lon="6.97601">
        <ele>977.80004882812</ele>
        <time>2022-11-01T12:20:05.000Z</time>
      </trkpt>
      <trkpt lat="48.05501" lon="6.97598">
        <ele>977.80004882812</ele>
        <time>2022-11-01T12:20:07.000Z</time>
      </trkpt>
      <trkpt lat="48.05498" lon="6.97596">
        <ele>977.80004882812</ele>
        <time>2022-11-01T12:20:10.000Z</time>
      </trkpt>
      <trkpt lat="48.05497" lon="6.97593">
        <ele>977.80004882812</ele>
        <time>2022-11-01T12:20:12.000Z</time>
      </trkpt>
      <trkpt lat="48.05497" lon="6.97591">
        <ele>977.80004882812</ele>
        <time>2022-11-01T12:20:13.000Z</time>
      </trkpt>
      <trkpt lat="48.05493" lon="6.97588">
        <ele>977.80004882812</ele>
        <time>2022-11-01T12:20:18.000Z</time>
      </trkpt>
      <trkpt lat="48.05492" lon="6.97588">
        <ele>977.80004882812</ele>
        <time>2022-11-01T12:20:19.000Z</time>
      </trkpt>
      <trkpt lat="48.05489" lon="6.97586">
        <ele>977.80004882812</ele>
        <time>2022-11-01T12:20:22.000Z</time>
      </trkpt>
      <trkpt lat="48.05486" lon="6.97587">
        <ele>977.80004882812</ele>
        <time>2022-11-01T12:20:24.000Z</time>
      </trkpt>
      <trkpt lat="48.05483" lon="6.97587">
        <ele>977.80004882812</ele>
        <time>2022-11-01T12:20:27.000Z</time>
      </trkpt>
      <trkpt lat="48.05482" lon="6.97585">
        <ele>977.80004882812</ele>
        <time>2022-11-01T12:20:32.000Z</time>
      </trkpt>
      <trkpt lat="48.05482" lon="6.97587">
        <ele>977.80004882812</ele>
        <time>2022-11-01T12:20:35.000Z</time>
      </trkpt>
      <trkpt lat="48.05481" lon="6.97587">
        <ele>977.80004882812</ele>
        <time>2022-11-01T12:20:36.000Z</time>
      </trkpt>
      <trkpt lat="48.0548" lon="6.97586">
        <ele>977.80004882812</ele>
        <time>2022-11-01T12:20:38.000Z</time>
      </trkpt>
      <trkpt lat="48.05475" lon="6.97587">
        <ele>974.80004882812</ele>
        <time>2022-11-01T12:20:41.000Z</time>
      </trkpt>
      <trkpt lat="48.05474" lon="6.97583">
        <ele>974.80004882812</ele>
        <time>2022-11-01T12:20:46.000Z</time>
      </trkpt>
      <trkpt lat="48.05473" lon="6.97581">
        <ele>974.59997558594</ele>
        <time>2022-11-01T12:20:51.000Z</time>
      </trkpt>
      <trkpt lat="48.0547" lon="6.97581">
        <ele>974.40002441406</ele>
        <time>2022-11-01T12:20:55.000Z</time>
      </trkpt>
      <trkpt lat="48.05468" lon="6.97581">
        <ele>974.40002441406</ele>
        <time>2022-11-01T12:20:56.000Z</time>
      </trkpt>
      <trkpt lat="48.05462" lon="6.97581">
        <ele>974.40002441406</ele>
        <time>2022-11-01T12:20:59.000Z</time>
      </trkpt>
      <trkpt lat="48.05458" lon="6.97583">
        <ele>974.19995117188</ele>
        <time>2022-11-01T12:21:03.000Z</time>
      </trkpt>
      <trkpt lat="48.05449" lon="6.9759">
        <ele>974</ele>
        <time>2022-11-01T12:21:09.000Z</time>
      </trkpt>
      <trkpt lat="48.05447" lon="6.97591">
        <ele>973.80004882812</ele>
        <time>2022-11-01T12:21:11.000Z</time>
      </trkpt>
      <trkpt lat="48.05444" lon="6.97593">
        <ele>974</ele>
        <time>2022-11-01T12:21:15.000Z</time>
      </trkpt>
      <trkpt lat="48.05439" lon="6.97594">
        <ele>973.80004882812</ele>
        <time>2022-11-01T12:21:20.000Z</time>
      </trkpt>
      <trkpt lat="48.05438" lon="6.97593">
        <ele>974</ele>
        <time>2022-11-01T12:21:21.000Z</time>
      </trkpt>
      <trkpt lat="48.05434" lon="6.97594">
        <ele>973.40002441406</ele>
        <time>2022-11-01T12:21:27.000Z</time>
      </trkpt>
      <trkpt lat="48.05433" lon="6.97593">
        <ele>972.80004882812</ele>
        <time>2022-11-01T12:21:32.000Z</time>
      </trkpt>
      <trkpt lat="48.05433" lon="6.97594">
        <ele>972.80004882812</ele>
        <time>2022-11-01T12:21:33.000Z</time>
      </trkpt>
      <trkpt lat="48.05429" lon="6.97597">
        <ele>972.40002441406</ele>
        <time>2022-11-01T12:21:37.000Z</time>
      </trkpt>
      <trkpt lat="48.05428" lon="6.97598">
        <ele>972.19995117188</ele>
        <time>2022-11-01T12:21:38.000Z</time>
      </trkpt>
      <trkpt lat="48.05419" lon="6.97602">
        <ele>971.80004882812</ele>
        <time>2022-11-01T12:21:43.000Z</time>
      </trkpt>
      <trkpt lat="48.05418" lon="6.97603">
        <ele>971.80004882812</ele>
        <time>2022-11-01T12:21:44.000Z</time>
      </trkpt>
      <trkpt lat="48.05415" lon="6.97602">
        <ele>971.40002441406</ele>
        <time>2022-11-01T12:21:48.000Z</time>
      </trkpt>
      <trkpt lat="48.05413" lon="6.97603">
        <ele>971.19995117188</ele>
        <time>2022-11-01T12:21:50.000Z</time>
      </trkpt>
      <trkpt lat="48.0541" lon="6.97606">
        <ele>971</ele>
        <time>2022-11-01T12:21:55.000Z</time>
      </trkpt>
      <trkpt lat="48.05407" lon="6.97608">
        <ele>971</ele>
        <time>2022-11-01T12:21:59.000Z</time>
      </trkpt>
      <trkpt lat="48.05399" lon="6.97609">
        <ele>971.19995117188</ele>
        <time>2022-11-01T12:22:05.000Z</time>
      </trkpt>
      <trkpt lat="48.05394" lon="6.97609">
        <ele>970.59997558594</ele>
        <time>2022-11-01T12:22:12.000Z</time>
      </trkpt>
      <trkpt lat="48.05393" lon="6.97609">
        <ele>970.19995117188</ele>
        <time>2022-11-01T12:22:17.000Z</time>
      </trkpt>
      <trkpt lat="48.05394" lon="6.97616">
        <ele>970</ele>
        <time>2022-11-01T12:22:24.000Z</time>
      </trkpt>
      <trkpt lat="48.05393" lon="6.97616">
        <ele>970</ele>
        <time>2022-11-01T12:22:25.000Z</time>
      </trkpt>
      <trkpt lat="48.05389" lon="6.97618">
        <ele>969.80004882812</ele>
        <time>2022-11-01T12:22:28.000Z</time>
      </trkpt>
      <trkpt lat="48.05388" lon="6.97615">
        <ele>969.59997558594</ele>
        <time>2022-11-01T12:22:33.000Z</time>
      </trkpt>
      <trkpt lat="48.05384" lon="6.97614">
        <ele>969</ele>
        <time>2022-11-01T12:22:37.000Z</time>
      </trkpt>
      <trkpt lat="48.05382" lon="6.97614">
        <ele>968.80004882812</ele>
        <time>2022-11-01T12:22:39.000Z</time>
      </trkpt>
      <trkpt lat="48.05378" lon="6.97614">
        <ele>968.59997558594</ele>
        <time>2022-11-01T12:22:42.000Z</time>
      </trkpt>
      <trkpt lat="48.05375" lon="6.97614">
        <ele>968.19995117188</ele>
        <time>2022-11-01T12:22:44.000Z</time>
      </trkpt>
      <trkpt lat="48.05368" lon="6.97614">
        <ele>967.59997558594</ele>
        <time>2022-11-01T12:22:49.000Z</time>
      </trkpt>
      <trkpt lat="48.05367" lon="6.97614">
        <ele>967.40002441406</ele>
        <time>2022-11-01T12:22:50.000Z</time>
      </trkpt>
      <trkpt lat="48.05357" lon="6.97619">
        <ele>966.59997558594</ele>
        <time>2022-11-01T12:22:55.000Z</time>
      </trkpt>
      <trkpt lat="48.05355" lon="6.97622">
        <ele>966.40002441406</ele>
        <time>2022-11-01T12:22:57.000Z</time>
      </trkpt>
      <trkpt lat="48.05351" lon="6.97622">
        <ele>965.80004882812</ele>
        <time>2022-11-01T12:23:00.000Z</time>
      </trkpt>
      <trkpt lat="48.05347" lon="6.97622">
        <ele>965.19995117188</ele>
        <time>2022-11-01T12:23:05.000Z</time>
      </trkpt>
      <trkpt lat="48.05344" lon="6.97623">
        <ele>964.80004882812</ele>
        <time>2022-11-01T12:23:08.000Z</time>
      </trkpt>
      <trkpt lat="48.0534" lon="6.97626">
        <ele>964.59997558594</ele>
        <time>2022-11-01T12:23:11.000Z</time>
      </trkpt>
      <trkpt lat="48.05337" lon="6.97623">
        <ele>964.19995117188</ele>
        <time>2022-11-01T12:23:15.000Z</time>
      </trkpt>
      <trkpt lat="48.05335" lon="6.97622">
        <ele>964</ele>
        <time>2022-11-01T12:23:19.000Z</time>
      </trkpt>
      <trkpt lat="48.05331" lon="6.97623">
        <ele>963</ele>
        <time>2022-11-01T12:23:24.000Z</time>
      </trkpt>
      <trkpt lat="48.0533" lon="6.97624">
        <ele>962.80004882812</ele>
        <time>2022-11-01T12:23:26.000Z</time>
      </trkpt>
      <trkpt lat="48.05321" lon="6.97626">
        <ele>962</ele>
        <time>2022-11-01T12:23:33.000Z</time>
      </trkpt>
      <trkpt lat="48.05318" lon="6.97628">
        <ele>961.80004882812</ele>
        <time>2022-11-01T12:23:38.000Z</time>
      </trkpt>
      <trkpt lat="48.05309" lon="6.97626">
        <ele>961</ele>
        <time>2022-11-01T12:23:45.000Z</time>
      </trkpt>
      <trkpt lat="48.05307" lon="6.97627">
        <ele>960.80004882812</ele>
        <time>2022-11-01T12:23:50.000Z</time>
      </trkpt>
      <trkpt lat="48.05306" lon="6.97629">
        <ele>960.59997558594</ele>
        <time>2022-11-01T12:23:54.000Z</time>
      </trkpt>
      <trkpt lat="48.053" lon="6.97627">
        <ele>960.19995117188</ele>
        <time>2022-11-01T12:23:59.000Z</time>
      </trkpt>
      <trkpt lat="48.05294" lon="6.97628">
        <ele>960.19995117188</ele>
        <time>2022-11-01T12:24:03.000Z</time>
      </trkpt>
      <trkpt lat="48.05291" lon="6.97628">
        <ele>960</ele>
        <time>2022-11-01T12:24:06.000Z</time>
      </trkpt>
      <trkpt lat="48.0529" lon="6.97627">
        <ele>960</ele>
        <time>2022-11-01T12:24:07.000Z</time>
      </trkpt>
      <trkpt lat="48.0529" lon="6.97627">
        <ele>960</ele>
        <time>2022-11-01T12:24:11.000Z</time>
      </trkpt>
      <trkpt lat="48.05289" lon="6.97628">
        <ele>959.19995117188</ele>
        <time>2022-11-01T12:24:18.000Z</time>
      </trkpt>
      <trkpt lat="48.05288" lon="6.97628">
        <ele>958.80004882812</ele>
        <time>2022-11-01T12:24:21.000Z</time>
      </trkpt>
      <trkpt lat="48.05287" lon="6.97629">
        <ele>958.80004882812</ele>
        <time>2022-11-01T12:24:22.000Z</time>
      </trkpt>
      <trkpt lat="48.05284" lon="6.97629">
        <ele>957.59997558594</ele>
        <time>2022-11-01T12:24:28.000Z</time>
      </trkpt>
      <trkpt lat="48.05283" lon="6.97629">
        <ele>957.59997558594</ele>
        <time>2022-11-01T12:24:29.000Z</time>
      </trkpt>
      <trkpt lat="48.05277" lon="6.97631">
        <ele>956.59997558594</ele>
        <time>2022-11-01T12:24:34.000Z</time>
      </trkpt>
      <trkpt lat="48.05275" lon="6.97632">
        <ele>956.40002441406</ele>
        <time>2022-11-01T12:24:35.000Z</time>
      </trkpt>
      <trkpt lat="48.05268" lon="6.97636">
        <ele>955.80004882812</ele>
        <time>2022-11-01T12:24:40.000Z</time>
      </trkpt>
      <trkpt lat="48.05267" lon="6.97636">
        <ele>955.40002441406</ele>
        <time>2022-11-01T12:24:42.000Z</time>
      </trkpt>
      <trkpt lat="48.05265" lon="6.97638">
        <ele>954.59997558594</ele>
        <time>2022-11-01T12:24:46.000Z</time>
      </trkpt>
      <trkpt lat="48.05265" lon="6.97639">
        <ele>954.19995117188</ele>
        <time>2022-11-01T12:24:48.000Z</time>
      </trkpt>
      <trkpt lat="48.05263" lon="6.9764">
        <ele>954</ele>
        <time>2022-11-01T12:24:50.000Z</time>
      </trkpt>
      <trkpt lat="48.05263" lon="6.97639">
        <ele>953.80004882812</ele>
        <time>2022-11-01T12:24:51.000Z</time>
      </trkpt>
      <trkpt lat="48.05263" lon="6.97638">
        <ele>953.19995117188</ele>
        <time>2022-11-01T12:24:54.000Z</time>
      </trkpt>
      <trkpt lat="48.05262" lon="6.97639">
        <ele>953</ele>
        <time>2022-11-01T12:24:57.000Z</time>
      </trkpt>
      <trkpt lat="48.05251" lon="6.97645">
        <ele>952.19995117188</ele>
        <time>2022-11-01T12:25:03.000Z</time>
      </trkpt>
      <trkpt lat="48.05245" lon="6.9765">
        <ele>951.80004882812</ele>
        <time>2022-11-01T12:25:06.000Z</time>
      </trkpt>
      <trkpt lat="48.05245" lon="6.97651">
        <ele>951.59997558594</ele>
        <time>2022-11-01T12:25:07.000Z</time>
      </trkpt>
      <trkpt lat="48.05243" lon="6.97652">
        <ele>951.40002441406</ele>
        <time>2022-11-01T12:25:08.000Z</time>
      </trkpt>
      <trkpt lat="48.05241" lon="6.97654">
        <ele>951</ele>
        <time>2022-11-01T12:25:12.000Z</time>
      </trkpt>
      <trkpt lat="48.05242" lon="6.97654">
        <ele>951</ele>
        <time>2022-11-01T12:25:13.000Z</time>
      </trkpt>
      <trkpt lat="48.05238" lon="6.97657">
        <ele>950.40002441406</ele>
        <time>2022-11-01T12:25:17.000Z</time>
      </trkpt>
      <trkpt lat="48.05238" lon="6.97655">
        <ele>950</ele>
        <time>2022-11-01T12:25:20.000Z</time>
      </trkpt>
      <trkpt lat="48.05237" lon="6.97655">
        <ele>949.80004882812</ele>
        <time>2022-11-01T12:25:22.000Z</time>
      </trkpt>
      <trkpt lat="48.05229" lon="6.97654">
        <ele>948.80004882812</ele>
        <time>2022-11-01T12:25:30.000Z</time>
      </trkpt>
      <trkpt lat="48.05225" lon="6.97652">
        <ele>948.19995117188</ele>
        <time>2022-11-01T12:25:34.000Z</time>
      </trkpt>
      <trkpt lat="48.05224" lon="6.97652">
        <ele>948.19995117188</ele>
        <time>2022-11-01T12:25:35.000Z</time>
      </trkpt>
      <trkpt lat="48.05219" lon="6.97652">
        <ele>947.80004882812</ele>
        <time>2022-11-01T12:25:38.000Z</time>
      </trkpt>
      <trkpt lat="48.05211" lon="6.97657">
        <ele>947</ele>
        <time>2022-11-01T12:25:43.000Z</time>
      </trkpt>
      <trkpt lat="48.05208" lon="6.9766">
        <ele>946.80004882812</ele>
        <time>2022-11-01T12:25:46.000Z</time>
      </trkpt>
      <trkpt lat="48.05204" lon="6.97662">
        <ele>946.59997558594</ele>
        <time>2022-11-01T12:25:49.000Z</time>
      </trkpt>
      <trkpt lat="48.05195" lon="6.97665">
        <ele>946.40002441406</ele>
        <time>2022-11-01T12:25:55.000Z</time>
      </trkpt>
      <trkpt lat="48.05193" lon="6.97665">
        <ele>946.40002441406</ele>
        <time>2022-11-01T12:25:57.000Z</time>
      </trkpt>
      <trkpt lat="48.05188" lon="6.97664">
        <ele>946.40002441406</ele>
        <time>2022-11-01T12:26:03.000Z</time>
      </trkpt>
      <trkpt lat="48.05189" lon="6.97663">
        <ele>946</ele>
        <time>2022-11-01T12:26:07.000Z</time>
      </trkpt>
      <trkpt lat="48.05184" lon="6.97661">
        <ele>945.80004882812</ele>
        <time>2022-11-01T12:26:12.000Z</time>
      </trkpt>
      <trkpt lat="48.05185" lon="6.97661">
        <ele>945.59997558594</ele>
        <time>2022-11-01T12:26:14.000Z</time>
      </trkpt>
      <trkpt lat="48.05183" lon="6.97664">
        <ele>945.19995117188</ele>
        <time>2022-11-01T12:26:17.000Z</time>
      </trkpt>
      <trkpt lat="48.05181" lon="6.97663">
        <ele>944.80004882812</ele>
        <time>2022-11-01T12:26:20.000Z</time>
      </trkpt>
      <trkpt lat="48.0518" lon="6.97663">
        <ele>944.59997558594</ele>
        <time>2022-11-01T12:26:22.000Z</time>
      </trkpt>
      <trkpt lat="48.05178" lon="6.97663">
        <ele>944.40002441406</ele>
        <time>2022-11-01T12:26:24.000Z</time>
      </trkpt>
      <trkpt lat="48.05176" lon="6.97665">
        <ele>944.19995117188</ele>
        <time>2022-11-01T12:26:27.000Z</time>
      </trkpt>
      <trkpt lat="48.05174" lon="6.97666">
        <ele>943.40002441406</ele>
        <time>2022-11-01T12:26:32.000Z</time>
      </trkpt>
      <trkpt lat="48.05176" lon="6.97661">
        <ele>943</ele>
        <time>2022-11-01T12:26:36.000Z</time>
      </trkpt>
      <trkpt lat="48.05174" lon="6.97661">
        <ele>943</ele>
        <time>2022-11-01T12:26:37.000Z</time>
      </trkpt>
      <trkpt lat="48.05169" lon="6.97659">
        <ele>942.80004882812</ele>
        <time>2022-11-01T12:26:41.000Z</time>
      </trkpt>
      <trkpt lat="48.05166" lon="6.97659">
        <ele>942.40002441406</ele>
        <time>2022-11-01T12:26:46.000Z</time>
      </trkpt>
      <trkpt lat="48.05166" lon="6.97659">
        <ele>942.40002441406</ele>
        <time>2022-11-01T12:26:47.000Z</time>
      </trkpt>
      <trkpt lat="48.05161" lon="6.9766">
        <ele>942</ele>
        <time>2022-11-01T12:26:53.000Z</time>
      </trkpt>
      <trkpt lat="48.05161" lon="6.9766">
        <ele>941.80004882812</ele>
        <time>2022-11-01T12:26:54.000Z</time>
      </trkpt>
      <trkpt lat="48.05158" lon="6.97658">
        <ele>941.59997558594</ele>
        <time>2022-11-01T12:26:57.000Z</time>
      </trkpt>
      <trkpt lat="48.05152" lon="6.97659">
        <ele>941.19995117188</ele>
        <time>2022-11-01T12:27:02.000Z</time>
      </trkpt>
      <trkpt lat="48.05151" lon="6.9766">
        <ele>940.80004882812</ele>
        <time>2022-11-01T12:27:04.000Z</time>
      </trkpt>
      <trkpt lat="48.0515" lon="6.97661">
        <ele>940.80004882812</ele>
        <time>2022-11-01T12:27:05.000Z</time>
      </trkpt>
      <trkpt lat="48.05142" lon="6.97666">
        <ele>940.40002441406</ele>
        <time>2022-11-01T12:27:09.000Z</time>
      </trkpt>
      <trkpt lat="48.05138" lon="6.97672">
        <ele>940.19995117188</ele>
        <time>2022-11-01T12:27:12.000Z</time>
      </trkpt>
      <trkpt lat="48.05135" lon="6.97673">
        <ele>940</ele>
        <time>2022-11-01T12:27:13.000Z</time>
      </trkpt>
      <trkpt lat="48.05128" lon="6.97678">
        <ele>939.59997558594</ele>
        <time>2022-11-01T12:27:17.000Z</time>
      </trkpt>
      <trkpt lat="48.05124" lon="6.9768">
        <ele>939.19995117188</ele>
        <time>2022-11-01T12:27:21.000Z</time>
      </trkpt>
      <trkpt lat="48.05121" lon="6.97681">
        <ele>939</ele>
        <time>2022-11-01T12:27:23.000Z</time>
      </trkpt>
      <trkpt lat="48.05115" lon="6.97682">
        <ele>938</ele>
        <time>2022-11-01T12:27:29.000Z</time>
      </trkpt>
      <trkpt lat="48.05113" lon="6.97682">
        <ele>937.80004882812</ele>
        <time>2022-11-01T12:27:30.000Z</time>
      </trkpt>
      <trkpt lat="48.05105" lon="6.97683">
        <ele>937.19995117188</ele>
        <time>2022-11-01T12:27:37.000Z</time>
      </trkpt>
      <trkpt lat="48.05103" lon="6.97684">
        <ele>937.19995117188</ele>
        <time>2022-11-01T12:27:38.000Z</time>
      </trkpt>
      <trkpt lat="48.05102" lon="6.97685">
        <ele>937</ele>
        <time>2022-11-01T12:27:39.000Z</time>
      </trkpt>
      <trkpt lat="48.05103" lon="6.97685">
        <ele>936.80004882812</ele>
        <time>2022-11-01T12:27:41.000Z</time>
      </trkpt>
      <trkpt lat="48.05105" lon="6.97682">
        <ele>936.19995117188</ele>
        <time>2022-11-01T12:27:45.000Z</time>
      </trkpt>
      <trkpt lat="48.05102" lon="6.97681">
        <ele>935.80004882812</ele>
        <time>2022-11-01T12:27:47.000Z</time>
      </trkpt>
      <trkpt lat="48.05101" lon="6.97683">
        <ele>935.40002441406</ele>
        <time>2022-11-01T12:27:51.000Z</time>
      </trkpt>
      <trkpt lat="48.051" lon="6.97683">
        <ele>935.19995117188</ele>
        <time>2022-11-01T12:27:53.000Z</time>
      </trkpt>
      <trkpt lat="48.05101" lon="6.97684">
        <ele>934.80004882812</ele>
        <time>2022-11-01T12:27:55.000Z</time>
      </trkpt>
      <trkpt lat="48.05101" lon="6.97687">
        <ele>934.19995117188</ele>
        <time>2022-11-01T12:27:59.000Z</time>
      </trkpt>
      <trkpt lat="48.05096" lon="6.97689">
        <ele>933.80004882812</ele>
        <time>2022-11-01T12:28:03.000Z</time>
      </trkpt>
      <trkpt lat="48.05096" lon="6.97689">
        <ele>933.80004882812</ele>
        <time>2022-11-01T12:28:04.000Z</time>
      </trkpt>
      <trkpt lat="48.05098" lon="6.97688">
        <ele>933.59997558594</ele>
        <time>2022-11-01T12:28:10.000Z</time>
      </trkpt>
      <trkpt lat="48.05097" lon="6.97687">
        <ele>933.19995117188</ele>
        <time>2022-11-01T12:28:14.000Z</time>
      </trkpt>
      <trkpt lat="48.05096" lon="6.97685">
        <ele>932.80004882812</ele>
        <time>2022-11-01T12:28:18.000Z</time>
      </trkpt>
      <trkpt lat="48.05095" lon="6.97684">
        <ele>932.59997558594</ele>
        <time>2022-11-01T12:28:19.000Z</time>
      </trkpt>
      <trkpt lat="48.05088" lon="6.97683">
        <ele>932</ele>
        <time>2022-11-01T12:28:26.000Z</time>
      </trkpt>
      <trkpt lat="48.05086" lon="6.97685">
        <ele>931.80004882812</ele>
        <time>2022-11-01T12:28:30.000Z</time>
      </trkpt>
      <trkpt lat="48.05084" lon="6.97687">
        <ele>931.80004882812</ele>
        <time>2022-11-01T12:28:31.000Z</time>
      </trkpt>
      <trkpt lat="48.05075" lon="6.9769">
        <ele>931.59997558594</ele>
        <time>2022-11-01T12:28:34.000Z</time>
      </trkpt>
      <trkpt lat="48.05072" lon="6.97691">
        <ele>931.59997558594</ele>
        <time>2022-11-01T12:28:35.000Z</time>
      </trkpt>
      <trkpt lat="48.0507" lon="6.97692">
        <ele>931.59997558594</ele>
        <time>2022-11-01T12:28:36.000Z</time>
      </trkpt>
      <trkpt lat="48.05064" lon="6.97692">
        <ele>931.59997558594</ele>
        <time>2022-11-01T12:28:41.000Z</time>
      </trkpt>
      <trkpt lat="48.05063" lon="6.9769">
        <ele>931.80004882812</ele>
        <time>2022-11-01T12:28:45.000Z</time>
      </trkpt>
      <trkpt lat="48.05062" lon="6.97689">
        <ele>931.80004882812</ele>
        <time>2022-11-01T12:28:48.000Z</time>
      </trkpt>
      <trkpt lat="48.05062" lon="6.97687">
        <ele>931.80004882812</ele>
        <time>2022-11-01T12:28:52.000Z</time>
      </trkpt>
      <trkpt lat="48.0506" lon="6.97688">
        <ele>931.59997558594</ele>
        <time>2022-11-01T12:28:56.000Z</time>
      </trkpt>
      <trkpt lat="48.05057" lon="6.97687">
        <ele>931.59997558594</ele>
        <time>2022-11-01T12:29:00.000Z</time>
      </trkpt>
      <trkpt lat="48.05052" lon="6.97682">
        <ele>931.40002441406</ele>
        <time>2022-11-01T12:29:06.000Z</time>
      </trkpt>
      <trkpt lat="48.05049" lon="6.97678">
        <ele>931.19995117188</ele>
        <time>2022-11-01T12:29:11.000Z</time>
      </trkpt>
      <trkpt lat="48.05045" lon="6.97677">
        <ele>931.19995117188</ele>
        <time>2022-11-01T12:29:13.000Z</time>
      </trkpt>
      <trkpt lat="48.05039" lon="6.97673">
        <ele>931.40002441406</ele>
        <time>2022-11-01T12:29:19.000Z</time>
      </trkpt>
      <trkpt lat="48.05039" lon="6.9767">
        <ele>931.40002441406</ele>
        <time>2022-11-01T12:29:21.000Z</time>
      </trkpt>
      <trkpt lat="48.05038" lon="6.97669">
        <ele>931.40002441406</ele>
        <time>2022-11-01T12:29:22.000Z</time>
      </trkpt>
      <trkpt lat="48.05037" lon="6.97669">
        <ele>931.40002441406</ele>
        <time>2022-11-01T12:29:23.000Z</time>
      </trkpt>
      <trkpt lat="48.05029" lon="6.97667">
        <ele>931.80004882812</ele>
        <time>2022-11-01T12:29:28.000Z</time>
      </trkpt>
      <trkpt lat="48.05028" lon="6.97667">
        <ele>931.80004882812</ele>
        <time>2022-11-01T12:29:29.000Z</time>
      </trkpt>
      <trkpt lat="48.05026" lon="6.97667">
        <ele>931.80004882812</ele>
        <time>2022-11-01T12:29:31.000Z</time>
      </trkpt>
      <trkpt lat="48.05024" lon="6.97667">
        <ele>931.80004882812</ele>
        <time>2022-11-01T12:29:32.000Z</time>
      </trkpt>
      <trkpt lat="48.05021" lon="6.97668">
        <ele>932</ele>
        <time>2022-11-01T12:29:34.000Z</time>
      </trkpt>
      <trkpt lat="48.05018" lon="6.97669">
        <ele>932</ele>
        <time>2022-11-01T12:29:37.000Z</time>
      </trkpt>
      <trkpt lat="48.05016" lon="6.97669">
        <ele>932</ele>
        <time>2022-11-01T12:29:38.000Z</time>
      </trkpt>
      <trkpt lat="48.05015" lon="6.97669">
        <ele>932</ele>
        <time>2022-11-01T12:29:39.000Z</time>
      </trkpt>
      <trkpt lat="48.05012" lon="6.97667">
        <ele>932.40002441406</ele>
        <time>2022-11-01T12:29:43.000Z</time>
      </trkpt>
      <trkpt lat="48.0501" lon="6.97666">
        <ele>932.40002441406</ele>
        <time>2022-11-01T12:29:44.000Z</time>
      </trkpt>
      <trkpt lat="48.05007" lon="6.97665">
        <ele>932.59997558594</ele>
        <time>2022-11-01T12:29:47.000Z</time>
      </trkpt>
      <trkpt lat="48.05005" lon="6.97664">
        <ele>932.80004882812</ele>
        <time>2022-11-01T12:29:49.000Z</time>
      </trkpt>
      <trkpt lat="48.05003" lon="6.97664">
        <ele>933</ele>
        <time>2022-11-01T12:29:51.000Z</time>
      </trkpt>
      <trkpt lat="48.04999" lon="6.9766">
        <ele>933.19995117188</ele>
        <time>2022-11-01T12:29:55.000Z</time>
      </trkpt>
      <trkpt lat="48.04999" lon="6.97656">
        <ele>933.19995117188</ele>
        <time>2022-11-01T12:29:57.000Z</time>
      </trkpt>
      <trkpt lat="48.05" lon="6.97652">
        <ele>933.19995117188</ele>
        <time>2022-11-01T12:30:00.000Z</time>
      </trkpt>
      <trkpt lat="48.05001" lon="6.9765">
        <ele>933.19995117188</ele>
        <time>2022-11-01T12:30:01.000Z</time>
      </trkpt>
      <trkpt lat="48.05" lon="6.97644">
        <ele>933.40002441406</ele>
        <time>2022-11-01T12:30:08.000Z</time>
      </trkpt>
      <trkpt lat="48.04997" lon="6.97643">
        <ele>933.59997558594</ele>
        <time>2022-11-01T12:30:12.000Z</time>
      </trkpt>
      <trkpt lat="48.04996" lon="6.97641">
        <ele>933.80004882812</ele>
        <time>2022-11-01T12:30:14.000Z</time>
      </trkpt>
      <trkpt lat="48.04994" lon="6.9764">
        <ele>934.19995117188</ele>
        <time>2022-11-01T12:30:16.000Z</time>
      </trkpt>
      <trkpt lat="48.04991" lon="6.9764">
        <ele>934.40002441406</ele>
        <time>2022-11-01T12:30:18.000Z</time>
      </trkpt>
      <trkpt lat="48.04986" lon="6.97639">
        <ele>934.80004882812</ele>
        <time>2022-11-01T12:30:21.000Z</time>
      </trkpt>
      <trkpt lat="48.04986" lon="6.97639">
        <ele>935</ele>
        <time>2022-11-01T12:30:22.000Z</time>
      </trkpt>
      <trkpt lat="48.04985" lon="6.9764">
        <ele>935</ele>
        <time>2022-11-01T12:30:23.000Z</time>
      </trkpt>
      <trkpt lat="48.0498" lon="6.97639">
        <ele>935.19995117188</ele>
        <time>2022-11-01T12:30:26.000Z</time>
      </trkpt>
      <trkpt lat="48.04978" lon="6.97635">
        <ele>935.40002441406</ele>
        <time>2022-11-01T12:30:29.000Z</time>
      </trkpt>
      <trkpt lat="48.04977" lon="6.97634">
        <ele>935.40002441406</ele>
        <time>2022-11-01T12:30:30.000Z</time>
      </trkpt>
      <trkpt lat="48.04971" lon="6.97632">
        <ele>936</ele>
        <time>2022-11-01T12:30:34.000Z</time>
      </trkpt>
      <trkpt lat="48.04969" lon="6.9763">
        <ele>936.19995117188</ele>
        <time>2022-11-01T12:30:36.000Z</time>
      </trkpt>
      <trkpt lat="48.04968" lon="6.97629">
        <ele>936.19995117188</ele>
        <time>2022-11-01T12:30:37.000Z</time>
      </trkpt>
      <trkpt lat="48.04962" lon="6.97628">
        <ele>936.40002441406</ele>
        <time>2022-11-01T12:30:41.000Z</time>
      </trkpt>
      <trkpt lat="48.04955" lon="6.97628">
        <ele>937</ele>
        <time>2022-11-01T12:30:46.000Z</time>
      </trkpt>
      <trkpt lat="48.04956" lon="6.97626">
        <ele>937</ele>
        <time>2022-11-01T12:30:47.000Z</time>
      </trkpt>
      <trkpt lat="48.04953" lon="6.97625">
        <ele>937.19995117188</ele>
        <time>2022-11-01T12:30:50.000Z</time>
      </trkpt>
      <trkpt lat="48.04948" lon="6.97626">
        <ele>937.40002441406</ele>
        <time>2022-11-01T12:30:55.000Z</time>
      </trkpt>
      <trkpt lat="48.04947" lon="6.97629">
        <ele>937.59997558594</ele>
        <time>2022-11-01T12:31:00.000Z</time>
      </trkpt>
      <trkpt lat="48.04949" lon="6.9763">
        <ele>937.80004882812</ele>
        <time>2022-11-01T12:31:07.000Z</time>
      </trkpt>
      <trkpt lat="48.04946" lon="6.97631">
        <ele>937.59997558594</ele>
        <time>2022-11-01T12:31:12.000Z</time>
      </trkpt>
      <trkpt lat="48.0494" lon="6.97631">
        <ele>937.80004882812</ele>
        <time>2022-11-01T12:31:18.000Z</time>
      </trkpt>
      <trkpt lat="48.04936" lon="6.97632">
        <ele>938</ele>
        <time>2022-11-01T12:31:22.000Z</time>
      </trkpt>
      <trkpt lat="48.04934" lon="6.97632">
        <ele>938.19995117188</ele>
        <time>2022-11-01T12:31:23.000Z</time>
      </trkpt>
      <trkpt lat="48.04931" lon="6.97632">
        <ele>938.40002441406</ele>
        <time>2022-11-01T12:31:27.000Z</time>
      </trkpt>
      <trkpt lat="48.0493" lon="6.97633">
        <ele>938.59997558594</ele>
        <time>2022-11-01T12:31:30.000Z</time>
      </trkpt>
      <trkpt lat="48.04936" lon="6.97631">
        <ele>938.80004882812</ele>
        <time>2022-11-01T12:31:36.000Z</time>
      </trkpt>
      <trkpt lat="48.04935" lon="6.9763">
        <ele>938.80004882812</ele>
        <time>2022-11-01T12:31:43.000Z</time>
      </trkpt>
      <trkpt lat="48.04932" lon="6.97629">
        <ele>938.80004882812</ele>
        <time>2022-11-01T12:31:47.000Z</time>
      </trkpt>
      <trkpt lat="48.04932" lon="6.97629">
        <ele>939</ele>
        <time>2022-11-01T12:31:51.000Z</time>
      </trkpt>
      <trkpt lat="48.04925" lon="6.9763">
        <ele>939.19995117188</ele>
        <time>2022-11-01T12:31:56.000Z</time>
      </trkpt>
      <trkpt lat="48.04927" lon="6.9763">
        <ele>939.19995117188</ele>
        <time>2022-11-01T12:32:01.000Z</time>
      </trkpt>
      <trkpt lat="48.04926" lon="6.9763">
        <ele>939.40002441406</ele>
        <time>2022-11-01T12:32:06.000Z</time>
      </trkpt>
      <trkpt lat="48.04922" lon="6.9763">
        <ele>939.59997558594</ele>
        <time>2022-11-01T12:32:13.000Z</time>
      </trkpt>
      <trkpt lat="48.04921" lon="6.97629">
        <ele>939.80004882812</ele>
        <time>2022-11-01T12:32:17.000Z</time>
      </trkpt>
      <trkpt lat="48.04919" lon="6.97629">
        <ele>940.19995117188</ele>
        <time>2022-11-01T12:32:19.000Z</time>
      </trkpt>
      <trkpt lat="48.04915" lon="6.97629">
        <ele>940.40002441406</ele>
        <time>2022-11-01T12:32:21.000Z</time>
      </trkpt>
      <trkpt lat="48.04912" lon="6.97628">
        <ele>941</ele>
        <time>2022-11-01T12:32:25.000Z</time>
      </trkpt>
      <trkpt lat="48.0491" lon="6.97627">
        <ele>941</ele>
        <time>2022-11-01T12:32:26.000Z</time>
      </trkpt>
      <trkpt lat="48.04907" lon="6.97626">
        <ele>941.19995117188</ele>
        <time>2022-11-01T12:32:28.000Z</time>
      </trkpt>
      <trkpt lat="48.04903" lon="6.97625">
        <ele>941.59997558594</ele>
        <time>2022-11-01T12:32:31.000Z</time>
      </trkpt>
      <trkpt lat="48.04899" lon="6.97622">
        <ele>942.19995117188</ele>
        <time>2022-11-01T12:32:35.000Z</time>
      </trkpt>
      <trkpt lat="48.04897" lon="6.97622">
        <ele>942.40002441406</ele>
        <time>2022-11-01T12:32:36.000Z</time>
      </trkpt>
      <trkpt lat="48.04895" lon="6.97622">
        <ele>942.80004882812</ele>
        <time>2022-11-01T12:32:40.000Z</time>
      </trkpt>
      <trkpt lat="48.04895" lon="6.97624">
        <ele>943</ele>
        <time>2022-11-01T12:32:42.000Z</time>
      </trkpt>
      <trkpt lat="48.0489" lon="6.97629">
        <ele>943.19995117188</ele>
        <time>2022-11-01T12:32:49.000Z</time>
      </trkpt>
      <trkpt lat="48.04885" lon="6.97631">
        <ele>943.40002441406</ele>
        <time>2022-11-01T12:32:55.000Z</time>
      </trkpt>
      <trkpt lat="48.04885" lon="6.97631">
        <ele>943.40002441406</ele>
        <time>2022-11-01T12:32:56.000Z</time>
      </trkpt>
      <trkpt lat="48.04876" lon="6.97632">
        <ele>944.19995117188</ele>
        <time>2022-11-01T12:33:03.000Z</time>
      </trkpt>
      <trkpt lat="48.04873" lon="6.97632">
        <ele>944.40002441406</ele>
        <time>2022-11-01T12:33:04.000Z</time>
      </trkpt>
      <trkpt lat="48.04871" lon="6.97632">
        <ele>944.40002441406</ele>
        <time>2022-11-01T12:33:05.000Z</time>
      </trkpt>
      <trkpt lat="48.04868" lon="6.97634">
        <ele>944.80004882812</ele>
        <time>2022-11-01T12:33:08.000Z</time>
      </trkpt>
      <trkpt lat="48.04867" lon="6.97637">
        <ele>945</ele>
        <time>2022-11-01T12:33:13.000Z</time>
      </trkpt>
      <trkpt lat="48.04868" lon="6.97637">
        <ele>945</ele>
        <time>2022-11-01T12:33:18.000Z</time>
      </trkpt>
      <trkpt lat="48.04868" lon="6.97636">
        <ele>945.19995117188</ele>
        <time>2022-11-01T12:33:19.000Z</time>
      </trkpt>
      <trkpt lat="48.0487" lon="6.97635">
        <ele>945.19995117188</ele>
        <time>2022-11-01T12:33:21.000Z</time>
      </trkpt>
      <trkpt lat="48.0487" lon="6.97634">
        <ele>945.19995117188</ele>
        <time>2022-11-01T12:33:22.000Z</time>
      </trkpt>
      <trkpt lat="48.0487" lon="6.97632">
        <ele>945.19995117188</ele>
        <time>2022-11-01T12:33:26.000Z</time>
      </trkpt>
      <trkpt lat="48.04867" lon="6.97628">
        <ele>945.19995117188</ele>
        <time>2022-11-01T12:33:31.000Z</time>
      </trkpt>
      <trkpt lat="48.04865" lon="6.97626">
        <ele>945</ele>
        <time>2022-11-01T12:33:35.000Z</time>
      </trkpt>
      <trkpt lat="48.04864" lon="6.97625">
        <ele>945.40002441406</ele>
        <time>2022-11-01T12:33:39.000Z</time>
      </trkpt>
      <trkpt lat="48.04863" lon="6.97625">
        <ele>945.59997558594</ele>
        <time>2022-11-01T12:33:40.000Z</time>
      </trkpt>
      <trkpt lat="48.04854" lon="6.97623">
        <ele>946.19995117188</ele>
        <time>2022-11-01T12:33:46.000Z</time>
      </trkpt>
      <trkpt lat="48.04849" lon="6.97622">
        <ele>946.40002441406</ele>
        <time>2022-11-01T12:33:49.000Z</time>
      </trkpt>
      <trkpt lat="48.04846" lon="6.97622">
        <ele>946.59997558594</ele>
        <time>2022-11-01T12:33:51.000Z</time>
      </trkpt>
      <trkpt lat="48.04844" lon="6.97622">
        <ele>946.59997558594</ele>
        <time>2022-11-01T12:33:52.000Z</time>
      </trkpt>
      <trkpt lat="48.0484" lon="6.97622">
        <ele>946.59997558594</ele>
        <time>2022-11-01T12:33:53.000Z</time>
      </trkpt>
      <trkpt lat="48.04831" lon="6.97615">
        <ele>947.40002441406</ele>
        <time>2022-11-01T12:34:00.000Z</time>
      </trkpt>
      <trkpt lat="48.04829" lon="6.97614">
        <ele>947.59997558594</ele>
        <time>2022-11-01T12:34:01.000Z</time>
      </trkpt>
      <trkpt lat="48.04828" lon="6.97613">
        <ele>947.59997558594</ele>
        <time>2022-11-01T12:34:02.000Z</time>
      </trkpt>
      <trkpt lat="48.04826" lon="6.9761">
        <ele>948</ele>
        <time>2022-11-01T12:34:05.000Z</time>
      </trkpt>
      <trkpt lat="48.04824" lon="6.9761">
        <ele>948.19995117188</ele>
        <time>2022-11-01T12:34:07.000Z</time>
      </trkpt>
      <trkpt lat="48.04821" lon="6.97611">
        <ele>948.40002441406</ele>
        <time>2022-11-01T12:34:09.000Z</time>
      </trkpt>
      <trkpt lat="48.0482" lon="6.97611">
        <ele>948.80004882812</ele>
        <time>2022-11-01T12:34:10.000Z</time>
      </trkpt>
      <trkpt lat="48.04815" lon="6.97612">
        <ele>949.59997558594</ele>
        <time>2022-11-01T12:34:14.000Z</time>
      </trkpt>
      <trkpt lat="48.04814" lon="6.97611">
        <ele>949.80004882812</ele>
        <time>2022-11-01T12:34:15.000Z</time>
      </trkpt>
      <trkpt lat="48.04813" lon="6.9761">
        <ele>949.80004882812</ele>
        <time>2022-11-01T12:34:16.000Z</time>
      </trkpt>
      <trkpt lat="48.04809" lon="6.97608">
        <ele>950.59997558594</ele>
        <time>2022-11-01T12:34:20.000Z</time>
      </trkpt>
      <trkpt lat="48.04809" lon="6.97608">
        <ele>951.19995117188</ele>
        <time>2022-11-01T12:34:22.000Z</time>
      </trkpt>
      <trkpt lat="48.04809" lon="6.97608">
        <ele>951.80004882812</ele>
        <time>2022-11-01T12:34:24.000Z</time>
      </trkpt>
      <trkpt lat="48.04808" lon="6.97608">
        <ele>952</ele>
        <time>2022-11-01T12:34:25.000Z</time>
      </trkpt>
      <trkpt lat="48.04806" lon="6.9761">
        <ele>952.19995117188</ele>
        <time>2022-11-01T12:34:30.000Z</time>
      </trkpt>
      <trkpt lat="48.04805" lon="6.9761">
        <ele>952.40002441406</ele>
        <time>2022-11-01T12:34:31.000Z</time>
      </trkpt>
      <trkpt lat="48.04804" lon="6.9761">
        <ele>952.40002441406</ele>
        <time>2022-11-01T12:34:32.000Z</time>
      </trkpt>
      <trkpt lat="48.04798" lon="6.97615">
        <ele>952.59997558594</ele>
        <time>2022-11-01T12:34:35.000Z</time>
      </trkpt>
      <trkpt lat="48.04795" lon="6.97616">
        <ele>953.59997558594</ele>
        <time>2022-11-01T12:34:37.000Z</time>
      </trkpt>
      <trkpt lat="48.0479" lon="6.97614">
        <ele>954.59997558594</ele>
        <time>2022-11-01T12:34:41.000Z</time>
      </trkpt>
      <trkpt lat="48.04788" lon="6.97613">
        <ele>954.59997558594</ele>
        <time>2022-11-01T12:34:42.000Z</time>
      </trkpt>
      <trkpt lat="48.04785" lon="6.97611">
        <ele>954.80004882812</ele>
        <time>2022-11-01T12:34:44.000Z</time>
      </trkpt>
      <trkpt lat="48.04784" lon="6.97608">
        <ele>955</ele>
        <time>2022-11-01T12:34:47.000Z</time>
      </trkpt>
      <trkpt lat="48.04785" lon="6.97607">
        <ele>955</ele>
        <time>2022-11-01T12:34:49.000Z</time>
      </trkpt>
      <trkpt lat="48.04785" lon="6.97601">
        <ele>954.80004882812</ele>
        <time>2022-11-01T12:34:56.000Z</time>
      </trkpt>
      <trkpt lat="48.0478" lon="6.97599">
        <ele>954.59997558594</ele>
        <time>2022-11-01T12:35:03.000Z</time>
      </trkpt>
      <trkpt lat="48.04777" lon="6.97593">
        <ele>954.40002441406</ele>
        <time>2022-11-01T12:35:09.000Z</time>
      </trkpt>
      <trkpt lat="48.04774" lon="6.97589">
        <ele>954.59997558594</ele>
        <time>2022-11-01T12:35:12.000Z</time>
      </trkpt>
      <trkpt lat="48.04771" lon="6.97572">
        <ele>954.59997558594</ele>
        <time>2022-11-01T12:35:21.000Z</time>
      </trkpt>
      <trkpt lat="48.04771" lon="6.97567">
        <ele>954.59997558594</ele>
        <time>2022-11-01T12:35:24.000Z</time>
      </trkpt>
      <trkpt lat="48.04773" lon="6.97566">
        <ele>955</ele>
        <time>2022-11-01T12:35:27.000Z</time>
      </trkpt>
      <trkpt lat="48.04772" lon="6.97563">
        <ele>955</ele>
        <time>2022-11-01T12:35:35.000Z</time>
      </trkpt>
      <trkpt lat="48.04773" lon="6.9756">
        <ele>955.59997558594</ele>
        <time>2022-11-01T12:35:41.000Z</time>
      </trkpt>
      <trkpt lat="48.04773" lon="6.97556">
        <ele>955.19995117188</ele>
        <time>2022-11-01T12:35:52.000Z</time>
      </trkpt>
      <trkpt lat="48.04773" lon="6.97554">
        <ele>955.40002441406</ele>
        <time>2022-11-01T12:35:54.000Z</time>
      </trkpt>
      <trkpt lat="48.04773" lon="6.97552">
        <ele>955.80004882812</ele>
        <time>2022-11-01T12:35:55.000Z</time>
      </trkpt>
      <trkpt lat="48.04773" lon="6.97548">
        <ele>953.40002441406</ele>
        <time>2022-11-01T12:35:57.000Z</time>
      </trkpt>
      <trkpt lat="48.04773" lon="6.97541">
        <ele>953.40002441406</ele>
        <time>2022-11-01T12:36:00.000Z</time>
      </trkpt>
      <trkpt lat="48.04771" lon="6.97531">
        <ele>953.40002441406</ele>
        <time>2022-11-01T12:36:07.000Z</time>
      </trkpt>
      <trkpt lat="48.04772" lon="6.97521">
        <ele>953.40002441406</ele>
        <time>2022-11-01T12:36:14.000Z</time>
      </trkpt>
      <trkpt lat="48.0477" lon="6.97519">
        <ele>953.40002441406</ele>
        <time>2022-11-01T12:36:16.000Z</time>
      </trkpt>
      <trkpt lat="48.04767" lon="6.97514">
        <ele>953.40002441406</ele>
        <time>2022-11-01T12:36:19.000Z</time>
      </trkpt>
      <trkpt lat="48.04768" lon="6.97507">
        <ele>953.40002441406</ele>
        <time>2022-11-01T12:36:24.000Z</time>
      </trkpt>
      <trkpt lat="48.04768" lon="6.97502">
        <ele>953.40002441406</ele>
        <time>2022-11-01T12:36:27.000Z</time>
      </trkpt>
      <trkpt lat="48.04768" lon="6.975">
        <ele>953.40002441406</ele>
        <time>2022-11-01T12:36:30.000Z</time>
      </trkpt>
      <trkpt lat="48.04763" lon="6.97503">
        <ele>953.40002441406</ele>
        <time>2022-11-01T12:36:45.000Z</time>
      </trkpt>
      <trkpt lat="48.04765" lon="6.97498">
        <ele>953.40002441406</ele>
        <time>2022-11-01T12:36:49.000Z</time>
      </trkpt>
      <trkpt lat="48.04766" lon="6.97491">
        <ele>953.40002441406</ele>
        <time>2022-11-01T12:36:53.000Z</time>
      </trkpt>
      <trkpt lat="48.0477" lon="6.97484">
        <ele>958.40002441406</ele>
        <time>2022-11-01T12:36:58.000Z</time>
      </trkpt>
      <trkpt lat="48.04771" lon="6.97484">
        <ele>958.40002441406</ele>
        <time>2022-11-01T12:37:00.000Z</time>
      </trkpt>
      <trkpt lat="48.04772" lon="6.97483">
        <ele>958.40002441406</ele>
        <time>2022-11-01T12:37:01.000Z</time>
      </trkpt>
      <trkpt lat="48.04773" lon="6.97475">
        <ele>958.80004882812</ele>
        <time>2022-11-01T12:37:06.000Z</time>
      </trkpt>
      <trkpt lat="48.04775" lon="6.97465">
        <ele>959</ele>
        <time>2022-11-01T12:37:11.000Z</time>
      </trkpt>
      <trkpt lat="48.04776" lon="6.97462">
        <ele>959.40002441406</ele>
        <time>2022-11-01T12:37:13.000Z</time>
      </trkpt>
      <trkpt lat="48.04777" lon="6.97459">
        <ele>959.59997558594</ele>
        <time>2022-11-01T12:37:15.000Z</time>
      </trkpt>
      <trkpt lat="48.04777" lon="6.97457">
        <ele>959.59997558594</ele>
        <time>2022-11-01T12:37:16.000Z</time>
      </trkpt>
      <trkpt lat="48.04778" lon="6.97454">
        <ele>959.59997558594</ele>
        <time>2022-11-01T12:37:18.000Z</time>
      </trkpt>
      <trkpt lat="48.04779" lon="6.9745">
        <ele>959.80004882812</ele>
        <time>2022-11-01T12:37:21.000Z</time>
      </trkpt>
      <trkpt lat="48.04781" lon="6.97447">
        <ele>960.40002441406</ele>
        <time>2022-11-01T12:37:26.000Z</time>
      </trkpt>
      <trkpt lat="48.04782" lon="6.97446">
        <ele>960.59997558594</ele>
        <time>2022-11-01T12:37:27.000Z</time>
      </trkpt>
      <trkpt lat="48.04786" lon="6.9743">
        <ele>961.40002441406</ele>
        <time>2022-11-01T12:37:37.000Z</time>
      </trkpt>
      <trkpt lat="48.04786" lon="6.97429">
        <ele>961.40002441406</ele>
        <time>2022-11-01T12:37:38.000Z</time>
      </trkpt>
      <trkpt lat="48.04786" lon="6.97417">
        <ele>961.40002441406</ele>
        <time>2022-11-01T12:37:46.000Z</time>
      </trkpt>
      <trkpt lat="48.04786" lon="6.97409">
        <ele>961.40002441406</ele>
        <time>2022-11-01T12:37:51.000Z</time>
      </trkpt>
      <trkpt lat="48.04785" lon="6.97406">
        <ele>961.40002441406</ele>
        <time>2022-11-01T12:37:54.000Z</time>
      </trkpt>
      <trkpt lat="48.04784" lon="6.97399">
        <ele>962</ele>
        <time>2022-11-01T12:37:58.000Z</time>
      </trkpt>
      <trkpt lat="48.04784" lon="6.97395">
        <ele>962.59997558594</ele>
        <time>2022-11-01T12:38:00.000Z</time>
      </trkpt>
      <trkpt lat="48.04785" lon="6.97393">
        <ele>962.80004882812</ele>
        <time>2022-11-01T12:38:01.000Z</time>
      </trkpt>
      <trkpt lat="48.04785" lon="6.97386">
        <ele>963.19995117188</ele>
        <time>2022-11-01T12:38:05.000Z</time>
      </trkpt>
      <trkpt lat="48.04784" lon="6.97386">
        <ele>963.19995117188</ele>
        <time>2022-11-01T12:38:06.000Z</time>
      </trkpt>
      <trkpt lat="48.04783" lon="6.97386">
        <ele>963.40002441406</ele>
        <time>2022-11-01T12:38:08.000Z</time>
      </trkpt>
      <trkpt lat="48.04783" lon="6.97387">
        <ele>963.59997558594</ele>
        <time>2022-11-01T12:38:18.000Z</time>
      </trkpt>
      <trkpt lat="48.04783" lon="6.97377">
        <ele>963.80004882812</ele>
        <time>2022-11-01T12:38:25.000Z</time>
      </trkpt>
      <trkpt lat="48.04776" lon="6.97359">
        <ele>964.59997558594</ele>
        <time>2022-11-01T12:38:35.000Z</time>
      </trkpt>
      <trkpt lat="48.04771" lon="6.97353">
        <ele>965.19995117188</ele>
        <time>2022-11-01T12:38:41.000Z</time>
      </trkpt>
      <trkpt lat="48.04768" lon="6.97348">
        <ele>965.59997558594</ele>
        <time>2022-11-01T12:38:45.000Z</time>
      </trkpt>
      <trkpt lat="48.04768" lon="6.97347">
        <ele>965.80004882812</ele>
        <time>2022-11-01T12:38:46.000Z</time>
      </trkpt>
      <trkpt lat="48.04765" lon="6.97343">
        <ele>966</ele>
        <time>2022-11-01T12:38:49.000Z</time>
      </trkpt>
      <trkpt lat="48.04762" lon="6.97341">
        <ele>966</ele>
        <time>2022-11-01T12:38:52.000Z</time>
      </trkpt>
      <trkpt lat="48.0476" lon="6.97339">
        <ele>966.40002441406</ele>
        <time>2022-11-01T12:38:54.000Z</time>
      </trkpt>
      <trkpt lat="48.04759" lon="6.97339">
        <ele>966.40002441406</ele>
        <time>2022-11-01T12:38:55.000Z</time>
      </trkpt>
      <trkpt lat="48.04753" lon="6.97336">
        <ele>966.80004882812</ele>
        <time>2022-11-01T12:38:59.000Z</time>
      </trkpt>
      <trkpt lat="48.04746" lon="6.97327">
        <ele>967.80004882812</ele>
        <time>2022-11-01T12:39:07.000Z</time>
      </trkpt>
      <trkpt lat="48.04745" lon="6.97326">
        <ele>968</ele>
        <time>2022-11-01T12:39:08.000Z</time>
      </trkpt>
      <trkpt lat="48.04738" lon="6.97312">
        <ele>968.40002441406</ele>
        <time>2022-11-01T12:39:17.000Z</time>
      </trkpt>
      <trkpt lat="48.0474" lon="6.97302">
        <ele>968.59997558594</ele>
        <time>2022-11-01T12:39:25.000Z</time>
      </trkpt>
      <trkpt lat="48.04739" lon="6.973">
        <ele>968.59997558594</ele>
        <time>2022-11-01T12:39:27.000Z</time>
      </trkpt>
      <trkpt lat="48.04738" lon="6.97294">
        <ele>969</ele>
        <time>2022-11-01T12:39:31.000Z</time>
      </trkpt>
      <trkpt lat="48.04736" lon="6.97282">
        <ele>970</ele>
        <time>2022-11-01T12:39:39.000Z</time>
      </trkpt>
      <trkpt lat="48.04736" lon="6.97278">
        <ele>970.19995117188</ele>
        <time>2022-11-01T12:39:41.000Z</time>
      </trkpt>
      <trkpt lat="48.04733" lon="6.97268">
        <ele>970.80004882812</ele>
        <time>2022-11-01T12:39:47.000Z</time>
      </trkpt>
      <trkpt lat="48.04732" lon="6.97258">
        <ele>971.19995117188</ele>
        <time>2022-11-01T12:39:53.000Z</time>
      </trkpt>
      <trkpt lat="48.04732" lon="6.97257">
        <ele>971.40002441406</ele>
        <time>2022-11-01T12:39:54.000Z</time>
      </trkpt>
      <trkpt lat="48.04731" lon="6.9725">
        <ele>971.80004882812</ele>
        <time>2022-11-01T12:39:58.000Z</time>
      </trkpt>
      <trkpt lat="48.0473" lon="6.97246">
        <ele>972</ele>
        <time>2022-11-01T12:40:00.000Z</time>
      </trkpt>
      <trkpt lat="48.04728" lon="6.97242">
        <ele>972.19995117188</ele>
        <time>2022-11-01T12:40:03.000Z</time>
      </trkpt>
      <trkpt lat="48.04726" lon="6.97236">
        <ele>972.40002441406</ele>
        <time>2022-11-01T12:40:06.000Z</time>
      </trkpt>
      <trkpt lat="48.04727" lon="6.97234">
        <ele>972.59997558594</ele>
        <time>2022-11-01T12:40:07.000Z</time>
      </trkpt>
      <trkpt lat="48.04726" lon="6.97233">
        <ele>972.59997558594</ele>
        <time>2022-11-01T12:40:08.000Z</time>
      </trkpt>
      <trkpt lat="48.04723" lon="6.97228">
        <ele>973</ele>
        <time>2022-11-01T12:40:13.000Z</time>
      </trkpt>
      <trkpt lat="48.04723" lon="6.97219">
        <ele>973.40002441406</ele>
        <time>2022-11-01T12:40:20.000Z</time>
      </trkpt>
      <trkpt lat="48.04723" lon="6.97218">
        <ele>973.40002441406</ele>
        <time>2022-11-01T12:40:21.000Z</time>
      </trkpt>
      <trkpt lat="48.04722" lon="6.97207">
        <ele>974</ele>
        <time>2022-11-01T12:40:28.000Z</time>
      </trkpt>
      <trkpt lat="48.04721" lon="6.97201">
        <ele>974.40002441406</ele>
        <time>2022-11-01T12:40:31.000Z</time>
      </trkpt>
      <trkpt lat="48.0472" lon="6.97199">
        <ele>974.40002441406</ele>
        <time>2022-11-01T12:40:32.000Z</time>
      </trkpt>
      <trkpt lat="48.04718" lon="6.97186">
        <ele>975.19995117188</ele>
        <time>2022-11-01T12:40:39.000Z</time>
      </trkpt>
      <trkpt lat="48.04718" lon="6.9718">
        <ele>975.59997558594</ele>
        <time>2022-11-01T12:40:43.000Z</time>
      </trkpt>
      <trkpt lat="48.04719" lon="6.97177">
        <ele>975.80004882812</ele>
        <time>2022-11-01T12:40:45.000Z</time>
      </trkpt>
      <trkpt lat="48.04719" lon="6.97174">
        <ele>976</ele>
        <time>2022-11-01T12:40:47.000Z</time>
      </trkpt>
      <trkpt lat="48.04723" lon="6.97166">
        <ele>976.59997558594</ele>
        <time>2022-11-01T12:40:53.000Z</time>
      </trkpt>
      <trkpt lat="48.0473" lon="6.97163">
        <ele>976.80004882812</ele>
        <time>2022-11-01T12:41:00.000Z</time>
      </trkpt>
      <trkpt lat="48.04735" lon="6.97161">
        <ele>976.80004882812</ele>
        <time>2022-11-01T12:41:08.000Z</time>
      </trkpt>
      <trkpt lat="48.04734" lon="6.97151">
        <ele>977</ele>
        <time>2022-11-01T12:41:14.000Z</time>
      </trkpt>
      <trkpt lat="48.04735" lon="6.97149">
        <ele>977.19995117188</ele>
        <time>2022-11-01T12:41:16.000Z</time>
      </trkpt>
      <trkpt lat="48.04735" lon="6.97141">
        <ele>977.40002441406</ele>
        <time>2022-11-01T12:41:20.000Z</time>
      </trkpt>
      <trkpt lat="48.04735" lon="6.9714">
        <ele>977.59997558594</ele>
        <time>2022-11-01T12:41:21.000Z</time>
      </trkpt>
      <trkpt lat="48.04738" lon="6.97135">
        <ele>978.19995117188</ele>
        <time>2022-11-01T12:41:28.000Z</time>
      </trkpt>
      <trkpt lat="48.04737" lon="6.97132">
        <ele>978.19995117188</ele>
        <time>2022-11-01T12:41:30.000Z</time>
      </trkpt>
      <trkpt lat="48.04738" lon="6.97126">
        <ele>978.59997558594</ele>
        <time>2022-11-01T12:41:34.000Z</time>
      </trkpt>
      <trkpt lat="48.04738" lon="6.97124">
        <ele>978.80004882812</ele>
        <time>2022-11-01T12:41:35.000Z</time>
      </trkpt>
      <trkpt lat="48.04738" lon="6.97115">
        <ele>979.19995117188</ele>
        <time>2022-11-01T12:41:42.000Z</time>
      </trkpt>
      <trkpt lat="48.04736" lon="6.97107">
        <ele>979.80004882812</ele>
        <time>2022-11-01T12:41:47.000Z</time>
      </trkpt>
      <trkpt lat="48.04737" lon="6.97106">
        <ele>980</ele>
        <time>2022-11-01T12:41:49.000Z</time>
      </trkpt>
      <trkpt lat="48.04733" lon="6.97102">
        <ele>980.40002441406</ele>
        <time>2022-11-01T12:41:54.000Z</time>
      </trkpt>
      <trkpt lat="48.04732" lon="6.97098">
        <ele>980.80004882812</ele>
        <time>2022-11-01T12:41:57.000Z</time>
      </trkpt>
      <trkpt lat="48.04729" lon="6.97094">
        <ele>981</ele>
        <time>2022-11-01T12:42:01.000Z</time>
      </trkpt>
      <trkpt lat="48.04732" lon="6.97092">
        <ele>981.19995117188</ele>
        <time>2022-11-01T12:42:05.000Z</time>
      </trkpt>
      <trkpt lat="48.04733" lon="6.97093">
        <ele>981.40002441406</ele>
        <time>2022-11-01T12:42:11.000Z</time>
      </trkpt>
      <trkpt lat="48.04735" lon="6.97093">
        <ele>981.40002441406</ele>
        <time>2022-11-01T12:42:15.000Z</time>
      </trkpt>
      <trkpt lat="48.04735" lon="6.97091">
        <ele>981.40002441406</ele>
        <time>2022-11-01T12:42:18.000Z</time>
      </trkpt>
      <trkpt lat="48.04733" lon="6.97082">
        <ele>981.80004882812</ele>
        <time>2022-11-01T12:42:23.000Z</time>
      </trkpt>
      <trkpt lat="48.04732" lon="6.97081">
        <ele>981.80004882812</ele>
        <time>2022-11-01T12:42:24.000Z</time>
      </trkpt>
      <trkpt lat="48.0473" lon="6.97066">
        <ele>982.19995117188</ele>
        <time>2022-11-01T12:42:31.000Z</time>
      </trkpt>
      <trkpt lat="48.0473" lon="6.97065">
        <ele>982.19995117188</ele>
        <time>2022-11-01T12:42:32.000Z</time>
      </trkpt>
      <trkpt lat="48.04728" lon="6.97052">
        <ele>982.80004882812</ele>
        <time>2022-11-01T12:42:40.000Z</time>
      </trkpt>
      <trkpt lat="48.04729" lon="6.97049">
        <ele>982.80004882812</ele>
        <time>2022-11-01T12:42:42.000Z</time>
      </trkpt>
      <trkpt lat="48.04728" lon="6.97034">
        <ele>983.19995117188</ele>
        <time>2022-11-01T12:42:51.000Z</time>
      </trkpt>
      <trkpt lat="48.04725" lon="6.97028">
        <ele>983.59997558594</ele>
        <time>2022-11-01T12:42:57.000Z</time>
      </trkpt>
      <trkpt lat="48.04725" lon="6.97027">
        <ele>983.59997558594</ele>
        <time>2022-11-01T12:42:58.000Z</time>
      </trkpt>
      <trkpt lat="48.04722" lon="6.97023">
        <ele>984</ele>
        <time>2022-11-01T12:43:01.000Z</time>
      </trkpt>
      <trkpt lat="48.0472" lon="6.97017">
        <ele>984.19995117188</ele>
        <time>2022-11-01T12:43:05.000Z</time>
      </trkpt>
      <trkpt lat="48.0472" lon="6.97015">
        <ele>984.19995117188</ele>
        <time>2022-11-01T12:43:06.000Z</time>
      </trkpt>
      <trkpt lat="48.04722" lon="6.97009">
        <ele>984.40002441406</ele>
        <time>2022-11-01T12:43:09.000Z</time>
      </trkpt>
      <trkpt lat="48.04722" lon="6.97006">
        <ele>984.40002441406</ele>
        <time>2022-11-01T12:43:11.000Z</time>
      </trkpt>
      <trkpt lat="48.0472" lon="6.96994">
        <ele>985</ele>
        <time>2022-11-01T12:43:18.000Z</time>
      </trkpt>
      <trkpt lat="48.0472" lon="6.96991">
        <ele>985</ele>
        <time>2022-11-01T12:43:19.000Z</time>
      </trkpt>
      <trkpt lat="48.04717" lon="6.96983">
        <ele>985.40002441406</ele>
        <time>2022-11-01T12:43:23.000Z</time>
      </trkpt>
      <trkpt lat="48.04715" lon="6.96981">
        <ele>985.40002441406</ele>
        <time>2022-11-01T12:43:24.000Z</time>
      </trkpt>
      <trkpt lat="48.04713" lon="6.96978">
        <ele>985.59997558594</ele>
        <time>2022-11-01T12:43:27.000Z</time>
      </trkpt>
      <trkpt lat="48.04711" lon="6.96973">
        <ele>986</ele>
        <time>2022-11-01T12:43:31.000Z</time>
      </trkpt>
      <trkpt lat="48.0471" lon="6.96972">
        <ele>986</ele>
        <time>2022-11-01T12:43:32.000Z</time>
      </trkpt>
      <trkpt lat="48.0471" lon="6.96963">
        <ele>986.80004882812</ele>
        <time>2022-11-01T12:43:38.000Z</time>
      </trkpt>
      <trkpt lat="48.04709" lon="6.96961">
        <ele>986.80004882812</ele>
        <time>2022-11-01T12:43:39.000Z</time>
      </trkpt>
      <trkpt lat="48.04708" lon="6.96956">
        <ele>987.19995117188</ele>
        <time>2022-11-01T12:43:42.000Z</time>
      </trkpt>
      <trkpt lat="48.0471" lon="6.96953">
        <ele>987.19995117188</ele>
        <time>2022-11-01T12:43:46.000Z</time>
      </trkpt>
      <trkpt lat="48.04713" lon="6.96952">
        <ele>987.59997558594</ele>
        <time>2022-11-01T12:43:52.000Z</time>
      </trkpt>
      <trkpt lat="48.04713" lon="6.96951">
        <ele>987.59997558594</ele>
        <time>2022-11-01T12:43:54.000Z</time>
      </trkpt>
      <trkpt lat="48.04713" lon="6.96949">
        <ele>987.59997558594</ele>
        <time>2022-11-01T12:43:59.000Z</time>
      </trkpt>
      <trkpt lat="48.04713" lon="6.96949">
        <ele>987.80004882812</ele>
        <time>2022-11-01T12:44:08.000Z</time>
      </trkpt>
      <trkpt lat="48.04713" lon="6.96949">
        <ele>988</ele>
        <time>2022-11-01T12:44:11.000Z</time>
      </trkpt>
      <trkpt lat="48.04712" lon="6.96945">
        <ele>988</ele>
        <time>2022-11-01T12:44:13.000Z</time>
      </trkpt>
      <trkpt lat="48.04708" lon="6.96933">
        <ele>988.19995117188</ele>
        <time>2022-11-01T12:44:18.000Z</time>
      </trkpt>
      <trkpt lat="48.04707" lon="6.96923">
        <ele>988.40002441406</ele>
        <time>2022-11-01T12:44:21.000Z</time>
      </trkpt>
      <trkpt lat="48.04705" lon="6.96912">
        <ele>988.80004882812</ele>
        <time>2022-11-01T12:44:28.000Z</time>
      </trkpt>
      <trkpt lat="48.04704" lon="6.96903">
        <ele>989.19995117188</ele>
        <time>2022-11-01T12:44:34.000Z</time>
      </trkpt>
      <trkpt lat="48.04705" lon="6.96899">
        <ele>989.19995117188</ele>
        <time>2022-11-01T12:44:36.000Z</time>
      </trkpt>
      <trkpt lat="48.04702" lon="6.96886">
        <ele>989.80004882812</ele>
        <time>2022-11-01T12:44:42.000Z</time>
      </trkpt>
      <trkpt lat="48.04703" lon="6.96882">
        <ele>989.80004882812</ele>
        <time>2022-11-01T12:44:44.000Z</time>
      </trkpt>
      <trkpt lat="48.04704" lon="6.96879">
        <ele>990</ele>
        <time>2022-11-01T12:44:46.000Z</time>
      </trkpt>
      <trkpt lat="48.04706" lon="6.96873">
        <ele>990.19995117188</ele>
        <time>2022-11-01T12:44:50.000Z</time>
      </trkpt>
      <trkpt lat="48.04706" lon="6.96872">
        <ele>990.19995117188</ele>
        <time>2022-11-01T12:44:51.000Z</time>
      </trkpt>
      <trkpt lat="48.04711" lon="6.96864">
        <ele>990.80004882812</ele>
        <time>2022-11-01T12:44:57.000Z</time>
      </trkpt>
      <trkpt lat="48.04712" lon="6.96862">
        <ele>990.80004882812</ele>
        <time>2022-11-01T12:44:58.000Z</time>
      </trkpt>
      <trkpt lat="48.04714" lon="6.96851">
        <ele>991</ele>
        <time>2022-11-01T12:45:02.000Z</time>
      </trkpt>
      <trkpt lat="48.04716" lon="6.96845">
        <ele>991.19995117188</ele>
        <time>2022-11-01T12:45:05.000Z</time>
      </trkpt>
      <trkpt lat="48.04719" lon="6.96837">
        <ele>991.59997558594</ele>
        <time>2022-11-01T12:45:10.000Z</time>
      </trkpt>
      <trkpt lat="48.0472" lon="6.96833">
        <ele>991.80004882812</ele>
        <time>2022-11-01T12:45:13.000Z</time>
      </trkpt>
      <trkpt lat="48.04721" lon="6.9683">
        <ele>991.80004882812</ele>
        <time>2022-11-01T12:45:17.000Z</time>
      </trkpt>
      <trkpt lat="48.04721" lon="6.96831">
        <ele>991.80004882812</ele>
        <time>2022-11-01T12:45:18.000Z</time>
      </trkpt>
      <trkpt lat="48.04722" lon="6.96829">
        <ele>992</ele>
        <time>2022-11-01T12:45:21.000Z</time>
      </trkpt>
      <trkpt lat="48.04723" lon="6.96826">
        <ele>992</ele>
        <time>2022-11-01T12:45:23.000Z</time>
      </trkpt>
      <trkpt lat="48.04723" lon="6.96824">
        <ele>992</ele>
        <time>2022-11-01T12:45:24.000Z</time>
      </trkpt>
      <trkpt lat="48.04727" lon="6.96818">
        <ele>992.19995117188</ele>
        <time>2022-11-01T12:45:28.000Z</time>
      </trkpt>
      <trkpt lat="48.0473" lon="6.96815">
        <ele>992.40002441406</ele>
        <time>2022-11-01T12:45:32.000Z</time>
      </trkpt>
      <trkpt lat="48.04731" lon="6.96816">
        <ele>992.40002441406</ele>
        <time>2022-11-01T12:45:33.000Z</time>
      </trkpt>
      <trkpt lat="48.04731" lon="6.96818">
        <ele>992.40002441406</ele>
        <time>2022-11-01T12:45:39.000Z</time>
      </trkpt>
      <trkpt lat="48.04733" lon="6.96822">
        <ele>992.59997558594</ele>
        <time>2022-11-01T12:45:46.000Z</time>
      </trkpt>
      <trkpt lat="48.04731" lon="6.96836">
        <ele>993</ele>
        <time>2022-11-01T12:45:54.000Z</time>
      </trkpt>
      <trkpt lat="48.04731" lon="6.96841">
        <ele>993.40002441406</ele>
        <time>2022-11-01T12:45:57.000Z</time>
      </trkpt>
      <trkpt lat="48.04731" lon="6.96846">
        <ele>993.80004882812</ele>
        <time>2022-11-01T12:46:01.000Z</time>
      </trkpt>
      <trkpt lat="48.04731" lon="6.9685">
        <ele>994.19995117188</ele>
        <time>2022-11-01T12:46:06.000Z</time>
      </trkpt>
      <trkpt lat="48.04729" lon="6.96849">
        <ele>994.19995117188</ele>
        <time>2022-11-01T12:46:08.000Z</time>
      </trkpt>
      <trkpt lat="48.04728" lon="6.96848">
        <ele>994.40002441406</ele>
        <time>2022-11-01T12:46:11.000Z</time>
      </trkpt>
      <trkpt lat="48.0473" lon="6.96848">
        <ele>994.40002441406</ele>
        <time>2022-11-01T12:46:13.000Z</time>
      </trkpt>
      <trkpt lat="48.04731" lon="6.96848">
        <ele>994.40002441406</ele>
        <time>2022-11-01T12:46:17.000Z</time>
      </trkpt>
      <trkpt lat="48.0473" lon="6.96847">
        <ele>994.59997558594</ele>
        <time>2022-11-01T12:46:40.000Z</time>
      </trkpt>
      <trkpt lat="48.0473" lon="6.96845">
        <ele>995</ele>
        <time>2022-11-01T12:46:48.000Z</time>
      </trkpt>
      <trkpt lat="48.04733" lon="6.96845">
        <ele>995.59997558594</ele>
        <time>2022-11-01T12:47:06.000Z</time>
      </trkpt>
      <trkpt lat="48.04733" lon="6.96846">
        <ele>996.59997558594</ele>
        <time>2022-11-01T12:47:11.000Z</time>
      </trkpt>
      <trkpt lat="48.04734" lon="6.96846">
        <ele>996.80004882812</ele>
        <time>2022-11-01T12:47:13.000Z</time>
      </trkpt>
      <trkpt lat="48.04734" lon="6.96846">
        <ele>997.59997558594</ele>
        <time>2022-11-01T12:47:16.000Z</time>
      </trkpt>
      <trkpt lat="48.04736" lon="6.96847">
        <ele>998.59997558594</ele>
        <time>2022-11-01T12:47:22.000Z</time>
      </trkpt>
      <trkpt lat="48.04737" lon="6.96847">
        <ele>999</ele>
        <time>2022-11-01T12:47:24.000Z</time>
      </trkpt>
      <trkpt lat="48.04745" lon="6.9685">
        <ele>999.80004882812</ele>
        <time>2022-11-01T12:47:28.000Z</time>
      </trkpt>
      <trkpt lat="48.04747" lon="6.96851">
        <ele>1000</ele>
        <time>2022-11-01T12:47:29.000Z</time>
      </trkpt>
      <trkpt lat="48.04749" lon="6.96853">
        <ele>1000.1999511719</ele>
        <time>2022-11-01T12:47:30.000Z</time>
      </trkpt>
      <trkpt lat="48.04754" lon="6.96853">
        <ele>1000.8000488281</ele>
        <time>2022-11-01T12:47:34.000Z</time>
      </trkpt>
      <trkpt lat="48.04755" lon="6.96853">
        <ele>1001</ele>
        <time>2022-11-01T12:47:35.000Z</time>
      </trkpt>
      <trkpt lat="48.04759" lon="6.96855">
        <ele>1001.5999755859</ele>
        <time>2022-11-01T12:47:40.000Z</time>
      </trkpt>
      <trkpt lat="48.04763" lon="6.96858">
        <ele>1002</ele>
        <time>2022-11-01T12:47:44.000Z</time>
      </trkpt>
      <trkpt lat="48.04764" lon="6.96861">
        <ele>1002</ele>
        <time>2022-11-01T12:47:46.000Z</time>
      </trkpt>
      <trkpt lat="48.04768" lon="6.9686">
        <ele>1002.1999511719</ele>
        <time>2022-11-01T12:47:52.000Z</time>
      </trkpt>
      <trkpt lat="48.04767" lon="6.96861">
        <ele>1002.1999511719</ele>
        <time>2022-11-01T12:47:56.000Z</time>
      </trkpt>
      <trkpt lat="48.04768" lon="6.96863">
        <ele>1002</ele>
        <time>2022-11-01T12:48:03.000Z</time>
      </trkpt>
      <trkpt lat="48.04769" lon="6.96862">
        <ele>1002.1999511719</ele>
        <time>2022-11-01T12:48:05.000Z</time>
      </trkpt>
      <trkpt lat="48.04772" lon="6.96862">
        <ele>1002.5999755859</ele>
        <time>2022-11-01T12:48:11.000Z</time>
      </trkpt>
      <trkpt lat="48.04776" lon="6.9686">
        <ele>1003</ele>
        <time>2022-11-01T12:48:14.000Z</time>
      </trkpt>
      <trkpt lat="48.04778" lon="6.96859">
        <ele>1003.1999511719</ele>
        <time>2022-11-01T12:48:15.000Z</time>
      </trkpt>
      <trkpt lat="48.0478" lon="6.96859">
        <ele>1004</ele>
        <time>2022-11-01T12:48:20.000Z</time>
      </trkpt>
      <trkpt lat="48.0478" lon="6.9686">
        <ele>1004</ele>
        <time>2022-11-01T12:48:21.000Z</time>
      </trkpt>
      <trkpt lat="48.04781" lon="6.96858">
        <ele>1005</ele>
        <time>2022-11-01T12:48:25.000Z</time>
      </trkpt>
      <trkpt lat="48.04782" lon="6.96857">
        <ele>1005</ele>
        <time>2022-11-01T12:48:26.000Z</time>
      </trkpt>
      <trkpt lat="48.04783" lon="6.96857">
        <ele>1005.4000244141</ele>
        <time>2022-11-01T12:48:27.000Z</time>
      </trkpt>
      <trkpt lat="48.04787" lon="6.96857">
        <ele>1006</ele>
        <time>2022-11-01T12:48:32.000Z</time>
      </trkpt>
      <trkpt lat="48.04788" lon="6.96858">
        <ele>1006.4000244141</ele>
        <time>2022-11-01T12:48:35.000Z</time>
      </trkpt>
      <trkpt lat="48.0479" lon="6.96857">
        <ele>1006.5999755859</ele>
        <time>2022-11-01T12:48:37.000Z</time>
      </trkpt>
      <trkpt lat="48.04793" lon="6.96856">
        <ele>1007.1999511719</ele>
        <time>2022-11-01T12:48:43.000Z</time>
      </trkpt>
      <trkpt lat="48.04793" lon="6.96855">
        <ele>1007.4000244141</ele>
        <time>2022-11-01T12:48:44.000Z</time>
      </trkpt>
      <trkpt lat="48.04794" lon="6.96855">
        <ele>1007.5999755859</ele>
        <time>2022-11-01T12:48:45.000Z</time>
      </trkpt>
      <trkpt lat="48.04797" lon="6.96857">
        <ele>1008</ele>
        <time>2022-11-01T12:48:48.000Z</time>
      </trkpt>
      <trkpt lat="48.048" lon="6.96855">
        <ele>1008.5999755859</ele>
        <time>2022-11-01T12:48:51.000Z</time>
      </trkpt>
      <trkpt lat="48.04802" lon="6.96855">
        <ele>1008.8000488281</ele>
        <time>2022-11-01T12:48:53.000Z</time>
      </trkpt>
      <trkpt lat="48.04803" lon="6.96855">
        <ele>1009</ele>
        <time>2022-11-01T12:48:54.000Z</time>
      </trkpt>
      <trkpt lat="48.04805" lon="6.96854">
        <ele>1009.1999511719</ele>
        <time>2022-11-01T12:48:56.000Z</time>
      </trkpt>
      <trkpt lat="48.04812" lon="6.96851">
        <ele>1009.5999755859</ele>
        <time>2022-11-01T12:49:01.000Z</time>
      </trkpt>
      <trkpt lat="48.04814" lon="6.96851">
        <ele>1010</ele>
        <time>2022-11-01T12:49:03.000Z</time>
      </trkpt>
      <trkpt lat="48.04815" lon="6.96849">
        <ele>1010.4000244141</ele>
        <time>2022-11-01T12:49:06.000Z</time>
      </trkpt>
      <trkpt lat="48.04815" lon="6.9685">
        <ele>1010.4000244141</ele>
        <time>2022-11-01T12:49:07.000Z</time>
      </trkpt>
      <trkpt lat="48.04814" lon="6.96851">
        <ele>1010.5999755859</ele>
        <time>2022-11-01T12:49:08.000Z</time>
      </trkpt>
      <trkpt lat="48.04813" lon="6.9685">
        <ele>1010.5999755859</ele>
        <time>2022-11-01T12:49:11.000Z</time>
      </trkpt>
      <trkpt lat="48.04814" lon="6.9685">
        <ele>1010.5999755859</ele>
        <time>2022-11-01T12:49:12.000Z</time>
      </trkpt>
      <trkpt lat="48.04814" lon="6.96849">
        <ele>1010.5999755859</ele>
        <time>2022-11-01T12:49:15.000Z</time>
      </trkpt>
      <trkpt lat="48.04817" lon="6.96846">
        <ele>1010.5999755859</ele>
        <time>2022-11-01T12:49:23.000Z</time>
      </trkpt>
      <trkpt lat="48.04817" lon="6.96845">
        <ele>1010.5999755859</ele>
        <time>2022-11-01T12:49:24.000Z</time>
      </trkpt>
      <trkpt lat="48.04821" lon="6.96838">
        <ele>1010.4000244141</ele>
        <time>2022-11-01T12:49:29.000Z</time>
      </trkpt>
      <trkpt lat="48.04825" lon="6.96835">
        <ele>1010.4000244141</ele>
        <time>2022-11-01T12:49:33.000Z</time>
      </trkpt>
      <trkpt lat="48.04827" lon="6.96833">
        <ele>1010.4000244141</ele>
        <time>2022-11-01T12:49:35.000Z</time>
      </trkpt>
      <trkpt lat="48.04829" lon="6.9683">
        <ele>1010.5999755859</ele>
        <time>2022-11-01T12:49:40.000Z</time>
      </trkpt>
      <trkpt lat="48.04831" lon="6.96826">
        <ele>1010.8000488281</ele>
        <time>2022-11-01T12:49:43.000Z</time>
      </trkpt>
      <trkpt lat="48.04833" lon="6.96823">
        <ele>1010.5999755859</ele>
        <time>2022-11-01T12:49:45.000Z</time>
      </trkpt>
      <trkpt lat="48.04833" lon="6.96822">
        <ele>1010.8000488281</ele>
        <time>2022-11-01T12:49:46.000Z</time>
      </trkpt>
      <trkpt lat="48.04834" lon="6.96813">
        <ele>1011</ele>
        <time>2022-11-01T12:49:52.000Z</time>
      </trkpt>
      <trkpt lat="48.04834" lon="6.96811">
        <ele>1011</ele>
        <time>2022-11-01T12:49:53.000Z</time>
      </trkpt>
      <trkpt lat="48.04835" lon="6.96805">
        <ele>1011.1999511719</ele>
        <time>2022-11-01T12:49:59.000Z</time>
      </trkpt>
      <trkpt lat="48.04838" lon="6.96799">
        <ele>1011.5999755859</ele>
        <time>2022-11-01T12:50:04.000Z</time>
      </trkpt>
      <trkpt lat="48.04838" lon="6.96798">
        <ele>1011.8000488281</ele>
        <time>2022-11-01T12:50:05.000Z</time>
      </trkpt>
      <trkpt lat="48.04842" lon="6.96792">
        <ele>1012</ele>
        <time>2022-11-01T12:50:11.000Z</time>
      </trkpt>
      <trkpt lat="48.04847" lon="6.96785">
        <ele>1012.5999755859</ele>
        <time>2022-11-01T12:50:18.000Z</time>
      </trkpt>
      <trkpt lat="48.04847" lon="6.96783">
        <ele>1012.5999755859</ele>
        <time>2022-11-01T12:50:19.000Z</time>
      </trkpt>
      <trkpt lat="48.04848" lon="6.9678">
        <ele>1012.5999755859</ele>
        <time>2022-11-01T12:50:21.000Z</time>
      </trkpt>
      <trkpt lat="48.04852" lon="6.96772">
        <ele>1012.8000488281</ele>
        <time>2022-11-01T12:50:26.000Z</time>
      </trkpt>
      <trkpt lat="48.04854" lon="6.96758">
        <ele>1013</ele>
        <time>2022-11-01T12:50:32.000Z</time>
      </trkpt>
      <trkpt lat="48.04855" lon="6.96756">
        <ele>1013</ele>
        <time>2022-11-01T12:50:35.000Z</time>
      </trkpt>
      <trkpt lat="48.04856" lon="6.96752">
        <ele>1013</ele>
        <time>2022-11-01T12:50:38.000Z</time>
      </trkpt>
      <trkpt lat="48.04855" lon="6.96745">
        <ele>1013.1999511719</ele>
        <time>2022-11-01T12:50:44.000Z</time>
      </trkpt>
      <trkpt lat="48.04855" lon="6.96735">
        <ele>1013.5999755859</ele>
        <time>2022-11-01T12:50:50.000Z</time>
      </trkpt>
      <trkpt lat="48.04856" lon="6.96724">
        <ele>1013.1999511719</ele>
        <time>2022-11-01T12:50:57.000Z</time>
      </trkpt>
      <trkpt lat="48.04856" lon="6.96722">
        <ele>1013.1999511719</ele>
        <time>2022-11-01T12:50:58.000Z</time>
      </trkpt>
      <trkpt lat="48.04859" lon="6.96714">
        <ele>1012.5999755859</ele>
        <time>2022-11-01T12:51:04.000Z</time>
      </trkpt>
      <trkpt lat="48.04859" lon="6.96713">
        <ele>1012.4000244141</ele>
        <time>2022-11-01T12:51:05.000Z</time>
      </trkpt>
      <trkpt lat="48.04863" lon="6.96708">
        <ele>1012.1999511719</ele>
        <time>2022-11-01T12:51:10.000Z</time>
      </trkpt>
      <trkpt lat="48.04864" lon="6.96704">
        <ele>1011.8000488281</ele>
        <time>2022-11-01T12:51:18.000Z</time>
      </trkpt>
      <trkpt lat="48.04865" lon="6.96698">
        <ele>1011.5999755859</ele>
        <time>2022-11-01T12:51:21.000Z</time>
      </trkpt>
      <trkpt lat="48.04867" lon="6.96691">
        <ele>1011.5999755859</ele>
        <time>2022-11-01T12:51:25.000Z</time>
      </trkpt>
      <trkpt lat="48.04871" lon="6.96685">
        <ele>1010.8000488281</ele>
        <time>2022-11-01T12:51:32.000Z</time>
      </trkpt>
      <trkpt lat="48.04873" lon="6.96683">
        <ele>1010.5999755859</ele>
        <time>2022-11-01T12:51:34.000Z</time>
      </trkpt>
      <trkpt lat="48.04873" lon="6.96681">
        <ele>1010.5999755859</ele>
        <time>2022-11-01T12:51:35.000Z</time>
      </trkpt>
      <trkpt lat="48.04873" lon="6.9668">
        <ele>1010.5999755859</ele>
        <time>2022-11-01T12:51:36.000Z</time>
      </trkpt>
      <trkpt lat="48.04873" lon="6.96678">
        <ele>1010.4000244141</ele>
        <time>2022-11-01T12:51:38.000Z</time>
      </trkpt>
      <trkpt lat="48.04873" lon="6.9667">
        <ele>1010.1999511719</ele>
        <time>2022-11-01T12:51:44.000Z</time>
      </trkpt>
      <trkpt lat="48.04876" lon="6.9667">
        <ele>1010.1999511719</ele>
        <time>2022-11-01T12:51:50.000Z</time>
      </trkpt>
      <trkpt lat="48.04878" lon="6.96665">
        <ele>1010</ele>
        <time>2022-11-01T12:51:57.000Z</time>
      </trkpt>
      <trkpt lat="48.04881" lon="6.9666">
        <ele>1010.1999511719</ele>
        <time>2022-11-01T12:52:02.000Z</time>
      </trkpt>
      <trkpt lat="48.04881" lon="6.9666">
        <ele>1010.1999511719</ele>
        <time>2022-11-01T12:52:03.000Z</time>
      </trkpt>
      <trkpt lat="48.04884" lon="6.96649">
        <ele>1010.4000244141</ele>
        <time>2022-11-01T12:52:11.000Z</time>
      </trkpt>
      <trkpt lat="48.04884" lon="6.96643">
        <ele>1010.1999511719</ele>
        <time>2022-11-01T12:52:17.000Z</time>
      </trkpt>
      <trkpt lat="48.04885" lon="6.96639">
        <ele>1010.1999511719</ele>
        <time>2022-11-01T12:52:20.000Z</time>
      </trkpt>
      <trkpt lat="48.04888" lon="6.96636">
        <ele>1010.1999511719</ele>
        <time>2022-11-01T12:52:24.000Z</time>
      </trkpt>
      <trkpt lat="48.04889" lon="6.96632">
        <ele>1009.8000488281</ele>
        <time>2022-11-01T12:52:29.000Z</time>
      </trkpt>
      <trkpt lat="48.04891" lon="6.96628">
        <ele>1009.5999755859</ele>
        <time>2022-11-01T12:52:34.000Z</time>
      </trkpt>
      <trkpt lat="48.04891" lon="6.96627">
        <ele>1009.5999755859</ele>
        <time>2022-11-01T12:52:35.000Z</time>
      </trkpt>
      <trkpt lat="48.04893" lon="6.96624">
        <ele>1009.5999755859</ele>
        <time>2022-11-01T12:52:38.000Z</time>
      </trkpt>
      <trkpt lat="48.04892" lon="6.96622">
        <ele>1009.5999755859</ele>
        <time>2022-11-01T12:52:41.000Z</time>
      </trkpt>
      <trkpt lat="48.04895" lon="6.96609">
        <ele>1009.5999755859</ele>
        <time>2022-11-01T12:52:49.000Z</time>
      </trkpt>
      <trkpt lat="48.04896" lon="6.966">
        <ele>1009.4000244141</ele>
        <time>2022-11-01T12:52:54.000Z</time>
      </trkpt>
      <trkpt lat="48.04897" lon="6.96594">
        <ele>1009.1999511719</ele>
        <time>2022-11-01T12:52:57.000Z</time>
      </trkpt>
      <trkpt lat="48.04899" lon="6.96591">
        <ele>1009</ele>
        <time>2022-11-01T12:53:00.000Z</time>
      </trkpt>
      <trkpt lat="48.04901" lon="6.96586">
        <ele>1008.8000488281</ele>
        <time>2022-11-01T12:53:06.000Z</time>
      </trkpt>
      <trkpt lat="48.04903" lon="6.9658">
        <ele>1008.5999755859</ele>
        <time>2022-11-01T12:53:09.000Z</time>
      </trkpt>
      <trkpt lat="48.04904" lon="6.96579">
        <ele>1008.8000488281</ele>
        <time>2022-11-01T12:53:11.000Z</time>
      </trkpt>
      <trkpt lat="48.04904" lon="6.96578">
        <ele>1008.8000488281</ele>
        <time>2022-11-01T12:53:12.000Z</time>
      </trkpt>
      <trkpt lat="48.04904" lon="6.96575">
        <ele>1008.8000488281</ele>
        <time>2022-11-01T12:53:14.000Z</time>
      </trkpt>
      <trkpt lat="48.04907" lon="6.96572">
        <ele>1009</ele>
        <time>2022-11-01T12:53:17.000Z</time>
      </trkpt>
      <trkpt lat="48.04913" lon="6.96568">
        <ele>1009.1999511719</ele>
        <time>2022-11-01T12:53:24.000Z</time>
      </trkpt>
      <trkpt lat="48.0492" lon="6.96562">
        <ele>1009.4000244141</ele>
        <time>2022-11-01T12:53:31.000Z</time>
      </trkpt>
      <trkpt lat="48.04921" lon="6.96559">
        <ele>1009.5999755859</ele>
        <time>2022-11-01T12:53:33.000Z</time>
      </trkpt>
      <trkpt lat="48.04922" lon="6.96556">
        <ele>1009.8000488281</ele>
        <time>2022-11-01T12:53:35.000Z</time>
      </trkpt>
      <trkpt lat="48.04923" lon="6.96554">
        <ele>1010.1999511719</ele>
        <time>2022-11-01T12:53:37.000Z</time>
      </trkpt>
      <trkpt lat="48.04926" lon="6.96553">
        <ele>1010.4000244141</ele>
        <time>2022-11-01T12:53:39.000Z</time>
      </trkpt>
      <trkpt lat="48.04926" lon="6.96553">
        <ele>1010.4000244141</ele>
        <time>2022-11-01T12:53:40.000Z</time>
      </trkpt>
      <trkpt lat="48.04929" lon="6.96553">
        <ele>1010.5999755859</ele>
        <time>2022-11-01T12:53:42.000Z</time>
      </trkpt>
      <trkpt lat="48.04933" lon="6.96555">
        <ele>1011</ele>
        <time>2022-11-01T12:53:46.000Z</time>
      </trkpt>
      <trkpt lat="48.04935" lon="6.96554">
        <ele>1011</ele>
        <time>2022-11-01T12:53:47.000Z</time>
      </trkpt>
      <trkpt lat="48.0494" lon="6.96554">
        <ele>1011.4000244141</ele>
        <time>2022-11-01T12:53:52.000Z</time>
      </trkpt>
      <trkpt lat="48.04944" lon="6.96553">
        <ele>1011.8000488281</ele>
        <time>2022-11-01T12:53:56.000Z</time>
      </trkpt>
      <trkpt lat="48.04949" lon="6.96553">
        <ele>1012.1999511719</ele>
        <time>2022-11-01T12:54:00.000Z</time>
      </trkpt>
      <trkpt lat="48.04952" lon="6.96547">
        <ele>1012.8000488281</ele>
        <time>2022-11-01T12:54:05.000Z</time>
      </trkpt>
      <trkpt lat="48.04953" lon="6.96543">
        <ele>1013.1999511719</ele>
        <time>2022-11-01T12:54:08.000Z</time>
      </trkpt>
      <trkpt lat="48.04955" lon="6.96537">
        <ele>1013.8000488281</ele>
        <time>2022-11-01T12:54:12.000Z</time>
      </trkpt>
      <trkpt lat="48.04956" lon="6.96537">
        <ele>1013.8000488281</ele>
        <time>2022-11-01T12:54:13.000Z</time>
      </trkpt>
      <trkpt lat="48.04957" lon="6.96535">
        <ele>1014</ele>
        <time>2022-11-01T12:54:14.000Z</time>
      </trkpt>
      <trkpt lat="48.04957" lon="6.96533">
        <ele>1014.1999511719</ele>
        <time>2022-11-01T12:54:15.000Z</time>
      </trkpt>
      <trkpt lat="48.04957" lon="6.9653">
        <ele>1014.4000244141</ele>
        <time>2022-11-01T12:54:17.000Z</time>
      </trkpt>
      <trkpt lat="48.04959" lon="6.96527">
        <ele>1014.5999755859</ele>
        <time>2022-11-01T12:54:20.000Z</time>
      </trkpt>
      <trkpt lat="48.04959" lon="6.96526">
        <ele>1014.5999755859</ele>
        <time>2022-11-01T12:54:21.000Z</time>
      </trkpt>
      <trkpt lat="48.04961" lon="6.96521">
        <ele>1014.8000488281</ele>
        <time>2022-11-01T12:54:25.000Z</time>
      </trkpt>
      <trkpt lat="48.04963" lon="6.96516">
        <ele>1014.8000488281</ele>
        <time>2022-11-01T12:54:29.000Z</time>
      </trkpt>
      <trkpt lat="48.04963" lon="6.96514">
        <ele>1015</ele>
        <time>2022-11-01T12:54:30.000Z</time>
      </trkpt>
      <trkpt lat="48.04966" lon="6.96511">
        <ele>1015.1999511719</ele>
        <time>2022-11-01T12:54:33.000Z</time>
      </trkpt>
      <trkpt lat="48.04968" lon="6.96509">
        <ele>1015.4000244141</ele>
        <time>2022-11-01T12:54:36.000Z</time>
      </trkpt>
      <trkpt lat="48.04972" lon="6.96503">
        <ele>1015.8000488281</ele>
        <time>2022-11-01T12:54:41.000Z</time>
      </trkpt>
      <trkpt lat="48.04973" lon="6.96501">
        <ele>1016</ele>
        <time>2022-11-01T12:54:43.000Z</time>
      </trkpt>
      <trkpt lat="48.04974" lon="6.965">
        <ele>1016</ele>
        <time>2022-11-01T12:54:44.000Z</time>
      </trkpt>
      <trkpt lat="48.04979" lon="6.96495">
        <ele>1016.8000488281</ele>
        <time>2022-11-01T12:54:50.000Z</time>
      </trkpt>
      <trkpt lat="48.04982" lon="6.96493">
        <ele>1017.1999511719</ele>
        <time>2022-11-01T12:54:53.000Z</time>
      </trkpt>
      <trkpt lat="48.04988" lon="6.96487">
        <ele>1018</ele>
        <time>2022-11-01T12:55:00.000Z</time>
      </trkpt>
      <trkpt lat="48.04989" lon="6.96486">
        <ele>1018.1999511719</ele>
        <time>2022-11-01T12:55:01.000Z</time>
      </trkpt>
      <trkpt lat="48.0499" lon="6.96485">
        <ele>1018.4000244141</ele>
        <time>2022-11-01T12:55:02.000Z</time>
      </trkpt>
      <trkpt lat="48.04993" lon="6.96481">
        <ele>1019.4000244141</ele>
        <time>2022-11-01T12:55:08.000Z</time>
      </trkpt>
      <trkpt lat="48.04993" lon="6.96483">
        <ele>1019.5999755859</ele>
        <time>2022-11-01T12:55:10.000Z</time>
      </trkpt>
      <trkpt lat="48.04996" lon="6.96485">
        <ele>1019.5999755859</ele>
        <time>2022-11-01T12:55:19.000Z</time>
      </trkpt>
      <trkpt lat="48.04996" lon="6.96485">
        <ele>1019.5999755859</ele>
        <time>2022-11-01T12:55:28.000Z</time>
      </trkpt>
      <trkpt lat="48.04997" lon="6.96485">
        <ele>1020</ele>
        <time>2022-11-01T12:55:43.000Z</time>
      </trkpt>
      <trkpt lat="48.05002" lon="6.9648">
        <ele>1020.4000244141</ele>
        <time>2022-11-01T12:55:47.000Z</time>
      </trkpt>
      <trkpt lat="48.05007" lon="6.96472">
        <ele>1021.4000244141</ele>
        <time>2022-11-01T12:55:54.000Z</time>
      </trkpt>
      <trkpt lat="48.05007" lon="6.96473">
        <ele>1021.5999755859</ele>
        <time>2022-11-01T12:55:55.000Z</time>
      </trkpt>
      <trkpt lat="48.05007" lon="6.9647">
        <ele>1021.5999755859</ele>
        <time>2022-11-01T12:56:01.000Z</time>
      </trkpt>
      <trkpt lat="48.0501" lon="6.96465">
        <ele>1021.8000488281</ele>
        <time>2022-11-01T12:56:05.000Z</time>
      </trkpt>
      <trkpt lat="48.0501" lon="6.96463">
        <ele>1022.1999511719</ele>
        <time>2022-11-01T12:56:08.000Z</time>
      </trkpt>
      <trkpt lat="48.05012" lon="6.96459">
        <ele>1022.5999755859</ele>
        <time>2022-11-01T12:56:13.000Z</time>
      </trkpt>
      <trkpt lat="48.05015" lon="6.96453">
        <ele>1023.4000244141</ele>
        <time>2022-11-01T12:56:18.000Z</time>
      </trkpt>
      <trkpt lat="48.05015" lon="6.96453">
        <ele>1023.5999755859</ele>
        <time>2022-11-01T12:56:19.000Z</time>
      </trkpt>
      <trkpt lat="48.05017" lon="6.96452">
        <ele>1024.1999511719</ele>
        <time>2022-11-01T12:56:22.000Z</time>
      </trkpt>
      <trkpt lat="48.05021" lon="6.96449">
        <ele>1024.5999755859</ele>
        <time>2022-11-01T12:56:26.000Z</time>
      </trkpt>
      <trkpt lat="48.05022" lon="6.96448">
        <ele>1024.8000488281</ele>
        <time>2022-11-01T12:56:27.000Z</time>
      </trkpt>
      <trkpt lat="48.05024" lon="6.96448">
        <ele>1025.4000244141</ele>
        <time>2022-11-01T12:56:32.000Z</time>
      </trkpt>
      <trkpt lat="48.05025" lon="6.96451">
        <ele>1025.4000244141</ele>
        <time>2022-11-01T12:56:38.000Z</time>
      </trkpt>
      <trkpt lat="48.05026" lon="6.96452">
        <ele>1025.5999755859</ele>
        <time>2022-11-01T12:56:40.000Z</time>
      </trkpt>
      <trkpt lat="48.05027" lon="6.96449">
        <ele>1025.4000244141</ele>
        <time>2022-11-01T12:56:48.000Z</time>
      </trkpt>
      <trkpt lat="48.05029" lon="6.96447">
        <ele>1025.8000488281</ele>
        <time>2022-11-01T12:56:51.000Z</time>
      </trkpt>
      <trkpt lat="48.05031" lon="6.96442">
        <ele>1026</ele>
        <time>2022-11-01T12:56:55.000Z</time>
      </trkpt>
      <trkpt lat="48.05034" lon="6.96434">
        <ele>1026.4000244141</ele>
        <time>2022-11-01T12:57:03.000Z</time>
      </trkpt>
      <trkpt lat="48.05035" lon="6.96432">
        <ele>1026.8000488281</ele>
        <time>2022-11-01T12:57:06.000Z</time>
      </trkpt>
      <trkpt lat="48.05035" lon="6.96427">
        <ele>1027.1999511719</ele>
        <time>2022-11-01T12:57:09.000Z</time>
      </trkpt>
      <trkpt lat="48.05037" lon="6.96424">
        <ele>1027.4000244141</ele>
        <time>2022-11-01T12:57:15.000Z</time>
      </trkpt>
      <trkpt lat="48.05038" lon="6.96423">
        <ele>1027.4000244141</ele>
        <time>2022-11-01T12:57:16.000Z</time>
      </trkpt>
      <trkpt lat="48.05042" lon="6.9642">
        <ele>1027.4000244141</ele>
        <time>2022-11-01T12:57:23.000Z</time>
      </trkpt>
      <trkpt lat="48.05043" lon="6.96419">
        <ele>1027.4000244141</ele>
        <time>2022-11-01T12:57:30.000Z</time>
      </trkpt>
      <trkpt lat="48.05044" lon="6.9642">
        <ele>1027.1999511719</ele>
        <time>2022-11-01T12:57:33.000Z</time>
      </trkpt>
      <trkpt lat="48.05044" lon="6.9642">
        <ele>1027.1999511719</ele>
        <time>2022-11-01T12:57:35.000Z</time>
      </trkpt>
      <trkpt lat="48.05044" lon="6.96422">
        <ele>1026.5999755859</ele>
        <time>2022-11-01T12:58:03.000Z</time>
      </trkpt>
      <trkpt lat="48.05044" lon="6.96422">
        <ele>1026.5999755859</ele>
        <time>2022-11-01T12:58:08.000Z</time>
      </trkpt>
      <trkpt lat="48.05045" lon="6.96423">
        <ele>1026.8000488281</ele>
        <time>2022-11-01T12:58:18.000Z</time>
      </trkpt>
      <trkpt lat="48.05045" lon="6.96423">
        <ele>1027.1999511719</ele>
        <time>2022-11-01T12:58:21.000Z</time>
      </trkpt>
      <trkpt lat="48.05047" lon="6.9642">
        <ele>1027.1999511719</ele>
        <time>2022-11-01T12:58:23.000Z</time>
      </trkpt>
      <trkpt lat="48.05048" lon="6.96419">
        <ele>1027.1999511719</ele>
        <time>2022-11-01T12:58:24.000Z</time>
      </trkpt>
      <trkpt lat="48.05049" lon="6.96416">
        <ele>1027.1999511719</ele>
        <time>2022-11-01T12:58:28.000Z</time>
      </trkpt>
      <trkpt lat="48.05049" lon="6.96414">
        <ele>1027.1999511719</ele>
        <time>2022-11-01T12:58:32.000Z</time>
      </trkpt>
      <trkpt lat="48.05049" lon="6.96414">
        <ele>1027.1999511719</ele>
        <time>2022-11-01T12:58:33.000Z</time>
      </trkpt>
      <trkpt lat="48.05049" lon="6.96412">
        <ele>1027.1999511719</ele>
        <time>2022-11-01T12:58:34.000Z</time>
      </trkpt>
      <trkpt lat="48.05051" lon="6.9641">
        <ele>1027.1999511719</ele>
        <time>2022-11-01T12:58:37.000Z</time>
      </trkpt>
      <trkpt lat="48.05051" lon="6.96409">
        <ele>1027.1999511719</ele>
        <time>2022-11-01T12:58:38.000Z</time>
      </trkpt>
      <trkpt lat="48.05052" lon="6.96407">
        <ele>1027.1999511719</ele>
        <time>2022-11-01T12:58:39.000Z</time>
      </trkpt>
      <trkpt lat="48.05053" lon="6.96396">
        <ele>1027.1999511719</ele>
        <time>2022-11-01T12:58:45.000Z</time>
      </trkpt>
      <trkpt lat="48.05053" lon="6.96389">
        <ele>1027.1999511719</ele>
        <time>2022-11-01T12:58:50.000Z</time>
      </trkpt>
      <trkpt lat="48.05054" lon="6.96382">
        <ele>1027.1999511719</ele>
        <time>2022-11-01T12:58:55.000Z</time>
      </trkpt>
      <trkpt lat="48.05056" lon="6.96373">
        <ele>1027.1999511719</ele>
        <time>2022-11-01T12:59:02.000Z</time>
      </trkpt>
      <trkpt lat="48.05057" lon="6.96366">
        <ele>1027.1999511719</ele>
        <time>2022-11-01T12:59:09.000Z</time>
      </trkpt>
      <trkpt lat="48.05057" lon="6.96355">
        <ele>1027.1999511719</ele>
        <time>2022-11-01T12:59:16.000Z</time>
      </trkpt>
      <trkpt lat="48.05058" lon="6.96352">
        <ele>1027.1999511719</ele>
        <time>2022-11-01T12:59:18.000Z</time>
      </trkpt>
      <trkpt lat="48.05059" lon="6.96351">
        <ele>1027.1999511719</ele>
        <time>2022-11-01T12:59:19.000Z</time>
      </trkpt>
      <trkpt lat="48.0506" lon="6.9635">
        <ele>1031.1999511719</ele>
        <time>2022-11-01T12:59:20.000Z</time>
      </trkpt>
      <trkpt lat="48.05062" lon="6.96342">
        <ele>1031.4000244141</ele>
        <time>2022-11-01T12:59:25.000Z</time>
      </trkpt>
      <trkpt lat="48.05067" lon="6.96331">
        <ele>1031.5999755859</ele>
        <time>2022-11-01T12:59:33.000Z</time>
      </trkpt>
      <trkpt lat="48.05068" lon="6.96329">
        <ele>1031.5999755859</ele>
        <time>2022-11-01T12:59:34.000Z</time>
      </trkpt>
      <trkpt lat="48.05069" lon="6.96326">
        <ele>1032.1999511719</ele>
        <time>2022-11-01T12:59:39.000Z</time>
      </trkpt>
      <trkpt lat="48.0507" lon="6.96321">
        <ele>1032.4000244141</ele>
        <time>2022-11-01T12:59:43.000Z</time>
      </trkpt>
      <trkpt lat="48.05071" lon="6.96318">
        <ele>1032.4000244141</ele>
        <time>2022-11-01T12:59:45.000Z</time>
      </trkpt>
      <trkpt lat="48.05072" lon="6.96313">
        <ele>1032.8000488281</ele>
        <time>2022-11-01T12:59:50.000Z</time>
      </trkpt>
      <trkpt lat="48.05076" lon="6.96308">
        <ele>1033.1999511719</ele>
        <time>2022-11-01T12:59:55.000Z</time>
      </trkpt>
      <trkpt lat="48.05077" lon="6.96307">
        <ele>1033.1999511719</ele>
        <time>2022-11-01T12:59:56.000Z</time>
      </trkpt>
      <trkpt lat="48.05078" lon="6.96304">
        <ele>1033.4000244141</ele>
        <time>2022-11-01T12:59:58.000Z</time>
      </trkpt>
      <trkpt lat="48.05079" lon="6.96301">
        <ele>1033.4000244141</ele>
        <time>2022-11-01T13:00:00.000Z</time>
      </trkpt>
      <trkpt lat="48.0508" lon="6.96297">
        <ele>1033.5999755859</ele>
        <time>2022-11-01T13:00:03.000Z</time>
      </trkpt>
      <trkpt lat="48.05082" lon="6.96292">
        <ele>1034</ele>
        <time>2022-11-01T13:00:09.000Z</time>
      </trkpt>
      <trkpt lat="48.05083" lon="6.96292">
        <ele>1034.1999511719</ele>
        <time>2022-11-01T13:00:10.000Z</time>
      </trkpt>
      <trkpt lat="48.05084" lon="6.96291">
        <ele>1034.4000244141</ele>
        <time>2022-11-01T13:00:11.000Z</time>
      </trkpt>
      <trkpt lat="48.05087" lon="6.96289">
        <ele>1034.5999755859</ele>
        <time>2022-11-01T13:00:14.000Z</time>
      </trkpt>
      <trkpt lat="48.05092" lon="6.96287">
        <ele>1035.1999511719</ele>
        <time>2022-11-01T13:00:19.000Z</time>
      </trkpt>
      <trkpt lat="48.05094" lon="6.96282">
        <ele>1035.4000244141</ele>
        <time>2022-11-01T13:00:23.000Z</time>
      </trkpt>
      <trkpt lat="48.05094" lon="6.96282">
        <ele>1035.4000244141</ele>
        <time>2022-11-01T13:00:25.000Z</time>
      </trkpt>
      <trkpt lat="48.05096" lon="6.96278">
        <ele>1035.5999755859</ele>
        <time>2022-11-01T13:00:32.000Z</time>
      </trkpt>
      <trkpt lat="48.05098" lon="6.9627">
        <ele>1035.8000488281</ele>
        <time>2022-11-01T13:00:38.000Z</time>
      </trkpt>
      <trkpt lat="48.05105" lon="6.96264">
        <ele>1036</ele>
        <time>2022-11-01T13:00:44.000Z</time>
      </trkpt>
      <trkpt lat="48.0511" lon="6.96256">
        <ele>1036.1999511719</ele>
        <time>2022-11-01T13:00:52.000Z</time>
      </trkpt>
      <trkpt lat="48.05115" lon="6.9625">
        <ele>1036.1999511719</ele>
        <time>2022-11-01T13:00:56.000Z</time>
      </trkpt>
      <trkpt lat="48.05117" lon="6.96248">
        <ele>1036.4000244141</ele>
        <time>2022-11-01T13:00:59.000Z</time>
      </trkpt>
      <trkpt lat="48.05119" lon="6.96247">
        <ele>1037</ele>
        <time>2022-11-01T13:01:04.000Z</time>
      </trkpt>
      <trkpt lat="48.05116" lon="6.96237">
        <ele>1037.5999755859</ele>
        <time>2022-11-01T13:01:13.000Z</time>
      </trkpt>
      <trkpt lat="48.05115" lon="6.96233">
        <ele>1037.8000488281</ele>
        <time>2022-11-01T13:01:17.000Z</time>
      </trkpt>
      <trkpt lat="48.05114" lon="6.9623">
        <ele>1037.8000488281</ele>
        <time>2022-11-01T13:01:20.000Z</time>
      </trkpt>
      <trkpt lat="48.05113" lon="6.96221">
        <ele>1038.1999511719</ele>
        <time>2022-11-01T13:01:26.000Z</time>
      </trkpt>
      <trkpt lat="48.05114" lon="6.96219">
        <ele>1038.1999511719</ele>
        <time>2022-11-01T13:01:27.000Z</time>
      </trkpt>
      <trkpt lat="48.05114" lon="6.96211">
        <ele>1038.4000244141</ele>
        <time>2022-11-01T13:01:31.000Z</time>
      </trkpt>
      <trkpt lat="48.05114" lon="6.96207">
        <ele>1038.4000244141</ele>
        <time>2022-11-01T13:01:33.000Z</time>
      </trkpt>
      <trkpt lat="48.05113" lon="6.96202">
        <ele>1038.8000488281</ele>
        <time>2022-11-01T13:01:37.000Z</time>
      </trkpt>
      <trkpt lat="48.05111" lon="6.96198">
        <ele>1039</ele>
        <time>2022-11-01T13:01:40.000Z</time>
      </trkpt>
      <trkpt lat="48.05111" lon="6.96196">
        <ele>1039.1999511719</ele>
        <time>2022-11-01T13:01:42.000Z</time>
      </trkpt>
      <trkpt lat="48.0511" lon="6.96189">
        <ele>1039.4000244141</ele>
        <time>2022-11-01T13:01:47.000Z</time>
      </trkpt>
      <trkpt lat="48.05109" lon="6.96188">
        <ele>1039.4000244141</ele>
        <time>2022-11-01T13:01:49.000Z</time>
      </trkpt>
      <trkpt lat="48.05105" lon="6.96178">
        <ele>1039.8000488281</ele>
        <time>2022-11-01T13:01:56.000Z</time>
      </trkpt>
      <trkpt lat="48.05104" lon="6.96177">
        <ele>1039.8000488281</ele>
        <time>2022-11-01T13:01:57.000Z</time>
      </trkpt>
      <trkpt lat="48.05103" lon="6.96173">
        <ele>1040</ele>
        <time>2022-11-01T13:02:00.000Z</time>
      </trkpt>
      <trkpt lat="48.05101" lon="6.96171">
        <ele>1040.1999511719</ele>
        <time>2022-11-01T13:02:05.000Z</time>
      </trkpt>
      <trkpt lat="48.05098" lon="6.96161">
        <ele>1040.8000488281</ele>
        <time>2022-11-01T13:02:13.000Z</time>
      </trkpt>
      <trkpt lat="48.05096" lon="6.96154">
        <ele>1041.1999511719</ele>
        <time>2022-11-01T13:02:19.000Z</time>
      </trkpt>
      <trkpt lat="48.05095" lon="6.96148">
        <ele>1041.5999755859</ele>
        <time>2022-11-01T13:02:22.000Z</time>
      </trkpt>
      <trkpt lat="48.05094" lon="6.96146">
        <ele>1041.8000488281</ele>
        <time>2022-11-01T13:02:23.000Z</time>
      </trkpt>
      <trkpt lat="48.05093" lon="6.96145">
        <ele>1041.8000488281</ele>
        <time>2022-11-01T13:02:24.000Z</time>
      </trkpt>
      <trkpt lat="48.05092" lon="6.96142">
        <ele>1042</ele>
        <time>2022-11-01T13:02:26.000Z</time>
      </trkpt>
      <trkpt lat="48.05093" lon="6.96133">
        <ele>1042.1999511719</ele>
        <time>2022-11-01T13:02:31.000Z</time>
      </trkpt>
      <trkpt lat="48.05093" lon="6.96124">
        <ele>1042.1999511719</ele>
        <time>2022-11-01T13:02:37.000Z</time>
      </trkpt>
      <trkpt lat="48.05094" lon="6.96115">
        <ele>1042.5999755859</ele>
        <time>2022-11-01T13:02:43.000Z</time>
      </trkpt>
      <trkpt lat="48.05094" lon="6.9611">
        <ele>1042.8000488281</ele>
        <time>2022-11-01T13:02:46.000Z</time>
      </trkpt>
      <trkpt lat="48.05095" lon="6.96107">
        <ele>1043</ele>
        <time>2022-11-01T13:02:48.000Z</time>
      </trkpt>
      <trkpt lat="48.051" lon="6.96098">
        <ele>1043.4000244141</ele>
        <time>2022-11-01T13:02:54.000Z</time>
      </trkpt>
      <trkpt lat="48.05101" lon="6.96093">
        <ele>1043.5999755859</ele>
        <time>2022-11-01T13:02:57.000Z</time>
      </trkpt>
      <trkpt lat="48.05101" lon="6.96088">
        <ele>1044</ele>
        <time>2022-11-01T13:02:59.000Z</time>
      </trkpt>
      <trkpt lat="48.05102" lon="6.96087">
        <ele>1044</ele>
        <time>2022-11-01T13:03:00.000Z</time>
      </trkpt>
      <trkpt lat="48.05105" lon="6.96077">
        <ele>1044.8000488281</ele>
        <time>2022-11-01T13:03:07.000Z</time>
      </trkpt>
      <trkpt lat="48.05106" lon="6.96075">
        <ele>1045</ele>
        <time>2022-11-01T13:03:09.000Z</time>
      </trkpt>
      <trkpt lat="48.05109" lon="6.96068">
        <ele>1045.5999755859</ele>
        <time>2022-11-01T13:03:14.000Z</time>
      </trkpt>
      <trkpt lat="48.05109" lon="6.96067">
        <ele>1045.8000488281</ele>
        <time>2022-11-01T13:03:15.000Z</time>
      </trkpt>
      <trkpt lat="48.0511" lon="6.9606">
        <ele>1046</ele>
        <time>2022-11-01T13:03:20.000Z</time>
      </trkpt>
      <trkpt lat="48.0511" lon="6.9606">
        <ele>1046</ele>
        <time>2022-11-01T13:03:21.000Z</time>
      </trkpt>
      <trkpt lat="48.0511" lon="6.96056">
        <ele>1046</ele>
        <time>2022-11-01T13:03:27.000Z</time>
      </trkpt>
      <trkpt lat="48.0511" lon="6.96052">
        <ele>1046</ele>
        <time>2022-11-01T13:03:35.000Z</time>
      </trkpt>
      <trkpt lat="48.05111" lon="6.96051">
        <ele>1046</ele>
        <time>2022-11-01T13:03:36.000Z</time>
      </trkpt>
      <trkpt lat="48.0511" lon="6.96043">
        <ele>1046</ele>
        <time>2022-11-01T13:03:40.000Z</time>
      </trkpt>
      <trkpt lat="48.05111" lon="6.96041">
        <ele>1046</ele>
        <time>2022-11-01T13:03:42.000Z</time>
      </trkpt>
      <trkpt lat="48.05111" lon="6.96035">
        <ele>1046.1999511719</ele>
        <time>2022-11-01T13:03:46.000Z</time>
      </trkpt>
      <trkpt lat="48.05112" lon="6.96029">
        <ele>1046.4000244141</ele>
        <time>2022-11-01T13:03:50.000Z</time>
      </trkpt>
      <trkpt lat="48.05113" lon="6.96024">
        <ele>1046.5999755859</ele>
        <time>2022-11-01T13:03:54.000Z</time>
      </trkpt>
      <trkpt lat="48.05114" lon="6.96021">
        <ele>1046.5999755859</ele>
        <time>2022-11-01T13:03:56.000Z</time>
      </trkpt>
      <trkpt lat="48.05116" lon="6.96014">
        <ele>1046.5999755859</ele>
        <time>2022-11-01T13:04:01.000Z</time>
      </trkpt>
      <trkpt lat="48.05117" lon="6.96011">
        <ele>1046.5999755859</ele>
        <time>2022-11-01T13:04:03.000Z</time>
      </trkpt>
      <trkpt lat="48.05118" lon="6.96008">
        <ele>1046.8000488281</ele>
        <time>2022-11-01T13:04:05.000Z</time>
      </trkpt>
      <trkpt lat="48.05122" lon="6.96">
        <ele>1047</ele>
        <time>2022-11-01T13:04:10.000Z</time>
      </trkpt>
      <trkpt lat="48.05123" lon="6.95998">
        <ele>1047</ele>
        <time>2022-11-01T13:04:14.000Z</time>
      </trkpt>
      <trkpt lat="48.05123" lon="6.95996">
        <ele>1047.1999511719</ele>
        <time>2022-11-01T13:04:15.000Z</time>
      </trkpt>
      <trkpt lat="48.05124" lon="6.95993">
        <ele>1047.5999755859</ele>
        <time>2022-11-01T13:04:20.000Z</time>
      </trkpt>
      <trkpt lat="48.05124" lon="6.95991">
        <ele>1047.5999755859</ele>
        <time>2022-11-01T13:04:22.000Z</time>
      </trkpt>
      <trkpt lat="48.05125" lon="6.95988">
        <ele>1047.8000488281</ele>
        <time>2022-11-01T13:04:24.000Z</time>
      </trkpt>
      <trkpt lat="48.05127" lon="6.95985">
        <ele>1048</ele>
        <time>2022-11-01T13:04:27.000Z</time>
      </trkpt>
      <trkpt lat="48.05128" lon="6.95985">
        <ele>1048.1999511719</ele>
        <time>2022-11-01T13:04:28.000Z</time>
      </trkpt>
      <trkpt lat="48.05135" lon="6.95979">
        <ele>1048.5999755859</ele>
        <time>2022-11-01T13:04:34.000Z</time>
      </trkpt>
      <trkpt lat="48.05138" lon="6.9598">
        <ele>1049</ele>
        <time>2022-11-01T13:04:38.000Z</time>
      </trkpt>
      <trkpt lat="48.05139" lon="6.95982">
        <ele>1049</ele>
        <time>2022-11-01T13:04:40.000Z</time>
      </trkpt>
      <trkpt lat="48.0514" lon="6.95981">
        <ele>1049.1999511719</ele>
        <time>2022-11-01T13:04:44.000Z</time>
      </trkpt>
      <trkpt lat="48.05141" lon="6.95981">
        <ele>1049.1999511719</ele>
        <time>2022-11-01T13:04:45.000Z</time>
      </trkpt>
      <trkpt lat="48.05144" lon="6.95977">
        <ele>1050.1999511719</ele>
        <time>2022-11-01T13:04:51.000Z</time>
      </trkpt>
      <trkpt lat="48.05147" lon="6.95979">
        <ele>1051.4000244141</ele>
        <time>2022-11-01T13:04:55.000Z</time>
      </trkpt>
      <trkpt lat="48.05148" lon="6.95977">
        <ele>1051.8000488281</ele>
        <time>2022-11-01T13:04:57.000Z</time>
      </trkpt>
      <trkpt lat="48.05151" lon="6.95975">
        <ele>1052.4000244141</ele>
        <time>2022-11-01T13:05:01.000Z</time>
      </trkpt>
      <trkpt lat="48.05153" lon="6.95974">
        <ele>1052.5999755859</ele>
        <time>2022-11-01T13:05:02.000Z</time>
      </trkpt>
      <trkpt lat="48.05155" lon="6.95974">
        <ele>1053</ele>
        <time>2022-11-01T13:05:04.000Z</time>
      </trkpt>
      <trkpt lat="48.05157" lon="6.95974">
        <ele>1053.1999511719</ele>
        <time>2022-11-01T13:05:06.000Z</time>
      </trkpt>
      <trkpt lat="48.05161" lon="6.95974">
        <ele>1053.4000244141</ele>
        <time>2022-11-01T13:05:08.000Z</time>
      </trkpt>
      <trkpt lat="48.05162" lon="6.95973">
        <ele>1053.4000244141</ele>
        <time>2022-11-01T13:05:09.000Z</time>
      </trkpt>
      <trkpt lat="48.05164" lon="6.95972">
        <ele>1054</ele>
        <time>2022-11-01T13:05:12.000Z</time>
      </trkpt>
      <trkpt lat="48.05166" lon="6.9597">
        <ele>1054.1999511719</ele>
        <time>2022-11-01T13:05:14.000Z</time>
      </trkpt>
      <trkpt lat="48.05167" lon="6.9597">
        <ele>1054.5999755859</ele>
        <time>2022-11-01T13:05:15.000Z</time>
      </trkpt>
      <trkpt lat="48.0517" lon="6.95966">
        <ele>1055.1999511719</ele>
        <time>2022-11-01T13:05:20.000Z</time>
      </trkpt>
      <trkpt lat="48.05171" lon="6.95965">
        <ele>1055.5999755859</ele>
        <time>2022-11-01T13:05:22.000Z</time>
      </trkpt>
      <trkpt lat="48.0517" lon="6.95965">
        <ele>1055.8000488281</ele>
        <time>2022-11-01T13:05:24.000Z</time>
      </trkpt>
      <trkpt lat="48.0517" lon="6.95965">
        <ele>1055.8000488281</ele>
        <time>2022-11-01T13:05:25.000Z</time>
      </trkpt>
      <trkpt lat="48.05169" lon="6.95971">
        <ele>1056.5999755859</ele>
        <time>2022-11-01T13:05:30.000Z</time>
      </trkpt>
      <trkpt lat="48.05175" lon="6.9597">
        <ele>1056.4000244141</ele>
        <time>2022-11-01T13:05:51.000Z</time>
      </trkpt>
      <trkpt lat="48.05183" lon="6.95967">
        <ele>1057.1999511719</ele>
        <time>2022-11-01T13:05:57.000Z</time>
      </trkpt>
      <trkpt lat="48.05186" lon="6.95967">
        <ele>1057.8000488281</ele>
        <time>2022-11-01T13:05:59.000Z</time>
      </trkpt>
      <trkpt lat="48.05188" lon="6.95968">
        <ele>1057.8000488281</ele>
        <time>2022-11-01T13:06:00.000Z</time>
      </trkpt>
      <trkpt lat="48.05193" lon="6.95965">
        <ele>1058.8000488281</ele>
        <time>2022-11-01T13:06:05.000Z</time>
      </trkpt>
      <trkpt lat="48.05194" lon="6.95964">
        <ele>1059</ele>
        <time>2022-11-01T13:06:06.000Z</time>
      </trkpt>
      <trkpt lat="48.05201" lon="6.95961">
        <ele>1060</ele>
        <time>2022-11-01T13:06:13.000Z</time>
      </trkpt>
      <trkpt lat="48.05205" lon="6.95962">
        <ele>1061</ele>
        <time>2022-11-01T13:06:19.000Z</time>
      </trkpt>
      <trkpt lat="48.05206" lon="6.9596">
        <ele>1061.1999511719</ele>
        <time>2022-11-01T13:06:21.000Z</time>
      </trkpt>
      <trkpt lat="48.05213" lon="6.95958">
        <ele>1062</ele>
        <time>2022-11-01T13:06:27.000Z</time>
      </trkpt>
      <trkpt lat="48.05219" lon="6.95952">
        <ele>1063.1999511719</ele>
        <time>2022-11-01T13:06:32.000Z</time>
      </trkpt>
      <trkpt lat="48.05219" lon="6.95952">
        <ele>1063.4000244141</ele>
        <time>2022-11-01T13:06:34.000Z</time>
      </trkpt>
      <trkpt lat="48.05223" lon="6.9595">
        <ele>1064.1999511719</ele>
        <time>2022-11-01T13:06:38.000Z</time>
      </trkpt>
      <trkpt lat="48.05224" lon="6.95948">
        <ele>1064.4000244141</ele>
        <time>2022-11-01T13:06:40.000Z</time>
      </trkpt>
      <trkpt lat="48.05225" lon="6.95948">
        <ele>1064.8000488281</ele>
        <time>2022-11-01T13:06:41.000Z</time>
      </trkpt>
      <trkpt lat="48.05225" lon="6.9595">
        <ele>1065</ele>
        <time>2022-11-01T13:06:42.000Z</time>
      </trkpt>
      <trkpt lat="48.05227" lon="6.95952">
        <ele>1065.1999511719</ele>
        <time>2022-11-01T13:06:46.000Z</time>
      </trkpt>
      <trkpt lat="48.05227" lon="6.95951">
        <ele>1065.1999511719</ele>
        <time>2022-11-01T13:06:47.000Z</time>
      </trkpt>
      <trkpt lat="48.05228" lon="6.95951">
        <ele>1065.1999511719</ele>
        <time>2022-11-01T13:06:51.000Z</time>
      </trkpt>
      <trkpt lat="48.05229" lon="6.95951">
        <ele>1065.1999511719</ele>
        <time>2022-11-01T13:06:55.000Z</time>
      </trkpt>
      <trkpt lat="48.05233" lon="6.95953">
        <ele>1065.4000244141</ele>
        <time>2022-11-01T13:07:01.000Z</time>
      </trkpt>
      <trkpt lat="48.05233" lon="6.95953">
        <ele>1065.4000244141</ele>
        <time>2022-11-01T13:07:02.000Z</time>
      </trkpt>
      <trkpt lat="48.05235" lon="6.95953">
        <ele>1065.5999755859</ele>
        <time>2022-11-01T13:07:06.000Z</time>
      </trkpt>
      <trkpt lat="48.05237" lon="6.95953">
        <ele>1066.4000244141</ele>
        <time>2022-11-01T13:07:09.000Z</time>
      </trkpt>
      <trkpt lat="48.05237" lon="6.9595">
        <ele>1066.8000488281</ele>
        <time>2022-11-01T13:07:13.000Z</time>
      </trkpt>
      <trkpt lat="48.0524" lon="6.95949">
        <ele>1067.1999511719</ele>
        <time>2022-11-01T13:07:16.000Z</time>
      </trkpt>
      <trkpt lat="48.05242" lon="6.95949">
        <ele>1067.4000244141</ele>
        <time>2022-11-01T13:07:18.000Z</time>
      </trkpt>
      <trkpt lat="48.05248" lon="6.95949">
        <ele>1068.4000244141</ele>
        <time>2022-11-01T13:07:24.000Z</time>
      </trkpt>
      <trkpt lat="48.05249" lon="6.95949">
        <ele>1068.5999755859</ele>
        <time>2022-11-01T13:07:25.000Z</time>
      </trkpt>
      <trkpt lat="48.0525" lon="6.95947">
        <ele>1069.8000488281</ele>
        <time>2022-11-01T13:07:32.000Z</time>
      </trkpt>
      <trkpt lat="48.05251" lon="6.95947">
        <ele>1069.8000488281</ele>
        <time>2022-11-01T13:07:33.000Z</time>
      </trkpt>
      <trkpt lat="48.05255" lon="6.95952">
        <ele>1070.1999511719</ele>
        <time>2022-11-01T13:07:39.000Z</time>
      </trkpt>
      <trkpt lat="48.05259" lon="6.95954">
        <ele>1071</ele>
        <time>2022-11-01T13:07:44.000Z</time>
      </trkpt>
      <trkpt lat="48.05259" lon="6.95955">
        <ele>1071</ele>
        <time>2022-11-01T13:07:45.000Z</time>
      </trkpt>
      <trkpt lat="48.0526" lon="6.95962">
        <ele>1072</ele>
        <time>2022-11-01T13:07:52.000Z</time>
      </trkpt>
      <trkpt lat="48.05262" lon="6.95969">
        <ele>1072.8000488281</ele>
        <time>2022-11-01T13:07:59.000Z</time>
      </trkpt>
      <trkpt lat="48.05263" lon="6.95971">
        <ele>1073</ele>
        <time>2022-11-01T13:08:00.000Z</time>
      </trkpt>
      <trkpt lat="48.05266" lon="6.95973">
        <ele>1073.8000488281</ele>
        <time>2022-11-01T13:08:05.000Z</time>
      </trkpt>
      <trkpt lat="48.05266" lon="6.95973">
        <ele>1074.1999511719</ele>
        <time>2022-11-01T13:08:06.000Z</time>
      </trkpt>
      <trkpt lat="48.05269" lon="6.95977">
        <ele>1075.1999511719</ele>
        <time>2022-11-01T13:08:10.000Z</time>
      </trkpt>
      <trkpt lat="48.05271" lon="6.9598">
        <ele>1075.8000488281</ele>
        <time>2022-11-01T13:08:12.000Z</time>
      </trkpt>
      <trkpt lat="48.05273" lon="6.95984">
        <ele>1076.4000244141</ele>
        <time>2022-11-01T13:08:15.000Z</time>
      </trkpt>
      <trkpt lat="48.05274" lon="6.95986">
        <ele>1076.8000488281</ele>
        <time>2022-11-01T13:08:18.000Z</time>
      </trkpt>
      <trkpt lat="48.05277" lon="6.95987">
        <ele>1077.4000244141</ele>
        <time>2022-11-01T13:08:22.000Z</time>
      </trkpt>
      <trkpt lat="48.05279" lon="6.95989">
        <ele>1078</ele>
        <time>2022-11-01T13:08:24.000Z</time>
      </trkpt>
      <trkpt lat="48.05279" lon="6.95989">
        <ele>1078.5999755859</ele>
        <time>2022-11-01T13:08:28.000Z</time>
      </trkpt>
      <trkpt lat="48.0528" lon="6.95991">
        <ele>1078.8000488281</ele>
        <time>2022-11-01T13:08:31.000Z</time>
      </trkpt>
      <trkpt lat="48.05281" lon="6.95989">
        <ele>1078.8000488281</ele>
        <time>2022-11-01T13:08:36.000Z</time>
      </trkpt>
      <trkpt lat="48.05279" lon="6.95987">
        <ele>1078.8000488281</ele>
        <time>2022-11-01T13:08:43.000Z</time>
      </trkpt>
      <trkpt lat="48.05279" lon="6.95987">
        <ele>1079.5999755859</ele>
        <time>2022-11-01T13:08:52.000Z</time>
      </trkpt>
      <trkpt lat="48.0528" lon="6.95988">
        <ele>1080.8000488281</ele>
        <time>2022-11-01T13:08:58.000Z</time>
      </trkpt>
      <trkpt lat="48.05281" lon="6.95989">
        <ele>1081.8000488281</ele>
        <time>2022-11-01T13:09:02.000Z</time>
      </trkpt>
      <trkpt lat="48.05289" lon="6.9599">
        <ele>1083</ele>
        <time>2022-11-01T13:09:07.000Z</time>
      </trkpt>
      <trkpt lat="48.05294" lon="6.95991">
        <ele>1083.4000244141</ele>
        <time>2022-11-01T13:09:09.000Z</time>
      </trkpt>
      <trkpt lat="48.05299" lon="6.95993">
        <ele>1084</ele>
        <time>2022-11-01T13:09:12.000Z</time>
      </trkpt>
      <trkpt lat="48.05302" lon="6.95993">
        <ele>1085</ele>
        <time>2022-11-01T13:09:15.000Z</time>
      </trkpt>
      <trkpt lat="48.05302" lon="6.95993">
        <ele>1085.1999511719</ele>
        <time>2022-11-01T13:09:16.000Z</time>
      </trkpt>
      <trkpt lat="48.05301" lon="6.95994">
        <ele>1085.8000488281</ele>
        <time>2022-11-01T13:09:20.000Z</time>
      </trkpt>
      <trkpt lat="48.05301" lon="6.95995">
        <ele>1086</ele>
        <time>2022-11-01T13:09:21.000Z</time>
      </trkpt>
      <trkpt lat="48.05301" lon="6.95997">
        <ele>1086.1999511719</ele>
        <time>2022-11-01T13:09:25.000Z</time>
      </trkpt>
      <trkpt lat="48.05301" lon="6.95997">
        <ele>1086.1999511719</ele>
        <time>2022-11-01T13:09:37.000Z</time>
      </trkpt>
      <trkpt lat="48.05301" lon="6.96">
        <ele>1086</ele>
        <time>2022-11-01T13:09:41.000Z</time>
      </trkpt>
      <trkpt lat="48.05301" lon="6.96002">
        <ele>1085.8000488281</ele>
        <time>2022-11-01T13:09:45.000Z</time>
      </trkpt>
      <trkpt lat="48.05302" lon="6.96006">
        <ele>1085.8000488281</ele>
        <time>2022-11-01T13:09:50.000Z</time>
      </trkpt>
      <trkpt lat="48.05303" lon="6.96007">
        <ele>1085.8000488281</ele>
        <time>2022-11-01T13:09:52.000Z</time>
      </trkpt>
      <trkpt lat="48.05304" lon="6.96009">
        <ele>1086</ele>
        <time>2022-11-01T13:09:56.000Z</time>
      </trkpt>
      <trkpt lat="48.05306" lon="6.96015">
        <ele>1086.1999511719</ele>
        <time>2022-11-01T13:10:15.000Z</time>
      </trkpt>
      <trkpt lat="48.05306" lon="6.96015">
        <ele>1086.4000244141</ele>
        <time>2022-11-01T13:10:17.000Z</time>
      </trkpt>
      <trkpt lat="48.05307" lon="6.96014">
        <ele>1087.4000244141</ele>
        <time>2022-11-01T13:10:22.000Z</time>
      </trkpt>
      <trkpt lat="48.05311" lon="6.96012">
        <ele>1087.8000488281</ele>
        <time>2022-11-01T13:10:25.000Z</time>
      </trkpt>
      <trkpt lat="48.05312" lon="6.96011">
        <ele>1088</ele>
        <time>2022-11-01T13:10:26.000Z</time>
      </trkpt>
      <trkpt lat="48.05314" lon="6.9601">
        <ele>1088.4000244141</ele>
        <time>2022-11-01T13:10:28.000Z</time>
      </trkpt>
      <trkpt lat="48.05319" lon="6.96006">
        <ele>1089</ele>
        <time>2022-11-01T13:10:31.000Z</time>
      </trkpt>
      <trkpt lat="48.0532" lon="6.96003">
        <ele>1089.4000244141</ele>
        <time>2022-11-01T13:10:33.000Z</time>
      </trkpt>
      <trkpt lat="48.0532" lon="6.95999">
        <ele>1090.1999511719</ele>
        <time>2022-11-01T13:10:37.000Z</time>
      </trkpt>
      <trkpt lat="48.05321" lon="6.95997">
        <ele>1090.5999755859</ele>
        <time>2022-11-01T13:10:40.000Z</time>
      </trkpt>
      <trkpt lat="48.05322" lon="6.95997">
        <ele>1090.8000488281</ele>
        <time>2022-11-01T13:10:41.000Z</time>
      </trkpt>
      <trkpt lat="48.05322" lon="6.95997">
        <ele>1091</ele>
        <time>2022-11-01T13:10:42.000Z</time>
      </trkpt>
      <trkpt lat="48.05323" lon="6.95997">
        <ele>1091.1999511719</ele>
        <time>2022-11-01T13:10:43.000Z</time>
      </trkpt>
      <trkpt lat="48.05324" lon="6.95995">
        <ele>1091.5999755859</ele>
        <time>2022-11-01T13:10:46.000Z</time>
      </trkpt>
      <trkpt lat="48.05328" lon="6.95991">
        <ele>1092.8000488281</ele>
        <time>2022-11-01T13:10:53.000Z</time>
      </trkpt>
      <trkpt lat="48.05332" lon="6.9599">
        <ele>1093.5999755859</ele>
        <time>2022-11-01T13:10:58.000Z</time>
      </trkpt>
      <trkpt lat="48.05334" lon="6.95991">
        <ele>1094</ele>
        <time>2022-11-01T13:11:01.000Z</time>
      </trkpt>
      <trkpt lat="48.05335" lon="6.9599">
        <ele>1094</ele>
        <time>2022-11-01T13:11:02.000Z</time>
      </trkpt>
      <trkpt lat="48.0534" lon="6.95991">
        <ele>1094.4000244141</ele>
        <time>2022-11-01T13:11:08.000Z</time>
      </trkpt>
      <trkpt lat="48.05339" lon="6.95992">
        <ele>1094.4000244141</ele>
        <time>2022-11-01T13:11:10.000Z</time>
      </trkpt>
      <trkpt lat="48.05338" lon="6.95992">
        <ele>1094.4000244141</ele>
        <time>2022-11-01T13:11:11.000Z</time>
      </trkpt>
      <trkpt lat="48.05337" lon="6.95992">
        <ele>1094.4000244141</ele>
        <time>2022-11-01T13:11:13.000Z</time>
      </trkpt>
      <trkpt lat="48.05341" lon="6.95992">
        <ele>1094.5999755859</ele>
        <time>2022-11-01T13:11:21.000Z</time>
      </trkpt>
      <trkpt lat="48.05341" lon="6.95994">
        <ele>1094.5999755859</ele>
        <time>2022-11-01T13:11:24.000Z</time>
      </trkpt>
      <trkpt lat="48.05341" lon="6.95994">
        <ele>1094.5999755859</ele>
        <time>2022-11-01T13:11:28.000Z</time>
      </trkpt>
      <trkpt lat="48.05341" lon="6.95994">
        <ele>1094.8000488281</ele>
        <time>2022-11-01T13:11:36.000Z</time>
      </trkpt>
      <trkpt lat="48.0534" lon="6.95994">
        <ele>1094.8000488281</ele>
        <time>2022-11-01T13:11:39.000Z</time>
      </trkpt>
      <trkpt lat="48.0534" lon="6.95993">
        <ele>1094.8000488281</ele>
        <time>2022-11-01T13:11:44.000Z</time>
      </trkpt>
      <trkpt lat="48.0534" lon="6.95993">
        <ele>1095</ele>
        <time>2022-11-01T13:11:45.000Z</time>
      </trkpt>
      <trkpt lat="48.05342" lon="6.95989">
        <ele>1094</ele>
        <time>2022-11-01T13:12:00.000Z</time>
      </trkpt>
      <trkpt lat="48.05343" lon="6.95989">
        <ele>1093.8000488281</ele>
        <time>2022-11-01T13:12:01.000Z</time>
      </trkpt>
      <trkpt lat="48.05349" lon="6.95987">
        <ele>1093.1999511719</ele>
        <time>2022-11-01T13:12:07.000Z</time>
      </trkpt>
      <trkpt lat="48.05354" lon="6.95986">
        <ele>1092.8000488281</ele>
        <time>2022-11-01T13:12:10.000Z</time>
      </trkpt>
      <trkpt lat="48.05356" lon="6.95984">
        <ele>1092.5999755859</ele>
        <time>2022-11-01T13:12:13.000Z</time>
      </trkpt>
      <trkpt lat="48.05355" lon="6.95984">
        <ele>1092.5999755859</ele>
        <time>2022-11-01T13:12:21.000Z</time>
      </trkpt>
      <trkpt lat="48.05354" lon="6.95982">
        <ele>1092.5999755859</ele>
        <time>2022-11-01T13:12:27.000Z</time>
      </trkpt>
      <trkpt lat="48.05357" lon="6.9598">
        <ele>1092.5999755859</ele>
        <time>2022-11-01T13:12:32.000Z</time>
      </trkpt>
      <trkpt lat="48.05359" lon="6.95982">
        <ele>1092.5999755859</ele>
        <time>2022-11-01T13:12:38.000Z</time>
      </trkpt>
      <trkpt lat="48.05361" lon="6.95982">
        <ele>1092.4000244141</ele>
        <time>2022-11-01T13:12:44.000Z</time>
      </trkpt>
      <trkpt lat="48.05361" lon="6.9598">
        <ele>1092.8000488281</ele>
        <time>2022-11-01T13:12:56.000Z</time>
      </trkpt>
      <trkpt lat="48.05361" lon="6.95982">
        <ele>1092.8000488281</ele>
        <time>2022-11-01T13:13:06.000Z</time>
      </trkpt>
      <trkpt lat="48.05366" lon="6.95989">
        <ele>1092.8000488281</ele>
        <time>2022-11-01T13:13:26.000Z</time>
      </trkpt>
      <trkpt lat="48.05366" lon="6.95989">
        <ele>1092</ele>
        <time>2022-11-01T13:13:42.000Z</time>
      </trkpt>
      <trkpt lat="48.05366" lon="6.95988">
        <ele>1092.4000244141</ele>
        <time>2022-11-01T13:13:50.000Z</time>
      </trkpt>
      <trkpt lat="48.05365" lon="6.95984">
        <ele>1092.5999755859</ele>
        <time>2022-11-01T13:14:10.000Z</time>
      </trkpt>
      <trkpt lat="48.05366" lon="6.95982">
        <ele>1092.4000244141</ele>
        <time>2022-11-01T13:14:21.000Z</time>
      </trkpt>
      <trkpt lat="48.05366" lon="6.95981">
        <ele>1091.8000488281</ele>
        <time>2022-11-01T13:14:34.000Z</time>
      </trkpt>
      <trkpt lat="48.05367" lon="6.95966">
        <ele>1092</ele>
        <time>2022-11-01T13:15:07.000Z</time>
      </trkpt>
      <trkpt lat="48.05367" lon="6.95965">
        <ele>1092</ele>
        <time>2022-11-01T13:15:12.000Z</time>
      </trkpt>
      <trkpt lat="48.05367" lon="6.95964">
        <ele>1092</ele>
        <time>2022-11-01T13:15:15.000Z</time>
      </trkpt>
      <trkpt lat="48.05367" lon="6.95962">
        <ele>1092</ele>
        <time>2022-11-01T13:15:18.000Z</time>
      </trkpt>
      <trkpt lat="48.05366" lon="6.95961">
        <ele>1092</ele>
        <time>2022-11-01T13:15:23.000Z</time>
      </trkpt>
      <trkpt lat="48.05364" lon="6.95955">
        <ele>1083.5999755859</ele>
        <time>2022-11-01T13:15:36.000Z</time>
      </trkpt>
      <trkpt lat="48.05361" lon="6.95951">
        <ele>1083.5999755859</ele>
        <time>2022-11-01T13:15:40.000Z</time>
      </trkpt>
      <trkpt lat="48.05355" lon="6.95946">
        <ele>1083</ele>
        <time>2022-11-01T13:15:45.000Z</time>
      </trkpt>
      <trkpt lat="48.05351" lon="6.95942">
        <ele>1082.4000244141</ele>
        <time>2022-11-01T13:15:53.000Z</time>
      </trkpt>
      <trkpt lat="48.05351" lon="6.9594">
        <ele>1082.1999511719</ele>
        <time>2022-11-01T13:15:55.000Z</time>
      </trkpt>
      <trkpt lat="48.05352" lon="6.95937">
        <ele>1081.4000244141</ele>
        <time>2022-11-01T13:15:59.000Z</time>
      </trkpt>
      <trkpt lat="48.05354" lon="6.95938">
        <ele>1081.1999511719</ele>
        <time>2022-11-01T13:16:03.000Z</time>
      </trkpt>
      <trkpt lat="48.05354" lon="6.95938">
        <ele>1081.5999755859</ele>
        <time>2022-11-01T13:16:12.000Z</time>
      </trkpt>
      <trkpt lat="48.05354" lon="6.95938">
        <ele>1080.4000244141</ele>
        <time>2022-11-01T13:16:25.000Z</time>
      </trkpt>
      <trkpt lat="48.05354" lon="6.95938">
        <ele>1079.1999511719</ele>
        <time>2022-11-01T13:16:32.000Z</time>
      </trkpt>
      <trkpt lat="48.05353" lon="6.95937">
        <ele>1078.5999755859</ele>
        <time>2022-11-01T13:16:39.000Z</time>
      </trkpt>
      <trkpt lat="48.05353" lon="6.95936">
        <ele>1078.1999511719</ele>
        <time>2022-11-01T13:16:43.000Z</time>
      </trkpt>
      <trkpt lat="48.05353" lon="6.95935">
        <ele>1077</ele>
        <time>2022-11-01T13:16:48.000Z</time>
      </trkpt>
      <trkpt lat="48.05353" lon="6.95935">
        <ele>1076</ele>
        <time>2022-11-01T13:16:51.000Z</time>
      </trkpt>
      <trkpt lat="48.05354" lon="6.95929">
        <ele>1074.8000488281</ele>
        <time>2022-11-01T13:16:54.000Z</time>
      </trkpt>
      <trkpt lat="48.05355" lon="6.95925">
        <ele>1074.4000244141</ele>
        <time>2022-11-01T13:16:56.000Z</time>
      </trkpt>
      <trkpt lat="48.05354" lon="6.9592">
        <ele>1073.8000488281</ele>
        <time>2022-11-01T13:16:59.000Z</time>
      </trkpt>
      <trkpt lat="48.05353" lon="6.95916">
        <ele>1073.1999511719</ele>
        <time>2022-11-01T13:17:01.000Z</time>
      </trkpt>
      <trkpt lat="48.05351" lon="6.95916">
        <ele>1072.5999755859</ele>
        <time>2022-11-01T13:17:04.000Z</time>
      </trkpt>
      <trkpt lat="48.05349" lon="6.95915">
        <ele>1072</ele>
        <time>2022-11-01T13:17:08.000Z</time>
      </trkpt>
      <trkpt lat="48.05346" lon="6.95911">
        <ele>1071.4000244141</ele>
        <time>2022-11-01T13:17:11.000Z</time>
      </trkpt>
      <trkpt lat="48.05342" lon="6.95908">
        <ele>1070.4000244141</ele>
        <time>2022-11-01T13:17:15.000Z</time>
      </trkpt>
      <trkpt lat="48.05341" lon="6.95907">
        <ele>1070.1999511719</ele>
        <time>2022-11-01T13:17:16.000Z</time>
      </trkpt>
      <trkpt lat="48.0534" lon="6.95906">
        <ele>1070</ele>
        <time>2022-11-01T13:17:17.000Z</time>
      </trkpt>
      <trkpt lat="48.0534" lon="6.95903">
        <ele>1069.1999511719</ele>
        <time>2022-11-01T13:17:21.000Z</time>
      </trkpt>
      <trkpt lat="48.05341" lon="6.95893">
        <ele>1068.4000244141</ele>
        <time>2022-11-01T13:17:27.000Z</time>
      </trkpt>
      <trkpt lat="48.05341" lon="6.95892">
        <ele>1068.1999511719</ele>
        <time>2022-11-01T13:17:28.000Z</time>
      </trkpt>
      <trkpt lat="48.05342" lon="6.9589">
        <ele>1067.8000488281</ele>
        <time>2022-11-01T13:17:31.000Z</time>
      </trkpt>
      <trkpt lat="48.05339" lon="6.95894">
        <ele>1067.1999511719</ele>
        <time>2022-11-01T13:17:38.000Z</time>
      </trkpt>
      <trkpt lat="48.05339" lon="6.95895">
        <ele>1067.1999511719</ele>
        <time>2022-11-01T13:17:40.000Z</time>
      </trkpt>
      <trkpt lat="48.05339" lon="6.95894">
        <ele>1066</ele>
        <time>2022-11-01T13:17:56.000Z</time>
      </trkpt>
      <trkpt lat="48.05336" lon="6.95886">
        <ele>1065</ele>
        <time>2022-11-01T13:18:01.000Z</time>
      </trkpt>
      <trkpt lat="48.05335" lon="6.95884">
        <ele>1064.8000488281</ele>
        <time>2022-11-01T13:18:02.000Z</time>
      </trkpt>
      <trkpt lat="48.05331" lon="6.9588">
        <ele>1064.1999511719</ele>
        <time>2022-11-01T13:18:05.000Z</time>
      </trkpt>
      <trkpt lat="48.05331" lon="6.95875">
        <ele>1064</ele>
        <time>2022-11-01T13:18:09.000Z</time>
      </trkpt>
      <trkpt lat="48.05331" lon="6.95874">
        <ele>1063.8000488281</ele>
        <time>2022-11-01T13:18:11.000Z</time>
      </trkpt>
      <trkpt lat="48.0533" lon="6.9587">
        <ele>1063.1999511719</ele>
        <time>2022-11-01T13:18:18.000Z</time>
      </trkpt>
      <trkpt lat="48.05329" lon="6.95869">
        <ele>1063.1999511719</ele>
        <time>2022-11-01T13:18:23.000Z</time>
      </trkpt>
      <trkpt lat="48.05329" lon="6.95868">
        <ele>1063.1999511719</ele>
        <time>2022-11-01T13:18:24.000Z</time>
      </trkpt>
      <trkpt lat="48.05327" lon="6.95864">
        <ele>1062.8000488281</ele>
        <time>2022-11-01T13:18:28.000Z</time>
      </trkpt>
      <trkpt lat="48.05326" lon="6.95862">
        <ele>1062.4000244141</ele>
        <time>2022-11-01T13:18:30.000Z</time>
      </trkpt>
      <trkpt lat="48.05321" lon="6.95855">
        <ele>1062</ele>
        <time>2022-11-01T13:18:37.000Z</time>
      </trkpt>
      <trkpt lat="48.05319" lon="6.95852">
        <ele>1061.8000488281</ele>
        <time>2022-11-01T13:18:40.000Z</time>
      </trkpt>
      <trkpt lat="48.0532" lon="6.95851">
        <ele>1061.5999755859</ele>
        <time>2022-11-01T13:18:41.000Z</time>
      </trkpt>
      <trkpt lat="48.05318" lon="6.95849">
        <ele>1061.4000244141</ele>
        <time>2022-11-01T13:18:43.000Z</time>
      </trkpt>
      <trkpt lat="48.05312" lon="6.95844">
        <ele>1061.1999511719</ele>
        <time>2022-11-01T13:18:48.000Z</time>
      </trkpt>
      <trkpt lat="48.05312" lon="6.95844">
        <ele>1061</ele>
        <time>2022-11-01T13:18:49.000Z</time>
      </trkpt>
      <trkpt lat="48.05305" lon="6.95839">
        <ele>1061.1999511719</ele>
        <time>2022-11-01T13:18:55.000Z</time>
      </trkpt>
      <trkpt lat="48.05302" lon="6.95836">
        <ele>1061.1999511719</ele>
        <time>2022-11-01T13:18:58.000Z</time>
      </trkpt>
      <trkpt lat="48.053" lon="6.95829">
        <ele>1061</ele>
        <time>2022-11-01T13:19:01.000Z</time>
      </trkpt>
      <trkpt lat="48.053" lon="6.95827">
        <ele>1061</ele>
        <time>2022-11-01T13:19:02.000Z</time>
      </trkpt>
      <trkpt lat="48.053" lon="6.95826">
        <ele>1060.8000488281</ele>
        <time>2022-11-01T13:19:03.000Z</time>
      </trkpt>
      <trkpt lat="48.053" lon="6.95824">
        <ele>1061</ele>
        <time>2022-11-01T13:19:04.000Z</time>
      </trkpt>
      <trkpt lat="48.05302" lon="6.95819">
        <ele>1061.1999511719</ele>
        <time>2022-11-01T13:19:07.000Z</time>
      </trkpt>
      <trkpt lat="48.05303" lon="6.95818">
        <ele>1061.1999511719</ele>
        <time>2022-11-01T13:19:08.000Z</time>
      </trkpt>
      <trkpt lat="48.05306" lon="6.95815">
        <ele>1062</ele>
        <time>2022-11-01T13:19:14.000Z</time>
      </trkpt>
      <trkpt lat="48.05306" lon="6.95815">
        <ele>1062.1999511719</ele>
        <time>2022-11-01T13:19:15.000Z</time>
      </trkpt>
      <trkpt lat="48.05308" lon="6.95813">
        <ele>1062.1999511719</ele>
        <time>2022-11-01T13:19:19.000Z</time>
      </trkpt>
      <trkpt lat="48.05311" lon="6.9581">
        <ele>1062.1999511719</ele>
        <time>2022-11-01T13:19:21.000Z</time>
      </trkpt>
      <trkpt lat="48.05312" lon="6.95809">
        <ele>1062.1999511719</ele>
        <time>2022-11-01T13:19:22.000Z</time>
      </trkpt>
      <trkpt lat="48.05314" lon="6.95806">
        <ele>1062.4000244141</ele>
        <time>2022-11-01T13:19:25.000Z</time>
      </trkpt>
      <trkpt lat="48.05316" lon="6.95803">
        <ele>1062.5999755859</ele>
        <time>2022-11-01T13:19:28.000Z</time>
      </trkpt>
      <trkpt lat="48.05317" lon="6.95802">
        <ele>1062.8000488281</ele>
        <time>2022-11-01T13:19:30.000Z</time>
      </trkpt>
      <trkpt lat="48.0532" lon="6.95798">
        <ele>1063.1999511719</ele>
        <time>2022-11-01T13:19:34.000Z</time>
      </trkpt>
      <trkpt lat="48.05321" lon="6.95797">
        <ele>1063.1999511719</ele>
        <time>2022-11-01T13:19:36.000Z</time>
      </trkpt>
      <trkpt lat="48.05323" lon="6.95795">
        <ele>1063.5999755859</ele>
        <time>2022-11-01T13:19:39.000Z</time>
      </trkpt>
      <trkpt lat="48.05324" lon="6.95793">
        <ele>1063.8000488281</ele>
        <time>2022-11-01T13:19:41.000Z</time>
      </trkpt>
      <trkpt lat="48.05326" lon="6.95791">
        <ele>1063.8000488281</ele>
        <time>2022-11-01T13:19:43.000Z</time>
      </trkpt>
      <trkpt lat="48.05329" lon="6.95788">
        <ele>1063.8000488281</ele>
        <time>2022-11-01T13:19:46.000Z</time>
      </trkpt>
      <trkpt lat="48.0533" lon="6.95783">
        <ele>1064.4000244141</ele>
        <time>2022-11-01T13:19:52.000Z</time>
      </trkpt>
      <trkpt lat="48.05331" lon="6.95779">
        <ele>1064.8000488281</ele>
        <time>2022-11-01T13:19:55.000Z</time>
      </trkpt>
      <trkpt lat="48.05335" lon="6.95775">
        <ele>1065.1999511719</ele>
        <time>2022-11-01T13:20:00.000Z</time>
      </trkpt>
      <trkpt lat="48.05337" lon="6.95774">
        <ele>1065.1999511719</ele>
        <time>2022-11-01T13:20:01.000Z</time>
      </trkpt>
      <trkpt lat="48.05338" lon="6.95774">
        <ele>1065.1999511719</ele>
        <time>2022-11-01T13:20:02.000Z</time>
      </trkpt>
      <trkpt lat="48.05341" lon="6.9577">
        <ele>1065.5999755859</ele>
        <time>2022-11-01T13:20:05.000Z</time>
      </trkpt>
      <trkpt lat="48.05343" lon="6.95766">
        <ele>1065.5999755859</ele>
        <time>2022-11-01T13:20:08.000Z</time>
      </trkpt>
      <trkpt lat="48.05343" lon="6.95764">
        <ele>1065.5999755859</ele>
        <time>2022-11-01T13:20:09.000Z</time>
      </trkpt>
      <trkpt lat="48.05344" lon="6.95763">
        <ele>1065.8000488281</ele>
        <time>2022-11-01T13:20:10.000Z</time>
      </trkpt>
      <trkpt lat="48.05345" lon="6.95762">
        <ele>1065.8000488281</ele>
        <time>2022-11-01T13:20:11.000Z</time>
      </trkpt>
      <trkpt lat="48.05346" lon="6.95762">
        <ele>1065.8000488281</ele>
        <time>2022-11-01T13:20:12.000Z</time>
      </trkpt>
      <trkpt lat="48.05347" lon="6.95761">
        <ele>1065.8000488281</ele>
        <time>2022-11-01T13:20:13.000Z</time>
      </trkpt>
      <trkpt lat="48.0535" lon="6.9576">
        <ele>1066.1999511719</ele>
        <time>2022-11-01T13:20:16.000Z</time>
      </trkpt>
      <trkpt lat="48.05351" lon="6.95759">
        <ele>1066.5999755859</ele>
        <time>2022-11-01T13:20:18.000Z</time>
      </trkpt>
      <trkpt lat="48.05352" lon="6.9576">
        <ele>1066.8000488281</ele>
        <time>2022-11-01T13:20:21.000Z</time>
      </trkpt>
      <trkpt lat="48.05352" lon="6.9576">
        <ele>1067</ele>
        <time>2022-11-01T13:20:24.000Z</time>
      </trkpt>
      <trkpt lat="48.05352" lon="6.9576">
        <ele>1067</ele>
        <time>2022-11-01T13:20:25.000Z</time>
      </trkpt>
      <trkpt lat="48.05352" lon="6.95761">
        <ele>1067.1999511719</ele>
        <time>2022-11-01T13:20:29.000Z</time>
      </trkpt>
      <trkpt lat="48.05352" lon="6.95761">
        <ele>1067.1999511719</ele>
        <time>2022-11-01T13:20:42.000Z</time>
      </trkpt>
      <trkpt lat="48.05355" lon="6.95758">
        <ele>1067.5999755859</ele>
        <time>2022-11-01T13:20:47.000Z</time>
      </trkpt>
      <trkpt lat="48.05357" lon="6.95755">
        <ele>1067.8000488281</ele>
        <time>2022-11-01T13:20:49.000Z</time>
      </trkpt>
      <trkpt lat="48.05361" lon="6.9575">
        <ele>1068.4000244141</ele>
        <time>2022-11-01T13:20:54.000Z</time>
      </trkpt>
      <trkpt lat="48.05366" lon="6.95745">
        <ele>1068.8000488281</ele>
        <time>2022-11-01T13:21:00.000Z</time>
      </trkpt>
      <trkpt lat="48.05367" lon="6.95745">
        <ele>1069</ele>
        <time>2022-11-01T13:21:01.000Z</time>
      </trkpt>
      <trkpt lat="48.05376" lon="6.9574">
        <ele>1069.5999755859</ele>
        <time>2022-11-01T13:21:11.000Z</time>
      </trkpt>
      <trkpt lat="48.0538" lon="6.95738">
        <ele>1069.8000488281</ele>
        <time>2022-11-01T13:21:15.000Z</time>
      </trkpt>
      <trkpt lat="48.05384" lon="6.95736">
        <ele>1070</ele>
        <time>2022-11-01T13:21:19.000Z</time>
      </trkpt>
      <trkpt lat="48.05385" lon="6.95735">
        <ele>1070</ele>
        <time>2022-11-01T13:21:21.000Z</time>
      </trkpt>
      <trkpt lat="48.05389" lon="6.95733">
        <ele>1070</ele>
        <time>2022-11-01T13:21:25.000Z</time>
      </trkpt>
      <trkpt lat="48.05389" lon="6.95735">
        <ele>1070</ele>
        <time>2022-11-01T13:21:30.000Z</time>
      </trkpt>
      <trkpt lat="48.05389" lon="6.95736">
        <ele>1070</ele>
        <time>2022-11-01T13:21:31.000Z</time>
      </trkpt>
      <trkpt lat="48.05388" lon="6.95736">
        <ele>1070</ele>
        <time>2022-11-01T13:21:41.000Z</time>
      </trkpt>
      <trkpt lat="48.05388" lon="6.95737">
        <ele>1069.5999755859</ele>
        <time>2022-11-01T13:21:51.000Z</time>
      </trkpt>
      <trkpt lat="48.05388" lon="6.95737">
        <ele>1069.4000244141</ele>
        <time>2022-11-01T13:21:58.000Z</time>
      </trkpt>
      <trkpt lat="48.05388" lon="6.95738">
        <ele>1069.4000244141</ele>
        <time>2022-11-01T13:22:00.000Z</time>
      </trkpt>
      <trkpt lat="48.05388" lon="6.95738">
        <ele>1069.4000244141</ele>
        <time>2022-11-01T13:22:02.000Z</time>
      </trkpt>
      <trkpt lat="48.05394" lon="6.95735">
        <ele>1070.8000488281</ele>
        <time>2022-11-01T13:22:20.000Z</time>
      </trkpt>
      <trkpt lat="48.05394" lon="6.95732">
        <ele>1070.8000488281</ele>
        <time>2022-11-01T13:22:21.000Z</time>
      </trkpt>
      <trkpt lat="48.05395" lon="6.95727">
        <ele>1071.1999511719</ele>
        <time>2022-11-01T13:22:23.000Z</time>
      </trkpt>
      <trkpt lat="48.05401" lon="6.9571">
        <ele>1072</ele>
        <time>2022-11-01T13:22:29.000Z</time>
      </trkpt>
      <trkpt lat="48.05403" lon="6.95708">
        <ele>1072.1999511719</ele>
        <time>2022-11-01T13:22:31.000Z</time>
      </trkpt>
      <trkpt lat="48.05405" lon="6.95702">
        <ele>1072.4000244141</ele>
        <time>2022-11-01T13:22:37.000Z</time>
      </trkpt>
      <trkpt lat="48.05409" lon="6.95699">
        <ele>1072.8000488281</ele>
        <time>2022-11-01T13:22:44.000Z</time>
      </trkpt>
      <trkpt lat="48.0541" lon="6.95698">
        <ele>1073</ele>
        <time>2022-11-01T13:22:45.000Z</time>
      </trkpt>
      <trkpt lat="48.05412" lon="6.95691">
        <ele>1073.8000488281</ele>
        <time>2022-11-01T13:22:50.000Z</time>
      </trkpt>
      <trkpt lat="48.05413" lon="6.95689">
        <ele>1074</ele>
        <time>2022-11-01T13:22:51.000Z</time>
      </trkpt>
      <trkpt lat="48.05413" lon="6.95688">
        <ele>1074</ele>
        <time>2022-11-01T13:22:52.000Z</time>
      </trkpt>
      <trkpt lat="48.05415" lon="6.95678">
        <ele>1074.8000488281</ele>
        <time>2022-11-01T13:22:57.000Z</time>
      </trkpt>
      <trkpt lat="48.05416" lon="6.95669">
        <ele>1075.1999511719</ele>
        <time>2022-11-01T13:23:01.000Z</time>
      </trkpt>
      <trkpt lat="48.05417" lon="6.95664">
        <ele>1075.1999511719</ele>
        <time>2022-11-01T13:23:04.000Z</time>
      </trkpt>
      <trkpt lat="48.05418" lon="6.95662">
        <ele>1075.1999511719</ele>
        <time>2022-11-01T13:23:05.000Z</time>
      </trkpt>
      <trkpt lat="48.05419" lon="6.9566">
        <ele>1075.4000244141</ele>
        <time>2022-11-01T13:23:10.000Z</time>
      </trkpt>
      <trkpt lat="48.05423" lon="6.95654">
        <ele>1075.5999755859</ele>
        <time>2022-11-01T13:23:18.000Z</time>
      </trkpt>
      <trkpt lat="48.05424" lon="6.95651">
        <ele>1075.8000488281</ele>
        <time>2022-11-01T13:23:20.000Z</time>
      </trkpt>
      <trkpt lat="48.05425" lon="6.95648">
        <ele>1076.1999511719</ele>
        <time>2022-11-01T13:23:22.000Z</time>
      </trkpt>
      <trkpt lat="48.05426" lon="6.95647">
        <ele>1076.4000244141</ele>
        <time>2022-11-01T13:23:24.000Z</time>
      </trkpt>
      <trkpt lat="48.05428" lon="6.95641">
        <ele>1077</ele>
        <time>2022-11-01T13:23:29.000Z</time>
      </trkpt>
      <trkpt lat="48.05429" lon="6.95638">
        <ele>1077.1999511719</ele>
        <time>2022-11-01T13:23:31.000Z</time>
      </trkpt>
      <trkpt lat="48.05433" lon="6.95631">
        <ele>1077.5999755859</ele>
        <time>2022-11-01T13:23:35.000Z</time>
      </trkpt>
      <trkpt lat="48.05434" lon="6.95625">
        <ele>1078.4000244141</ele>
        <time>2022-11-01T13:23:39.000Z</time>
      </trkpt>
      <trkpt lat="48.05434" lon="6.95622">
        <ele>1078.5999755859</ele>
        <time>2022-11-01T13:23:40.000Z</time>
      </trkpt>
      <trkpt lat="48.05438" lon="6.95616">
        <ele>1079.1999511719</ele>
        <time>2022-11-01T13:23:46.000Z</time>
      </trkpt>
      <trkpt lat="48.0544" lon="6.95615">
        <ele>1079.4000244141</ele>
        <time>2022-11-01T13:23:48.000Z</time>
      </trkpt>
      <trkpt lat="48.05446" lon="6.95616">
        <ele>1079.5999755859</ele>
        <time>2022-11-01T13:23:52.000Z</time>
      </trkpt>
      <trkpt lat="48.05448" lon="6.95615">
        <ele>1079.5999755859</ele>
        <time>2022-11-01T13:23:54.000Z</time>
      </trkpt>
      <trkpt lat="48.05449" lon="6.95614">
        <ele>1079.5999755859</ele>
        <time>2022-11-01T13:23:55.000Z</time>
      </trkpt>
      <trkpt lat="48.05452" lon="6.9561">
        <ele>1080</ele>
        <time>2022-11-01T13:23:59.000Z</time>
      </trkpt>
      <trkpt lat="48.05453" lon="6.9561">
        <ele>1080.1999511719</ele>
        <time>2022-11-01T13:24:00.000Z</time>
      </trkpt>
      <trkpt lat="48.05454" lon="6.95609">
        <ele>1080.5999755859</ele>
        <time>2022-11-01T13:24:01.000Z</time>
      </trkpt>
      <trkpt lat="48.05454" lon="6.95608">
        <ele>1081.1999511719</ele>
        <time>2022-11-01T13:24:02.000Z</time>
      </trkpt>
      <trkpt lat="48.05455" lon="6.95608">
        <ele>1081.5999755859</ele>
        <time>2022-11-01T13:24:03.000Z</time>
      </trkpt>
      <trkpt lat="48.05455" lon="6.95607">
        <ele>1082.4000244141</ele>
        <time>2022-11-01T13:24:06.000Z</time>
      </trkpt>
      <trkpt lat="48.05456" lon="6.95612">
        <ele>1082</ele>
        <time>2022-11-01T13:24:11.000Z</time>
      </trkpt>
      <trkpt lat="48.05456" lon="6.95612">
        <ele>1081.5999755859</ele>
        <time>2022-11-01T13:24:18.000Z</time>
      </trkpt>
      <trkpt lat="48.05457" lon="6.95613">
        <ele>1081.1999511719</ele>
        <time>2022-11-01T13:24:36.000Z</time>
      </trkpt>
      <trkpt lat="48.05461" lon="6.95612">
        <ele>1080.8000488281</ele>
        <time>2022-11-01T13:24:39.000Z</time>
      </trkpt>
      <trkpt lat="48.05469" lon="6.95611">
        <ele>1080.5999755859</ele>
        <time>2022-11-01T13:24:44.000Z</time>
      </trkpt>
      <trkpt lat="48.0547" lon="6.95609">
        <ele>1080.4000244141</ele>
        <time>2022-11-01T13:24:46.000Z</time>
      </trkpt>
      <trkpt lat="48.05471" lon="6.95608">
        <ele>1080.4000244141</ele>
        <time>2022-11-01T13:24:50.000Z</time>
      </trkpt>
      <trkpt lat="48.05474" lon="6.95607">
        <ele>1080.4000244141</ele>
        <time>2022-11-01T13:24:53.000Z</time>
      </trkpt>
      <trkpt lat="48.05476" lon="6.95607">
        <ele>1080.1999511719</ele>
        <time>2022-11-01T13:24:55.000Z</time>
      </trkpt>
      <trkpt lat="48.05477" lon="6.95606">
        <ele>1080.1999511719</ele>
        <time>2022-11-01T13:24:56.000Z</time>
      </trkpt>
      <trkpt lat="48.0548" lon="6.95607">
        <ele>1079.8000488281</ele>
        <time>2022-11-01T13:24:59.000Z</time>
      </trkpt>
      <trkpt lat="48.05483" lon="6.95606">
        <ele>1079.4000244141</ele>
        <time>2022-11-01T13:25:01.000Z</time>
      </trkpt>
      <trkpt lat="48.05486" lon="6.95605">
        <ele>1079.1999511719</ele>
        <time>2022-11-01T13:25:03.000Z</time>
      </trkpt>
      <trkpt lat="48.05488" lon="6.95603">
        <ele>1079</ele>
        <time>2022-11-01T13:25:04.000Z</time>
      </trkpt>
      <trkpt lat="48.05494" lon="6.95598">
        <ele>1078.8000488281</ele>
        <time>2022-11-01T13:25:08.000Z</time>
      </trkpt>
      <trkpt lat="48.05499" lon="6.95596">
        <ele>1078.4000244141</ele>
        <time>2022-11-01T13:25:13.000Z</time>
      </trkpt>
      <trkpt lat="48.055" lon="6.95595">
        <ele>1078.4000244141</ele>
        <time>2022-11-01T13:25:15.000Z</time>
      </trkpt>
      <trkpt lat="48.05504" lon="6.95591">
        <ele>1078</ele>
        <time>2022-11-01T13:25:19.000Z</time>
      </trkpt>
      <trkpt lat="48.05507" lon="6.95588">
        <ele>1077.8000488281</ele>
        <time>2022-11-01T13:25:22.000Z</time>
      </trkpt>
      <trkpt lat="48.05514" lon="6.95584">
        <ele>1077.5999755859</ele>
        <time>2022-11-01T13:25:28.000Z</time>
      </trkpt>
      <trkpt lat="48.05516" lon="6.95577">
        <ele>1077.4000244141</ele>
        <time>2022-11-01T13:25:32.000Z</time>
      </trkpt>
      <trkpt lat="48.05518" lon="6.95573">
        <ele>1077.4000244141</ele>
        <time>2022-11-01T13:25:34.000Z</time>
      </trkpt>
      <trkpt lat="48.05519" lon="6.95572">
        <ele>1077.4000244141</ele>
        <time>2022-11-01T13:25:35.000Z</time>
      </trkpt>
      <trkpt lat="48.05524" lon="6.9557">
        <ele>1077</ele>
        <time>2022-11-01T13:25:40.000Z</time>
      </trkpt>
      <trkpt lat="48.05525" lon="6.95568">
        <ele>1076.4000244141</ele>
        <time>2022-11-01T13:25:43.000Z</time>
      </trkpt>
      <trkpt lat="48.05528" lon="6.95566">
        <ele>1076</ele>
        <time>2022-11-01T13:25:46.000Z</time>
      </trkpt>
      <trkpt lat="48.05532" lon="6.95569">
        <ele>1075.8000488281</ele>
        <time>2022-11-01T13:25:51.000Z</time>
      </trkpt>
      <trkpt lat="48.05533" lon="6.95575">
        <ele>1075.8000488281</ele>
        <time>2022-11-01T13:25:57.000Z</time>
      </trkpt>
      <trkpt lat="48.05539" lon="6.95574">
        <ele>1076</ele>
        <time>2022-11-01T13:26:02.000Z</time>
      </trkpt>
      <trkpt lat="48.05542" lon="6.95573">
        <ele>1076</ele>
        <time>2022-11-01T13:26:04.000Z</time>
      </trkpt>
      <trkpt lat="48.05547" lon="6.95572">
        <ele>1076</ele>
        <time>2022-11-01T13:26:08.000Z</time>
      </trkpt>
      <trkpt lat="48.05557" lon="6.95567">
        <ele>1075.5999755859</ele>
        <time>2022-11-01T13:26:15.000Z</time>
      </trkpt>
      <trkpt lat="48.05564" lon="6.95568">
        <ele>1076</ele>
        <time>2022-11-01T13:26:23.000Z</time>
      </trkpt>
      <trkpt lat="48.05574" lon="6.95569">
        <ele>1076</ele>
        <time>2022-11-01T13:26:31.000Z</time>
      </trkpt>
      <trkpt lat="48.05575" lon="6.9557">
        <ele>1076</ele>
        <time>2022-11-01T13:26:32.000Z</time>
      </trkpt>
      <trkpt lat="48.05584" lon="6.95573">
        <ele>1076.1999511719</ele>
        <time>2022-11-01T13:26:41.000Z</time>
      </trkpt>
      <trkpt lat="48.0559" lon="6.95576">
        <ele>1076.5999755859</ele>
        <time>2022-11-01T13:26:47.000Z</time>
      </trkpt>
      <trkpt lat="48.0559" lon="6.95576">
        <ele>1076.5999755859</ele>
        <time>2022-11-01T13:26:48.000Z</time>
      </trkpt>
      <trkpt lat="48.05595" lon="6.95576">
        <ele>1076.5999755859</ele>
        <time>2022-11-01T13:26:53.000Z</time>
      </trkpt>
      <trkpt lat="48.056" lon="6.95577">
        <ele>1076</ele>
        <time>2022-11-01T13:26:57.000Z</time>
      </trkpt>
      <trkpt lat="48.05603" lon="6.95577">
        <ele>1075.5999755859</ele>
        <time>2022-11-01T13:27:01.000Z</time>
      </trkpt>
      <trkpt lat="48.05609" lon="6.9558">
        <ele>1075.4000244141</ele>
        <time>2022-11-01T13:27:07.000Z</time>
      </trkpt>
      <trkpt lat="48.05612" lon="6.95581">
        <ele>1075</ele>
        <time>2022-11-01T13:27:10.000Z</time>
      </trkpt>
      <trkpt lat="48.05616" lon="6.95585">
        <ele>1074.5999755859</ele>
        <time>2022-11-01T13:27:14.000Z</time>
      </trkpt>
      <trkpt lat="48.05623" lon="6.95586">
        <ele>1074</ele>
        <time>2022-11-01T13:27:22.000Z</time>
      </trkpt>
      <trkpt lat="48.05624" lon="6.95587">
        <ele>1074</ele>
        <time>2022-11-01T13:27:24.000Z</time>
      </trkpt>
      <trkpt lat="48.05627" lon="6.9559">
        <ele>1073</ele>
        <time>2022-11-01T13:27:28.000Z</time>
      </trkpt>
      <trkpt lat="48.0563" lon="6.95592">
        <ele>1072.5999755859</ele>
        <time>2022-11-01T13:27:32.000Z</time>
      </trkpt>
      <trkpt lat="48.05632" lon="6.95592">
        <ele>1072.1999511719</ele>
        <time>2022-11-01T13:27:34.000Z</time>
      </trkpt>
      <trkpt lat="48.05633" lon="6.95592">
        <ele>1071.8000488281</ele>
        <time>2022-11-01T13:27:36.000Z</time>
      </trkpt>
      <trkpt lat="48.05635" lon="6.95592">
        <ele>1071.5999755859</ele>
        <time>2022-11-01T13:27:38.000Z</time>
      </trkpt>
      <trkpt lat="48.05636" lon="6.95592">
        <ele>1071.4000244141</ele>
        <time>2022-11-01T13:27:39.000Z</time>
      </trkpt>
      <trkpt lat="48.05639" lon="6.95593">
        <ele>1071</ele>
        <time>2022-11-01T13:27:42.000Z</time>
      </trkpt>
      <trkpt lat="48.05642" lon="6.95594">
        <ele>1070.8000488281</ele>
        <time>2022-11-01T13:27:45.000Z</time>
      </trkpt>
      <trkpt lat="48.05647" lon="6.95594">
        <ele>1070</ele>
        <time>2022-11-01T13:27:50.000Z</time>
      </trkpt>
      <trkpt lat="48.05649" lon="6.95593">
        <ele>1069.5999755859</ele>
        <time>2022-11-01T13:27:53.000Z</time>
      </trkpt>
      <trkpt lat="48.05655" lon="6.95592">
        <ele>1068.8000488281</ele>
        <time>2022-11-01T13:27:59.000Z</time>
      </trkpt>
      <trkpt lat="48.05656" lon="6.95591">
        <ele>1068.8000488281</ele>
        <time>2022-11-01T13:28:00.000Z</time>
      </trkpt>
      <trkpt lat="48.05657" lon="6.95591">
        <ele>1068.5999755859</ele>
        <time>2022-11-01T13:28:01.000Z</time>
      </trkpt>
      <trkpt lat="48.05663" lon="6.95584">
        <ele>1068.5999755859</ele>
        <time>2022-11-01T13:28:08.000Z</time>
      </trkpt>
      <trkpt lat="48.05663" lon="6.95583">
        <ele>1068.8000488281</ele>
        <time>2022-11-01T13:28:09.000Z</time>
      </trkpt>
      <trkpt lat="48.05663" lon="6.95582">
        <ele>1068.8000488281</ele>
        <time>2022-11-01T13:28:10.000Z</time>
      </trkpt>
      <trkpt lat="48.05664" lon="6.9558">
        <ele>1068.5999755859</ele>
        <time>2022-11-01T13:28:12.000Z</time>
      </trkpt>
      <trkpt lat="48.05669" lon="6.95571">
        <ele>1067.5999755859</ele>
        <time>2022-11-01T13:28:19.000Z</time>
      </trkpt>
      <trkpt lat="48.0567" lon="6.95569">
        <ele>1067.5999755859</ele>
        <time>2022-11-01T13:28:20.000Z</time>
      </trkpt>
      <trkpt lat="48.05672" lon="6.95567">
        <ele>1067.4000244141</ele>
        <time>2022-11-01T13:28:22.000Z</time>
      </trkpt>
      <trkpt lat="48.05675" lon="6.95564">
        <ele>1067</ele>
        <time>2022-11-01T13:28:25.000Z</time>
      </trkpt>
      <trkpt lat="48.05678" lon="6.9556">
        <ele>1066.4000244141</ele>
        <time>2022-11-01T13:28:28.000Z</time>
      </trkpt>
      <trkpt lat="48.05678" lon="6.95559">
        <ele>1066.4000244141</ele>
        <time>2022-11-01T13:28:29.000Z</time>
      </trkpt>
      <trkpt lat="48.05679" lon="6.95557">
        <ele>1066.1999511719</ele>
        <time>2022-11-01T13:28:31.000Z</time>
      </trkpt>
      <trkpt lat="48.05679" lon="6.95555">
        <ele>1066.1999511719</ele>
        <time>2022-11-01T13:28:32.000Z</time>
      </trkpt>
      <trkpt lat="48.05681" lon="6.95551">
        <ele>1066</ele>
        <time>2022-11-01T13:28:35.000Z</time>
      </trkpt>
      <trkpt lat="48.05683" lon="6.95552">
        <ele>1066.1999511719</ele>
        <time>2022-11-01T13:28:38.000Z</time>
      </trkpt>
      <trkpt lat="48.05687" lon="6.95544">
        <ele>1066.4000244141</ele>
        <time>2022-11-01T13:28:44.000Z</time>
      </trkpt>
      <trkpt lat="48.0569" lon="6.95541">
        <ele>1066.5999755859</ele>
        <time>2022-11-01T13:28:49.000Z</time>
      </trkpt>
      <trkpt lat="48.05692" lon="6.95539">
        <ele>1066.5999755859</ele>
        <time>2022-11-01T13:28:51.000Z</time>
      </trkpt>
      <trkpt lat="48.05692" lon="6.95537">
        <ele>1066.5999755859</ele>
        <time>2022-11-01T13:28:52.000Z</time>
      </trkpt>
      <trkpt lat="48.05692" lon="6.9553">
        <ele>1066.1999511719</ele>
        <time>2022-11-01T13:28:58.000Z</time>
      </trkpt>
      <trkpt lat="48.05692" lon="6.95528">
        <ele>1066.1999511719</ele>
        <time>2022-11-01T13:28:59.000Z</time>
      </trkpt>
      <trkpt lat="48.05693" lon="6.95526">
        <ele>1066</ele>
        <time>2022-11-01T13:29:01.000Z</time>
      </trkpt>
      <trkpt lat="48.05694" lon="6.95525">
        <ele>1066</ele>
        <time>2022-11-01T13:29:02.000Z</time>
      </trkpt>
      <trkpt lat="48.05694" lon="6.95523">
        <ele>1065.8000488281</ele>
        <time>2022-11-01T13:29:03.000Z</time>
      </trkpt>
      <trkpt lat="48.05695" lon="6.95519">
        <ele>1065.5999755859</ele>
        <time>2022-11-01T13:29:06.000Z</time>
      </trkpt>
      <trkpt lat="48.05696" lon="6.95518">
        <ele>1065.4000244141</ele>
        <time>2022-11-01T13:29:07.000Z</time>
      </trkpt>
      <trkpt lat="48.05699" lon="6.95506">
        <ele>1064.4000244141</ele>
        <time>2022-11-01T13:29:14.000Z</time>
      </trkpt>
      <trkpt lat="48.05703" lon="6.95498">
        <ele>1063.4000244141</ele>
        <time>2022-11-01T13:29:20.000Z</time>
      </trkpt>
      <trkpt lat="48.05708" lon="6.95489">
        <ele>1062.5999755859</ele>
        <time>2022-11-01T13:29:26.000Z</time>
      </trkpt>
      <trkpt lat="48.0571" lon="6.95487">
        <ele>1062.1999511719</ele>
        <time>2022-11-01T13:29:28.000Z</time>
      </trkpt>
      <trkpt lat="48.05714" lon="6.95477">
        <ele>1062</ele>
        <time>2022-11-01T13:29:34.000Z</time>
      </trkpt>
      <trkpt lat="48.05716" lon="6.95475">
        <ele>1061.8000488281</ele>
        <time>2022-11-01T13:29:36.000Z</time>
      </trkpt>
      <trkpt lat="48.05717" lon="6.95473">
        <ele>1061.8000488281</ele>
        <time>2022-11-01T13:29:38.000Z</time>
      </trkpt>
      <trkpt lat="48.05719" lon="6.9547">
        <ele>1061.5999755859</ele>
        <time>2022-11-01T13:29:40.000Z</time>
      </trkpt>
      <trkpt lat="48.0572" lon="6.95468">
        <ele>1061.5999755859</ele>
        <time>2022-11-01T13:29:42.000Z</time>
      </trkpt>
      <trkpt lat="48.05721" lon="6.95463">
        <ele>1061.4000244141</ele>
        <time>2022-11-01T13:29:46.000Z</time>
      </trkpt>
      <trkpt lat="48.05721" lon="6.95462">
        <ele>1061.1999511719</ele>
        <time>2022-11-01T13:29:47.000Z</time>
      </trkpt>
      <trkpt lat="48.05721" lon="6.95458">
        <ele>1061</ele>
        <time>2022-11-01T13:29:51.000Z</time>
      </trkpt>
      <trkpt lat="48.05719" lon="6.95452">
        <ele>1060</ele>
        <time>2022-11-01T13:29:57.000Z</time>
      </trkpt>
      <trkpt lat="48.05719" lon="6.95451">
        <ele>1060</ele>
        <time>2022-11-01T13:29:58.000Z</time>
      </trkpt>
      <trkpt lat="48.05719" lon="6.95449">
        <ele>1059.8000488281</ele>
        <time>2022-11-01T13:29:59.000Z</time>
      </trkpt>
      <trkpt lat="48.05718" lon="6.95445">
        <ele>1059.1999511719</ele>
        <time>2022-11-01T13:30:02.000Z</time>
      </trkpt>
      <trkpt lat="48.05717" lon="6.95444">
        <ele>1059</ele>
        <time>2022-11-01T13:30:03.000Z</time>
      </trkpt>
      <trkpt lat="48.05716" lon="6.95437">
        <ele>1058.4000244141</ele>
        <time>2022-11-01T13:30:06.000Z</time>
      </trkpt>
      <trkpt lat="48.05718" lon="6.9543">
        <ele>1058</ele>
        <time>2022-11-01T13:30:10.000Z</time>
      </trkpt>
      <trkpt lat="48.05719" lon="6.95427">
        <ele>1058</ele>
        <time>2022-11-01T13:30:12.000Z</time>
      </trkpt>
      <trkpt lat="48.0572" lon="6.95426">
        <ele>1058</ele>
        <time>2022-11-01T13:30:13.000Z</time>
      </trkpt>
      <trkpt lat="48.05721" lon="6.95424">
        <ele>1058</ele>
        <time>2022-11-01T13:30:14.000Z</time>
      </trkpt>
      <trkpt lat="48.05725" lon="6.95418">
        <ele>1057.8000488281</ele>
        <time>2022-11-01T13:30:19.000Z</time>
      </trkpt>
      <trkpt lat="48.05729" lon="6.9541">
        <ele>1057</ele>
        <time>2022-11-01T13:30:27.000Z</time>
      </trkpt>
      <trkpt lat="48.0573" lon="6.95402">
        <ele>1056.1999511719</ele>
        <time>2022-11-01T13:30:33.000Z</time>
      </trkpt>
      <trkpt lat="48.05732" lon="6.954">
        <ele>1055.8000488281</ele>
        <time>2022-11-01T13:30:36.000Z</time>
      </trkpt>
      <trkpt lat="48.05732" lon="6.95399">
        <ele>1055</ele>
        <time>2022-11-01T13:30:41.000Z</time>
      </trkpt>
      <trkpt lat="48.05731" lon="6.95396">
        <ele>1054.4000244141</ele>
        <time>2022-11-01T13:30:44.000Z</time>
      </trkpt>
      <trkpt lat="48.0573" lon="6.95394">
        <ele>1054</ele>
        <time>2022-11-01T13:30:47.000Z</time>
      </trkpt>
      <trkpt lat="48.0573" lon="6.95393">
        <ele>1053.4000244141</ele>
        <time>2022-11-01T13:30:50.000Z</time>
      </trkpt>
      <trkpt lat="48.0573" lon="6.95392">
        <ele>1052.5999755859</ele>
        <time>2022-11-01T13:30:54.000Z</time>
      </trkpt>
      <trkpt lat="48.05729" lon="6.9539">
        <ele>1052.1999511719</ele>
        <time>2022-11-01T13:30:56.000Z</time>
      </trkpt>
      <trkpt lat="48.05729" lon="6.95381">
        <ele>1051.4000244141</ele>
        <time>2022-11-01T13:31:02.000Z</time>
      </trkpt>
      <trkpt lat="48.05729" lon="6.95379">
        <ele>1051.1999511719</ele>
        <time>2022-11-01T13:31:03.000Z</time>
      </trkpt>
      <trkpt lat="48.0573" lon="6.95374">
        <ele>1050.5999755859</ele>
        <time>2022-11-01T13:31:07.000Z</time>
      </trkpt>
      <trkpt lat="48.05729" lon="6.9537">
        <ele>1050</ele>
        <time>2022-11-01T13:31:11.000Z</time>
      </trkpt>
      <trkpt lat="48.05729" lon="6.95369">
        <ele>1049.8000488281</ele>
        <time>2022-11-01T13:31:12.000Z</time>
      </trkpt>
      <trkpt lat="48.05729" lon="6.95363">
        <ele>1049.5999755859</ele>
        <time>2022-11-01T13:31:18.000Z</time>
      </trkpt>
      <trkpt lat="48.05729" lon="6.95362">
        <ele>1049.4000244141</ele>
        <time>2022-11-01T13:31:19.000Z</time>
      </trkpt>
      <trkpt lat="48.05729" lon="6.95352">
        <ele>1048.8000488281</ele>
        <time>2022-11-01T13:31:25.000Z</time>
      </trkpt>
      <trkpt lat="48.0573" lon="6.95352">
        <ele>1048.8000488281</ele>
        <time>2022-11-01T13:31:26.000Z</time>
      </trkpt>
      <trkpt lat="48.05734" lon="6.95351">
        <ele>1047.8000488281</ele>
        <time>2022-11-01T13:31:32.000Z</time>
      </trkpt>
      <trkpt lat="48.05735" lon="6.95351">
        <ele>1047.5999755859</ele>
        <time>2022-11-01T13:31:34.000Z</time>
      </trkpt>
      <trkpt lat="48.05738" lon="6.95349">
        <ele>1047.1999511719</ele>
        <time>2022-11-01T13:31:41.000Z</time>
      </trkpt>
      <trkpt lat="48.05739" lon="6.95348">
        <ele>1047</ele>
        <time>2022-11-01T13:31:43.000Z</time>
      </trkpt>
      <trkpt lat="48.05742" lon="6.95347">
        <ele>1046.5999755859</ele>
        <time>2022-11-01T13:31:46.000Z</time>
      </trkpt>
      <trkpt lat="48.05745" lon="6.95344">
        <ele>1046</ele>
        <time>2022-11-01T13:31:51.000Z</time>
      </trkpt>
      <trkpt lat="48.05746" lon="6.95342">
        <ele>1045.5999755859</ele>
        <time>2022-11-01T13:31:53.000Z</time>
      </trkpt>
      <trkpt lat="48.05746" lon="6.9534">
        <ele>1045.4000244141</ele>
        <time>2022-11-01T13:31:55.000Z</time>
      </trkpt>
      <trkpt lat="48.05747" lon="6.95339">
        <ele>1045.1999511719</ele>
        <time>2022-11-01T13:31:56.000Z</time>
      </trkpt>
      <trkpt lat="48.05748" lon="6.95335">
        <ele>1044.5999755859</ele>
        <time>2022-11-01T13:31:59.000Z</time>
      </trkpt>
      <trkpt lat="48.05748" lon="6.95333">
        <ele>1044.4000244141</ele>
        <time>2022-11-01T13:32:00.000Z</time>
      </trkpt>
      <trkpt lat="48.05751" lon="6.95328">
        <ele>1043.5999755859</ele>
        <time>2022-11-01T13:32:05.000Z</time>
      </trkpt>
      <trkpt lat="48.05751" lon="6.95326">
        <ele>1043.4000244141</ele>
        <time>2022-11-01T13:32:06.000Z</time>
      </trkpt>
      <trkpt lat="48.05751" lon="6.95324">
        <ele>1043.4000244141</ele>
        <time>2022-11-01T13:32:07.000Z</time>
      </trkpt>
      <trkpt lat="48.05752" lon="6.9532">
        <ele>1043.4000244141</ele>
        <time>2022-11-01T13:32:09.000Z</time>
      </trkpt>
      <trkpt lat="48.05753" lon="6.95317">
        <ele>1043.4000244141</ele>
        <time>2022-11-01T13:32:11.000Z</time>
      </trkpt>
      <trkpt lat="48.05754" lon="6.95314">
        <ele>1043.4000244141</ele>
        <time>2022-11-01T13:32:15.000Z</time>
      </trkpt>
      <trkpt lat="48.05754" lon="6.95314">
        <ele>1043</ele>
        <time>2022-11-01T13:32:20.000Z</time>
      </trkpt>
      <trkpt lat="48.05755" lon="6.95313">
        <ele>1043</ele>
        <time>2022-11-01T13:32:24.000Z</time>
      </trkpt>
      <trkpt lat="48.05755" lon="6.95313">
        <ele>1043</ele>
        <time>2022-11-01T13:32:34.000Z</time>
      </trkpt>
      <trkpt lat="48.05754" lon="6.95312">
        <ele>1042.4000244141</ele>
        <time>2022-11-01T13:32:53.000Z</time>
      </trkpt>
      <trkpt lat="48.05753" lon="6.95297">
        <ele>1041.4000244141</ele>
        <time>2022-11-01T13:33:02.000Z</time>
      </trkpt>
      <trkpt lat="48.05753" lon="6.95293">
        <ele>1041.1999511719</ele>
        <time>2022-11-01T13:33:03.000Z</time>
      </trkpt>
      <trkpt lat="48.05753" lon="6.95288">
        <ele>1040.8000488281</ele>
        <time>2022-11-01T13:33:05.000Z</time>
      </trkpt>
      <trkpt lat="48.05752" lon="6.95285">
        <ele>1040.8000488281</ele>
        <time>2022-11-01T13:33:06.000Z</time>
      </trkpt>
      <trkpt lat="48.05753" lon="6.95279">
        <ele>1040.4000244141</ele>
        <time>2022-11-01T13:33:10.000Z</time>
      </trkpt>
      <trkpt lat="48.05753" lon="6.95277">
        <ele>1040.4000244141</ele>
        <time>2022-11-01T13:33:11.000Z</time>
      </trkpt>
      <trkpt lat="48.05752" lon="6.95275">
        <ele>1040.4000244141</ele>
        <time>2022-11-01T13:33:12.000Z</time>
      </trkpt>
      <trkpt lat="48.05753" lon="6.95273">
        <ele>1040.4000244141</ele>
        <time>2022-11-01T13:33:14.000Z</time>
      </trkpt>
      <trkpt lat="48.05753" lon="6.95271">
        <ele>1040.1999511719</ele>
        <time>2022-11-01T13:33:16.000Z</time>
      </trkpt>
      <trkpt lat="48.05752" lon="6.95271">
        <ele>1040.1999511719</ele>
        <time>2022-11-01T13:33:17.000Z</time>
      </trkpt>
      <trkpt lat="48.0575" lon="6.95266">
        <ele>1039.8000488281</ele>
        <time>2022-11-01T13:33:21.000Z</time>
      </trkpt>
      <trkpt lat="48.0575" lon="6.95264">
        <ele>1039.5999755859</ele>
        <time>2022-11-01T13:33:22.000Z</time>
      </trkpt>
      <trkpt lat="48.05749" lon="6.95261">
        <ele>1039.1999511719</ele>
        <time>2022-11-01T13:33:24.000Z</time>
      </trkpt>
      <trkpt lat="48.05748" lon="6.95259">
        <ele>1039.1999511719</ele>
        <time>2022-11-01T13:33:25.000Z</time>
      </trkpt>
      <trkpt lat="48.05748" lon="6.95252">
        <ele>1038.5999755859</ele>
        <time>2022-11-01T13:33:29.000Z</time>
      </trkpt>
      <trkpt lat="48.05748" lon="6.9525">
        <ele>1038.1999511719</ele>
        <time>2022-11-01T13:33:31.000Z</time>
      </trkpt>
      <trkpt lat="48.05747" lon="6.95249">
        <ele>1038.1999511719</ele>
        <time>2022-11-01T13:33:32.000Z</time>
      </trkpt>
      <trkpt lat="48.05743" lon="6.95238">
        <ele>1037.1999511719</ele>
        <time>2022-11-01T13:33:43.000Z</time>
      </trkpt>
      <trkpt lat="48.05742" lon="6.95235">
        <ele>1037</ele>
        <time>2022-11-01T13:33:45.000Z</time>
      </trkpt>
      <trkpt lat="48.05742" lon="6.95228">
        <ele>1036.4000244141</ele>
        <time>2022-11-01T13:33:50.000Z</time>
      </trkpt>
      <trkpt lat="48.05742" lon="6.95225">
        <ele>1036.4000244141</ele>
        <time>2022-11-01T13:33:52.000Z</time>
      </trkpt>
      <trkpt lat="48.05741" lon="6.9522">
        <ele>1036.1999511719</ele>
        <time>2022-11-01T13:33:55.000Z</time>
      </trkpt>
      <trkpt lat="48.05741" lon="6.95219">
        <ele>1036</ele>
        <time>2022-11-01T13:33:56.000Z</time>
      </trkpt>
      <trkpt lat="48.05741" lon="6.95217">
        <ele>1035.8000488281</ele>
        <time>2022-11-01T13:33:57.000Z</time>
      </trkpt>
      <trkpt lat="48.05741" lon="6.95218">
        <ele>1035.5999755859</ele>
        <time>2022-11-01T13:33:58.000Z</time>
      </trkpt>
      <trkpt lat="48.05741" lon="6.95218">
        <ele>1035.5999755859</ele>
        <time>2022-11-01T13:33:59.000Z</time>
      </trkpt>
      <trkpt lat="48.05742" lon="6.95218">
        <ele>1035.1999511719</ele>
        <time>2022-11-01T13:34:01.000Z</time>
      </trkpt>
      <trkpt lat="48.05741" lon="6.9521">
        <ele>1035</ele>
        <time>2022-11-01T13:34:09.000Z</time>
      </trkpt>
      <trkpt lat="48.05741" lon="6.95206">
        <ele>1034.8000488281</ele>
        <time>2022-11-01T13:34:13.000Z</time>
      </trkpt>
      <trkpt lat="48.05741" lon="6.95203">
        <ele>1034.8000488281</ele>
        <time>2022-11-01T13:34:15.000Z</time>
      </trkpt>
      <trkpt lat="48.05739" lon="6.9519">
        <ele>1034.4000244141</ele>
        <time>2022-11-01T13:34:21.000Z</time>
      </trkpt>
      <trkpt lat="48.05738" lon="6.95187">
        <ele>1034.1999511719</ele>
        <time>2022-11-01T13:34:22.000Z</time>
      </trkpt>
      <trkpt lat="48.05737" lon="6.9518">
        <ele>1033.8000488281</ele>
        <time>2022-11-01T13:34:26.000Z</time>
      </trkpt>
      <trkpt lat="48.05737" lon="6.95177">
        <ele>1033.5999755859</ele>
        <time>2022-11-01T13:34:30.000Z</time>
      </trkpt>
      <trkpt lat="48.05733" lon="6.9517">
        <ele>1033.1999511719</ele>
        <time>2022-11-01T13:34:36.000Z</time>
      </trkpt>
      <trkpt lat="48.05732" lon="6.95164">
        <ele>1033.1999511719</ele>
        <time>2022-11-01T13:34:41.000Z</time>
      </trkpt>
      <trkpt lat="48.05732" lon="6.95162">
        <ele>1033</ele>
        <time>2022-11-01T13:34:43.000Z</time>
      </trkpt>
      <trkpt lat="48.05731" lon="6.95157">
        <ele>1032.8000488281</ele>
        <time>2022-11-01T13:34:46.000Z</time>
      </trkpt>
      <trkpt lat="48.05731" lon="6.95153">
        <ele>1032.4000244141</ele>
        <time>2022-11-01T13:34:51.000Z</time>
      </trkpt>
      <trkpt lat="48.05729" lon="6.95146">
        <ele>1032.1999511719</ele>
        <time>2022-11-01T13:34:58.000Z</time>
      </trkpt>
      <trkpt lat="48.0573" lon="6.95138">
        <ele>1031.5999755859</ele>
        <time>2022-11-01T13:35:03.000Z</time>
      </trkpt>
      <trkpt lat="48.05729" lon="6.95127">
        <ele>1030.8000488281</ele>
        <time>2022-11-01T13:35:10.000Z</time>
      </trkpt>
      <trkpt lat="48.05728" lon="6.95125">
        <ele>1030.5999755859</ele>
        <time>2022-11-01T13:35:12.000Z</time>
      </trkpt>
      <trkpt lat="48.05728" lon="6.95115">
        <ele>1030</ele>
        <time>2022-11-01T13:35:20.000Z</time>
      </trkpt>
      <trkpt lat="48.05729" lon="6.95111">
        <ele>1029.5999755859</ele>
        <time>2022-11-01T13:35:24.000Z</time>
      </trkpt>
      <trkpt lat="48.05729" lon="6.9511">
        <ele>1029.4000244141</ele>
        <time>2022-11-01T13:35:25.000Z</time>
      </trkpt>
      <trkpt lat="48.05724" lon="6.95096">
        <ele>1028.8000488281</ele>
        <time>2022-11-01T13:35:33.000Z</time>
      </trkpt>
      <trkpt lat="48.05726" lon="6.95089">
        <ele>1028.5999755859</ele>
        <time>2022-11-01T13:35:38.000Z</time>
      </trkpt>
      <trkpt lat="48.05726" lon="6.95088">
        <ele>1028.5999755859</ele>
        <time>2022-11-01T13:35:40.000Z</time>
      </trkpt>
      <trkpt lat="48.05728" lon="6.95084">
        <ele>1028.1999511719</ele>
        <time>2022-11-01T13:35:44.000Z</time>
      </trkpt>
      <trkpt lat="48.05725" lon="6.9508">
        <ele>1027.5999755859</ele>
        <time>2022-11-01T13:35:49.000Z</time>
      </trkpt>
      <trkpt lat="48.05725" lon="6.95076">
        <ele>1027.4000244141</ele>
        <time>2022-11-01T13:35:52.000Z</time>
      </trkpt>
      <trkpt lat="48.05725" lon="6.95074">
        <ele>1027.4000244141</ele>
        <time>2022-11-01T13:35:53.000Z</time>
      </trkpt>
      <trkpt lat="48.05726" lon="6.95067">
        <ele>1027.1999511719</ele>
        <time>2022-11-01T13:35:58.000Z</time>
      </trkpt>
      <trkpt lat="48.05727" lon="6.95066">
        <ele>1027.5999755859</ele>
        <time>2022-11-01T13:36:00.000Z</time>
      </trkpt>
      <trkpt lat="48.05729" lon="6.95059">
        <ele>1027.5999755859</ele>
        <time>2022-11-01T13:36:10.000Z</time>
      </trkpt>
      <trkpt lat="48.05729" lon="6.95044">
        <ele>1027.4000244141</ele>
        <time>2022-11-01T13:36:18.000Z</time>
      </trkpt>
      <trkpt lat="48.05728" lon="6.95036">
        <ele>1027</ele>
        <time>2022-11-01T13:36:24.000Z</time>
      </trkpt>
      <trkpt lat="48.05724" lon="6.95027">
        <ele>1027</ele>
        <time>2022-11-01T13:36:32.000Z</time>
      </trkpt>
      <trkpt lat="48.05723" lon="6.95023">
        <ele>1027</ele>
        <time>2022-11-01T13:36:36.000Z</time>
      </trkpt>
      <trkpt lat="48.05722" lon="6.95022">
        <ele>1027.1999511719</ele>
        <time>2022-11-01T13:36:37.000Z</time>
      </trkpt>
      <trkpt lat="48.05722" lon="6.95021">
        <ele>1027.1999511719</ele>
        <time>2022-11-01T13:36:38.000Z</time>
      </trkpt>
      <trkpt lat="48.05721" lon="6.95016">
        <ele>1027.1999511719</ele>
        <time>2022-11-01T13:36:41.000Z</time>
      </trkpt>
      <trkpt lat="48.05719" lon="6.95011">
        <ele>1027.1999511719</ele>
        <time>2022-11-01T13:36:46.000Z</time>
      </trkpt>
      <trkpt lat="48.05719" lon="6.95008">
        <ele>1026.1999511719</ele>
        <time>2022-11-01T13:36:49.000Z</time>
      </trkpt>
      <trkpt lat="48.05717" lon="6.95002">
        <ele>1025</ele>
        <time>2022-11-01T13:36:53.000Z</time>
      </trkpt>
      <trkpt lat="48.05717" lon="6.95001">
        <ele>1024.8000488281</ele>
        <time>2022-11-01T13:36:54.000Z</time>
      </trkpt>
      <trkpt lat="48.05716" lon="6.95002">
        <ele>1024.4000244141</ele>
        <time>2022-11-01T13:36:58.000Z</time>
      </trkpt>
      <trkpt lat="48.05714" lon="6.94997">
        <ele>1024</ele>
        <time>2022-11-01T13:37:02.000Z</time>
      </trkpt>
      <trkpt lat="48.05713" lon="6.94995">
        <ele>1024</ele>
        <time>2022-11-01T13:37:03.000Z</time>
      </trkpt>
      <trkpt lat="48.05712" lon="6.94994">
        <ele>1024</ele>
        <time>2022-11-01T13:37:04.000Z</time>
      </trkpt>
      <trkpt lat="48.0571" lon="6.94988">
        <ele>1024</ele>
        <time>2022-11-01T13:37:08.000Z</time>
      </trkpt>
      <trkpt lat="48.05708" lon="6.94983">
        <ele>1024.1999511719</ele>
        <time>2022-11-01T13:37:12.000Z</time>
      </trkpt>
      <trkpt lat="48.05706" lon="6.94975">
        <ele>1024.1999511719</ele>
        <time>2022-11-01T13:37:18.000Z</time>
      </trkpt>
      <trkpt lat="48.05703" lon="6.9497">
        <ele>1023.4000244141</ele>
        <time>2022-11-01T13:37:23.000Z</time>
      </trkpt>
      <trkpt lat="48.05701" lon="6.94967">
        <ele>1023</ele>
        <time>2022-11-01T13:37:26.000Z</time>
      </trkpt>
      <trkpt lat="48.05697" lon="6.94964">
        <ele>1022</ele>
        <time>2022-11-01T13:37:32.000Z</time>
      </trkpt>
      <trkpt lat="48.05695" lon="6.94959">
        <ele>1021.4000244141</ele>
        <time>2022-11-01T13:37:37.000Z</time>
      </trkpt>
      <trkpt lat="48.05695" lon="6.94958">
        <ele>1021.4000244141</ele>
        <time>2022-11-01T13:37:38.000Z</time>
      </trkpt>
      <trkpt lat="48.05694" lon="6.94956">
        <ele>1021.1999511719</ele>
        <time>2022-11-01T13:37:40.000Z</time>
      </trkpt>
      <trkpt lat="48.05689" lon="6.94953">
        <ele>1020.5999755859</ele>
        <time>2022-11-01T13:37:45.000Z</time>
      </trkpt>
      <trkpt lat="48.05684" lon="6.9495">
        <ele>1019.8000488281</ele>
        <time>2022-11-01T13:37:50.000Z</time>
      </trkpt>
      <trkpt lat="48.05683" lon="6.9495">
        <ele>1019.5999755859</ele>
        <time>2022-11-01T13:37:51.000Z</time>
      </trkpt>
      <trkpt lat="48.05678" lon="6.94945">
        <ele>1018.4000244141</ele>
        <time>2022-11-01T13:37:58.000Z</time>
      </trkpt>
      <trkpt lat="48.05675" lon="6.94942">
        <ele>1017.4000244141</ele>
        <time>2022-11-01T13:38:01.000Z</time>
      </trkpt>
      <trkpt lat="48.05674" lon="6.94941">
        <ele>1017.4000244141</ele>
        <time>2022-11-01T13:38:02.000Z</time>
      </trkpt>
      <trkpt lat="48.05672" lon="6.94937">
        <ele>1016.5999755859</ele>
        <time>2022-11-01T13:38:07.000Z</time>
      </trkpt>
      <trkpt lat="48.05671" lon="6.94936">
        <ele>1016.4000244141</ele>
        <time>2022-11-01T13:38:08.000Z</time>
      </trkpt>
      <trkpt lat="48.0567" lon="6.9493">
        <ele>1017.1999511719</ele>
        <time>2022-11-01T13:38:14.000Z</time>
      </trkpt>
      <trkpt lat="48.05669" lon="6.94925">
        <ele>1017.4000244141</ele>
        <time>2022-11-01T13:38:21.000Z</time>
      </trkpt>
      <trkpt lat="48.05669" lon="6.94924">
        <ele>1017.4000244141</ele>
        <time>2022-11-01T13:38:23.000Z</time>
      </trkpt>
      <trkpt lat="48.05665" lon="6.94922">
        <ele>1016.1999511719</ele>
        <time>2022-11-01T13:38:30.000Z</time>
      </trkpt>
      <trkpt lat="48.05665" lon="6.94921">
        <ele>1016</ele>
        <time>2022-11-01T13:38:31.000Z</time>
      </trkpt>
      <trkpt lat="48.0566" lon="6.94913">
        <ele>1015.8000488281</ele>
        <time>2022-11-01T13:38:38.000Z</time>
      </trkpt>
      <trkpt lat="48.05657" lon="6.94904">
        <ele>1015.1999511719</ele>
        <time>2022-11-01T13:38:44.000Z</time>
      </trkpt>
      <trkpt lat="48.05657" lon="6.94899">
        <ele>1015</ele>
        <time>2022-11-01T13:38:47.000Z</time>
      </trkpt>
      <trkpt lat="48.05655" lon="6.94892">
        <ele>1014.1999511719</ele>
        <time>2022-11-01T13:38:52.000Z</time>
      </trkpt>
      <trkpt lat="48.05655" lon="6.94891">
        <ele>1014</ele>
        <time>2022-11-01T13:38:53.000Z</time>
      </trkpt>
      <trkpt lat="48.05655" lon="6.94883">
        <ele>1012.8000488281</ele>
        <time>2022-11-01T13:38:59.000Z</time>
      </trkpt>
      <trkpt lat="48.05656" lon="6.94879">
        <ele>1012</ele>
        <time>2022-11-01T13:39:04.000Z</time>
      </trkpt>
      <trkpt lat="48.05656" lon="6.94878">
        <ele>1011.8000488281</ele>
        <time>2022-11-01T13:39:05.000Z</time>
      </trkpt>
      <trkpt lat="48.05656" lon="6.94877">
        <ele>1011.8000488281</ele>
        <time>2022-11-01T13:39:06.000Z</time>
      </trkpt>
      <trkpt lat="48.05656" lon="6.94875">
        <ele>1010.5999755859</ele>
        <time>2022-11-01T13:39:09.000Z</time>
      </trkpt>
      <trkpt lat="48.05654" lon="6.94868">
        <ele>1009.8000488281</ele>
        <time>2022-11-01T13:39:14.000Z</time>
      </trkpt>
      <trkpt lat="48.05654" lon="6.94863">
        <ele>1009.5999755859</ele>
        <time>2022-11-01T13:39:18.000Z</time>
      </trkpt>
      <trkpt lat="48.05654" lon="6.94859">
        <ele>1009.1999511719</ele>
        <time>2022-11-01T13:39:22.000Z</time>
      </trkpt>
      <trkpt lat="48.05655" lon="6.94854">
        <ele>1008.5999755859</ele>
        <time>2022-11-01T13:39:26.000Z</time>
      </trkpt>
      <trkpt lat="48.05656" lon="6.94851">
        <ele>1008.1999511719</ele>
        <time>2022-11-01T13:39:28.000Z</time>
      </trkpt>
      <trkpt lat="48.05657" lon="6.94846">
        <ele>1007.4000244141</ele>
        <time>2022-11-01T13:39:32.000Z</time>
      </trkpt>
      <trkpt lat="48.05656" lon="6.94841">
        <ele>1006.8000488281</ele>
        <time>2022-11-01T13:39:35.000Z</time>
      </trkpt>
      <trkpt lat="48.05658" lon="6.94836">
        <ele>1006.4000244141</ele>
        <time>2022-11-01T13:39:40.000Z</time>
      </trkpt>
      <trkpt lat="48.05659" lon="6.94833">
        <ele>1005.5999755859</ele>
        <time>2022-11-01T13:39:44.000Z</time>
      </trkpt>
      <trkpt lat="48.05659" lon="6.94832">
        <ele>1005.1999511719</ele>
        <time>2022-11-01T13:39:46.000Z</time>
      </trkpt>
      <trkpt lat="48.05658" lon="6.94827">
        <ele>1003.8000488281</ele>
        <time>2022-11-01T13:39:52.000Z</time>
      </trkpt>
      <trkpt lat="48.05658" lon="6.94826">
        <ele>1003.5999755859</ele>
        <time>2022-11-01T13:39:53.000Z</time>
      </trkpt>
      <trkpt lat="48.05659" lon="6.94822">
        <ele>1002.8000488281</ele>
        <time>2022-11-01T13:39:58.000Z</time>
      </trkpt>
      <trkpt lat="48.05659" lon="6.94819">
        <ele>1002</ele>
        <time>2022-11-01T13:40:01.000Z</time>
      </trkpt>
      <trkpt lat="48.05659" lon="6.94816">
        <ele>1001.5999755859</ele>
        <time>2022-11-01T13:40:04.000Z</time>
      </trkpt>
      <trkpt lat="48.05659" lon="6.94813">
        <ele>1001.1999511719</ele>
        <time>2022-11-01T13:40:08.000Z</time>
      </trkpt>
      <trkpt lat="48.05659" lon="6.94813">
        <ele>1000.8000488281</ele>
        <time>2022-11-01T13:40:14.000Z</time>
      </trkpt>
      <trkpt lat="48.05659" lon="6.94811">
        <ele>1000.5999755859</ele>
        <time>2022-11-01T13:40:17.000Z</time>
      </trkpt>
      <trkpt lat="48.05659" lon="6.94812">
        <ele>1000.5999755859</ele>
        <time>2022-11-01T13:40:28.000Z</time>
      </trkpt>
      <trkpt lat="48.05658" lon="6.94803">
        <ele>999.80004882812</ele>
        <time>2022-11-01T13:40:38.000Z</time>
      </trkpt>
      <trkpt lat="48.0566" lon="6.94796">
        <ele>999.59997558594</ele>
        <time>2022-11-01T13:40:42.000Z</time>
      </trkpt>
      <trkpt lat="48.05659" lon="6.94791">
        <ele>999.19995117188</ele>
        <time>2022-11-01T13:40:45.000Z</time>
      </trkpt>
      <trkpt lat="48.0566" lon="6.9479">
        <ele>999</ele>
        <time>2022-11-01T13:40:46.000Z</time>
      </trkpt>
      <trkpt lat="48.0566" lon="6.94785">
        <ele>998.59997558594</ele>
        <time>2022-11-01T13:40:50.000Z</time>
      </trkpt>
      <trkpt lat="48.0566" lon="6.94781">
        <ele>998.19995117188</ele>
        <time>2022-11-01T13:40:54.000Z</time>
      </trkpt>
      <trkpt lat="48.05659" lon="6.94778">
        <ele>998.19995117188</ele>
        <time>2022-11-01T13:40:56.000Z</time>
      </trkpt>
      <trkpt lat="48.05659" lon="6.94777">
        <ele>998</ele>
        <time>2022-11-01T13:41:00.000Z</time>
      </trkpt>
      <trkpt lat="48.05659" lon="6.94776">
        <ele>997.80004882812</ele>
        <time>2022-11-01T13:41:01.000Z</time>
      </trkpt>
      <trkpt lat="48.05658" lon="6.94775">
        <ele>997.59997558594</ele>
        <time>2022-11-01T13:41:02.000Z</time>
      </trkpt>
      <trkpt lat="48.05657" lon="6.94775">
        <ele>997.40002441406</ele>
        <time>2022-11-01T13:41:03.000Z</time>
      </trkpt>
      <trkpt lat="48.05658" lon="6.94771">
        <ele>996.40002441406</ele>
        <time>2022-11-01T13:41:08.000Z</time>
      </trkpt>
      <trkpt lat="48.05657" lon="6.94768">
        <ele>996</ele>
        <time>2022-11-01T13:41:10.000Z</time>
      </trkpt>
      <trkpt lat="48.05657" lon="6.94767">
        <ele>995.80004882812</ele>
        <time>2022-11-01T13:41:11.000Z</time>
      </trkpt>
      <trkpt lat="48.05656" lon="6.94767">
        <ele>995.59997558594</ele>
        <time>2022-11-01T13:41:12.000Z</time>
      </trkpt>
      <trkpt lat="48.05656" lon="6.9477">
        <ele>995.59997558594</ele>
        <time>2022-11-01T13:41:17.000Z</time>
      </trkpt>
      <trkpt lat="48.05655" lon="6.94771">
        <ele>995.80004882812</ele>
        <time>2022-11-01T13:41:20.000Z</time>
      </trkpt>
      <trkpt lat="48.05656" lon="6.94771">
        <ele>995.59997558594</ele>
        <time>2022-11-01T13:41:34.000Z</time>
      </trkpt>
      <trkpt lat="48.05655" lon="6.94773">
        <ele>995.59997558594</ele>
        <time>2022-11-01T13:41:36.000Z</time>
      </trkpt>
      <trkpt lat="48.05652" lon="6.94777">
        <ele>995.19995117188</ele>
        <time>2022-11-01T13:41:39.000Z</time>
      </trkpt>
      <trkpt lat="48.05649" lon="6.94783">
        <ele>994.59997558594</ele>
        <time>2022-11-01T13:41:44.000Z</time>
      </trkpt>
      <trkpt lat="48.05645" lon="6.94785">
        <ele>994.19995117188</ele>
        <time>2022-11-01T13:41:47.000Z</time>
      </trkpt>
      <trkpt lat="48.0564" lon="6.9479">
        <ele>993.59997558594</ele>
        <time>2022-11-01T13:41:51.000Z</time>
      </trkpt>
      <trkpt lat="48.05637" lon="6.94793">
        <ele>993</ele>
        <time>2022-11-01T13:41:54.000Z</time>
      </trkpt>
      <trkpt lat="48.05635" lon="6.94796">
        <ele>992.80004882812</ele>
        <time>2022-11-01T13:41:56.000Z</time>
      </trkpt>
      <trkpt lat="48.05631" lon="6.94801">
        <ele>992.40002441406</ele>
        <time>2022-11-01T13:42:00.000Z</time>
      </trkpt>
      <trkpt lat="48.0563" lon="6.94804">
        <ele>991.80004882812</ele>
        <time>2022-11-01T13:42:03.000Z</time>
      </trkpt>
      <trkpt lat="48.05625" lon="6.94808">
        <ele>991.19995117188</ele>
        <time>2022-11-01T13:42:10.000Z</time>
      </trkpt>
      <trkpt lat="48.05619" lon="6.94814">
        <ele>990.80004882812</ele>
        <time>2022-11-01T13:42:15.000Z</time>
      </trkpt>
      <trkpt lat="48.05617" lon="6.94815">
        <ele>990.59997558594</ele>
        <time>2022-11-01T13:42:16.000Z</time>
      </trkpt>
      <trkpt lat="48.05612" lon="6.94819">
        <ele>990</ele>
        <time>2022-11-01T13:42:22.000Z</time>
      </trkpt>
      <trkpt lat="48.05609" lon="6.94819">
        <ele>989.40002441406</ele>
        <time>2022-11-01T13:42:24.000Z</time>
      </trkpt>
      <trkpt lat="48.05605" lon="6.9482">
        <ele>988.80004882812</ele>
        <time>2022-11-01T13:42:28.000Z</time>
      </trkpt>
      <trkpt lat="48.05603" lon="6.94821">
        <ele>988.59997558594</ele>
        <time>2022-11-01T13:42:30.000Z</time>
      </trkpt>
      <trkpt lat="48.05602" lon="6.94822">
        <ele>988</ele>
        <time>2022-11-01T13:42:31.000Z</time>
      </trkpt>
      <trkpt lat="48.056" lon="6.94823">
        <ele>987.59997558594</ele>
        <time>2022-11-01T13:42:33.000Z</time>
      </trkpt>
      <trkpt lat="48.05599" lon="6.94823">
        <ele>987.40002441406</ele>
        <time>2022-11-01T13:42:34.000Z</time>
      </trkpt>
      <trkpt lat="48.05597" lon="6.94824">
        <ele>987</ele>
        <time>2022-11-01T13:42:36.000Z</time>
      </trkpt>
      <trkpt lat="48.05596" lon="6.94825">
        <ele>986.19995117188</ele>
        <time>2022-11-01T13:42:38.000Z</time>
      </trkpt>
      <trkpt lat="48.05595" lon="6.94826">
        <ele>985.80004882812</ele>
        <time>2022-11-01T13:42:39.000Z</time>
      </trkpt>
      <trkpt lat="48.05594" lon="6.9483">
        <ele>985</ele>
        <time>2022-11-01T13:42:45.000Z</time>
      </trkpt>
      <trkpt lat="48.05593" lon="6.94832">
        <ele>984.59997558594</ele>
        <time>2022-11-01T13:42:47.000Z</time>
      </trkpt>
      <trkpt lat="48.05592" lon="6.94834">
        <ele>984.40002441406</ele>
        <time>2022-11-01T13:42:48.000Z</time>
      </trkpt>
      <trkpt lat="48.05592" lon="6.94837">
        <ele>984.19995117188</ele>
        <time>2022-11-01T13:42:50.000Z</time>
      </trkpt>
      <trkpt lat="48.05589" lon="6.9484">
        <ele>983.59997558594</ele>
        <time>2022-11-01T13:42:55.000Z</time>
      </trkpt>
      <trkpt lat="48.05588" lon="6.94842">
        <ele>983.19995117188</ele>
        <time>2022-11-01T13:42:57.000Z</time>
      </trkpt>
      <trkpt lat="48.05587" lon="6.94843">
        <ele>982.80004882812</ele>
        <time>2022-11-01T13:42:58.000Z</time>
      </trkpt>
      <trkpt lat="48.05585" lon="6.94845">
        <ele>982.40002441406</ele>
        <time>2022-11-01T13:43:00.000Z</time>
      </trkpt>
      <trkpt lat="48.05582" lon="6.94847">
        <ele>982</ele>
        <time>2022-11-01T13:43:03.000Z</time>
      </trkpt>
      <trkpt lat="48.05574" lon="6.94847">
        <ele>981.40002441406</ele>
        <time>2022-11-01T13:43:09.000Z</time>
      </trkpt>
      <trkpt lat="48.05571" lon="6.94848">
        <ele>981.19995117188</ele>
        <time>2022-11-01T13:43:12.000Z</time>
      </trkpt>
      <trkpt lat="48.05565" lon="6.94849">
        <ele>980.19995117188</ele>
        <time>2022-11-01T13:43:19.000Z</time>
      </trkpt>
      <trkpt lat="48.05564" lon="6.94849">
        <ele>979</ele>
        <time>2022-11-01T13:43:22.000Z</time>
      </trkpt>
      <trkpt lat="48.05564" lon="6.9485">
        <ele>978.80004882812</ele>
        <time>2022-11-01T13:43:23.000Z</time>
      </trkpt>
      <trkpt lat="48.05563" lon="6.94852">
        <ele>978.59997558594</ele>
        <time>2022-11-01T13:43:29.000Z</time>
      </trkpt>
      <trkpt lat="48.05559" lon="6.9485">
        <ele>978.80004882812</ele>
        <time>2022-11-01T13:43:37.000Z</time>
      </trkpt>
      <trkpt lat="48.05554" lon="6.94853">
        <ele>978</ele>
        <time>2022-11-01T13:43:44.000Z</time>
      </trkpt>
      <trkpt lat="48.05553" lon="6.94853">
        <ele>977.59997558594</ele>
        <time>2022-11-01T13:43:46.000Z</time>
      </trkpt>
      <trkpt lat="48.0555" lon="6.94852">
        <ele>976.80004882812</ele>
        <time>2022-11-01T13:43:50.000Z</time>
      </trkpt>
      <trkpt lat="48.05547" lon="6.94852">
        <ele>976.40002441406</ele>
        <time>2022-11-01T13:43:53.000Z</time>
      </trkpt>
      <trkpt lat="48.05543" lon="6.94857">
        <ele>975.80004882812</ele>
        <time>2022-11-01T13:43:59.000Z</time>
      </trkpt>
      <trkpt lat="48.05543" lon="6.94857">
        <ele>975.59997558594</ele>
        <time>2022-11-01T13:44:00.000Z</time>
      </trkpt>
      <trkpt lat="48.05541" lon="6.94853">
        <ele>975.19995117188</ele>
        <time>2022-11-01T13:44:03.000Z</time>
      </trkpt>
      <trkpt lat="48.0554" lon="6.94852">
        <ele>974.80004882812</ele>
        <time>2022-11-01T13:44:04.000Z</time>
      </trkpt>
      <trkpt lat="48.05539" lon="6.94851">
        <ele>974.80004882812</ele>
        <time>2022-11-01T13:44:05.000Z</time>
      </trkpt>
      <trkpt lat="48.05539" lon="6.94851">
        <ele>974.59997558594</ele>
        <time>2022-11-01T13:44:06.000Z</time>
      </trkpt>
      <trkpt lat="48.05536" lon="6.94852">
        <ele>974.19995117188</ele>
        <time>2022-11-01T13:44:12.000Z</time>
      </trkpt>
      <trkpt lat="48.05535" lon="6.94852">
        <ele>974</ele>
        <time>2022-11-01T13:44:19.000Z</time>
      </trkpt>
      <trkpt lat="48.05534" lon="6.94852">
        <ele>973.59997558594</ele>
        <time>2022-11-01T13:44:25.000Z</time>
      </trkpt>
      <trkpt lat="48.05533" lon="6.94852">
        <ele>973.40002441406</ele>
        <time>2022-11-01T13:44:27.000Z</time>
      </trkpt>
      <trkpt lat="48.05531" lon="6.94854">
        <ele>972.80004882812</ele>
        <time>2022-11-01T13:44:32.000Z</time>
      </trkpt>
      <trkpt lat="48.05529" lon="6.94854">
        <ele>972.59997558594</ele>
        <time>2022-11-01T13:44:34.000Z</time>
      </trkpt>
      <trkpt lat="48.05523" lon="6.94853">
        <ele>971.80004882812</ele>
        <time>2022-11-01T13:44:39.000Z</time>
      </trkpt>
      <trkpt lat="48.05522" lon="6.94854">
        <ele>971.59997558594</ele>
        <time>2022-11-01T13:44:41.000Z</time>
      </trkpt>
      <trkpt lat="48.05521" lon="6.94854">
        <ele>971.59997558594</ele>
        <time>2022-11-01T13:44:42.000Z</time>
      </trkpt>
      <trkpt lat="48.05521" lon="6.94854">
        <ele>971</ele>
        <time>2022-11-01T13:44:44.000Z</time>
      </trkpt>
      <trkpt lat="48.0552" lon="6.94855">
        <ele>970.59997558594</ele>
        <time>2022-11-01T13:44:46.000Z</time>
      </trkpt>
      <trkpt lat="48.05519" lon="6.94855">
        <ele>970.40002441406</ele>
        <time>2022-11-01T13:44:47.000Z</time>
      </trkpt>
      <trkpt lat="48.05514" lon="6.94855">
        <ele>969.40002441406</ele>
        <time>2022-11-01T13:44:54.000Z</time>
      </trkpt>
      <trkpt lat="48.05513" lon="6.94853">
        <ele>969.19995117188</ele>
        <time>2022-11-01T13:44:55.000Z</time>
      </trkpt>
      <trkpt lat="48.05514" lon="6.94851">
        <ele>969</ele>
        <time>2022-11-01T13:45:00.000Z</time>
      </trkpt>
      <trkpt lat="48.05516" lon="6.94848">
        <ele>969.59997558594</ele>
        <time>2022-11-01T13:45:08.000Z</time>
      </trkpt>
      <trkpt lat="48.05517" lon="6.94848">
        <ele>968.19995117188</ele>
        <time>2022-11-01T13:45:31.000Z</time>
      </trkpt>
      <trkpt lat="48.05516" lon="6.94848">
        <ele>967.80004882812</ele>
        <time>2022-11-01T13:45:32.000Z</time>
      </trkpt>
      <trkpt lat="48.05516" lon="6.94848">
        <ele>967.19995117188</ele>
        <time>2022-11-01T13:45:33.000Z</time>
      </trkpt>
      <trkpt lat="48.05513" lon="6.94852">
        <ele>966</ele>
        <time>2022-11-01T13:45:39.000Z</time>
      </trkpt>
      <trkpt lat="48.05512" lon="6.94853">
        <ele>966</ele>
        <time>2022-11-01T13:45:40.000Z</time>
      </trkpt>
      <trkpt lat="48.05509" lon="6.94855">
        <ele>966</ele>
        <time>2022-11-01T13:45:44.000Z</time>
      </trkpt>
      <trkpt lat="48.05507" lon="6.94855">
        <ele>966</ele>
        <time>2022-11-01T13:45:45.000Z</time>
      </trkpt>
      <trkpt lat="48.05501" lon="6.94857">
        <ele>964.59997558594</ele>
        <time>2022-11-01T13:45:49.000Z</time>
      </trkpt>
      <trkpt lat="48.05499" lon="6.94858">
        <ele>963.80004882812</ele>
        <time>2022-11-01T13:45:52.000Z</time>
      </trkpt>
      <trkpt lat="48.05497" lon="6.94858">
        <ele>963.59997558594</ele>
        <time>2022-11-01T13:45:54.000Z</time>
      </trkpt>
      <trkpt lat="48.05495" lon="6.94859">
        <ele>963.40002441406</ele>
        <time>2022-11-01T13:45:56.000Z</time>
      </trkpt>
      <trkpt lat="48.05494" lon="6.94859">
        <ele>963.19995117188</ele>
        <time>2022-11-01T13:45:57.000Z</time>
      </trkpt>
      <trkpt lat="48.05493" lon="6.94859">
        <ele>962.59997558594</ele>
        <time>2022-11-01T13:45:59.000Z</time>
      </trkpt>
      <trkpt lat="48.05493" lon="6.94862">
        <ele>962.40002441406</ele>
        <time>2022-11-01T13:46:00.000Z</time>
      </trkpt>
      <trkpt lat="48.05491" lon="6.94864">
        <ele>962</ele>
        <time>2022-11-01T13:46:03.000Z</time>
      </trkpt>
      <trkpt lat="48.0549" lon="6.94866">
        <ele>961.19995117188</ele>
        <time>2022-11-01T13:46:06.000Z</time>
      </trkpt>
      <trkpt lat="48.0549" lon="6.94867">
        <ele>961</ele>
        <time>2022-11-01T13:46:07.000Z</time>
      </trkpt>
      <trkpt lat="48.05489" lon="6.94869">
        <ele>960.80004882812</ele>
        <time>2022-11-01T13:46:08.000Z</time>
      </trkpt>
      <trkpt lat="48.05486" lon="6.9487">
        <ele>960</ele>
        <time>2022-11-01T13:46:11.000Z</time>
      </trkpt>
      <trkpt lat="48.05483" lon="6.94868">
        <ele>959.59997558594</ele>
        <time>2022-11-01T13:46:13.000Z</time>
      </trkpt>
      <trkpt lat="48.05479" lon="6.94867">
        <ele>959.19995117188</ele>
        <time>2022-11-01T13:46:16.000Z</time>
      </trkpt>
      <trkpt lat="48.05477" lon="6.94868">
        <ele>959</ele>
        <time>2022-11-01T13:46:18.000Z</time>
      </trkpt>
      <trkpt lat="48.05475" lon="6.94867">
        <ele>958.19995117188</ele>
        <time>2022-11-01T13:46:20.000Z</time>
      </trkpt>
      <trkpt lat="48.05474" lon="6.94867">
        <ele>957.80004882812</ele>
        <time>2022-11-01T13:46:21.000Z</time>
      </trkpt>
      <trkpt lat="48.05471" lon="6.9487">
        <ele>957.40002441406</ele>
        <time>2022-11-01T13:46:25.000Z</time>
      </trkpt>
      <trkpt lat="48.0547" lon="6.9487">
        <ele>957.40002441406</ele>
        <time>2022-11-01T13:46:26.000Z</time>
      </trkpt>
      <trkpt lat="48.05467" lon="6.9487">
        <ele>956.59997558594</ele>
        <time>2022-11-01T13:46:29.000Z</time>
      </trkpt>
      <trkpt lat="48.05467" lon="6.9487">
        <ele>956.40002441406</ele>
        <time>2022-11-01T13:46:30.000Z</time>
      </trkpt>
      <trkpt lat="48.05466" lon="6.94871">
        <ele>956.19995117188</ele>
        <time>2022-11-01T13:46:31.000Z</time>
      </trkpt>
      <trkpt lat="48.05466" lon="6.94871">
        <ele>956.19995117188</ele>
        <time>2022-11-01T13:46:32.000Z</time>
      </trkpt>
      <trkpt lat="48.05463" lon="6.94871">
        <ele>955.40002441406</ele>
        <time>2022-11-01T13:46:36.000Z</time>
      </trkpt>
      <trkpt lat="48.05461" lon="6.94871">
        <ele>955.19995117188</ele>
        <time>2022-11-01T13:46:38.000Z</time>
      </trkpt>
      <trkpt lat="48.05461" lon="6.94872">
        <ele>955</ele>
        <time>2022-11-01T13:46:39.000Z</time>
      </trkpt>
      <trkpt lat="48.05458" lon="6.94873">
        <ele>954.40002441406</ele>
        <time>2022-11-01T13:46:42.000Z</time>
      </trkpt>
      <trkpt lat="48.05454" lon="6.94872">
        <ele>954</ele>
        <time>2022-11-01T13:46:45.000Z</time>
      </trkpt>
      <trkpt lat="48.05449" lon="6.94873">
        <ele>953.19995117188</ele>
        <time>2022-11-01T13:46:49.000Z</time>
      </trkpt>
      <trkpt lat="48.05447" lon="6.94874">
        <ele>952.40002441406</ele>
        <time>2022-11-01T13:46:52.000Z</time>
      </trkpt>
      <trkpt lat="48.05445" lon="6.94874">
        <ele>952</ele>
        <time>2022-11-01T13:46:54.000Z</time>
      </trkpt>
      <trkpt lat="48.05445" lon="6.94873">
        <ele>951</ele>
        <time>2022-11-01T13:46:59.000Z</time>
      </trkpt>
      <trkpt lat="48.05442" lon="6.94867">
        <ele>950.40002441406</ele>
        <time>2022-11-01T13:47:05.000Z</time>
      </trkpt>
      <trkpt lat="48.05442" lon="6.94865">
        <ele>950.19995117188</ele>
        <time>2022-11-01T13:47:14.000Z</time>
      </trkpt>
      <trkpt lat="48.05441" lon="6.94865">
        <ele>950.19995117188</ele>
        <time>2022-11-01T13:47:17.000Z</time>
      </trkpt>
      <trkpt lat="48.05442" lon="6.94866">
        <ele>950.59997558594</ele>
        <time>2022-11-01T13:47:24.000Z</time>
      </trkpt>
      <trkpt lat="48.05443" lon="6.94867">
        <ele>950.59997558594</ele>
        <time>2022-11-01T13:47:25.000Z</time>
      </trkpt>
      <trkpt lat="48.05443" lon="6.94867">
        <ele>950.59997558594</ele>
        <time>2022-11-01T13:47:26.000Z</time>
      </trkpt>
      <trkpt lat="48.05442" lon="6.94866">
        <ele>950.59997558594</ele>
        <time>2022-11-01T13:47:30.000Z</time>
      </trkpt>
      <trkpt lat="48.05442" lon="6.94866">
        <ele>950</ele>
        <time>2022-11-01T13:47:45.000Z</time>
      </trkpt>
      <trkpt lat="48.05439" lon="6.94866">
        <ele>949</ele>
        <time>2022-11-01T13:48:01.000Z</time>
      </trkpt>
      <trkpt lat="48.05438" lon="6.94866">
        <ele>948</ele>
        <time>2022-11-01T13:48:06.000Z</time>
      </trkpt>
      <trkpt lat="48.05428" lon="6.9487">
        <ele>946.80004882812</ele>
        <time>2022-11-01T13:48:15.000Z</time>
      </trkpt>
      <trkpt lat="48.05426" lon="6.94871">
        <ele>946.80004882812</ele>
        <time>2022-11-01T13:48:16.000Z</time>
      </trkpt>
      <trkpt lat="48.05418" lon="6.94876">
        <ele>946</ele>
        <time>2022-11-01T13:48:21.000Z</time>
      </trkpt>
      <trkpt lat="48.05418" lon="6.94877">
        <ele>945.80004882812</ele>
        <time>2022-11-01T13:48:22.000Z</time>
      </trkpt>
      <trkpt lat="48.05416" lon="6.94883">
        <ele>944.59997558594</ele>
        <time>2022-11-01T13:48:29.000Z</time>
      </trkpt>
      <trkpt lat="48.0541" lon="6.94886">
        <ele>943.59997558594</ele>
        <time>2022-11-01T13:48:35.000Z</time>
      </trkpt>
      <trkpt lat="48.05401" lon="6.94887">
        <ele>942.59997558594</ele>
        <time>2022-11-01T13:48:42.000Z</time>
      </trkpt>
      <trkpt lat="48.054" lon="6.94889">
        <ele>942.19995117188</ele>
        <time>2022-11-01T13:48:44.000Z</time>
      </trkpt>
      <trkpt lat="48.05398" lon="6.94889">
        <ele>942</ele>
        <time>2022-11-01T13:48:45.000Z</time>
      </trkpt>
      <trkpt lat="48.05395" lon="6.94891">
        <ele>941.59997558594</ele>
        <time>2022-11-01T13:48:48.000Z</time>
      </trkpt>
      <trkpt lat="48.05392" lon="6.94887">
        <ele>940.80004882812</ele>
        <time>2022-11-01T13:48:53.000Z</time>
      </trkpt>
      <trkpt lat="48.05391" lon="6.94887">
        <ele>940.80004882812</ele>
        <time>2022-11-01T13:48:54.000Z</time>
      </trkpt>
      <trkpt lat="48.0539" lon="6.94886">
        <ele>940.40002441406</ele>
        <time>2022-11-01T13:48:56.000Z</time>
      </trkpt>
      <trkpt lat="48.05383" lon="6.94885">
        <ele>939.19995117188</ele>
        <time>2022-11-01T13:49:03.000Z</time>
      </trkpt>
      <trkpt lat="48.05383" lon="6.94885">
        <ele>939.19995117188</ele>
        <time>2022-11-01T13:49:04.000Z</time>
      </trkpt>
      <trkpt lat="48.05378" lon="6.94884">
        <ele>938.19995117188</ele>
        <time>2022-11-01T13:49:11.000Z</time>
      </trkpt>
      <trkpt lat="48.05377" lon="6.94884">
        <ele>938</ele>
        <time>2022-11-01T13:49:13.000Z</time>
      </trkpt>
      <trkpt lat="48.05376" lon="6.94884">
        <ele>937.80004882812</ele>
        <time>2022-11-01T13:49:14.000Z</time>
      </trkpt>
      <trkpt lat="48.05375" lon="6.94884">
        <ele>937.19995117188</ele>
        <time>2022-11-01T13:49:16.000Z</time>
      </trkpt>
      <trkpt lat="48.05374" lon="6.94884">
        <ele>937</ele>
        <time>2022-11-01T13:49:17.000Z</time>
      </trkpt>
      <trkpt lat="48.0537" lon="6.94884">
        <ele>936.19995117188</ele>
        <time>2022-11-01T13:49:23.000Z</time>
      </trkpt>
      <trkpt lat="48.0537" lon="6.94884">
        <ele>936.19995117188</ele>
        <time>2022-11-01T13:49:24.000Z</time>
      </trkpt>
      <trkpt lat="48.05367" lon="6.94882">
        <ele>935.19995117188</ele>
        <time>2022-11-01T13:49:29.000Z</time>
      </trkpt>
      <trkpt lat="48.05366" lon="6.94882">
        <ele>935</ele>
        <time>2022-11-01T13:49:30.000Z</time>
      </trkpt>
      <trkpt lat="48.05366" lon="6.9488">
        <ele>934.80004882812</ele>
        <time>2022-11-01T13:49:31.000Z</time>
      </trkpt>
      <trkpt lat="48.05366" lon="6.94877">
        <ele>934</ele>
        <time>2022-11-01T13:49:34.000Z</time>
      </trkpt>
      <trkpt lat="48.05364" lon="6.94877">
        <ele>933.40002441406</ele>
        <time>2022-11-01T13:49:38.000Z</time>
      </trkpt>
      <trkpt lat="48.05363" lon="6.94877">
        <ele>933.19995117188</ele>
        <time>2022-11-01T13:49:39.000Z</time>
      </trkpt>
      <trkpt lat="48.05362" lon="6.94876">
        <ele>933</ele>
        <time>2022-11-01T13:49:41.000Z</time>
      </trkpt>
      <trkpt lat="48.05361" lon="6.94873">
        <ele>932.40002441406</ele>
        <time>2022-11-01T13:49:44.000Z</time>
      </trkpt>
      <trkpt lat="48.0536" lon="6.94871">
        <ele>932</ele>
        <time>2022-11-01T13:49:46.000Z</time>
      </trkpt>
      <trkpt lat="48.05359" lon="6.94868">
        <ele>931.40002441406</ele>
        <time>2022-11-01T13:49:49.000Z</time>
      </trkpt>
      <trkpt lat="48.05357" lon="6.94864">
        <ele>930.80004882812</ele>
        <time>2022-11-01T13:49:52.000Z</time>
      </trkpt>
      <trkpt lat="48.05356" lon="6.94858">
        <ele>929.80004882812</ele>
        <time>2022-11-01T13:49:59.000Z</time>
      </trkpt>
      <trkpt lat="48.05358" lon="6.94858">
        <ele>929.80004882812</ele>
        <time>2022-11-01T13:50:01.000Z</time>
      </trkpt>
      <trkpt lat="48.05359" lon="6.9486">
        <ele>929.80004882812</ele>
        <time>2022-11-01T13:50:08.000Z</time>
      </trkpt>
      <trkpt lat="48.05359" lon="6.9486">
        <ele>929.40002441406</ele>
        <time>2022-11-01T13:50:18.000Z</time>
      </trkpt>
      <trkpt lat="48.05359" lon="6.94859">
        <ele>929</ele>
        <time>2022-11-01T13:50:21.000Z</time>
      </trkpt>
      <trkpt lat="48.05359" lon="6.94858">
        <ele>928.80004882812</ele>
        <time>2022-11-01T13:50:24.000Z</time>
      </trkpt>
      <trkpt lat="48.05352" lon="6.94851">
        <ele>928</ele>
        <time>2022-11-01T13:50:34.000Z</time>
      </trkpt>
      <trkpt lat="48.05348" lon="6.94849">
        <ele>927.59997558594</ele>
        <time>2022-11-01T13:50:37.000Z</time>
      </trkpt>
      <trkpt lat="48.05344" lon="6.94846">
        <ele>927</ele>
        <time>2022-11-01T13:50:40.000Z</time>
      </trkpt>
      <trkpt lat="48.05341" lon="6.94844">
        <ele>926.40002441406</ele>
        <time>2022-11-01T13:50:45.000Z</time>
      </trkpt>
      <trkpt lat="48.0534" lon="6.94842">
        <ele>926</ele>
        <time>2022-11-01T13:50:47.000Z</time>
      </trkpt>
      <trkpt lat="48.05339" lon="6.94842">
        <ele>925.40002441406</ele>
        <time>2022-11-01T13:50:51.000Z</time>
      </trkpt>
      <trkpt lat="48.0534" lon="6.94842">
        <ele>925.19995117188</ele>
        <time>2022-11-01T13:50:53.000Z</time>
      </trkpt>
      <trkpt lat="48.05337" lon="6.94842">
        <ele>924.19995117188</ele>
        <time>2022-11-01T13:50:58.000Z</time>
      </trkpt>
      <trkpt lat="48.05334" lon="6.94843">
        <ele>923</ele>
        <time>2022-11-01T13:51:05.000Z</time>
      </trkpt>
      <trkpt lat="48.05329" lon="6.94842">
        <ele>921.80004882812</ele>
        <time>2022-11-01T13:51:12.000Z</time>
      </trkpt>
      <trkpt lat="48.05325" lon="6.94835">
        <ele>920.80004882812</ele>
        <time>2022-11-01T13:51:19.000Z</time>
      </trkpt>
      <trkpt lat="48.05322" lon="6.94832">
        <ele>919.80004882812</ele>
        <time>2022-11-01T13:51:22.000Z</time>
      </trkpt>
      <trkpt lat="48.05321" lon="6.9483">
        <ele>919.59997558594</ele>
        <time>2022-11-01T13:51:24.000Z</time>
      </trkpt>
      <trkpt lat="48.05315" lon="6.94827">
        <ele>919.19995117188</ele>
        <time>2022-11-01T13:51:27.000Z</time>
      </trkpt>
      <trkpt lat="48.0531" lon="6.94821">
        <ele>918.40002441406</ele>
        <time>2022-11-01T13:51:35.000Z</time>
      </trkpt>
      <trkpt lat="48.05308" lon="6.94817">
        <ele>917.80004882812</ele>
        <time>2022-11-01T13:51:39.000Z</time>
      </trkpt>
      <trkpt lat="48.0531" lon="6.94813">
        <ele>917.59997558594</ele>
        <time>2022-11-01T13:51:42.000Z</time>
      </trkpt>
      <trkpt lat="48.05309" lon="6.94814">
        <ele>917.59997558594</ele>
        <time>2022-11-01T13:51:49.000Z</time>
      </trkpt>
      <trkpt lat="48.05309" lon="6.94815">
        <ele>917.59997558594</ele>
        <time>2022-11-01T13:51:50.000Z</time>
      </trkpt>
      <trkpt lat="48.0531" lon="6.94814">
        <ele>917.40002441406</ele>
        <time>2022-11-01T13:51:57.000Z</time>
      </trkpt>
      <trkpt lat="48.0531" lon="6.94814">
        <ele>917.40002441406</ele>
        <time>2022-11-01T13:52:08.000Z</time>
      </trkpt>
      <trkpt lat="48.0531" lon="6.94813">
        <ele>917.59997558594</ele>
        <time>2022-11-01T13:52:12.000Z</time>
      </trkpt>
      <trkpt lat="48.05311" lon="6.94813">
        <ele>916.40002441406</ele>
        <time>2022-11-01T13:52:24.000Z</time>
      </trkpt>
      <trkpt lat="48.05315" lon="6.94812">
        <ele>915.19995117188</ele>
        <time>2022-11-01T13:52:31.000Z</time>
      </trkpt>
      <trkpt lat="48.05311" lon="6.94805">
        <ele>914.59997558594</ele>
        <time>2022-11-01T13:52:37.000Z</time>
      </trkpt>
      <trkpt lat="48.0531" lon="6.94798">
        <ele>914.40002441406</ele>
        <time>2022-11-01T13:52:42.000Z</time>
      </trkpt>
      <trkpt lat="48.05309" lon="6.94797">
        <ele>914.19995117188</ele>
        <time>2022-11-01T13:52:43.000Z</time>
      </trkpt>
      <trkpt lat="48.05309" lon="6.94797">
        <ele>914</ele>
        <time>2022-11-01T13:52:44.000Z</time>
      </trkpt>
      <trkpt lat="48.05305" lon="6.94787">
        <ele>913.19995117188</ele>
        <time>2022-11-01T13:52:52.000Z</time>
      </trkpt>
      <trkpt lat="48.05303" lon="6.94785">
        <ele>913</ele>
        <time>2022-11-01T13:52:55.000Z</time>
      </trkpt>
      <trkpt lat="48.05301" lon="6.94779">
        <ele>912.80004882812</ele>
        <time>2022-11-01T13:52:59.000Z</time>
      </trkpt>
      <trkpt lat="48.053" lon="6.94778">
        <ele>912.80004882812</ele>
        <time>2022-11-01T13:53:00.000Z</time>
      </trkpt>
      <trkpt lat="48.053" lon="6.94777">
        <ele>912.80004882812</ele>
        <time>2022-11-01T13:53:01.000Z</time>
      </trkpt>
      <trkpt lat="48.053" lon="6.94776">
        <ele>912.59997558594</ele>
        <time>2022-11-01T13:53:05.000Z</time>
      </trkpt>
      <trkpt lat="48.05301" lon="6.94774">
        <ele>912.59997558594</ele>
        <time>2022-11-01T13:53:14.000Z</time>
      </trkpt>
      <trkpt lat="48.05298" lon="6.94764">
        <ele>912.40002441406</ele>
        <time>2022-11-01T13:53:21.000Z</time>
      </trkpt>
      <trkpt lat="48.053" lon="6.94754">
        <ele>912.19995117188</ele>
        <time>2022-11-01T13:53:28.000Z</time>
      </trkpt>
      <trkpt lat="48.053" lon="6.9475">
        <ele>912.19995117188</ele>
        <time>2022-11-01T13:53:31.000Z</time>
      </trkpt>
      <trkpt lat="48.05299" lon="6.94743">
        <ele>912.19995117188</ele>
        <time>2022-11-01T13:53:35.000Z</time>
      </trkpt>
      <trkpt lat="48.05299" lon="6.94726">
        <ele>912</ele>
        <time>2022-11-01T13:53:45.000Z</time>
      </trkpt>
      <trkpt lat="48.053" lon="6.94723">
        <ele>911.80004882812</ele>
        <time>2022-11-01T13:53:51.000Z</time>
      </trkpt>
      <trkpt lat="48.05301" lon="6.94721">
        <ele>911.80004882812</ele>
        <time>2022-11-01T13:53:55.000Z</time>
      </trkpt>
      <trkpt lat="48.05301" lon="6.9472">
        <ele>911.80004882812</ele>
        <time>2022-11-01T13:53:56.000Z</time>
      </trkpt>
      <trkpt lat="48.05306" lon="6.94714">
        <ele>911.80004882812</ele>
        <time>2022-11-01T13:54:02.000Z</time>
      </trkpt>
      <trkpt lat="48.05307" lon="6.94719">
        <ele>912</ele>
        <time>2022-11-01T13:54:09.000Z</time>
      </trkpt>
      <trkpt lat="48.05307" lon="6.94721">
        <ele>912.19995117188</ele>
        <time>2022-11-01T13:54:17.000Z</time>
      </trkpt>
      <trkpt lat="48.05303" lon="6.94723">
        <ele>912.19995117188</ele>
        <time>2022-11-01T13:54:23.000Z</time>
      </trkpt>
      <trkpt lat="48.05303" lon="6.94723">
        <ele>912.19995117188</ele>
        <time>2022-11-01T13:54:33.000Z</time>
      </trkpt>
      <trkpt lat="48.05303" lon="6.94723">
        <ele>912.19995117188</ele>
        <time>2022-11-01T13:54:40.000Z</time>
      </trkpt>
      <trkpt lat="48.05302" lon="6.94722">
        <ele>912.19995117188</ele>
        <time>2022-11-01T13:54:54.000Z</time>
      </trkpt>
      <trkpt lat="48.05302" lon="6.94721">
        <ele>912.19995117188</ele>
        <time>2022-11-01T13:55:11.000Z</time>
      </trkpt>
      <trkpt lat="48.05302" lon="6.94721">
        <ele>912.19995117188</ele>
        <time>2022-11-01T13:55:12.000Z</time>
      </trkpt>
      <trkpt lat="48.05302" lon="6.9472">
        <ele>912.19995117188</ele>
        <time>2022-11-01T13:55:24.000Z</time>
      </trkpt>
      <trkpt lat="48.05302" lon="6.9472">
        <ele>912.19995117188</ele>
        <time>2022-11-01T13:55:30.000Z</time>
      </trkpt>
      <trkpt lat="48.05302" lon="6.9472">
        <ele>912.19995117188</ele>
        <time>2022-11-01T13:55:37.000Z</time>
      </trkpt>
      <trkpt lat="48.05304" lon="6.94727">
        <ele>912.19995117188</ele>
        <time>2022-11-01T13:56:29.000Z</time>
      </trkpt>
      <trkpt lat="48.05304" lon="6.94726">
        <ele>912.19995117188</ele>
        <time>2022-11-01T13:56:43.000Z</time>
      </trkpt>
      <trkpt lat="48.05303" lon="6.94724">
        <ele>912.19995117188</ele>
        <time>2022-11-01T13:57:06.000Z</time>
      </trkpt>
      <trkpt lat="48.05303" lon="6.94723">
        <ele>912.19995117188</ele>
        <time>2022-11-01T13:57:15.000Z</time>
      </trkpt>
      <trkpt lat="48.05304" lon="6.94723">
        <ele>912.19995117188</ele>
        <time>2022-11-01T13:57:21.000Z</time>
      </trkpt>
      <trkpt lat="48.05304" lon="6.9472">
        <ele>912.19995117188</ele>
        <time>2022-11-01T13:57:33.000Z</time>
      </trkpt>
      <trkpt lat="48.05304" lon="6.9472">
        <ele>912.19995117188</ele>
        <time>2022-11-01T13:57:37.000Z</time>
      </trkpt>
      <trkpt lat="48.05304" lon="6.9472">
        <ele>912.19995117188</ele>
        <time>2022-11-01T13:57:38.000Z</time>
      </trkpt>
      <trkpt lat="48.05303" lon="6.9472">
        <ele>912.19995117188</ele>
        <time>2022-11-01T13:58:15.000Z</time>
      </trkpt>
      <trkpt lat="48.05298" lon="6.94717">
        <ele>912.19995117188</ele>
        <time>2022-11-01T13:58:21.000Z</time>
      </trkpt>
      <trkpt lat="48.05293" lon="6.94714">
        <ele>912.19995117188</ele>
        <time>2022-11-01T13:58:26.000Z</time>
      </trkpt>
      <trkpt lat="48.05295" lon="6.94714">
        <ele>912.19995117188</ele>
        <time>2022-11-01T13:58:27.000Z</time>
      </trkpt>
      <trkpt lat="48.05294" lon="6.94716">
        <ele>912.19995117188</ele>
        <time>2022-11-01T13:58:39.000Z</time>
      </trkpt>
      <trkpt lat="48.05283" lon="6.94721">
        <ele>912.19995117188</ele>
        <time>2022-11-01T13:58:48.000Z</time>
      </trkpt>
      <trkpt lat="48.05285" lon="6.9472">
        <ele>912.19995117188</ele>
        <time>2022-11-01T13:58:59.000Z</time>
      </trkpt>
      <trkpt lat="48.05291" lon="6.94722">
        <ele>912.19995117188</ele>
        <time>2022-11-01T13:59:05.000Z</time>
      </trkpt>
      <trkpt lat="48.05298" lon="6.94716">
        <ele>912.19995117188</ele>
        <time>2022-11-01T13:59:10.000Z</time>
      </trkpt>
      <trkpt lat="48.05299" lon="6.94716">
        <ele>912.19995117188</ele>
        <time>2022-11-01T13:59:14.000Z</time>
      </trkpt>
      <trkpt lat="48.05299" lon="6.94716">
        <ele>912.19995117188</ele>
        <time>2022-11-01T13:59:19.000Z</time>
      </trkpt>
      <trkpt lat="48.05298" lon="6.94715">
        <ele>912.19995117188</ele>
        <time>2022-11-01T13:59:22.000Z</time>
      </trkpt>
      <trkpt lat="48.05302" lon="6.9472">
        <ele>912.19995117188</ele>
        <time>2022-11-01T13:59:27.000Z</time>
      </trkpt>
      <trkpt lat="48.05303" lon="6.94719">
        <ele>912.19995117188</ele>
        <time>2022-11-01T13:59:31.000Z</time>
      </trkpt>
      <trkpt lat="48.053" lon="6.94718">
        <ele>912.19995117188</ele>
        <time>2022-11-01T13:59:34.000Z</time>
      </trkpt>
      <trkpt lat="48.05303" lon="6.94718">
        <ele>912.19995117188</ele>
        <time>2022-11-01T13:59:38.000Z</time>
      </trkpt>
      <trkpt lat="48.05305" lon="6.94719">
        <ele>912.19995117188</ele>
        <time>2022-11-01T13:59:42.000Z</time>
      </trkpt>
      <trkpt lat="48.05302" lon="6.9472">
        <ele>912.19995117188</ele>
        <time>2022-11-01T13:59:47.000Z</time>
      </trkpt>
      <trkpt lat="48.05305" lon="6.94721">
        <ele>912.19995117188</ele>
        <time>2022-11-01T13:59:50.000Z</time>
      </trkpt>
      <trkpt lat="48.05302" lon="6.94722">
        <ele>912.19995117188</ele>
        <time>2022-11-01T13:59:56.000Z</time>
      </trkpt>
      <trkpt lat="48.05302" lon="6.94723">
        <ele>912.19995117188</ele>
        <time>2022-11-01T14:00:01.000Z</time>
      </trkpt>
      <trkpt lat="48.05302" lon="6.94722">
        <ele>912.19995117188</ele>
        <time>2022-11-01T14:00:08.000Z</time>
      </trkpt>
      <trkpt lat="48.05304" lon="6.94717">
        <ele>912.19995117188</ele>
        <time>2022-11-01T14:01:21.000Z</time>
      </trkpt>
      <trkpt lat="48.05309" lon="6.94702">
        <ele>911.80004882812</ele>
        <time>2022-11-01T14:28:45.000Z</time>
      </trkpt>
      <trkpt lat="48.05305" lon="6.94676">
        <ele>912.40002441406</ele>
        <time>2022-11-01T14:28:55.000Z</time>
      </trkpt>
      <trkpt lat="48.053" lon="6.9466">
        <ele>912.40002441406</ele>
        <time>2022-11-01T14:29:05.000Z</time>
      </trkpt>
      <trkpt lat="48.053" lon="6.94658">
        <ele>912.40002441406</ele>
        <time>2022-11-01T14:29:06.000Z</time>
      </trkpt>
      <trkpt lat="48.053" lon="6.94657">
        <ele>912.40002441406</ele>
        <time>2022-11-01T14:29:07.000Z</time>
      </trkpt>
      <trkpt lat="48.05299" lon="6.94654">
        <ele>912.40002441406</ele>
        <time>2022-11-01T14:29:09.000Z</time>
      </trkpt>
      <trkpt lat="48.05296" lon="6.94648">
        <ele>912.19995117188</ele>
        <time>2022-11-01T14:29:13.000Z</time>
      </trkpt>
      <trkpt lat="48.05293" lon="6.9464">
        <ele>912</ele>
        <time>2022-11-01T14:29:21.000Z</time>
      </trkpt>
      <trkpt lat="48.05291" lon="6.9464">
        <ele>912.19995117188</ele>
        <time>2022-11-01T14:29:24.000Z</time>
      </trkpt>
      <trkpt lat="48.05287" lon="6.94636">
        <ele>912</ele>
        <time>2022-11-01T14:29:28.000Z</time>
      </trkpt>
      <trkpt lat="48.05283" lon="6.94629">
        <ele>912</ele>
        <time>2022-11-01T14:29:34.000Z</time>
      </trkpt>
      <trkpt lat="48.05281" lon="6.94629">
        <ele>912</ele>
        <time>2022-11-01T14:29:36.000Z</time>
      </trkpt>
      <trkpt lat="48.05281" lon="6.94629">
        <ele>912</ele>
        <time>2022-11-01T14:29:37.000Z</time>
      </trkpt>
      <trkpt lat="48.0528" lon="6.94627">
        <ele>912.19995117188</ele>
        <time>2022-11-01T14:29:39.000Z</time>
      </trkpt>
      <trkpt lat="48.05279" lon="6.94624">
        <ele>912.19995117188</ele>
        <time>2022-11-01T14:29:41.000Z</time>
      </trkpt>
      <trkpt lat="48.05278" lon="6.94621">
        <ele>912.40002441406</ele>
        <time>2022-11-01T14:29:43.000Z</time>
      </trkpt>
      <trkpt lat="48.05279" lon="6.94618">
        <ele>912.40002441406</ele>
        <time>2022-11-01T14:29:44.000Z</time>
      </trkpt>
      <trkpt lat="48.05283" lon="6.94613">
        <ele>912.80004882812</ele>
        <time>2022-11-01T14:29:48.000Z</time>
      </trkpt>
      <trkpt lat="48.05284" lon="6.94612">
        <ele>913</ele>
        <time>2022-11-01T14:29:49.000Z</time>
      </trkpt>
      <trkpt lat="48.05286" lon="6.9461">
        <ele>913</ele>
        <time>2022-11-01T14:29:52.000Z</time>
      </trkpt>
      <trkpt lat="48.05286" lon="6.94608">
        <ele>912.80004882812</ele>
        <time>2022-11-01T14:29:54.000Z</time>
      </trkpt>
      <trkpt lat="48.05286" lon="6.94606">
        <ele>912.80004882812</ele>
        <time>2022-11-01T14:29:56.000Z</time>
      </trkpt>
      <trkpt lat="48.05283" lon="6.946">
        <ele>912.59997558594</ele>
        <time>2022-11-01T14:30:01.000Z</time>
      </trkpt>
      <trkpt lat="48.05276" lon="6.94596">
        <ele>911.80004882812</ele>
        <time>2022-11-01T14:30:09.000Z</time>
      </trkpt>
      <trkpt lat="48.05269" lon="6.94591">
        <ele>912</ele>
        <time>2022-11-01T14:30:17.000Z</time>
      </trkpt>
      <trkpt lat="48.05266" lon="6.94587">
        <ele>911.80004882812</ele>
        <time>2022-11-01T14:30:21.000Z</time>
      </trkpt>
      <trkpt lat="48.05265" lon="6.94583">
        <ele>911.59997558594</ele>
        <time>2022-11-01T14:30:23.000Z</time>
      </trkpt>
      <trkpt lat="48.05264" lon="6.94582">
        <ele>911.59997558594</ele>
        <time>2022-11-01T14:30:24.000Z</time>
      </trkpt>
      <trkpt lat="48.05261" lon="6.94575">
        <ele>911.40002441406</ele>
        <time>2022-11-01T14:30:31.000Z</time>
      </trkpt>
      <trkpt lat="48.0526" lon="6.94573">
        <ele>911.40002441406</ele>
        <time>2022-11-01T14:30:33.000Z</time>
      </trkpt>
      <trkpt lat="48.05257" lon="6.94567">
        <ele>911.19995117188</ele>
        <time>2022-11-01T14:30:38.000Z</time>
      </trkpt>
      <trkpt lat="48.05256" lon="6.94563">
        <ele>911</ele>
        <time>2022-11-01T14:30:40.000Z</time>
      </trkpt>
      <trkpt lat="48.05254" lon="6.94559">
        <ele>911</ele>
        <time>2022-11-01T14:30:43.000Z</time>
      </trkpt>
      <trkpt lat="48.05249" lon="6.94546">
        <ele>910.59997558594</ele>
        <time>2022-11-01T14:30:53.000Z</time>
      </trkpt>
      <trkpt lat="48.05247" lon="6.94541">
        <ele>910.80004882812</ele>
        <time>2022-11-01T14:30:57.000Z</time>
      </trkpt>
      <trkpt lat="48.05246" lon="6.94539">
        <ele>911</ele>
        <time>2022-11-01T14:31:01.000Z</time>
      </trkpt>
      <trkpt lat="48.05246" lon="6.94537">
        <ele>911.19995117188</ele>
        <time>2022-11-01T14:31:04.000Z</time>
      </trkpt>
      <trkpt lat="48.05245" lon="6.94532">
        <ele>911</ele>
        <time>2022-11-01T14:31:08.000Z</time>
      </trkpt>
      <trkpt lat="48.05245" lon="6.94527">
        <ele>911</ele>
        <time>2022-11-01T14:31:15.000Z</time>
      </trkpt>
      <trkpt lat="48.05246" lon="6.94527">
        <ele>911</ele>
        <time>2022-11-01T14:31:19.000Z</time>
      </trkpt>
      <trkpt lat="48.05246" lon="6.94524">
        <ele>910.80004882812</ele>
        <time>2022-11-01T14:31:24.000Z</time>
      </trkpt>
      <trkpt lat="48.05246" lon="6.94524">
        <ele>910.80004882812</ele>
        <time>2022-11-01T14:31:25.000Z</time>
      </trkpt>
      <trkpt lat="48.05245" lon="6.94518">
        <ele>910.80004882812</ele>
        <time>2022-11-01T14:31:32.000Z</time>
      </trkpt>
      <trkpt lat="48.05243" lon="6.94504">
        <ele>910.59997558594</ele>
        <time>2022-11-01T14:31:39.000Z</time>
      </trkpt>
      <trkpt lat="48.05239" lon="6.94492">
        <ele>911</ele>
        <time>2022-11-01T14:31:47.000Z</time>
      </trkpt>
      <trkpt lat="48.05236" lon="6.94481">
        <ele>911.40002441406</ele>
        <time>2022-11-01T14:31:55.000Z</time>
      </trkpt>
      <trkpt lat="48.05235" lon="6.94479">
        <ele>911.40002441406</ele>
        <time>2022-11-01T14:31:56.000Z</time>
      </trkpt>
      <trkpt lat="48.05231" lon="6.94468">
        <ele>911.19995117188</ele>
        <time>2022-11-01T14:32:05.000Z</time>
      </trkpt>
      <trkpt lat="48.05229" lon="6.94464">
        <ele>911.40002441406</ele>
        <time>2022-11-01T14:32:13.000Z</time>
      </trkpt>
      <trkpt lat="48.0523" lon="6.94457">
        <ele>911</ele>
        <time>2022-11-01T14:32:21.000Z</time>
      </trkpt>
      <trkpt lat="48.05231" lon="6.94459">
        <ele>911</ele>
        <time>2022-11-01T14:32:33.000Z</time>
      </trkpt>
      <trkpt lat="48.05229" lon="6.94455">
        <ele>911</ele>
        <time>2022-11-01T14:32:47.000Z</time>
      </trkpt>
      <trkpt lat="48.05224" lon="6.94443">
        <ele>910.59997558594</ele>
        <time>2022-11-01T14:32:56.000Z</time>
      </trkpt>
      <trkpt lat="48.05226" lon="6.9444">
        <ele>910.59997558594</ele>
        <time>2022-11-01T14:33:00.000Z</time>
      </trkpt>
      <trkpt lat="48.05226" lon="6.9444">
        <ele>910.80004882812</ele>
        <time>2022-11-01T14:33:02.000Z</time>
      </trkpt>
      <trkpt lat="48.05229" lon="6.94438">
        <ele>910.80004882812</ele>
        <time>2022-11-01T14:33:09.000Z</time>
      </trkpt>
      <trkpt lat="48.05227" lon="6.94433">
        <ele>910.40002441406</ele>
        <time>2022-11-01T14:33:18.000Z</time>
      </trkpt>
      <trkpt lat="48.05225" lon="6.94429">
        <ele>910.40002441406</ele>
        <time>2022-11-01T14:33:25.000Z</time>
      </trkpt>
      <trkpt lat="48.05224" lon="6.94427">
        <ele>910.80004882812</ele>
        <time>2022-11-01T14:33:32.000Z</time>
      </trkpt>
      <trkpt lat="48.05225" lon="6.94427">
        <ele>911</ele>
        <time>2022-11-01T14:33:36.000Z</time>
      </trkpt>
      <trkpt lat="48.05223" lon="6.94424">
        <ele>911.59997558594</ele>
        <time>2022-11-01T14:33:42.000Z</time>
      </trkpt>
      <trkpt lat="48.05222" lon="6.94419">
        <ele>912.19995117188</ele>
        <time>2022-11-01T14:33:46.000Z</time>
      </trkpt>
      <trkpt lat="48.05221" lon="6.94416">
        <ele>912.40002441406</ele>
        <time>2022-11-01T14:33:49.000Z</time>
      </trkpt>
      <trkpt lat="48.05219" lon="6.94407">
        <ele>912.59997558594</ele>
        <time>2022-11-01T14:33:54.000Z</time>
      </trkpt>
      <trkpt lat="48.05218" lon="6.94404">
        <ele>912.59997558594</ele>
        <time>2022-11-01T14:33:56.000Z</time>
      </trkpt>
      <trkpt lat="48.05215" lon="6.94398">
        <ele>912.19995117188</ele>
        <time>2022-11-01T14:34:01.000Z</time>
      </trkpt>
      <trkpt lat="48.05215" lon="6.94395">
        <ele>912.19995117188</ele>
        <time>2022-11-01T14:34:03.000Z</time>
      </trkpt>
      <trkpt lat="48.05215" lon="6.94395">
        <ele>912.19995117188</ele>
        <time>2022-11-01T14:34:04.000Z</time>
      </trkpt>
      <trkpt lat="48.05214" lon="6.94391">
        <ele>911.80004882812</ele>
        <time>2022-11-01T14:34:08.000Z</time>
      </trkpt>
      <trkpt lat="48.05208" lon="6.94382">
        <ele>911.59997558594</ele>
        <time>2022-11-01T14:34:13.000Z</time>
      </trkpt>
      <trkpt lat="48.05203" lon="6.94378">
        <ele>911.40002441406</ele>
        <time>2022-11-01T14:34:17.000Z</time>
      </trkpt>
      <trkpt lat="48.05201" lon="6.94376">
        <ele>911.19995117188</ele>
        <time>2022-11-01T14:34:19.000Z</time>
      </trkpt>
      <trkpt lat="48.05201" lon="6.94373">
        <ele>911.19995117188</ele>
        <time>2022-11-01T14:34:21.000Z</time>
      </trkpt>
      <trkpt lat="48.05197" lon="6.94364">
        <ele>910.80004882812</ele>
        <time>2022-11-01T14:34:26.000Z</time>
      </trkpt>
      <trkpt lat="48.05195" lon="6.94356">
        <ele>910.80004882812</ele>
        <time>2022-11-01T14:34:30.000Z</time>
      </trkpt>
      <trkpt lat="48.05194" lon="6.94354">
        <ele>911.19995117188</ele>
        <time>2022-11-01T14:34:31.000Z</time>
      </trkpt>
      <trkpt lat="48.05191" lon="6.94346">
        <ele>911.59997558594</ele>
        <time>2022-11-01T14:34:36.000Z</time>
      </trkpt>
      <trkpt lat="48.0519" lon="6.94343">
        <ele>911.40002441406</ele>
        <time>2022-11-01T14:34:39.000Z</time>
      </trkpt>
      <trkpt lat="48.05189" lon="6.94342">
        <ele>911.40002441406</ele>
        <time>2022-11-01T14:34:40.000Z</time>
      </trkpt>
      <trkpt lat="48.05185" lon="6.94337">
        <ele>911.59997558594</ele>
        <time>2022-11-01T14:34:44.000Z</time>
      </trkpt>
      <trkpt lat="48.05182" lon="6.94326">
        <ele>911.80004882812</ele>
        <time>2022-11-01T14:34:51.000Z</time>
      </trkpt>
      <trkpt lat="48.05181" lon="6.94325">
        <ele>912</ele>
        <time>2022-11-01T14:34:52.000Z</time>
      </trkpt>
      <trkpt lat="48.05179" lon="6.94322">
        <ele>912</ele>
        <time>2022-11-01T14:34:55.000Z</time>
      </trkpt>
      <trkpt lat="48.05178" lon="6.94321">
        <ele>912.19995117188</ele>
        <time>2022-11-01T14:34:56.000Z</time>
      </trkpt>
      <trkpt lat="48.05178" lon="6.9432">
        <ele>912.19995117188</ele>
        <time>2022-11-01T14:34:57.000Z</time>
      </trkpt>
      <trkpt lat="48.05177" lon="6.94319">
        <ele>912.19995117188</ele>
        <time>2022-11-01T14:34:58.000Z</time>
      </trkpt>
      <trkpt lat="48.05176" lon="6.94317">
        <ele>912.19995117188</ele>
        <time>2022-11-01T14:35:00.000Z</time>
      </trkpt>
      <trkpt lat="48.05176" lon="6.94315">
        <ele>912</ele>
        <time>2022-11-01T14:35:03.000Z</time>
      </trkpt>
      <trkpt lat="48.05178" lon="6.94314">
        <ele>911.80004882812</ele>
        <time>2022-11-01T14:35:05.000Z</time>
      </trkpt>
      <trkpt lat="48.05179" lon="6.94314">
        <ele>911.80004882812</ele>
        <time>2022-11-01T14:35:09.000Z</time>
      </trkpt>
      <trkpt lat="48.05179" lon="6.94313">
        <ele>912</ele>
        <time>2022-11-01T14:35:12.000Z</time>
      </trkpt>
      <trkpt lat="48.05178" lon="6.94313">
        <ele>912</ele>
        <time>2022-11-01T14:35:23.000Z</time>
      </trkpt>
      <trkpt lat="48.0518" lon="6.94314">
        <ele>912.40002441406</ele>
        <time>2022-11-01T14:35:39.000Z</time>
      </trkpt>
      <trkpt lat="48.05175" lon="6.94312">
        <ele>912.19995117188</ele>
        <time>2022-11-01T14:35:46.000Z</time>
      </trkpt>
      <trkpt lat="48.05169" lon="6.94309">
        <ele>912</ele>
        <time>2022-11-01T14:35:51.000Z</time>
      </trkpt>
      <trkpt lat="48.05168" lon="6.94307">
        <ele>912</ele>
        <time>2022-11-01T14:35:53.000Z</time>
      </trkpt>
      <trkpt lat="48.05165" lon="6.94303">
        <ele>912</ele>
        <time>2022-11-01T14:35:57.000Z</time>
      </trkpt>
      <trkpt lat="48.05164" lon="6.94297">
        <ele>911.80004882812</ele>
        <time>2022-11-01T14:36:02.000Z</time>
      </trkpt>
      <trkpt lat="48.05164" lon="6.94295">
        <ele>911.80004882812</ele>
        <time>2022-11-01T14:36:04.000Z</time>
      </trkpt>
      <trkpt lat="48.05157" lon="6.94288">
        <ele>912</ele>
        <time>2022-11-01T14:36:10.000Z</time>
      </trkpt>
      <trkpt lat="48.05155" lon="6.94285">
        <ele>912.19995117188</ele>
        <time>2022-11-01T14:36:13.000Z</time>
      </trkpt>
      <trkpt lat="48.05153" lon="6.94278">
        <ele>912.40002441406</ele>
        <time>2022-11-01T14:36:17.000Z</time>
      </trkpt>
      <trkpt lat="48.05145" lon="6.94267">
        <ele>911.80004882812</ele>
        <time>2022-11-01T14:36:26.000Z</time>
      </trkpt>
      <trkpt lat="48.05144" lon="6.94265">
        <ele>911.80004882812</ele>
        <time>2022-11-01T14:36:29.000Z</time>
      </trkpt>
      <trkpt lat="48.05143" lon="6.94264">
        <ele>911.80004882812</ele>
        <time>2022-11-01T14:36:32.000Z</time>
      </trkpt>
      <trkpt lat="48.05142" lon="6.94263">
        <ele>912</ele>
        <time>2022-11-01T14:36:33.000Z</time>
      </trkpt>
      <trkpt lat="48.05139" lon="6.94259">
        <ele>912.19995117188</ele>
        <time>2022-11-01T14:36:37.000Z</time>
      </trkpt>
      <trkpt lat="48.05138" lon="6.94255">
        <ele>912.19995117188</ele>
        <time>2022-11-01T14:36:39.000Z</time>
      </trkpt>
      <trkpt lat="48.05132" lon="6.94246">
        <ele>912.40002441406</ele>
        <time>2022-11-01T14:36:46.000Z</time>
      </trkpt>
      <trkpt lat="48.05125" lon="6.94233">
        <ele>911.80004882812</ele>
        <time>2022-11-01T14:36:56.000Z</time>
      </trkpt>
      <trkpt lat="48.05118" lon="6.94223">
        <ele>911.80004882812</ele>
        <time>2022-11-01T14:37:05.000Z</time>
      </trkpt>
      <trkpt lat="48.05118" lon="6.94214">
        <ele>911.59997558594</ele>
        <time>2022-11-01T14:37:12.000Z</time>
      </trkpt>
      <trkpt lat="48.0512" lon="6.94212">
        <ele>911.80004882812</ele>
        <time>2022-11-01T14:37:15.000Z</time>
      </trkpt>
      <trkpt lat="48.0512" lon="6.94211">
        <ele>912</ele>
        <time>2022-11-01T14:37:18.000Z</time>
      </trkpt>
      <trkpt lat="48.05121" lon="6.94212">
        <ele>912.19995117188</ele>
        <time>2022-11-01T14:37:21.000Z</time>
      </trkpt>
      <trkpt lat="48.05121" lon="6.94213">
        <ele>912.19995117188</ele>
        <time>2022-11-01T14:37:22.000Z</time>
      </trkpt>
      <trkpt lat="48.05117" lon="6.94211">
        <ele>911</ele>
        <time>2022-11-01T14:37:29.000Z</time>
      </trkpt>
      <trkpt lat="48.05116" lon="6.9421">
        <ele>911</ele>
        <time>2022-11-01T14:37:30.000Z</time>
      </trkpt>
      <trkpt lat="48.05107" lon="6.94204">
        <ele>911</ele>
        <time>2022-11-01T14:37:36.000Z</time>
      </trkpt>
      <trkpt lat="48.05104" lon="6.94201">
        <ele>911.40002441406</ele>
        <time>2022-11-01T14:37:40.000Z</time>
      </trkpt>
      <trkpt lat="48.05095" lon="6.94197">
        <ele>911.59997558594</ele>
        <time>2022-11-01T14:37:47.000Z</time>
      </trkpt>
      <trkpt lat="48.05094" lon="6.94196">
        <ele>911.59997558594</ele>
        <time>2022-11-01T14:37:48.000Z</time>
      </trkpt>
      <trkpt lat="48.05092" lon="6.94192">
        <ele>911.19995117188</ele>
        <time>2022-11-01T14:37:51.000Z</time>
      </trkpt>
      <trkpt lat="48.05084" lon="6.94185">
        <ele>911</ele>
        <time>2022-11-01T14:37:58.000Z</time>
      </trkpt>
      <trkpt lat="48.05083" lon="6.9418">
        <ele>912.40002441406</ele>
        <time>2022-11-01T14:38:03.000Z</time>
      </trkpt>
      <trkpt lat="48.05083" lon="6.94179">
        <ele>912.80004882812</ele>
        <time>2022-11-01T14:38:06.000Z</time>
      </trkpt>
      <trkpt lat="48.05085" lon="6.94176">
        <ele>912.80004882812</ele>
        <time>2022-11-01T14:38:10.000Z</time>
      </trkpt>
      <trkpt lat="48.05085" lon="6.94175">
        <ele>912.80004882812</ele>
        <time>2022-11-01T14:38:12.000Z</time>
      </trkpt>
      <trkpt lat="48.05083" lon="6.94173">
        <ele>912.59997558594</ele>
        <time>2022-11-01T14:38:16.000Z</time>
      </trkpt>
      <trkpt lat="48.05086" lon="6.94168">
        <ele>912.59997558594</ele>
        <time>2022-11-01T14:38:22.000Z</time>
      </trkpt>
      <trkpt lat="48.05091" lon="6.94167">
        <ele>912.19995117188</ele>
        <time>2022-11-01T14:38:28.000Z</time>
      </trkpt>
      <trkpt lat="48.051" lon="6.94164">
        <ele>911.80004882812</ele>
        <time>2022-11-01T14:38:33.000Z</time>
      </trkpt>
      <trkpt lat="48.05104" lon="6.94164">
        <ele>911.80004882812</ele>
        <time>2022-11-01T14:38:35.000Z</time>
      </trkpt>
      <trkpt lat="48.05111" lon="6.94164">
        <ele>911.80004882812</ele>
        <time>2022-11-01T14:38:41.000Z</time>
      </trkpt>
      <trkpt lat="48.05113" lon="6.94164">
        <ele>912</ele>
        <time>2022-11-01T14:38:43.000Z</time>
      </trkpt>
      <trkpt lat="48.05124" lon="6.94163">
        <ele>911.59997558594</ele>
        <time>2022-11-01T14:38:52.000Z</time>
      </trkpt>
      <trkpt lat="48.05134" lon="6.94163">
        <ele>911.59997558594</ele>
        <time>2022-11-01T14:39:00.000Z</time>
      </trkpt>
      <trkpt lat="48.05138" lon="6.94164">
        <ele>911.80004882812</ele>
        <time>2022-11-01T14:39:03.000Z</time>
      </trkpt>
      <trkpt lat="48.05143" lon="6.94164">
        <ele>912</ele>
        <time>2022-11-01T14:39:07.000Z</time>
      </trkpt>
      <trkpt lat="48.05145" lon="6.94165">
        <ele>911.59997558594</ele>
        <time>2022-11-01T14:39:10.000Z</time>
      </trkpt>
      <trkpt lat="48.05146" lon="6.94165">
        <ele>911.59997558594</ele>
        <time>2022-11-01T14:39:11.000Z</time>
      </trkpt>
      <trkpt lat="48.05147" lon="6.94165">
        <ele>911.40002441406</ele>
        <time>2022-11-01T14:39:12.000Z</time>
      </trkpt>
      <trkpt lat="48.05148" lon="6.94166">
        <ele>911.59997558594</ele>
        <time>2022-11-01T14:39:16.000Z</time>
      </trkpt>
      <trkpt lat="48.05149" lon="6.94166">
        <ele>911.59997558594</ele>
        <time>2022-11-01T14:39:17.000Z</time>
      </trkpt>
      <trkpt lat="48.05154" lon="6.94157">
        <ele>911.59997558594</ele>
        <time>2022-11-01T14:39:25.000Z</time>
      </trkpt>
      <trkpt lat="48.05159" lon="6.94154">
        <ele>912</ele>
        <time>2022-11-01T14:39:31.000Z</time>
      </trkpt>
      <trkpt lat="48.05162" lon="6.94151">
        <ele>912.19995117188</ele>
        <time>2022-11-01T14:39:34.000Z</time>
      </trkpt>
      <trkpt lat="48.05167" lon="6.94148">
        <ele>911.80004882812</ele>
        <time>2022-11-01T14:39:38.000Z</time>
      </trkpt>
      <trkpt lat="48.05168" lon="6.94147">
        <ele>911.80004882812</ele>
        <time>2022-11-01T14:39:39.000Z</time>
      </trkpt>
      <trkpt lat="48.0517" lon="6.94146">
        <ele>911.59997558594</ele>
        <time>2022-11-01T14:39:43.000Z</time>
      </trkpt>
      <trkpt lat="48.05172" lon="6.94148">
        <ele>911.80004882812</ele>
        <time>2022-11-01T14:39:49.000Z</time>
      </trkpt>
      <trkpt lat="48.05171" lon="6.9415">
        <ele>911.80004882812</ele>
        <time>2022-11-01T14:39:56.000Z</time>
      </trkpt>
      <trkpt lat="48.05173" lon="6.9415">
        <ele>911.80004882812</ele>
        <time>2022-11-01T14:40:02.000Z</time>
      </trkpt>
      <trkpt lat="48.05176" lon="6.94149">
        <ele>912</ele>
        <time>2022-11-01T14:40:11.000Z</time>
      </trkpt>
      <trkpt lat="48.05173" lon="6.94146">
        <ele>911.80004882812</ele>
        <time>2022-11-01T14:40:20.000Z</time>
      </trkpt>
      <trkpt lat="48.05171" lon="6.9414">
        <ele>911.59997558594</ele>
        <time>2022-11-01T14:40:26.000Z</time>
      </trkpt>
      <trkpt lat="48.05174" lon="6.94129">
        <ele>912.19995117188</ele>
        <time>2022-11-01T14:40:32.000Z</time>
      </trkpt>
      <trkpt lat="48.05175" lon="6.94126">
        <ele>912.40002441406</ele>
        <time>2022-11-01T14:40:34.000Z</time>
      </trkpt>
      <trkpt lat="48.0518" lon="6.9412">
        <ele>912.59997558594</ele>
        <time>2022-11-01T14:40:38.000Z</time>
      </trkpt>
      <trkpt lat="48.05185" lon="6.94119">
        <ele>912.80004882812</ele>
        <time>2022-11-01T14:40:41.000Z</time>
      </trkpt>
      <trkpt lat="48.0519" lon="6.94112">
        <ele>912.80004882812</ele>
        <time>2022-11-01T14:40:45.000Z</time>
      </trkpt>
      <trkpt lat="48.05191" lon="6.9411">
        <ele>912.80004882812</ele>
        <time>2022-11-01T14:40:46.000Z</time>
      </trkpt>
      <trkpt lat="48.05193" lon="6.94104">
        <ele>913</ele>
        <time>2022-11-01T14:40:50.000Z</time>
      </trkpt>
      <trkpt lat="48.05196" lon="6.94101">
        <ele>913.40002441406</ele>
        <time>2022-11-01T14:40:55.000Z</time>
      </trkpt>
      <trkpt lat="48.05197" lon="6.941">
        <ele>913.40002441406</ele>
        <time>2022-11-01T14:40:56.000Z</time>
      </trkpt>
      <trkpt lat="48.05199" lon="6.94098">
        <ele>913.40002441406</ele>
        <time>2022-11-01T14:40:58.000Z</time>
      </trkpt>
      <trkpt lat="48.052" lon="6.94098">
        <ele>913.59997558594</ele>
        <time>2022-11-01T14:40:59.000Z</time>
      </trkpt>
      <trkpt lat="48.05204" lon="6.941">
        <ele>913.40002441406</ele>
        <time>2022-11-01T14:41:04.000Z</time>
      </trkpt>
      <trkpt lat="48.05204" lon="6.94101">
        <ele>913.40002441406</ele>
        <time>2022-11-01T14:41:05.000Z</time>
      </trkpt>
      <trkpt lat="48.05209" lon="6.94103">
        <ele>913.19995117188</ele>
        <time>2022-11-01T14:41:10.000Z</time>
      </trkpt>
      <trkpt lat="48.05215" lon="6.94105">
        <ele>912.80004882812</ele>
        <time>2022-11-01T14:41:17.000Z</time>
      </trkpt>
      <trkpt lat="48.05221" lon="6.94105">
        <ele>912.80004882812</ele>
        <time>2022-11-01T14:41:22.000Z</time>
      </trkpt>
      <trkpt lat="48.05219" lon="6.94112">
        <ele>913</ele>
        <time>2022-11-01T14:41:27.000Z</time>
      </trkpt>
      <trkpt lat="48.0522" lon="6.94115">
        <ele>912.80004882812</ele>
        <time>2022-11-01T14:41:33.000Z</time>
      </trkpt>
      <trkpt lat="48.0522" lon="6.94118">
        <ele>912.80004882812</ele>
        <time>2022-11-01T14:41:38.000Z</time>
      </trkpt>
      <trkpt lat="48.0522" lon="6.94119">
        <ele>912.80004882812</ele>
        <time>2022-11-01T14:41:41.000Z</time>
      </trkpt>
      <trkpt lat="48.05221" lon="6.9412">
        <ele>912.80004882812</ele>
        <time>2022-11-01T14:41:44.000Z</time>
      </trkpt>
      <trkpt lat="48.05224" lon="6.9412">
        <ele>912.40002441406</ele>
        <time>2022-11-01T14:41:47.000Z</time>
      </trkpt>
      <trkpt lat="48.05227" lon="6.94123">
        <ele>912.40002441406</ele>
        <time>2022-11-01T14:41:50.000Z</time>
      </trkpt>
      <trkpt lat="48.05234" lon="6.94129">
        <ele>912.40002441406</ele>
        <time>2022-11-01T14:41:56.000Z</time>
      </trkpt>
      <trkpt lat="48.05237" lon="6.94129">
        <ele>912.40002441406</ele>
        <time>2022-11-01T14:41:58.000Z</time>
      </trkpt>
      <trkpt lat="48.05239" lon="6.9413">
        <ele>912.40002441406</ele>
        <time>2022-11-01T14:42:02.000Z</time>
      </trkpt>
      <trkpt lat="48.05243" lon="6.94129">
        <ele>912.80004882812</ele>
        <time>2022-11-01T14:42:06.000Z</time>
      </trkpt>
      <trkpt lat="48.05245" lon="6.94132">
        <ele>912.80004882812</ele>
        <time>2022-11-01T14:42:09.000Z</time>
      </trkpt>
      <trkpt lat="48.05246" lon="6.94134">
        <ele>912.80004882812</ele>
        <time>2022-11-01T14:42:11.000Z</time>
      </trkpt>
      <trkpt lat="48.05252" lon="6.94136">
        <ele>913</ele>
        <time>2022-11-01T14:42:16.000Z</time>
      </trkpt>
      <trkpt lat="48.05255" lon="6.94137">
        <ele>913</ele>
        <time>2022-11-01T14:42:18.000Z</time>
      </trkpt>
      <trkpt lat="48.0526" lon="6.94138">
        <ele>912.80004882812</ele>
        <time>2022-11-01T14:42:22.000Z</time>
      </trkpt>
      <trkpt lat="48.05262" lon="6.94138">
        <ele>912.80004882812</ele>
        <time>2022-11-01T14:42:23.000Z</time>
      </trkpt>
      <trkpt lat="48.05263" lon="6.94139">
        <ele>912.80004882812</ele>
        <time>2022-11-01T14:42:24.000Z</time>
      </trkpt>
      <trkpt lat="48.05267" lon="6.94143">
        <ele>912.40002441406</ele>
        <time>2022-11-01T14:42:28.000Z</time>
      </trkpt>
      <trkpt lat="48.05272" lon="6.94148">
        <ele>912</ele>
        <time>2022-11-01T14:42:37.000Z</time>
      </trkpt>
      <trkpt lat="48.05278" lon="6.94154">
        <ele>911.80004882812</ele>
        <time>2022-11-01T14:42:43.000Z</time>
      </trkpt>
      <trkpt lat="48.05283" lon="6.94157">
        <ele>911.59997558594</ele>
        <time>2022-11-01T14:42:48.000Z</time>
      </trkpt>
      <trkpt lat="48.05282" lon="6.94157">
        <ele>911.40002441406</ele>
        <time>2022-11-01T14:42:53.000Z</time>
      </trkpt>
      <trkpt lat="48.05285" lon="6.94161">
        <ele>911.59997558594</ele>
        <time>2022-11-01T14:42:58.000Z</time>
      </trkpt>
      <trkpt lat="48.05289" lon="6.94166">
        <ele>911.59997558594</ele>
        <time>2022-11-01T14:43:03.000Z</time>
      </trkpt>
      <trkpt lat="48.05293" lon="6.9417">
        <ele>911.80004882812</ele>
        <time>2022-11-01T14:43:06.000Z</time>
      </trkpt>
      <trkpt lat="48.05298" lon="6.94179">
        <ele>912.40002441406</ele>
        <time>2022-11-01T14:43:13.000Z</time>
      </trkpt>
      <trkpt lat="48.05303" lon="6.94181">
        <ele>912.19995117188</ele>
        <time>2022-11-01T14:43:19.000Z</time>
      </trkpt>
      <trkpt lat="48.0531" lon="6.9418">
        <ele>912.59997558594</ele>
        <time>2022-11-01T14:43:23.000Z</time>
      </trkpt>
      <trkpt lat="48.05315" lon="6.94179">
        <ele>912.80004882812</ele>
        <time>2022-11-01T14:43:27.000Z</time>
      </trkpt>
      <trkpt lat="48.05316" lon="6.94179">
        <ele>913</ele>
        <time>2022-11-01T14:43:29.000Z</time>
      </trkpt>
      <trkpt lat="48.05318" lon="6.9418">
        <ele>913.19995117188</ele>
        <time>2022-11-01T14:43:32.000Z</time>
      </trkpt>
      <trkpt lat="48.05323" lon="6.94183">
        <ele>913.19995117188</ele>
        <time>2022-11-01T14:43:38.000Z</time>
      </trkpt>
      <trkpt lat="48.05331" lon="6.94185">
        <ele>913.19995117188</ele>
        <time>2022-11-01T14:43:45.000Z</time>
      </trkpt>
      <trkpt lat="48.05333" lon="6.94187">
        <ele>913.19995117188</ele>
        <time>2022-11-01T14:43:47.000Z</time>
      </trkpt>
      <trkpt lat="48.05338" lon="6.94189">
        <ele>913.19995117188</ele>
        <time>2022-11-01T14:43:53.000Z</time>
      </trkpt>
      <trkpt lat="48.05343" lon="6.9419">
        <ele>913.40002441406</ele>
        <time>2022-11-01T14:43:58.000Z</time>
      </trkpt>
      <trkpt lat="48.05346" lon="6.9419">
        <ele>913.59997558594</ele>
        <time>2022-11-01T14:44:00.000Z</time>
      </trkpt>
      <trkpt lat="48.0535" lon="6.94193">
        <ele>913.80004882812</ele>
        <time>2022-11-01T14:44:04.000Z</time>
      </trkpt>
      <trkpt lat="48.05353" lon="6.94195">
        <ele>913.59997558594</ele>
        <time>2022-11-01T14:44:09.000Z</time>
      </trkpt>
      <trkpt lat="48.05357" lon="6.94201">
        <ele>913.19995117188</ele>
        <time>2022-11-01T14:44:15.000Z</time>
      </trkpt>
      <trkpt lat="48.05363" lon="6.94207">
        <ele>913</ele>
        <time>2022-11-01T14:44:22.000Z</time>
      </trkpt>
      <trkpt lat="48.05371" lon="6.94217">
        <ele>912.59997558594</ele>
        <time>2022-11-01T14:44:30.000Z</time>
      </trkpt>
      <trkpt lat="48.05373" lon="6.94219">
        <ele>912.59997558594</ele>
        <time>2022-11-01T14:44:33.000Z</time>
      </trkpt>
      <trkpt lat="48.05374" lon="6.94221">
        <ele>912.59997558594</ele>
        <time>2022-11-01T14:44:36.000Z</time>
      </trkpt>
      <trkpt lat="48.05382" lon="6.94223">
        <ele>912.40002441406</ele>
        <time>2022-11-01T14:44:42.000Z</time>
      </trkpt>
      <trkpt lat="48.05385" lon="6.94223">
        <ele>912.40002441406</ele>
        <time>2022-11-01T14:44:44.000Z</time>
      </trkpt>
      <trkpt lat="48.05388" lon="6.94221">
        <ele>912.40002441406</ele>
        <time>2022-11-01T14:44:47.000Z</time>
      </trkpt>
      <trkpt lat="48.05393" lon="6.94224">
        <ele>912.80004882812</ele>
        <time>2022-11-01T14:44:52.000Z</time>
      </trkpt>
      <trkpt lat="48.05394" lon="6.94228">
        <ele>913.19995117188</ele>
        <time>2022-11-01T14:44:56.000Z</time>
      </trkpt>
      <trkpt lat="48.05397" lon="6.94228">
        <ele>913.59997558594</ele>
        <time>2022-11-01T14:45:00.000Z</time>
      </trkpt>
      <trkpt lat="48.05398" lon="6.94227">
        <ele>913.59997558594</ele>
        <time>2022-11-01T14:45:01.000Z</time>
      </trkpt>
      <trkpt lat="48.05401" lon="6.94227">
        <ele>914.19995117188</ele>
        <time>2022-11-01T14:45:04.000Z</time>
      </trkpt>
      <trkpt lat="48.05404" lon="6.94227">
        <ele>914.80004882812</ele>
        <time>2022-11-01T14:45:08.000Z</time>
      </trkpt>
      <trkpt lat="48.05405" lon="6.94228">
        <ele>915</ele>
        <time>2022-11-01T14:45:09.000Z</time>
      </trkpt>
      <trkpt lat="48.05412" lon="6.94229">
        <ele>915.80004882812</ele>
        <time>2022-11-01T14:45:14.000Z</time>
      </trkpt>
      <trkpt lat="48.05415" lon="6.9423">
        <ele>916.40002441406</ele>
        <time>2022-11-01T14:45:17.000Z</time>
      </trkpt>
      <trkpt lat="48.05419" lon="6.94231">
        <ele>916.80004882812</ele>
        <time>2022-11-01T14:45:21.000Z</time>
      </trkpt>
      <trkpt lat="48.05421" lon="6.94232">
        <ele>917.19995117188</ele>
        <time>2022-11-01T14:45:24.000Z</time>
      </trkpt>
      <trkpt lat="48.05431" lon="6.94231">
        <ele>918</ele>
        <time>2022-11-01T14:45:30.000Z</time>
      </trkpt>
      <trkpt lat="48.05436" lon="6.94235">
        <ele>918.40002441406</ele>
        <time>2022-11-01T14:45:33.000Z</time>
      </trkpt>
      <trkpt lat="48.05444" lon="6.9424">
        <ele>918.80004882812</ele>
        <time>2022-11-01T14:45:40.000Z</time>
      </trkpt>
      <trkpt lat="48.05451" lon="6.94248">
        <ele>918.80004882812</ele>
        <time>2022-11-01T14:45:46.000Z</time>
      </trkpt>
      <trkpt lat="48.05456" lon="6.94252">
        <ele>919</ele>
        <time>2022-11-01T14:45:52.000Z</time>
      </trkpt>
      <trkpt lat="48.05459" lon="6.94251">
        <ele>919.19995117188</ele>
        <time>2022-11-01T14:45:56.000Z</time>
      </trkpt>
      <trkpt lat="48.0546" lon="6.9425">
        <ele>919.19995117188</ele>
        <time>2022-11-01T14:45:57.000Z</time>
      </trkpt>
      <trkpt lat="48.05467" lon="6.94246">
        <ele>920.19995117188</ele>
        <time>2022-11-01T14:46:05.000Z</time>
      </trkpt>
      <trkpt lat="48.05471" lon="6.9424">
        <ele>921</ele>
        <time>2022-11-01T14:46:11.000Z</time>
      </trkpt>
      <trkpt lat="48.05476" lon="6.9424">
        <ele>921.19995117188</ele>
        <time>2022-11-01T14:46:17.000Z</time>
      </trkpt>
      <trkpt lat="48.05479" lon="6.94237">
        <ele>921</ele>
        <time>2022-11-01T14:46:21.000Z</time>
      </trkpt>
      <trkpt lat="48.05485" lon="6.94234">
        <ele>921</ele>
        <time>2022-11-01T14:46:27.000Z</time>
      </trkpt>
      <trkpt lat="48.0549" lon="6.94231">
        <ele>919.80004882812</ele>
        <time>2022-11-01T14:46:34.000Z</time>
      </trkpt>
      <trkpt lat="48.0549" lon="6.94231">
        <ele>919.59997558594</ele>
        <time>2022-11-01T14:46:36.000Z</time>
      </trkpt>
      <trkpt lat="48.05492" lon="6.94231">
        <ele>919.19995117188</ele>
        <time>2022-11-01T14:46:38.000Z</time>
      </trkpt>
      <trkpt lat="48.05497" lon="6.9423">
        <ele>918.59997558594</ele>
        <time>2022-11-01T14:46:42.000Z</time>
      </trkpt>
      <trkpt lat="48.05498" lon="6.94231">
        <ele>918.40002441406</ele>
        <time>2022-11-01T14:46:43.000Z</time>
      </trkpt>
      <trkpt lat="48.05498" lon="6.94231">
        <ele>918.19995117188</ele>
        <time>2022-11-01T14:46:44.000Z</time>
      </trkpt>
      <trkpt lat="48.05509" lon="6.94233">
        <ele>917.59997558594</ele>
        <time>2022-11-01T14:46:50.000Z</time>
      </trkpt>
      <trkpt lat="48.05517" lon="6.94234">
        <ele>917.40002441406</ele>
        <time>2022-11-01T14:46:55.000Z</time>
      </trkpt>
      <trkpt lat="48.05522" lon="6.94234">
        <ele>917.40002441406</ele>
        <time>2022-11-01T14:46:58.000Z</time>
      </trkpt>
      <trkpt lat="48.05524" lon="6.94234">
        <ele>917.19995117188</ele>
        <time>2022-11-01T14:47:00.000Z</time>
      </trkpt>
      <trkpt lat="48.05525" lon="6.94234">
        <ele>916.80004882812</ele>
        <time>2022-11-01T14:47:04.000Z</time>
      </trkpt>
      <trkpt lat="48.0553" lon="6.94234">
        <ele>917</ele>
        <time>2022-11-01T14:47:10.000Z</time>
      </trkpt>
      <trkpt lat="48.05534" lon="6.94234">
        <ele>917</ele>
        <time>2022-11-01T14:47:15.000Z</time>
      </trkpt>
      <trkpt lat="48.05539" lon="6.94235">
        <ele>916.80004882812</ele>
        <time>2022-11-01T14:47:21.000Z</time>
      </trkpt>
      <trkpt lat="48.05544" lon="6.94238">
        <ele>916.19995117188</ele>
        <time>2022-11-01T14:47:26.000Z</time>
      </trkpt>
      <trkpt lat="48.05545" lon="6.94239">
        <ele>916.19995117188</ele>
        <time>2022-11-01T14:47:27.000Z</time>
      </trkpt>
      <trkpt lat="48.05546" lon="6.94242">
        <ele>916</ele>
        <time>2022-11-01T14:47:30.000Z</time>
      </trkpt>
      <trkpt lat="48.0555" lon="6.94246">
        <ele>915.40002441406</ele>
        <time>2022-11-01T14:47:35.000Z</time>
      </trkpt>
      <trkpt lat="48.05551" lon="6.94248">
        <ele>915.19995117188</ele>
        <time>2022-11-01T14:47:36.000Z</time>
      </trkpt>
      <trkpt lat="48.05553" lon="6.94249">
        <ele>915</ele>
        <time>2022-11-01T14:47:37.000Z</time>
      </trkpt>
      <trkpt lat="48.0556" lon="6.94255">
        <ele>915</ele>
        <time>2022-11-01T14:47:41.000Z</time>
      </trkpt>
      <trkpt lat="48.05561" lon="6.94256">
        <ele>915</ele>
        <time>2022-11-01T14:47:42.000Z</time>
      </trkpt>
      <trkpt lat="48.05563" lon="6.94259">
        <ele>915</ele>
        <time>2022-11-01T14:47:44.000Z</time>
      </trkpt>
      <trkpt lat="48.05564" lon="6.94263">
        <ele>915</ele>
        <time>2022-11-01T14:47:46.000Z</time>
      </trkpt>
      <trkpt lat="48.05566" lon="6.94264">
        <ele>915.19995117188</ele>
        <time>2022-11-01T14:47:47.000Z</time>
      </trkpt>
      <trkpt lat="48.05571" lon="6.94265">
        <ele>915.40002441406</ele>
        <time>2022-11-01T14:47:50.000Z</time>
      </trkpt>
      <trkpt lat="48.05572" lon="6.94267">
        <ele>915.40002441406</ele>
        <time>2022-11-01T14:47:52.000Z</time>
      </trkpt>
      <trkpt lat="48.05574" lon="6.94269">
        <ele>915.40002441406</ele>
        <time>2022-11-01T14:47:54.000Z</time>
      </trkpt>
      <trkpt lat="48.05577" lon="6.94271">
        <ele>915.19995117188</ele>
        <time>2022-11-01T14:47:56.000Z</time>
      </trkpt>
      <trkpt lat="48.05579" lon="6.94272">
        <ele>915.19995117188</ele>
        <time>2022-11-01T14:47:58.000Z</time>
      </trkpt>
      <trkpt lat="48.05582" lon="6.94271">
        <ele>915.40002441406</ele>
        <time>2022-11-01T14:48:01.000Z</time>
      </trkpt>
      <trkpt lat="48.05589" lon="6.94268">
        <ele>916</ele>
        <time>2022-11-01T14:48:06.000Z</time>
      </trkpt>
      <trkpt lat="48.05591" lon="6.94269">
        <ele>916</ele>
        <time>2022-11-01T14:48:08.000Z</time>
      </trkpt>
      <trkpt lat="48.05593" lon="6.9427">
        <ele>916.19995117188</ele>
        <time>2022-11-01T14:48:09.000Z</time>
      </trkpt>
      <trkpt lat="48.05596" lon="6.94271">
        <ele>916.19995117188</ele>
        <time>2022-11-01T14:48:12.000Z</time>
      </trkpt>
      <trkpt lat="48.05597" lon="6.94271">
        <ele>916.19995117188</ele>
        <time>2022-11-01T14:48:13.000Z</time>
      </trkpt>
      <trkpt lat="48.05604" lon="6.94273">
        <ele>916.19995117188</ele>
        <time>2022-11-01T14:48:18.000Z</time>
      </trkpt>
      <trkpt lat="48.05605" lon="6.94273">
        <ele>916.19995117188</ele>
        <time>2022-11-01T14:48:19.000Z</time>
      </trkpt>
      <trkpt lat="48.05605" lon="6.94274">
        <ele>916.19995117188</ele>
        <time>2022-11-01T14:48:20.000Z</time>
      </trkpt>
      <trkpt lat="48.05608" lon="6.94276">
        <ele>916.40002441406</ele>
        <time>2022-11-01T14:48:25.000Z</time>
      </trkpt>
      <trkpt lat="48.0561" lon="6.94277">
        <ele>916.40002441406</ele>
        <time>2022-11-01T14:48:27.000Z</time>
      </trkpt>
      <trkpt lat="48.05611" lon="6.94277">
        <ele>916.40002441406</ele>
        <time>2022-11-01T14:48:30.000Z</time>
      </trkpt>
      <trkpt lat="48.05616" lon="6.94276">
        <ele>916.40002441406</ele>
        <time>2022-11-01T14:48:35.000Z</time>
      </trkpt>
      <trkpt lat="48.05615" lon="6.94278">
        <ele>916.40002441406</ele>
        <time>2022-11-01T14:48:42.000Z</time>
      </trkpt>
      <trkpt lat="48.05617" lon="6.94279">
        <ele>916.19995117188</ele>
        <time>2022-11-01T14:48:47.000Z</time>
      </trkpt>
      <trkpt lat="48.05619" lon="6.9428">
        <ele>915.80004882812</ele>
        <time>2022-11-01T14:48:50.000Z</time>
      </trkpt>
      <trkpt lat="48.0562" lon="6.94281">
        <ele>915.40002441406</ele>
        <time>2022-11-01T14:48:53.000Z</time>
      </trkpt>
      <trkpt lat="48.05622" lon="6.94282">
        <ele>915</ele>
        <time>2022-11-01T14:48:56.000Z</time>
      </trkpt>
      <trkpt lat="48.05623" lon="6.94283">
        <ele>914.80004882812</ele>
        <time>2022-11-01T14:48:58.000Z</time>
      </trkpt>
      <trkpt lat="48.05623" lon="6.94287">
        <ele>914.19995117188</ele>
        <time>2022-11-01T14:49:02.000Z</time>
      </trkpt>
      <trkpt lat="48.05631" lon="6.94293">
        <ele>914.59997558594</ele>
        <time>2022-11-01T14:49:09.000Z</time>
      </trkpt>
      <trkpt lat="48.05634" lon="6.943">
        <ele>915.59997558594</ele>
        <time>2022-11-01T14:49:14.000Z</time>
      </trkpt>
      <trkpt lat="48.05641" lon="6.94304">
        <ele>916</ele>
        <time>2022-11-01T14:49:20.000Z</time>
      </trkpt>
      <trkpt lat="48.05642" lon="6.94304">
        <ele>916</ele>
        <time>2022-11-01T14:49:21.000Z</time>
      </trkpt>
      <trkpt lat="48.05642" lon="6.94304">
        <ele>916.19995117188</ele>
        <time>2022-11-01T14:49:22.000Z</time>
      </trkpt>
      <trkpt lat="48.05644" lon="6.94303">
        <ele>917.40002441406</ele>
        <time>2022-11-01T14:49:26.000Z</time>
      </trkpt>
      <trkpt lat="48.05647" lon="6.94304">
        <ele>918.19995117188</ele>
        <time>2022-11-01T14:49:30.000Z</time>
      </trkpt>
      <trkpt lat="48.05648" lon="6.94304">
        <ele>918.19995117188</ele>
        <time>2022-11-01T14:49:31.000Z</time>
      </trkpt>
      <trkpt lat="48.05649" lon="6.94304">
        <ele>918.40002441406</ele>
        <time>2022-11-01T14:49:32.000Z</time>
      </trkpt>
      <trkpt lat="48.05652" lon="6.94304">
        <ele>918.80004882812</ele>
        <time>2022-11-01T14:49:35.000Z</time>
      </trkpt>
      <trkpt lat="48.05653" lon="6.94305">
        <ele>918.80004882812</ele>
        <time>2022-11-01T14:49:36.000Z</time>
      </trkpt>
      <trkpt lat="48.05653" lon="6.9431">
        <ele>918.80004882812</ele>
        <time>2022-11-01T14:49:40.000Z</time>
      </trkpt>
      <trkpt lat="48.05653" lon="6.94317">
        <ele>918.59997558594</ele>
        <time>2022-11-01T14:49:43.000Z</time>
      </trkpt>
      <trkpt lat="48.05651" lon="6.94324">
        <ele>917.80004882812</ele>
        <time>2022-11-01T14:49:46.000Z</time>
      </trkpt>
      <trkpt lat="48.05651" lon="6.94333">
        <ele>917.59997558594</ele>
        <time>2022-11-01T14:49:50.000Z</time>
      </trkpt>
      <trkpt lat="48.0565" lon="6.94337">
        <ele>918</ele>
        <time>2022-11-01T14:49:52.000Z</time>
      </trkpt>
      <trkpt lat="48.0565" lon="6.9434">
        <ele>918.19995117188</ele>
        <time>2022-11-01T14:49:55.000Z</time>
      </trkpt>
      <trkpt lat="48.0565" lon="6.94349">
        <ele>918.59997558594</ele>
        <time>2022-11-01T14:49:59.000Z</time>
      </trkpt>
      <trkpt lat="48.05654" lon="6.94365">
        <ele>919.59997558594</ele>
        <time>2022-11-01T14:50:05.000Z</time>
      </trkpt>
      <trkpt lat="48.05654" lon="6.94368">
        <ele>919.59997558594</ele>
        <time>2022-11-01T14:50:06.000Z</time>
      </trkpt>
      <trkpt lat="48.05654" lon="6.94374">
        <ele>920</ele>
        <time>2022-11-01T14:50:09.000Z</time>
      </trkpt>
      <trkpt lat="48.05654" lon="6.94378">
        <ele>920</ele>
        <time>2022-11-01T14:50:11.000Z</time>
      </trkpt>
      <trkpt lat="48.05654" lon="6.9438">
        <ele>920</ele>
        <time>2022-11-01T14:50:12.000Z</time>
      </trkpt>
      <trkpt lat="48.05653" lon="6.94385">
        <ele>920</ele>
        <time>2022-11-01T14:50:14.000Z</time>
      </trkpt>
      <trkpt lat="48.05652" lon="6.94393">
        <ele>920</ele>
        <time>2022-11-01T14:50:17.000Z</time>
      </trkpt>
      <trkpt lat="48.05649" lon="6.94403">
        <ele>920.59997558594</ele>
        <time>2022-11-01T14:50:21.000Z</time>
      </trkpt>
      <trkpt lat="48.05649" lon="6.94405">
        <ele>921</ele>
        <time>2022-11-01T14:50:22.000Z</time>
      </trkpt>
      <trkpt lat="48.05651" lon="6.94415">
        <ele>921.19995117188</ele>
        <time>2022-11-01T14:50:27.000Z</time>
      </trkpt>
      <trkpt lat="48.05652" lon="6.94418">
        <ele>921.19995117188</ele>
        <time>2022-11-01T14:50:29.000Z</time>
      </trkpt>
      <trkpt lat="48.05652" lon="6.94419">
        <ele>921.40002441406</ele>
        <time>2022-11-01T14:50:30.000Z</time>
      </trkpt>
      <trkpt lat="48.0565" lon="6.94418">
        <ele>921.40002441406</ele>
        <time>2022-11-01T14:50:33.000Z</time>
      </trkpt>
      <trkpt lat="48.0565" lon="6.94419">
        <ele>921.40002441406</ele>
        <time>2022-11-01T14:50:35.000Z</time>
      </trkpt>
      <trkpt lat="48.05652" lon="6.94427">
        <ele>921.80004882812</ele>
        <time>2022-11-01T14:50:39.000Z</time>
      </trkpt>
      <trkpt lat="48.05654" lon="6.94434">
        <ele>922.40002441406</ele>
        <time>2022-11-01T14:50:44.000Z</time>
      </trkpt>
      <trkpt lat="48.05654" lon="6.94437">
        <ele>922.59997558594</ele>
        <time>2022-11-01T14:50:46.000Z</time>
      </trkpt>
      <trkpt lat="48.05654" lon="6.94447">
        <ele>922.80004882812</ele>
        <time>2022-11-01T14:50:51.000Z</time>
      </trkpt>
      <trkpt lat="48.05654" lon="6.94453">
        <ele>922.40002441406</ele>
        <time>2022-11-01T14:50:54.000Z</time>
      </trkpt>
      <trkpt lat="48.05654" lon="6.94463">
        <ele>921.59997558594</ele>
        <time>2022-11-01T14:50:59.000Z</time>
      </trkpt>
      <trkpt lat="48.05656" lon="6.94468">
        <ele>921.19995117188</ele>
        <time>2022-11-01T14:51:03.000Z</time>
      </trkpt>
      <trkpt lat="48.05656" lon="6.94471">
        <ele>921.19995117188</ele>
        <time>2022-11-01T14:51:04.000Z</time>
      </trkpt>
      <trkpt lat="48.05655" lon="6.94476">
        <ele>920.40002441406</ele>
        <time>2022-11-01T14:51:07.000Z</time>
      </trkpt>
      <trkpt lat="48.05653" lon="6.94478">
        <ele>920</ele>
        <time>2022-11-01T14:51:09.000Z</time>
      </trkpt>
      <trkpt lat="48.05652" lon="6.94479">
        <ele>919.40002441406</ele>
        <time>2022-11-01T14:51:11.000Z</time>
      </trkpt>
      <trkpt lat="48.05652" lon="6.94481">
        <ele>919.19995117188</ele>
        <time>2022-11-01T14:51:12.000Z</time>
      </trkpt>
      <trkpt lat="48.0565" lon="6.94485">
        <ele>919</ele>
        <time>2022-11-01T14:51:15.000Z</time>
      </trkpt>
      <trkpt lat="48.05649" lon="6.9449">
        <ele>919.40002441406</ele>
        <time>2022-11-01T14:51:20.000Z</time>
      </trkpt>
      <trkpt lat="48.05647" lon="6.94495">
        <ele>919.59997558594</ele>
        <time>2022-11-01T14:51:23.000Z</time>
      </trkpt>
      <trkpt lat="48.05642" lon="6.94504">
        <ele>919</ele>
        <time>2022-11-01T14:51:28.000Z</time>
      </trkpt>
      <trkpt lat="48.05642" lon="6.94505">
        <ele>919</ele>
        <time>2022-11-01T14:51:29.000Z</time>
      </trkpt>
      <trkpt lat="48.0564" lon="6.94509">
        <ele>919</ele>
        <time>2022-11-01T14:51:32.000Z</time>
      </trkpt>
      <trkpt lat="48.05638" lon="6.94511">
        <ele>919.19995117188</ele>
        <time>2022-11-01T14:51:34.000Z</time>
      </trkpt>
      <trkpt lat="48.05637" lon="6.94513">
        <ele>919.19995117188</ele>
        <time>2022-11-01T14:51:35.000Z</time>
      </trkpt>
      <trkpt lat="48.05633" lon="6.9452">
        <ele>919</ele>
        <time>2022-11-01T14:51:41.000Z</time>
      </trkpt>
      <trkpt lat="48.05629" lon="6.94525">
        <ele>918.40002441406</ele>
        <time>2022-11-01T14:51:44.000Z</time>
      </trkpt>
      <trkpt lat="48.05628" lon="6.94528">
        <ele>918.40002441406</ele>
        <time>2022-11-01T14:51:46.000Z</time>
      </trkpt>
      <trkpt lat="48.05623" lon="6.94533">
        <ele>918</ele>
        <time>2022-11-01T14:51:52.000Z</time>
      </trkpt>
      <trkpt lat="48.0562" lon="6.94535">
        <ele>917.80004882812</ele>
        <time>2022-11-01T14:51:54.000Z</time>
      </trkpt>
      <trkpt lat="48.05617" lon="6.94541">
        <ele>917.40002441406</ele>
        <time>2022-11-01T14:51:59.000Z</time>
      </trkpt>
      <trkpt lat="48.05615" lon="6.94545">
        <ele>917.40002441406</ele>
        <time>2022-11-01T14:52:03.000Z</time>
      </trkpt>
      <trkpt lat="48.05612" lon="6.94549">
        <ele>917.59997558594</ele>
        <time>2022-11-01T14:52:06.000Z</time>
      </trkpt>
      <trkpt lat="48.05609" lon="6.94555">
        <ele>918.19995117188</ele>
        <time>2022-11-01T14:52:11.000Z</time>
      </trkpt>
      <trkpt lat="48.05608" lon="6.94556">
        <ele>918.19995117188</ele>
        <time>2022-11-01T14:52:12.000Z</time>
      </trkpt>
      <trkpt lat="48.05607" lon="6.94557">
        <ele>918.19995117188</ele>
        <time>2022-11-01T14:52:13.000Z</time>
      </trkpt>
      <trkpt lat="48.05604" lon="6.94561">
        <ele>918.40002441406</ele>
        <time>2022-11-01T14:52:18.000Z</time>
      </trkpt>
      <trkpt lat="48.05596" lon="6.94569">
        <ele>917.59997558594</ele>
        <time>2022-11-01T14:52:26.000Z</time>
      </trkpt>
      <trkpt lat="48.05593" lon="6.94574">
        <ele>917.19995117188</ele>
        <time>2022-11-01T14:52:30.000Z</time>
      </trkpt>
      <trkpt lat="48.05589" lon="6.94579">
        <ele>916.59997558594</ele>
        <time>2022-11-01T14:52:34.000Z</time>
      </trkpt>
      <trkpt lat="48.05585" lon="6.94581">
        <ele>916.19995117188</ele>
        <time>2022-11-01T14:52:38.000Z</time>
      </trkpt>
      <trkpt lat="48.05582" lon="6.94582">
        <ele>915.19995117188</ele>
        <time>2022-11-01T14:52:42.000Z</time>
      </trkpt>
      <trkpt lat="48.05574" lon="6.94588">
        <ele>913.80004882812</ele>
        <time>2022-11-01T14:52:48.000Z</time>
      </trkpt>
      <trkpt lat="48.05569" lon="6.94589">
        <ele>913.19995117188</ele>
        <time>2022-11-01T14:52:53.000Z</time>
      </trkpt>
      <trkpt lat="48.05564" lon="6.94593">
        <ele>913.19995117188</ele>
        <time>2022-11-01T14:52:58.000Z</time>
      </trkpt>
      <trkpt lat="48.05563" lon="6.9459">
        <ele>913.19995117188</ele>
        <time>2022-11-01T14:53:05.000Z</time>
      </trkpt>
      <trkpt lat="48.05562" lon="6.94589">
        <ele>912.80004882812</ele>
        <time>2022-11-01T14:53:12.000Z</time>
      </trkpt>
      <trkpt lat="48.0556" lon="6.9459">
        <ele>913</ele>
        <time>2022-11-01T14:53:14.000Z</time>
      </trkpt>
      <trkpt lat="48.05555" lon="6.94595">
        <ele>913</ele>
        <time>2022-11-01T14:53:22.000Z</time>
      </trkpt>
      <trkpt lat="48.05551" lon="6.94601">
        <ele>913.40002441406</ele>
        <time>2022-11-01T14:53:29.000Z</time>
      </trkpt>
      <trkpt lat="48.05547" lon="6.94605">
        <ele>913.59997558594</ele>
        <time>2022-11-01T14:53:34.000Z</time>
      </trkpt>
      <trkpt lat="48.05545" lon="6.94606">
        <ele>913.40002441406</ele>
        <time>2022-11-01T14:53:35.000Z</time>
      </trkpt>
      <trkpt lat="48.05538" lon="6.94606">
        <ele>911.80004882812</ele>
        <time>2022-11-01T14:53:41.000Z</time>
      </trkpt>
      <trkpt lat="48.05529" lon="6.94611">
        <ele>912</ele>
        <time>2022-11-01T14:53:48.000Z</time>
      </trkpt>
      <trkpt lat="48.05526" lon="6.94613">
        <ele>912</ele>
        <time>2022-11-01T14:53:50.000Z</time>
      </trkpt>
      <trkpt lat="48.05523" lon="6.94615">
        <ele>912</ele>
        <time>2022-11-01T14:53:52.000Z</time>
      </trkpt>
      <trkpt lat="48.0552" lon="6.94615">
        <ele>912</ele>
        <time>2022-11-01T14:53:54.000Z</time>
      </trkpt>
      <trkpt lat="48.05513" lon="6.94618">
        <ele>911.80004882812</ele>
        <time>2022-11-01T14:54:01.000Z</time>
      </trkpt>
      <trkpt lat="48.05508" lon="6.94614">
        <ele>911.80004882812</ele>
        <time>2022-11-01T14:54:10.000Z</time>
      </trkpt>
      <trkpt lat="48.0551" lon="6.94613">
        <ele>912</ele>
        <time>2022-11-01T14:54:20.000Z</time>
      </trkpt>
      <trkpt lat="48.05509" lon="6.94614">
        <ele>912</ele>
        <time>2022-11-01T14:54:46.000Z</time>
      </trkpt>
      <trkpt lat="48.055" lon="6.94618">
        <ele>912.40002441406</ele>
        <time>2022-11-01T14:55:11.000Z</time>
      </trkpt>
      <trkpt lat="48.05498" lon="6.94619">
        <ele>912.59997558594</ele>
        <time>2022-11-01T14:55:12.000Z</time>
      </trkpt>
      <trkpt lat="48.0549" lon="6.94631">
        <ele>912.80004882812</ele>
        <time>2022-11-01T14:55:18.000Z</time>
      </trkpt>
      <trkpt lat="48.05487" lon="6.94639">
        <ele>913.19995117188</ele>
        <time>2022-11-01T14:55:24.000Z</time>
      </trkpt>
      <trkpt lat="48.05486" lon="6.9464">
        <ele>913.19995117188</ele>
        <time>2022-11-01T14:55:25.000Z</time>
      </trkpt>
      <trkpt lat="48.05482" lon="6.94646">
        <ele>913.19995117188</ele>
        <time>2022-11-01T14:55:30.000Z</time>
      </trkpt>
      <trkpt lat="48.05481" lon="6.94647">
        <ele>913.19995117188</ele>
        <time>2022-11-01T14:55:31.000Z</time>
      </trkpt>
      <trkpt lat="48.05476" lon="6.94651">
        <ele>912.40002441406</ele>
        <time>2022-11-01T14:55:34.000Z</time>
      </trkpt>
      <trkpt lat="48.05473" lon="6.94656">
        <ele>912</ele>
        <time>2022-11-01T14:55:38.000Z</time>
      </trkpt>
      <trkpt lat="48.0547" lon="6.94661">
        <ele>912.40002441406</ele>
        <time>2022-11-01T14:55:40.000Z</time>
      </trkpt>
      <trkpt lat="48.05469" lon="6.94663">
        <ele>912.59997558594</ele>
        <time>2022-11-01T14:55:42.000Z</time>
      </trkpt>
      <trkpt lat="48.0547" lon="6.94666">
        <ele>912.19995117188</ele>
        <time>2022-11-01T14:55:45.000Z</time>
      </trkpt>
      <trkpt lat="48.05467" lon="6.94666">
        <ele>911.59997558594</ele>
        <time>2022-11-01T14:55:47.000Z</time>
      </trkpt>
      <trkpt lat="48.05465" lon="6.94668">
        <ele>911.40002441406</ele>
        <time>2022-11-01T14:55:51.000Z</time>
      </trkpt>
      <trkpt lat="48.05465" lon="6.94667">
        <ele>911.40002441406</ele>
        <time>2022-11-01T14:55:57.000Z</time>
      </trkpt>
      <trkpt lat="48.05465" lon="6.94671">
        <ele>911.80004882812</ele>
        <time>2022-11-01T14:56:02.000Z</time>
      </trkpt>
      <trkpt lat="48.05466" lon="6.94675">
        <ele>911.80004882812</ele>
        <time>2022-11-01T14:56:07.000Z</time>
      </trkpt>
      <trkpt lat="48.05466" lon="6.94676">
        <ele>912</ele>
        <time>2022-11-01T14:56:08.000Z</time>
      </trkpt>
      <trkpt lat="48.05464" lon="6.94677">
        <ele>912.19995117188</ele>
        <time>2022-11-01T14:56:12.000Z</time>
      </trkpt>
      <trkpt lat="48.05462" lon="6.94677">
        <ele>912.40002441406</ele>
        <time>2022-11-01T14:56:14.000Z</time>
      </trkpt>
      <trkpt lat="48.05461" lon="6.94677">
        <ele>912.59997558594</ele>
        <time>2022-11-01T14:56:15.000Z</time>
      </trkpt>
      <trkpt lat="48.05461" lon="6.94678">
        <ele>912.59997558594</ele>
        <time>2022-11-01T14:56:16.000Z</time>
      </trkpt>
      <trkpt lat="48.05461" lon="6.94679">
        <ele>913.80004882812</ele>
        <time>2022-11-01T14:56:21.000Z</time>
      </trkpt>
      <trkpt lat="48.05461" lon="6.94679">
        <ele>914</ele>
        <time>2022-11-01T14:56:22.000Z</time>
      </trkpt>
      <trkpt lat="48.05464" lon="6.94681">
        <ele>915</ele>
        <time>2022-11-01T14:56:25.000Z</time>
      </trkpt>
      <trkpt lat="48.05466" lon="6.94684">
        <ele>916</ele>
        <time>2022-11-01T14:56:28.000Z</time>
      </trkpt>
      <trkpt lat="48.05468" lon="6.94689">
        <ele>917.19995117188</ele>
        <time>2022-11-01T14:56:34.000Z</time>
      </trkpt>
      <trkpt lat="48.05468" lon="6.94689">
        <ele>917.59997558594</ele>
        <time>2022-11-01T14:56:35.000Z</time>
      </trkpt>
      <trkpt lat="48.05468" lon="6.9469">
        <ele>918.40002441406</ele>
        <time>2022-11-01T14:56:37.000Z</time>
      </trkpt>
      <trkpt lat="48.05471" lon="6.9469">
        <ele>919.59997558594</ele>
        <time>2022-11-01T14:56:41.000Z</time>
      </trkpt>
      <trkpt lat="48.05473" lon="6.94689">
        <ele>920</ele>
        <time>2022-11-01T14:56:43.000Z</time>
      </trkpt>
      <trkpt lat="48.05473" lon="6.9469">
        <ele>920.59997558594</ele>
        <time>2022-11-01T14:56:45.000Z</time>
      </trkpt>
      <trkpt lat="48.05473" lon="6.9469">
        <ele>921</ele>
        <time>2022-11-01T14:56:46.000Z</time>
      </trkpt>
      <trkpt lat="48.05475" lon="6.94694">
        <ele>921.40002441406</ele>
        <time>2022-11-01T14:56:48.000Z</time>
      </trkpt>
      <trkpt lat="48.05477" lon="6.94695">
        <ele>921.40002441406</ele>
        <time>2022-11-01T14:56:50.000Z</time>
      </trkpt>
      <trkpt lat="48.05479" lon="6.94696">
        <ele>922</ele>
        <time>2022-11-01T14:56:52.000Z</time>
      </trkpt>
      <trkpt lat="48.05481" lon="6.94697">
        <ele>922.80004882812</ele>
        <time>2022-11-01T14:56:55.000Z</time>
      </trkpt>
      <trkpt lat="48.05482" lon="6.94698">
        <ele>923.19995117188</ele>
        <time>2022-11-01T14:56:56.000Z</time>
      </trkpt>
      <trkpt lat="48.05483" lon="6.94698">
        <ele>923.80004882812</ele>
        <time>2022-11-01T14:56:58.000Z</time>
      </trkpt>
      <trkpt lat="48.05486" lon="6.94698">
        <ele>924.40002441406</ele>
        <time>2022-11-01T14:57:01.000Z</time>
      </trkpt>
      <trkpt lat="48.05486" lon="6.94699">
        <ele>924.59997558594</ele>
        <time>2022-11-01T14:57:02.000Z</time>
      </trkpt>
      <trkpt lat="48.05489" lon="6.94702">
        <ele>925.19995117188</ele>
        <time>2022-11-01T14:57:06.000Z</time>
      </trkpt>
      <trkpt lat="48.05489" lon="6.94702">
        <ele>925.40002441406</ele>
        <time>2022-11-01T14:57:07.000Z</time>
      </trkpt>
      <trkpt lat="48.05492" lon="6.94701">
        <ele>926.40002441406</ele>
        <time>2022-11-01T14:57:11.000Z</time>
      </trkpt>
      <trkpt lat="48.05492" lon="6.94702">
        <ele>927</ele>
        <time>2022-11-01T14:57:13.000Z</time>
      </trkpt>
      <trkpt lat="48.05494" lon="6.94706">
        <ele>927.59997558594</ele>
        <time>2022-11-01T14:57:17.000Z</time>
      </trkpt>
      <trkpt lat="48.05495" lon="6.94709">
        <ele>928.19995117188</ele>
        <time>2022-11-01T14:57:20.000Z</time>
      </trkpt>
      <trkpt lat="48.05497" lon="6.94712">
        <ele>928.59997558594</ele>
        <time>2022-11-01T14:57:23.000Z</time>
      </trkpt>
      <trkpt lat="48.055" lon="6.94716">
        <ele>929.59997558594</ele>
        <time>2022-11-01T14:57:27.000Z</time>
      </trkpt>
      <trkpt lat="48.055" lon="6.94718">
        <ele>929.59997558594</ele>
        <time>2022-11-01T14:57:28.000Z</time>
      </trkpt>
      <trkpt lat="48.05506" lon="6.9472">
        <ele>929.80004882812</ele>
        <time>2022-11-01T14:57:35.000Z</time>
      </trkpt>
      <trkpt lat="48.05509" lon="6.94724">
        <ele>930.80004882812</ele>
        <time>2022-11-01T14:57:41.000Z</time>
      </trkpt>
      <trkpt lat="48.0551" lon="6.94727">
        <ele>931.80004882812</ele>
        <time>2022-11-01T14:57:45.000Z</time>
      </trkpt>
      <trkpt lat="48.05513" lon="6.94732">
        <ele>932.80004882812</ele>
        <time>2022-11-01T14:57:51.000Z</time>
      </trkpt>
      <trkpt lat="48.05514" lon="6.94732">
        <ele>932.80004882812</ele>
        <time>2022-11-01T14:57:52.000Z</time>
      </trkpt>
      <trkpt lat="48.05514" lon="6.94731">
        <ele>933</ele>
        <time>2022-11-01T14:57:59.000Z</time>
      </trkpt>
      <trkpt lat="48.05515" lon="6.94724">
        <ele>933</ele>
        <time>2022-11-01T14:58:05.000Z</time>
      </trkpt>
      <trkpt lat="48.05516" lon="6.94726">
        <ele>933</ele>
        <time>2022-11-01T14:58:11.000Z</time>
      </trkpt>
      <trkpt lat="48.05516" lon="6.94727">
        <ele>933</ele>
        <time>2022-11-01T14:58:12.000Z</time>
      </trkpt>
      <trkpt lat="48.05516" lon="6.94727">
        <ele>933</ele>
        <time>2022-11-01T14:58:18.000Z</time>
      </trkpt>
      <trkpt lat="48.05516" lon="6.94727">
        <ele>933.19995117188</ele>
        <time>2022-11-01T14:58:26.000Z</time>
      </trkpt>
      <trkpt lat="48.05515" lon="6.94727">
        <ele>933.19995117188</ele>
        <time>2022-11-01T14:58:27.000Z</time>
      </trkpt>
      <trkpt lat="48.05513" lon="6.94728">
        <ele>933.59997558594</ele>
        <time>2022-11-01T14:58:33.000Z</time>
      </trkpt>
      <trkpt lat="48.0551" lon="6.94728">
        <ele>933.59997558594</ele>
        <time>2022-11-01T14:58:39.000Z</time>
      </trkpt>
      <trkpt lat="48.05508" lon="6.94729">
        <ele>934</ele>
        <time>2022-11-01T14:58:44.000Z</time>
      </trkpt>
      <trkpt lat="48.05507" lon="6.9473">
        <ele>934.19995117188</ele>
        <time>2022-11-01T14:58:45.000Z</time>
      </trkpt>
      <trkpt lat="48.05506" lon="6.94731">
        <ele>935</ele>
        <time>2022-11-01T14:58:48.000Z</time>
      </trkpt>
      <trkpt lat="48.05504" lon="6.94733">
        <ele>935.40002441406</ele>
        <time>2022-11-01T14:58:51.000Z</time>
      </trkpt>
      <trkpt lat="48.05502" lon="6.94739">
        <ele>936</ele>
        <time>2022-11-01T14:58:57.000Z</time>
      </trkpt>
      <trkpt lat="48.05502" lon="6.94744">
        <ele>936.19995117188</ele>
        <time>2022-11-01T14:59:01.000Z</time>
      </trkpt>
      <trkpt lat="48.05502" lon="6.94747">
        <ele>936.19995117188</ele>
        <time>2022-11-01T14:59:03.000Z</time>
      </trkpt>
      <trkpt lat="48.05502" lon="6.94753">
        <ele>937</ele>
        <time>2022-11-01T14:59:08.000Z</time>
      </trkpt>
      <trkpt lat="48.055" lon="6.94756">
        <ele>937.40002441406</ele>
        <time>2022-11-01T14:59:10.000Z</time>
      </trkpt>
      <trkpt lat="48.05502" lon="6.94758">
        <ele>937.80004882812</ele>
        <time>2022-11-01T14:59:13.000Z</time>
      </trkpt>
      <trkpt lat="48.055" lon="6.9476">
        <ele>938.59997558594</ele>
        <time>2022-11-01T14:59:16.000Z</time>
      </trkpt>
      <trkpt lat="48.05498" lon="6.94762">
        <ele>939</ele>
        <time>2022-11-01T14:59:18.000Z</time>
      </trkpt>
      <trkpt lat="48.05497" lon="6.94765">
        <ele>939.59997558594</ele>
        <time>2022-11-01T14:59:20.000Z</time>
      </trkpt>
      <trkpt lat="48.05497" lon="6.94767">
        <ele>939.80004882812</ele>
        <time>2022-11-01T14:59:21.000Z</time>
      </trkpt>
      <trkpt lat="48.05497" lon="6.9477">
        <ele>940.80004882812</ele>
        <time>2022-11-01T14:59:25.000Z</time>
      </trkpt>
      <trkpt lat="48.05498" lon="6.94773">
        <ele>942</ele>
        <time>2022-11-01T14:59:30.000Z</time>
      </trkpt>
      <trkpt lat="48.05498" lon="6.94772">
        <ele>942.40002441406</ele>
        <time>2022-11-01T14:59:31.000Z</time>
      </trkpt>
      <trkpt lat="48.05499" lon="6.9477">
        <ele>943</ele>
        <time>2022-11-01T14:59:35.000Z</time>
      </trkpt>
      <trkpt lat="48.05497" lon="6.94768">
        <ele>943.40002441406</ele>
        <time>2022-11-01T14:59:37.000Z</time>
      </trkpt>
      <trkpt lat="48.05498" lon="6.94767">
        <ele>944.19995117188</ele>
        <time>2022-11-01T14:59:40.000Z</time>
      </trkpt>
      <trkpt lat="48.05498" lon="6.94766">
        <ele>944.59997558594</ele>
        <time>2022-11-01T14:59:42.000Z</time>
      </trkpt>
      <trkpt lat="48.05499" lon="6.94765">
        <ele>945</ele>
        <time>2022-11-01T14:59:44.000Z</time>
      </trkpt>
      <trkpt lat="48.055" lon="6.94764">
        <ele>945.40002441406</ele>
        <time>2022-11-01T14:59:45.000Z</time>
      </trkpt>
      <trkpt lat="48.055" lon="6.94763">
        <ele>945.59997558594</ele>
        <time>2022-11-01T14:59:47.000Z</time>
      </trkpt>
      <trkpt lat="48.05501" lon="6.94763">
        <ele>946</ele>
        <time>2022-11-01T14:59:50.000Z</time>
      </trkpt>
      <trkpt lat="48.05502" lon="6.94763">
        <ele>946.40002441406</ele>
        <time>2022-11-01T14:59:53.000Z</time>
      </trkpt>
      <trkpt lat="48.05505" lon="6.94763">
        <ele>947.59997558594</ele>
        <time>2022-11-01T14:59:58.000Z</time>
      </trkpt>
      <trkpt lat="48.05506" lon="6.94762">
        <ele>947.80004882812</ele>
        <time>2022-11-01T14:59:59.000Z</time>
      </trkpt>
      <trkpt lat="48.05511" lon="6.94763">
        <ele>948.59997558594</ele>
        <time>2022-11-01T15:00:03.000Z</time>
      </trkpt>
      <trkpt lat="48.05513" lon="6.94763">
        <ele>949</ele>
        <time>2022-11-01T15:00:05.000Z</time>
      </trkpt>
      <trkpt lat="48.05515" lon="6.94762">
        <ele>949.80004882812</ele>
        <time>2022-11-01T15:00:09.000Z</time>
      </trkpt>
      <trkpt lat="48.05515" lon="6.94762">
        <ele>950</ele>
        <time>2022-11-01T15:00:10.000Z</time>
      </trkpt>
      <trkpt lat="48.05516" lon="6.94761">
        <ele>950.59997558594</ele>
        <time>2022-11-01T15:00:14.000Z</time>
      </trkpt>
      <trkpt lat="48.05517" lon="6.94759">
        <ele>951</ele>
        <time>2022-11-01T15:00:16.000Z</time>
      </trkpt>
      <trkpt lat="48.05525" lon="6.94763">
        <ele>952</ele>
        <time>2022-11-01T15:00:23.000Z</time>
      </trkpt>
      <trkpt lat="48.05526" lon="6.94763">
        <ele>952.19995117188</ele>
        <time>2022-11-01T15:00:24.000Z</time>
      </trkpt>
      <trkpt lat="48.05526" lon="6.94761">
        <ele>953.19995117188</ele>
        <time>2022-11-01T15:00:29.000Z</time>
      </trkpt>
      <trkpt lat="48.05524" lon="6.94764">
        <ele>954</ele>
        <time>2022-11-01T15:00:34.000Z</time>
      </trkpt>
      <trkpt lat="48.05524" lon="6.94765">
        <ele>954.19995117188</ele>
        <time>2022-11-01T15:00:35.000Z</time>
      </trkpt>
      <trkpt lat="48.05524" lon="6.94763">
        <ele>954.80004882812</ele>
        <time>2022-11-01T15:00:38.000Z</time>
      </trkpt>
      <trkpt lat="48.05524" lon="6.94763">
        <ele>955.19995117188</ele>
        <time>2022-11-01T15:00:42.000Z</time>
      </trkpt>
      <trkpt lat="48.05524" lon="6.94762">
        <ele>955.59997558594</ele>
        <time>2022-11-01T15:00:44.000Z</time>
      </trkpt>
      <trkpt lat="48.05525" lon="6.94763">
        <ele>956.40002441406</ele>
        <time>2022-11-01T15:00:47.000Z</time>
      </trkpt>
      <trkpt lat="48.05526" lon="6.94765">
        <ele>956.59997558594</ele>
        <time>2022-11-01T15:00:50.000Z</time>
      </trkpt>
      <trkpt lat="48.05529" lon="6.94767">
        <ele>957</ele>
        <time>2022-11-01T15:00:55.000Z</time>
      </trkpt>
      <trkpt lat="48.05532" lon="6.94768">
        <ele>957.40002441406</ele>
        <time>2022-11-01T15:00:59.000Z</time>
      </trkpt>
      <trkpt lat="48.05532" lon="6.94769">
        <ele>957.40002441406</ele>
        <time>2022-11-01T15:01:00.000Z</time>
      </trkpt>
      <trkpt lat="48.05534" lon="6.94772">
        <ele>957.40002441406</ele>
        <time>2022-11-01T15:01:07.000Z</time>
      </trkpt>
      <trkpt lat="48.05535" lon="6.94773">
        <ele>957.40002441406</ele>
        <time>2022-11-01T15:01:10.000Z</time>
      </trkpt>
      <trkpt lat="48.05534" lon="6.94773">
        <ele>957.59997558594</ele>
        <time>2022-11-01T15:01:12.000Z</time>
      </trkpt>
      <trkpt lat="48.05533" lon="6.94776">
        <ele>958</ele>
        <time>2022-11-01T15:01:19.000Z</time>
      </trkpt>
      <trkpt lat="48.05534" lon="6.94778">
        <ele>957.80004882812</ele>
        <time>2022-11-01T15:01:24.000Z</time>
      </trkpt>
      <trkpt lat="48.05535" lon="6.94778">
        <ele>957.80004882812</ele>
        <time>2022-11-01T15:01:30.000Z</time>
      </trkpt>
      <trkpt lat="48.05535" lon="6.94778">
        <ele>958</ele>
        <time>2022-11-01T15:01:33.000Z</time>
      </trkpt>
      <trkpt lat="48.05541" lon="6.94781">
        <ele>958.40002441406</ele>
        <time>2022-11-01T15:01:42.000Z</time>
      </trkpt>
      <trkpt lat="48.05542" lon="6.94782">
        <ele>958.40002441406</ele>
        <time>2022-11-01T15:01:43.000Z</time>
      </trkpt>
      <trkpt lat="48.05542" lon="6.94782">
        <ele>958.40002441406</ele>
        <time>2022-11-01T15:01:44.000Z</time>
      </trkpt>
      <trkpt lat="48.05545" lon="6.94782">
        <ele>958.40002441406</ele>
        <time>2022-11-01T15:01:49.000Z</time>
      </trkpt>
      <trkpt lat="48.05545" lon="6.94783">
        <ele>958.40002441406</ele>
        <time>2022-11-01T15:01:51.000Z</time>
      </trkpt>
      <trkpt lat="48.05545" lon="6.94785">
        <ele>958.40002441406</ele>
        <time>2022-11-01T15:01:54.000Z</time>
      </trkpt>
      <trkpt lat="48.05545" lon="6.94781">
        <ele>958.59997558594</ele>
        <time>2022-11-01T15:02:02.000Z</time>
      </trkpt>
      <trkpt lat="48.05542" lon="6.94781">
        <ele>958.59997558594</ele>
        <time>2022-11-01T15:02:09.000Z</time>
      </trkpt>
      <trkpt lat="48.05542" lon="6.94777">
        <ele>958.40002441406</ele>
        <time>2022-11-01T15:02:16.000Z</time>
      </trkpt>
      <trkpt lat="48.05541" lon="6.94774">
        <ele>958.80004882812</ele>
        <time>2022-11-01T15:02:22.000Z</time>
      </trkpt>
      <trkpt lat="48.0554" lon="6.94773">
        <ele>958.80004882812</ele>
        <time>2022-11-01T15:02:27.000Z</time>
      </trkpt>
      <trkpt lat="48.05537" lon="6.94767">
        <ele>958.80004882812</ele>
        <time>2022-11-01T15:02:34.000Z</time>
      </trkpt>
      <trkpt lat="48.05534" lon="6.94768">
        <ele>958.59997558594</ele>
        <time>2022-11-01T15:02:41.000Z</time>
      </trkpt>
      <trkpt lat="48.05533" lon="6.94769">
        <ele>958.80004882812</ele>
        <time>2022-11-01T15:02:46.000Z</time>
      </trkpt>
      <trkpt lat="48.05534" lon="6.94768">
        <ele>958.59997558594</ele>
        <time>2022-11-01T15:02:49.000Z</time>
      </trkpt>
      <trkpt lat="48.05534" lon="6.94767">
        <ele>958.40002441406</ele>
        <time>2022-11-01T15:02:50.000Z</time>
      </trkpt>
      <trkpt lat="48.05531" lon="6.94771">
        <ele>958.19995117188</ele>
        <time>2022-11-01T15:02:54.000Z</time>
      </trkpt>
      <trkpt lat="48.05531" lon="6.94769">
        <ele>958.19995117188</ele>
        <time>2022-11-01T15:02:57.000Z</time>
      </trkpt>
      <trkpt lat="48.0553" lon="6.94771">
        <ele>958.40002441406</ele>
        <time>2022-11-01T15:03:00.000Z</time>
      </trkpt>
      <trkpt lat="48.05531" lon="6.9477">
        <ele>958.59997558594</ele>
        <time>2022-11-01T15:03:05.000Z</time>
      </trkpt>
      <trkpt lat="48.05531" lon="6.94769">
        <ele>959.19995117188</ele>
        <time>2022-11-01T15:03:17.000Z</time>
      </trkpt>
      <trkpt lat="48.05531" lon="6.94769">
        <ele>959.40002441406</ele>
        <time>2022-11-01T15:03:29.000Z</time>
      </trkpt>
      <trkpt lat="48.05531" lon="6.9477">
        <ele>959.59997558594</ele>
        <time>2022-11-01T15:03:36.000Z</time>
      </trkpt>
      <trkpt lat="48.05531" lon="6.94774">
        <ele>959.80004882812</ele>
        <time>2022-11-01T15:03:41.000Z</time>
      </trkpt>
      <trkpt lat="48.05534" lon="6.94771">
        <ele>959.80004882812</ele>
        <time>2022-11-01T15:03:47.000Z</time>
      </trkpt>
      <trkpt lat="48.05535" lon="6.94773">
        <ele>959.80004882812</ele>
        <time>2022-11-01T15:03:53.000Z</time>
      </trkpt>
      <trkpt lat="48.05541" lon="6.94777">
        <ele>959.40002441406</ele>
        <time>2022-11-01T15:04:38.000Z</time>
      </trkpt>
      <trkpt lat="48.05541" lon="6.94777">
        <ele>959.59997558594</ele>
        <time>2022-11-01T15:04:42.000Z</time>
      </trkpt>
      <trkpt lat="48.05541" lon="6.94777">
        <ele>959.80004882812</ele>
        <time>2022-11-01T15:04:46.000Z</time>
      </trkpt>
      <trkpt lat="48.05541" lon="6.94776">
        <ele>960.19995117188</ele>
        <time>2022-11-01T15:04:49.000Z</time>
      </trkpt>
      <trkpt lat="48.0554" lon="6.94776">
        <ele>960.19995117188</ele>
        <time>2022-11-01T15:04:51.000Z</time>
      </trkpt>
      <trkpt lat="48.05538" lon="6.9478">
        <ele>960.19995117188</ele>
        <time>2022-11-01T15:05:14.000Z</time>
      </trkpt>
      <trkpt lat="48.0554" lon="6.9478">
        <ele>960</ele>
        <time>2022-11-01T15:05:18.000Z</time>
      </trkpt>
      <trkpt lat="48.05538" lon="6.94785">
        <ele>960.19995117188</ele>
        <time>2022-11-01T15:05:22.000Z</time>
      </trkpt>
      <trkpt lat="48.05534" lon="6.94796">
        <ele>960</ele>
        <time>2022-11-01T15:05:26.000Z</time>
      </trkpt>
      <trkpt lat="48.05534" lon="6.94795">
        <ele>960.19995117188</ele>
        <time>2022-11-01T15:05:32.000Z</time>
      </trkpt>
      <trkpt lat="48.05536" lon="6.9479">
        <ele>960.19995117188</ele>
        <time>2022-11-01T15:05:35.000Z</time>
      </trkpt>
      <trkpt lat="48.05537" lon="6.94787">
        <ele>960.40002441406</ele>
        <time>2022-11-01T15:05:39.000Z</time>
      </trkpt>
      <trkpt lat="48.05536" lon="6.94788">
        <ele>960.40002441406</ele>
        <time>2022-11-01T15:05:40.000Z</time>
      </trkpt>
      <trkpt lat="48.05536" lon="6.94791">
        <ele>960.40002441406</ele>
        <time>2022-11-01T15:05:44.000Z</time>
      </trkpt>
      <trkpt lat="48.05534" lon="6.94799">
        <ele>960.40002441406</ele>
        <time>2022-11-01T15:05:48.000Z</time>
      </trkpt>
      <trkpt lat="48.05534" lon="6.94797">
        <ele>960.40002441406</ele>
        <time>2022-11-01T15:05:51.000Z</time>
      </trkpt>
      <trkpt lat="48.05536" lon="6.94797">
        <ele>960.40002441406</ele>
        <time>2022-11-01T15:05:55.000Z</time>
      </trkpt>
      <trkpt lat="48.05538" lon="6.94791">
        <ele>960.40002441406</ele>
        <time>2022-11-01T15:05:59.000Z</time>
      </trkpt>
      <trkpt lat="48.05539" lon="6.9479">
        <ele>960.40002441406</ele>
        <time>2022-11-01T15:06:04.000Z</time>
      </trkpt>
      <trkpt lat="48.0554" lon="6.94788">
        <ele>960.59997558594</ele>
        <time>2022-11-01T15:06:18.000Z</time>
      </trkpt>
      <trkpt lat="48.0554" lon="6.94787">
        <ele>960.59997558594</ele>
        <time>2022-11-01T15:06:24.000Z</time>
      </trkpt>
      <trkpt lat="48.0554" lon="6.94784">
        <ele>960.40002441406</ele>
        <time>2022-11-01T15:06:32.000Z</time>
      </trkpt>
      <trkpt lat="48.05541" lon="6.94782">
        <ele>960.59997558594</ele>
        <time>2022-11-01T15:06:47.000Z</time>
      </trkpt>
      <trkpt lat="48.0554" lon="6.94781">
        <ele>961.40002441406</ele>
        <time>2022-11-01T15:07:02.000Z</time>
      </trkpt>
      <trkpt lat="48.05542" lon="6.9478">
        <ele>961.19995117188</ele>
        <time>2022-11-01T15:07:08.000Z</time>
      </trkpt>
      <trkpt lat="48.05543" lon="6.94779">
        <ele>961.40002441406</ele>
        <time>2022-11-01T15:07:12.000Z</time>
      </trkpt>
      <trkpt lat="48.05543" lon="6.94779">
        <ele>961.40002441406</ele>
        <time>2022-11-01T15:07:13.000Z</time>
      </trkpt>
      <trkpt lat="48.05544" lon="6.9478">
        <ele>961.59997558594</ele>
        <time>2022-11-01T15:07:23.000Z</time>
      </trkpt>
      <trkpt lat="48.05547" lon="6.94782">
        <ele>961.80004882812</ele>
        <time>2022-11-01T15:07:29.000Z</time>
      </trkpt>
      <trkpt lat="48.05551" lon="6.94783">
        <ele>961.80004882812</ele>
        <time>2022-11-01T15:07:35.000Z</time>
      </trkpt>
      <trkpt lat="48.05556" lon="6.94785">
        <ele>961.80004882812</ele>
        <time>2022-11-01T15:07:41.000Z</time>
      </trkpt>
      <trkpt lat="48.05556" lon="6.94784">
        <ele>962</ele>
        <time>2022-11-01T15:07:46.000Z</time>
      </trkpt>
      <trkpt lat="48.05557" lon="6.94785">
        <ele>962</ele>
        <time>2022-11-01T15:07:49.000Z</time>
      </trkpt>
      <trkpt lat="48.05558" lon="6.94785">
        <ele>962.19995117188</ele>
        <time>2022-11-01T15:08:00.000Z</time>
      </trkpt>
      <trkpt lat="48.05559" lon="6.94786">
        <ele>962.59997558594</ele>
        <time>2022-11-01T15:08:10.000Z</time>
      </trkpt>
      <trkpt lat="48.0556" lon="6.94787">
        <ele>963.80004882812</ele>
        <time>2022-11-01T15:08:14.000Z</time>
      </trkpt>
      <trkpt lat="48.0556" lon="6.94787">
        <ele>964</ele>
        <time>2022-11-01T15:08:15.000Z</time>
      </trkpt>
      <trkpt lat="48.0556" lon="6.94787">
        <ele>964.40002441406</ele>
        <time>2022-11-01T15:08:16.000Z</time>
      </trkpt>
      <trkpt lat="48.0556" lon="6.94787">
        <ele>964.59997558594</ele>
        <time>2022-11-01T15:08:17.000Z</time>
      </trkpt>
      <trkpt lat="48.0556" lon="6.94788">
        <ele>964.80004882812</ele>
        <time>2022-11-01T15:08:18.000Z</time>
      </trkpt>
      <trkpt lat="48.05558" lon="6.94794">
        <ele>965.59997558594</ele>
        <time>2022-11-01T15:08:22.000Z</time>
      </trkpt>
      <trkpt lat="48.05557" lon="6.94795">
        <ele>965.80004882812</ele>
        <time>2022-11-01T15:08:23.000Z</time>
      </trkpt>
      <trkpt lat="48.05553" lon="6.94802">
        <ele>967</ele>
        <time>2022-11-01T15:08:30.000Z</time>
      </trkpt>
      <trkpt lat="48.05552" lon="6.94806">
        <ele>967.80004882812</ele>
        <time>2022-11-01T15:08:35.000Z</time>
      </trkpt>
      <trkpt lat="48.05552" lon="6.94806">
        <ele>968</ele>
        <time>2022-11-01T15:08:36.000Z</time>
      </trkpt>
      <trkpt lat="48.0555" lon="6.9481">
        <ele>968.40002441406</ele>
        <time>2022-11-01T15:08:41.000Z</time>
      </trkpt>
      <trkpt lat="48.0555" lon="6.94811">
        <ele>968.59997558594</ele>
        <time>2022-11-01T15:08:42.000Z</time>
      </trkpt>
      <trkpt lat="48.0555" lon="6.94814">
        <ele>969.19995117188</ele>
        <time>2022-11-01T15:08:45.000Z</time>
      </trkpt>
      <trkpt lat="48.0555" lon="6.94815">
        <ele>969.40002441406</ele>
        <time>2022-11-01T15:08:46.000Z</time>
      </trkpt>
      <trkpt lat="48.05548" lon="6.94817">
        <ele>970.19995117188</ele>
        <time>2022-11-01T15:08:49.000Z</time>
      </trkpt>
      <trkpt lat="48.05548" lon="6.94817">
        <ele>970.40002441406</ele>
        <time>2022-11-01T15:08:50.000Z</time>
      </trkpt>
      <trkpt lat="48.0555" lon="6.94818">
        <ele>971.40002441406</ele>
        <time>2022-11-01T15:08:54.000Z</time>
      </trkpt>
      <trkpt lat="48.0555" lon="6.94819">
        <ele>971.80004882812</ele>
        <time>2022-11-01T15:08:56.000Z</time>
      </trkpt>
      <trkpt lat="48.05549" lon="6.9482">
        <ele>972.19995117188</ele>
        <time>2022-11-01T15:08:58.000Z</time>
      </trkpt>
      <trkpt lat="48.05548" lon="6.94821">
        <ele>972.59997558594</ele>
        <time>2022-11-01T15:09:00.000Z</time>
      </trkpt>
      <trkpt lat="48.05548" lon="6.94821">
        <ele>973.19995117188</ele>
        <time>2022-11-01T15:09:10.000Z</time>
      </trkpt>
      <trkpt lat="48.05548" lon="6.94822">
        <ele>973.80004882812</ele>
        <time>2022-11-01T15:09:17.000Z</time>
      </trkpt>
      <trkpt lat="48.05547" lon="6.94824">
        <ele>974.19995117188</ele>
        <time>2022-11-01T15:09:20.000Z</time>
      </trkpt>
      <trkpt lat="48.05546" lon="6.94824">
        <ele>974.59997558594</ele>
        <time>2022-11-01T15:09:25.000Z</time>
      </trkpt>
      <trkpt lat="48.05546" lon="6.94822">
        <ele>974.80004882812</ele>
        <time>2022-11-01T15:09:27.000Z</time>
      </trkpt>
      <trkpt lat="48.05546" lon="6.94819">
        <ele>974.80004882812</ele>
        <time>2022-11-01T15:09:30.000Z</time>
      </trkpt>
      <trkpt lat="48.05547" lon="6.94818">
        <ele>974.80004882812</ele>
        <time>2022-11-01T15:09:31.000Z</time>
      </trkpt>
      <trkpt lat="48.05546" lon="6.94817">
        <ele>976</ele>
        <time>2022-11-01T15:09:49.000Z</time>
      </trkpt>
      <trkpt lat="48.05546" lon="6.94819">
        <ele>976.80004882812</ele>
        <time>2022-11-01T15:09:53.000Z</time>
      </trkpt>
      <trkpt lat="48.05545" lon="6.94821">
        <ele>977</ele>
        <time>2022-11-01T15:09:54.000Z</time>
      </trkpt>
      <trkpt lat="48.05546" lon="6.9483">
        <ele>978.19995117188</ele>
        <time>2022-11-01T15:10:00.000Z</time>
      </trkpt>
      <trkpt lat="48.05545" lon="6.94834">
        <ele>979</ele>
        <time>2022-11-01T15:10:06.000Z</time>
      </trkpt>
      <trkpt lat="48.05545" lon="6.94836">
        <ele>979.40002441406</ele>
        <time>2022-11-01T15:10:09.000Z</time>
      </trkpt>
      <trkpt lat="48.05545" lon="6.94837">
        <ele>979.80004882812</ele>
        <time>2022-11-01T15:10:12.000Z</time>
      </trkpt>
      <trkpt lat="48.05546" lon="6.94837">
        <ele>980</ele>
        <time>2022-11-01T15:10:19.000Z</time>
      </trkpt>
      <trkpt lat="48.05546" lon="6.94838">
        <ele>979.80004882812</ele>
        <time>2022-11-01T15:10:23.000Z</time>
      </trkpt>
      <trkpt lat="48.05547" lon="6.94838">
        <ele>980</ele>
        <time>2022-11-01T15:10:27.000Z</time>
      </trkpt>
      <trkpt lat="48.05548" lon="6.9484">
        <ele>980.40002441406</ele>
        <time>2022-11-01T15:10:30.000Z</time>
      </trkpt>
      <trkpt lat="48.05552" lon="6.94841">
        <ele>981.40002441406</ele>
        <time>2022-11-01T15:10:35.000Z</time>
      </trkpt>
      <trkpt lat="48.05551" lon="6.94842">
        <ele>982</ele>
        <time>2022-11-01T15:10:38.000Z</time>
      </trkpt>
      <trkpt lat="48.05551" lon="6.94842">
        <ele>982.59997558594</ele>
        <time>2022-11-01T15:10:40.000Z</time>
      </trkpt>
      <trkpt lat="48.05551" lon="6.94843">
        <ele>983</ele>
        <time>2022-11-01T15:10:42.000Z</time>
      </trkpt>
      <trkpt lat="48.0555" lon="6.94848">
        <ele>983.59997558594</ele>
        <time>2022-11-01T15:10:47.000Z</time>
      </trkpt>
      <trkpt lat="48.05551" lon="6.94849">
        <ele>983.80004882812</ele>
        <time>2022-11-01T15:10:48.000Z</time>
      </trkpt>
      <trkpt lat="48.0555" lon="6.94852">
        <ele>984.40002441406</ele>
        <time>2022-11-01T15:10:54.000Z</time>
      </trkpt>
      <trkpt lat="48.05547" lon="6.9485">
        <ele>984.40002441406</ele>
        <time>2022-11-01T15:11:03.000Z</time>
      </trkpt>
      <trkpt lat="48.05547" lon="6.94849">
        <ele>984.59997558594</ele>
        <time>2022-11-01T15:11:20.000Z</time>
      </trkpt>
      <trkpt lat="48.05545" lon="6.94847">
        <ele>984.80004882812</ele>
        <time>2022-11-01T15:11:35.000Z</time>
      </trkpt>
      <trkpt lat="48.05545" lon="6.94847">
        <ele>984.59997558594</ele>
        <time>2022-11-01T15:11:36.000Z</time>
      </trkpt>
      <trkpt lat="48.05545" lon="6.94845">
        <ele>984.59997558594</ele>
        <time>2022-11-01T15:11:49.000Z</time>
      </trkpt>
      <trkpt lat="48.05545" lon="6.94843">
        <ele>984.80004882812</ele>
        <time>2022-11-01T15:11:53.000Z</time>
      </trkpt>
      <trkpt lat="48.05546" lon="6.94841">
        <ele>985</ele>
        <time>2022-11-01T15:11:56.000Z</time>
      </trkpt>
      <trkpt lat="48.05547" lon="6.94841">
        <ele>985</ele>
        <time>2022-11-01T15:12:00.000Z</time>
      </trkpt>
      <trkpt lat="48.05549" lon="6.94841">
        <ele>985.40002441406</ele>
        <time>2022-11-01T15:12:02.000Z</time>
      </trkpt>
      <trkpt lat="48.05549" lon="6.94841">
        <ele>985.80004882812</ele>
        <time>2022-11-01T15:12:04.000Z</time>
      </trkpt>
      <trkpt lat="48.05548" lon="6.94841">
        <ele>986</ele>
        <time>2022-11-01T15:12:07.000Z</time>
      </trkpt>
      <trkpt lat="48.0555" lon="6.9484">
        <ele>986</ele>
        <time>2022-11-01T15:12:09.000Z</time>
      </trkpt>
      <trkpt lat="48.05553" lon="6.94838">
        <ele>988</ele>
        <time>2022-11-01T15:12:24.000Z</time>
      </trkpt>
      <trkpt lat="48.05559" lon="6.9483">
        <ele>989</ele>
        <time>2022-11-01T15:12:29.000Z</time>
      </trkpt>
      <trkpt lat="48.05563" lon="6.94828">
        <ele>989.59997558594</ele>
        <time>2022-11-01T15:12:32.000Z</time>
      </trkpt>
      <trkpt lat="48.05566" lon="6.94828">
        <ele>990.19995117188</ele>
        <time>2022-11-01T15:12:36.000Z</time>
      </trkpt>
      <trkpt lat="48.05567" lon="6.94827">
        <ele>990.59997558594</ele>
        <time>2022-11-01T15:12:38.000Z</time>
      </trkpt>
      <trkpt lat="48.0557" lon="6.94827">
        <ele>991</ele>
        <time>2022-11-01T15:12:40.000Z</time>
      </trkpt>
      <trkpt lat="48.05573" lon="6.94825">
        <ele>991.19995117188</ele>
        <time>2022-11-01T15:12:42.000Z</time>
      </trkpt>
      <trkpt lat="48.05575" lon="6.94825">
        <ele>991.40002441406</ele>
        <time>2022-11-01T15:12:44.000Z</time>
      </trkpt>
      <trkpt lat="48.05576" lon="6.94824">
        <ele>992</ele>
        <time>2022-11-01T15:12:47.000Z</time>
      </trkpt>
      <trkpt lat="48.05577" lon="6.94824">
        <ele>992.19995117188</ele>
        <time>2022-11-01T15:12:49.000Z</time>
      </trkpt>
      <trkpt lat="48.05578" lon="6.94823">
        <ele>992.19995117188</ele>
        <time>2022-11-01T15:12:50.000Z</time>
      </trkpt>
      <trkpt lat="48.05579" lon="6.94823">
        <ele>992.40002441406</ele>
        <time>2022-11-01T15:12:51.000Z</time>
      </trkpt>
      <trkpt lat="48.05577" lon="6.94824">
        <ele>992.80004882812</ele>
        <time>2022-11-01T15:12:54.000Z</time>
      </trkpt>
      <trkpt lat="48.05573" lon="6.94832">
        <ele>992.59997558594</ele>
        <time>2022-11-01T15:13:01.000Z</time>
      </trkpt>
      <trkpt lat="48.05573" lon="6.94832">
        <ele>993.59997558594</ele>
        <time>2022-11-01T15:13:13.000Z</time>
      </trkpt>
      <trkpt lat="48.0558" lon="6.94828">
        <ele>994.19995117188</ele>
        <time>2022-11-01T15:13:19.000Z</time>
      </trkpt>
      <trkpt lat="48.05582" lon="6.94829">
        <ele>994.40002441406</ele>
        <time>2022-11-01T15:13:20.000Z</time>
      </trkpt>
      <trkpt lat="48.05584" lon="6.94829">
        <ele>994.59997558594</ele>
        <time>2022-11-01T15:13:22.000Z</time>
      </trkpt>
      <trkpt lat="48.05588" lon="6.94828">
        <ele>995.19995117188</ele>
        <time>2022-11-01T15:13:26.000Z</time>
      </trkpt>
      <trkpt lat="48.05589" lon="6.94833">
        <ele>995.40002441406</ele>
        <time>2022-11-01T15:13:32.000Z</time>
      </trkpt>
      <trkpt lat="48.0559" lon="6.94833">
        <ele>995.19995117188</ele>
        <time>2022-11-01T15:13:37.000Z</time>
      </trkpt>
      <trkpt lat="48.05592" lon="6.94829">
        <ele>995.40002441406</ele>
        <time>2022-11-01T15:13:40.000Z</time>
      </trkpt>
      <trkpt lat="48.05594" lon="6.94827">
        <ele>995.80004882812</ele>
        <time>2022-11-01T15:13:43.000Z</time>
      </trkpt>
      <trkpt lat="48.05597" lon="6.94824">
        <ele>996.59997558594</ele>
        <time>2022-11-01T15:13:48.000Z</time>
      </trkpt>
      <trkpt lat="48.05597" lon="6.94824">
        <ele>996.80004882812</ele>
        <time>2022-11-01T15:13:49.000Z</time>
      </trkpt>
      <trkpt lat="48.05598" lon="6.94823">
        <ele>996.80004882812</ele>
        <time>2022-11-01T15:13:50.000Z</time>
      </trkpt>
      <trkpt lat="48.05603" lon="6.94816">
        <ele>997</ele>
        <time>2022-11-01T15:13:54.000Z</time>
      </trkpt>
      <trkpt lat="48.05609" lon="6.94809">
        <ele>997.80004882812</ele>
        <time>2022-11-01T15:14:00.000Z</time>
      </trkpt>
      <trkpt lat="48.0561" lon="6.94809">
        <ele>998</ele>
        <time>2022-11-01T15:14:01.000Z</time>
      </trkpt>
      <trkpt lat="48.05612" lon="6.94811">
        <ele>998.80004882812</ele>
        <time>2022-11-01T15:14:06.000Z</time>
      </trkpt>
      <trkpt lat="48.05612" lon="6.9481">
        <ele>998.80004882812</ele>
        <time>2022-11-01T15:14:07.000Z</time>
      </trkpt>
      <trkpt lat="48.05613" lon="6.94809">
        <ele>999</ele>
        <time>2022-11-01T15:14:09.000Z</time>
      </trkpt>
      <trkpt lat="48.05615" lon="6.94807">
        <ele>999.40002441406</ele>
        <time>2022-11-01T15:14:12.000Z</time>
      </trkpt>
      <trkpt lat="48.05617" lon="6.94805">
        <ele>1000.1999511719</ele>
        <time>2022-11-01T15:14:15.000Z</time>
      </trkpt>
      <trkpt lat="48.05616" lon="6.94805">
        <ele>1000.4000244141</ele>
        <time>2022-11-01T15:14:19.000Z</time>
      </trkpt>
      <trkpt lat="48.05614" lon="6.94804">
        <ele>1000.4000244141</ele>
        <time>2022-11-01T15:14:25.000Z</time>
      </trkpt>
      <trkpt lat="48.05613" lon="6.94803">
        <ele>1000.5999755859</ele>
        <time>2022-11-01T15:14:32.000Z</time>
      </trkpt>
      <trkpt lat="48.05618" lon="6.94796">
        <ele>1000.5999755859</ele>
        <time>2022-11-01T15:14:39.000Z</time>
      </trkpt>
      <trkpt lat="48.05622" lon="6.94794">
        <ele>1001.1999511719</ele>
        <time>2022-11-01T15:14:45.000Z</time>
      </trkpt>
      <trkpt lat="48.05622" lon="6.94794">
        <ele>1001.1999511719</ele>
        <time>2022-11-01T15:14:46.000Z</time>
      </trkpt>
      <trkpt lat="48.05625" lon="6.94792">
        <ele>1001.8000488281</ele>
        <time>2022-11-01T15:14:52.000Z</time>
      </trkpt>
      <trkpt lat="48.05631" lon="6.94782">
        <ele>1002.1999511719</ele>
        <time>2022-11-01T15:14:59.000Z</time>
      </trkpt>
      <trkpt lat="48.05632" lon="6.94782">
        <ele>1002.4000244141</ele>
        <time>2022-11-01T15:15:00.000Z</time>
      </trkpt>
      <trkpt lat="48.05633" lon="6.94778">
        <ele>1002.8000488281</ele>
        <time>2022-11-01T15:15:04.000Z</time>
      </trkpt>
      <trkpt lat="48.05635" lon="6.94776">
        <ele>1002.8000488281</ele>
        <time>2022-11-01T15:15:05.000Z</time>
      </trkpt>
      <trkpt lat="48.05636" lon="6.94773">
        <ele>1003</ele>
        <time>2022-11-01T15:15:06.000Z</time>
      </trkpt>
      <trkpt lat="48.05637" lon="6.94769">
        <ele>1003.1999511719</ele>
        <time>2022-11-01T15:15:08.000Z</time>
      </trkpt>
      <trkpt lat="48.05638" lon="6.94767">
        <ele>1003.5999755859</ele>
        <time>2022-11-01T15:15:10.000Z</time>
      </trkpt>
      <trkpt lat="48.05639" lon="6.94767">
        <ele>1003.8000488281</ele>
        <time>2022-11-01T15:15:11.000Z</time>
      </trkpt>
      <trkpt lat="48.05641" lon="6.94765">
        <ele>1004.4000244141</ele>
        <time>2022-11-01T15:15:14.000Z</time>
      </trkpt>
      <trkpt lat="48.05643" lon="6.94764">
        <ele>1004.8000488281</ele>
        <time>2022-11-01T15:15:17.000Z</time>
      </trkpt>
      <trkpt lat="48.05645" lon="6.94764">
        <ele>1005</ele>
        <time>2022-11-01T15:15:19.000Z</time>
      </trkpt>
      <trkpt lat="48.05647" lon="6.94761">
        <ele>1005.1999511719</ele>
        <time>2022-11-01T15:15:24.000Z</time>
      </trkpt>
      <trkpt lat="48.05648" lon="6.94761">
        <ele>1005.4000244141</ele>
        <time>2022-11-01T15:15:25.000Z</time>
      </trkpt>
      <trkpt lat="48.05649" lon="6.94759">
        <ele>1005.5999755859</ele>
        <time>2022-11-01T15:15:28.000Z</time>
      </trkpt>
      <trkpt lat="48.0565" lon="6.94758">
        <ele>1005.8000488281</ele>
        <time>2022-11-01T15:15:30.000Z</time>
      </trkpt>
      <trkpt lat="48.05655" lon="6.94756">
        <ele>1006.4000244141</ele>
        <time>2022-11-01T15:15:34.000Z</time>
      </trkpt>
      <trkpt lat="48.05657" lon="6.94756">
        <ele>1006.4000244141</ele>
        <time>2022-11-01T15:15:38.000Z</time>
      </trkpt>
      <trkpt lat="48.05659" lon="6.94755">
        <ele>1006.4000244141</ele>
        <time>2022-11-01T15:15:45.000Z</time>
      </trkpt>
      <trkpt lat="48.05662" lon="6.94755">
        <ele>1007.1999511719</ele>
        <time>2022-11-01T15:15:51.000Z</time>
      </trkpt>
      <trkpt lat="48.05663" lon="6.94755">
        <ele>1007.4000244141</ele>
        <time>2022-11-01T15:15:53.000Z</time>
      </trkpt>
      <trkpt lat="48.05665" lon="6.94758">
        <ele>1007.5999755859</ele>
        <time>2022-11-01T15:15:58.000Z</time>
      </trkpt>
      <trkpt lat="48.05674" lon="6.94757">
        <ele>1007.8000488281</ele>
        <time>2022-11-01T15:16:06.000Z</time>
      </trkpt>
      <trkpt lat="48.0568" lon="6.94757">
        <ele>1008</ele>
        <time>2022-11-01T15:16:10.000Z</time>
      </trkpt>
      <trkpt lat="48.05686" lon="6.94758">
        <ele>1008</ele>
        <time>2022-11-01T15:16:14.000Z</time>
      </trkpt>
      <trkpt lat="48.05693" lon="6.94754">
        <ele>1008.1999511719</ele>
        <time>2022-11-01T15:16:22.000Z</time>
      </trkpt>
      <trkpt lat="48.05695" lon="6.94756">
        <ele>1008.4000244141</ele>
        <time>2022-11-01T15:16:25.000Z</time>
      </trkpt>
      <trkpt lat="48.05699" lon="6.94757">
        <ele>1008.5999755859</ele>
        <time>2022-11-01T15:16:29.000Z</time>
      </trkpt>
      <trkpt lat="48.05705" lon="6.94757">
        <ele>1008.1999511719</ele>
        <time>2022-11-01T15:16:34.000Z</time>
      </trkpt>
      <trkpt lat="48.05707" lon="6.94758">
        <ele>1008.1999511719</ele>
        <time>2022-11-01T15:16:36.000Z</time>
      </trkpt>
      <trkpt lat="48.0571" lon="6.94762">
        <ele>1007.8000488281</ele>
        <time>2022-11-01T15:16:41.000Z</time>
      </trkpt>
      <trkpt lat="48.0572" lon="6.94762">
        <ele>1007.5999755859</ele>
        <time>2022-11-01T15:16:46.000Z</time>
      </trkpt>
      <trkpt lat="48.05724" lon="6.94766">
        <ele>1007.8000488281</ele>
        <time>2022-11-01T15:16:53.000Z</time>
      </trkpt>
      <trkpt lat="48.05725" lon="6.94769">
        <ele>1007.8000488281</ele>
        <time>2022-11-01T15:16:59.000Z</time>
      </trkpt>
      <trkpt lat="48.05727" lon="6.94774">
        <ele>1007.5999755859</ele>
        <time>2022-11-01T15:17:04.000Z</time>
      </trkpt>
      <trkpt lat="48.05729" lon="6.94777">
        <ele>1007.5999755859</ele>
        <time>2022-11-01T15:17:09.000Z</time>
      </trkpt>
      <trkpt lat="48.05732" lon="6.9478">
        <ele>1007.5999755859</ele>
        <time>2022-11-01T15:17:15.000Z</time>
      </trkpt>
      <trkpt lat="48.05737" lon="6.94784">
        <ele>1007.5999755859</ele>
        <time>2022-11-01T15:17:21.000Z</time>
      </trkpt>
      <trkpt lat="48.05744" lon="6.94788">
        <ele>1007.5999755859</ele>
        <time>2022-11-01T15:17:28.000Z</time>
      </trkpt>
      <trkpt lat="48.05747" lon="6.94789">
        <ele>1007.5999755859</ele>
        <time>2022-11-01T15:17:31.000Z</time>
      </trkpt>
      <trkpt lat="48.0575" lon="6.94789">
        <ele>1007.8000488281</ele>
        <time>2022-11-01T15:17:34.000Z</time>
      </trkpt>
      <trkpt lat="48.05751" lon="6.94788">
        <ele>1007.8000488281</ele>
        <time>2022-11-01T15:17:35.000Z</time>
      </trkpt>
      <trkpt lat="48.05756" lon="6.9479">
        <ele>1007.8000488281</ele>
        <time>2022-11-01T15:17:43.000Z</time>
      </trkpt>
      <trkpt lat="48.05759" lon="6.94789">
        <ele>1008</ele>
        <time>2022-11-01T15:17:48.000Z</time>
      </trkpt>
      <trkpt lat="48.05766" lon="6.94789">
        <ele>1008.1999511719</ele>
        <time>2022-11-01T15:17:55.000Z</time>
      </trkpt>
      <trkpt lat="48.05767" lon="6.9479">
        <ele>1008.1999511719</ele>
        <time>2022-11-01T15:17:56.000Z</time>
      </trkpt>
      <trkpt lat="48.05771" lon="6.94789">
        <ele>1008</ele>
        <time>2022-11-01T15:18:00.000Z</time>
      </trkpt>
      <trkpt lat="48.05777" lon="6.9479">
        <ele>1007.5999755859</ele>
        <time>2022-11-01T15:18:07.000Z</time>
      </trkpt>
      <trkpt lat="48.05783" lon="6.94795">
        <ele>1007.4000244141</ele>
        <time>2022-11-01T15:18:13.000Z</time>
      </trkpt>
      <trkpt lat="48.05791" lon="6.948">
        <ele>1007.4000244141</ele>
        <time>2022-11-01T15:18:20.000Z</time>
      </trkpt>
      <trkpt lat="48.05796" lon="6.94798">
        <ele>1007.4000244141</ele>
        <time>2022-11-01T15:18:25.000Z</time>
      </trkpt>
      <trkpt lat="48.05798" lon="6.94798">
        <ele>1007.4000244141</ele>
        <time>2022-11-01T15:18:27.000Z</time>
      </trkpt>
      <trkpt lat="48.058" lon="6.94798">
        <ele>1007.4000244141</ele>
        <time>2022-11-01T15:18:28.000Z</time>
      </trkpt>
      <trkpt lat="48.05802" lon="6.94799">
        <ele>1007.4000244141</ele>
        <time>2022-11-01T15:18:31.000Z</time>
      </trkpt>
      <trkpt lat="48.05806" lon="6.94803">
        <ele>1007.4000244141</ele>
        <time>2022-11-01T15:18:37.000Z</time>
      </trkpt>
      <trkpt lat="48.05808" lon="6.94806">
        <ele>1007.4000244141</ele>
        <time>2022-11-01T15:18:41.000Z</time>
      </trkpt>
      <trkpt lat="48.0581" lon="6.9481">
        <ele>1007.4000244141</ele>
        <time>2022-11-01T15:18:45.000Z</time>
      </trkpt>
      <trkpt lat="48.05814" lon="6.94811">
        <ele>1007.4000244141</ele>
        <time>2022-11-01T15:18:52.000Z</time>
      </trkpt>
      <trkpt lat="48.05817" lon="6.94816">
        <ele>1007.4000244141</ele>
        <time>2022-11-01T15:18:58.000Z</time>
      </trkpt>
      <trkpt lat="48.0582" lon="6.94817">
        <ele>1007.4000244141</ele>
        <time>2022-11-01T15:19:03.000Z</time>
      </trkpt>
      <trkpt lat="48.05825" lon="6.94818">
        <ele>1007.4000244141</ele>
        <time>2022-11-01T15:19:07.000Z</time>
      </trkpt>
      <trkpt lat="48.05828" lon="6.94822">
        <ele>1007.4000244141</ele>
        <time>2022-11-01T15:19:11.000Z</time>
      </trkpt>
      <trkpt lat="48.0583" lon="6.94826">
        <ele>1007.4000244141</ele>
        <time>2022-11-01T15:19:15.000Z</time>
      </trkpt>
      <trkpt lat="48.05835" lon="6.94832">
        <ele>1007.4000244141</ele>
        <time>2022-11-01T15:19:19.000Z</time>
      </trkpt>
      <trkpt lat="48.05836" lon="6.94833">
        <ele>1007.4000244141</ele>
        <time>2022-11-01T15:19:20.000Z</time>
      </trkpt>
      <trkpt lat="48.05841" lon="6.94838">
        <ele>1007.4000244141</ele>
        <time>2022-11-01T15:19:25.000Z</time>
      </trkpt>
      <trkpt lat="48.05847" lon="6.94845">
        <ele>1007.4000244141</ele>
        <time>2022-11-01T15:19:31.000Z</time>
      </trkpt>
      <trkpt lat="48.05848" lon="6.94845">
        <ele>1007.4000244141</ele>
        <time>2022-11-01T15:19:35.000Z</time>
      </trkpt>
      <trkpt lat="48.05852" lon="6.94849">
        <ele>1007.4000244141</ele>
        <time>2022-11-01T15:19:38.000Z</time>
      </trkpt>
      <trkpt lat="48.05855" lon="6.94853">
        <ele>1007.4000244141</ele>
        <time>2022-11-01T15:19:41.000Z</time>
      </trkpt>
      <trkpt lat="48.05857" lon="6.94858">
        <ele>1007.4000244141</ele>
        <time>2022-11-01T15:19:45.000Z</time>
      </trkpt>
      <trkpt lat="48.0586" lon="6.94862">
        <ele>1007.4000244141</ele>
        <time>2022-11-01T15:19:48.000Z</time>
      </trkpt>
      <trkpt lat="48.05867" lon="6.94869">
        <ele>1007.4000244141</ele>
        <time>2022-11-01T15:19:54.000Z</time>
      </trkpt>
      <trkpt lat="48.05873" lon="6.94877">
        <ele>1007.4000244141</ele>
        <time>2022-11-01T15:20:00.000Z</time>
      </trkpt>
      <trkpt lat="48.05876" lon="6.94883">
        <ele>1007.4000244141</ele>
        <time>2022-11-01T15:20:07.000Z</time>
      </trkpt>
      <trkpt lat="48.05877" lon="6.94888">
        <ele>1007.4000244141</ele>
        <time>2022-11-01T15:20:13.000Z</time>
      </trkpt>
      <trkpt lat="48.05877" lon="6.94888">
        <ele>1007.4000244141</ele>
        <time>2022-11-01T15:20:17.000Z</time>
      </trkpt>
      <trkpt lat="48.0588" lon="6.94889">
        <ele>1007.4000244141</ele>
        <time>2022-11-01T15:20:22.000Z</time>
      </trkpt>
      <trkpt lat="48.05883" lon="6.94892">
        <ele>1007.4000244141</ele>
        <time>2022-11-01T15:20:25.000Z</time>
      </trkpt>
      <trkpt lat="48.05884" lon="6.94893">
        <ele>1007.4000244141</ele>
        <time>2022-11-01T15:20:26.000Z</time>
      </trkpt>
      <trkpt lat="48.05886" lon="6.94894">
        <ele>1007.4000244141</ele>
        <time>2022-11-01T15:20:27.000Z</time>
      </trkpt>
      <trkpt lat="48.05887" lon="6.94895">
        <ele>1007.4000244141</ele>
        <time>2022-11-01T15:20:28.000Z</time>
      </trkpt>
      <trkpt lat="48.05892" lon="6.94899">
        <ele>1007.4000244141</ele>
        <time>2022-11-01T15:20:34.000Z</time>
      </trkpt>
      <trkpt lat="48.05896" lon="6.94903">
        <ele>1007.4000244141</ele>
        <time>2022-11-01T15:20:40.000Z</time>
      </trkpt>
      <trkpt lat="48.05897" lon="6.94903">
        <ele>1007.4000244141</ele>
        <time>2022-11-01T15:20:41.000Z</time>
      </trkpt>
      <trkpt lat="48.05898" lon="6.94906">
        <ele>1007.4000244141</ele>
        <time>2022-11-01T15:20:43.000Z</time>
      </trkpt>
      <trkpt lat="48.05899" lon="6.94907">
        <ele>1007.4000244141</ele>
        <time>2022-11-01T15:20:44.000Z</time>
      </trkpt>
      <trkpt lat="48.05904" lon="6.94911">
        <ele>1007.4000244141</ele>
        <time>2022-11-01T15:20:50.000Z</time>
      </trkpt>
      <trkpt lat="48.05907" lon="6.94915">
        <ele>1007.4000244141</ele>
        <time>2022-11-01T15:20:56.000Z</time>
      </trkpt>
      <trkpt lat="48.05911" lon="6.94919">
        <ele>1007.4000244141</ele>
        <time>2022-11-01T15:21:02.000Z</time>
      </trkpt>
      <trkpt lat="48.0592" lon="6.94919">
        <ele>1007.4000244141</ele>
        <time>2022-11-01T15:21:08.000Z</time>
      </trkpt>
      <trkpt lat="48.05924" lon="6.94923">
        <ele>1007.4000244141</ele>
        <time>2022-11-01T15:21:13.000Z</time>
      </trkpt>
      <trkpt lat="48.05928" lon="6.94929">
        <ele>1007.4000244141</ele>
        <time>2022-11-01T15:21:17.000Z</time>
      </trkpt>
      <trkpt lat="48.05929" lon="6.94932">
        <ele>1003.5999755859</ele>
        <time>2022-11-01T15:21:18.000Z</time>
      </trkpt>
      <trkpt lat="48.05931" lon="6.94934">
        <ele>1003.5999755859</ele>
        <time>2022-11-01T15:21:20.000Z</time>
      </trkpt>
      <trkpt lat="48.05933" lon="6.94936">
        <ele>1003.5999755859</ele>
        <time>2022-11-01T15:21:21.000Z</time>
      </trkpt>
      <trkpt lat="48.05936" lon="6.94943">
        <ele>1003.5999755859</ele>
        <time>2022-11-01T15:21:26.000Z</time>
      </trkpt>
      <trkpt lat="48.05936" lon="6.94947">
        <ele>1003.4000244141</ele>
        <time>2022-11-01T15:21:30.000Z</time>
      </trkpt>
      <trkpt lat="48.05944" lon="6.94947">
        <ele>1002.8000488281</ele>
        <time>2022-11-01T15:21:36.000Z</time>
      </trkpt>
      <trkpt lat="48.05947" lon="6.94948">
        <ele>1002.4000244141</ele>
        <time>2022-11-01T15:21:40.000Z</time>
      </trkpt>
      <trkpt lat="48.05949" lon="6.94948">
        <ele>1002.4000244141</ele>
        <time>2022-11-01T15:21:42.000Z</time>
      </trkpt>
      <trkpt lat="48.0595" lon="6.94949">
        <ele>1002.1999511719</ele>
        <time>2022-11-01T15:21:43.000Z</time>
      </trkpt>
      <trkpt lat="48.05954" lon="6.94953">
        <ele>1001.8000488281</ele>
        <time>2022-11-01T15:21:48.000Z</time>
      </trkpt>
      <trkpt lat="48.05956" lon="6.94954">
        <ele>1001.5999755859</ele>
        <time>2022-11-01T15:21:50.000Z</time>
      </trkpt>
      <trkpt lat="48.05958" lon="6.94956">
        <ele>1001.4000244141</ele>
        <time>2022-11-01T15:21:53.000Z</time>
      </trkpt>
      <trkpt lat="48.0596" lon="6.94956">
        <ele>1001.4000244141</ele>
        <time>2022-11-01T15:21:54.000Z</time>
      </trkpt>
      <trkpt lat="48.05966" lon="6.94958">
        <ele>1001.1999511719</ele>
        <time>2022-11-01T15:21:58.000Z</time>
      </trkpt>
      <trkpt lat="48.05973" lon="6.94959">
        <ele>1001.1999511719</ele>
        <time>2022-11-01T15:22:03.000Z</time>
      </trkpt>
      <trkpt lat="48.05978" lon="6.94962">
        <ele>1000.5999755859</ele>
        <time>2022-11-01T15:22:08.000Z</time>
      </trkpt>
      <trkpt lat="48.05981" lon="6.94964">
        <ele>1000.4000244141</ele>
        <time>2022-11-01T15:22:11.000Z</time>
      </trkpt>
      <trkpt lat="48.05984" lon="6.94966">
        <ele>1000.1999511719</ele>
        <time>2022-11-01T15:22:14.000Z</time>
      </trkpt>
      <trkpt lat="48.05985" lon="6.94967">
        <ele>1000.1999511719</ele>
        <time>2022-11-01T15:22:15.000Z</time>
      </trkpt>
      <trkpt lat="48.05986" lon="6.94967">
        <ele>1000.1999511719</ele>
        <time>2022-11-01T15:22:16.000Z</time>
      </trkpt>
      <trkpt lat="48.05993" lon="6.94969">
        <ele>1000.1999511719</ele>
        <time>2022-11-01T15:22:23.000Z</time>
      </trkpt>
      <trkpt lat="48.06001" lon="6.94973">
        <ele>1000.4000244141</ele>
        <time>2022-11-01T15:22:29.000Z</time>
      </trkpt>
      <trkpt lat="48.06001" lon="6.94978">
        <ele>1000.5999755859</ele>
        <time>2022-11-01T15:22:35.000Z</time>
      </trkpt>
      <trkpt lat="48.06003" lon="6.94979">
        <ele>1000.4000244141</ele>
        <time>2022-11-01T15:22:40.000Z</time>
      </trkpt>
      <trkpt lat="48.06004" lon="6.94978">
        <ele>1000.1999511719</ele>
        <time>2022-11-01T15:22:41.000Z</time>
      </trkpt>
      <trkpt lat="48.06007" lon="6.94978">
        <ele>1000.1999511719</ele>
        <time>2022-11-01T15:22:45.000Z</time>
      </trkpt>
      <trkpt lat="48.06009" lon="6.94979">
        <ele>1000.1999511719</ele>
        <time>2022-11-01T15:22:47.000Z</time>
      </trkpt>
      <trkpt lat="48.06018" lon="6.94982">
        <ele>1000.5999755859</ele>
        <time>2022-11-01T15:22:55.000Z</time>
      </trkpt>
      <trkpt lat="48.06021" lon="6.94981">
        <ele>1000.8000488281</ele>
        <time>2022-11-01T15:22:57.000Z</time>
      </trkpt>
      <trkpt lat="48.06027" lon="6.9498">
        <ele>1001.4000244141</ele>
        <time>2022-11-01T15:23:02.000Z</time>
      </trkpt>
      <trkpt lat="48.06031" lon="6.94983">
        <ele>1001.8000488281</ele>
        <time>2022-11-01T15:23:06.000Z</time>
      </trkpt>
      <trkpt lat="48.06032" lon="6.94984">
        <ele>1002.1999511719</ele>
        <time>2022-11-01T15:23:08.000Z</time>
      </trkpt>
      <trkpt lat="48.06034" lon="6.94984">
        <ele>1002.1999511719</ele>
        <time>2022-11-01T15:23:10.000Z</time>
      </trkpt>
      <trkpt lat="48.06038" lon="6.94984">
        <ele>1002.4000244141</ele>
        <time>2022-11-01T15:23:13.000Z</time>
      </trkpt>
      <trkpt lat="48.0604" lon="6.94983">
        <ele>1002.4000244141</ele>
        <time>2022-11-01T15:23:16.000Z</time>
      </trkpt>
      <trkpt lat="48.06042" lon="6.94982">
        <ele>1002.8000488281</ele>
        <time>2022-11-01T15:23:19.000Z</time>
      </trkpt>
      <trkpt lat="48.06045" lon="6.94983">
        <ele>1002.8000488281</ele>
        <time>2022-11-01T15:23:22.000Z</time>
      </trkpt>
      <trkpt lat="48.06046" lon="6.94983">
        <ele>1002.8000488281</ele>
        <time>2022-11-01T15:23:23.000Z</time>
      </trkpt>
      <trkpt lat="48.06052" lon="6.94983">
        <ele>1003</ele>
        <time>2022-11-01T15:23:30.000Z</time>
      </trkpt>
      <trkpt lat="48.06058" lon="6.94982">
        <ele>1002.8000488281</ele>
        <time>2022-11-01T15:23:37.000Z</time>
      </trkpt>
      <trkpt lat="48.06066" lon="6.94981">
        <ele>1002.1999511719</ele>
        <time>2022-11-01T15:23:44.000Z</time>
      </trkpt>
      <trkpt lat="48.06075" lon="6.94977">
        <ele>1001.5999755859</ele>
        <time>2022-11-01T15:23:52.000Z</time>
      </trkpt>
      <trkpt lat="48.06078" lon="6.94976">
        <ele>1001.4000244141</ele>
        <time>2022-11-01T15:23:55.000Z</time>
      </trkpt>
      <trkpt lat="48.06081" lon="6.94976">
        <ele>1001</ele>
        <time>2022-11-01T15:23:58.000Z</time>
      </trkpt>
      <trkpt lat="48.06083" lon="6.94975">
        <ele>1000.8000488281</ele>
        <time>2022-11-01T15:24:00.000Z</time>
      </trkpt>
      <trkpt lat="48.06085" lon="6.94975">
        <ele>1000.5999755859</ele>
        <time>2022-11-01T15:24:01.000Z</time>
      </trkpt>
      <trkpt lat="48.06086" lon="6.94975">
        <ele>1000.4000244141</ele>
        <time>2022-11-01T15:24:02.000Z</time>
      </trkpt>
      <trkpt lat="48.06091" lon="6.94974">
        <ele>999.80004882812</ele>
        <time>2022-11-01T15:24:06.000Z</time>
      </trkpt>
      <trkpt lat="48.06092" lon="6.94975">
        <ele>999.80004882812</ele>
        <time>2022-11-01T15:24:08.000Z</time>
      </trkpt>
      <trkpt lat="48.06098" lon="6.94982">
        <ele>999.59997558594</ele>
        <time>2022-11-01T15:24:12.000Z</time>
      </trkpt>
      <trkpt lat="48.06101" lon="6.94985">
        <ele>999.40002441406</ele>
        <time>2022-11-01T15:24:15.000Z</time>
      </trkpt>
      <trkpt lat="48.06106" lon="6.94994">
        <ele>999.19995117188</ele>
        <time>2022-11-01T15:24:21.000Z</time>
      </trkpt>
      <trkpt lat="48.06109" lon="6.95">
        <ele>998.80004882812</ele>
        <time>2022-11-01T15:24:26.000Z</time>
      </trkpt>
      <trkpt lat="48.06109" lon="6.95001">
        <ele>998.59997558594</ele>
        <time>2022-11-01T15:24:27.000Z</time>
      </trkpt>
      <trkpt lat="48.0611" lon="6.95002">
        <ele>998.40002441406</ele>
        <time>2022-11-01T15:24:29.000Z</time>
      </trkpt>
      <trkpt lat="48.06107" lon="6.95001">
        <ele>998.19995117188</ele>
        <time>2022-11-01T15:24:32.000Z</time>
      </trkpt>
      <trkpt lat="48.06108" lon="6.95004">
        <ele>997.80004882812</ele>
        <time>2022-11-01T15:24:39.000Z</time>
      </trkpt>
      <trkpt lat="48.0611" lon="6.95006">
        <ele>997.40002441406</ele>
        <time>2022-11-01T15:24:41.000Z</time>
      </trkpt>
      <trkpt lat="48.0611" lon="6.95007">
        <ele>997.19995117188</ele>
        <time>2022-11-01T15:24:42.000Z</time>
      </trkpt>
      <trkpt lat="48.06111" lon="6.95011">
        <ele>996.80004882812</ele>
        <time>2022-11-01T15:24:45.000Z</time>
      </trkpt>
      <trkpt lat="48.06111" lon="6.95015">
        <ele>996.19995117188</ele>
        <time>2022-11-01T15:24:48.000Z</time>
      </trkpt>
      <trkpt lat="48.06112" lon="6.9502">
        <ele>995.59997558594</ele>
        <time>2022-11-01T15:24:53.000Z</time>
      </trkpt>
      <trkpt lat="48.06112" lon="6.95022">
        <ele>995.59997558594</ele>
        <time>2022-11-01T15:24:55.000Z</time>
      </trkpt>
      <trkpt lat="48.06114" lon="6.95027">
        <ele>995.40002441406</ele>
        <time>2022-11-01T15:24:58.000Z</time>
      </trkpt>
      <trkpt lat="48.06116" lon="6.95028">
        <ele>995.19995117188</ele>
        <time>2022-11-01T15:24:59.000Z</time>
      </trkpt>
      <trkpt lat="48.06117" lon="6.9503">
        <ele>995</ele>
        <time>2022-11-01T15:25:00.000Z</time>
      </trkpt>
      <trkpt lat="48.06119" lon="6.95034">
        <ele>994.80004882812</ele>
        <time>2022-11-01T15:25:03.000Z</time>
      </trkpt>
      <trkpt lat="48.0612" lon="6.95035">
        <ele>994.59997558594</ele>
        <time>2022-11-01T15:25:04.000Z</time>
      </trkpt>
      <trkpt lat="48.06121" lon="6.95041">
        <ele>994</ele>
        <time>2022-11-01T15:25:09.000Z</time>
      </trkpt>
      <trkpt lat="48.06122" lon="6.95042">
        <ele>993.80004882812</ele>
        <time>2022-11-01T15:25:10.000Z</time>
      </trkpt>
      <trkpt lat="48.06125" lon="6.95048">
        <ele>993.19995117188</ele>
        <time>2022-11-01T15:25:15.000Z</time>
      </trkpt>
      <trkpt lat="48.06127" lon="6.95053">
        <ele>993</ele>
        <time>2022-11-01T15:25:18.000Z</time>
      </trkpt>
      <trkpt lat="48.0613" lon="6.95058">
        <ele>992.19995117188</ele>
        <time>2022-11-01T15:25:22.000Z</time>
      </trkpt>
      <trkpt lat="48.0613" lon="6.95059">
        <ele>992</ele>
        <time>2022-11-01T15:25:23.000Z</time>
      </trkpt>
      <trkpt lat="48.06132" lon="6.9506">
        <ele>991.19995117188</ele>
        <time>2022-11-01T15:25:27.000Z</time>
      </trkpt>
      <trkpt lat="48.06134" lon="6.95061">
        <ele>991</ele>
        <time>2022-11-01T15:25:29.000Z</time>
      </trkpt>
      <trkpt lat="48.06136" lon="6.95063">
        <ele>990.59997558594</ele>
        <time>2022-11-01T15:25:32.000Z</time>
      </trkpt>
      <trkpt lat="48.0614" lon="6.95064">
        <ele>990</ele>
        <time>2022-11-01T15:25:38.000Z</time>
      </trkpt>
      <trkpt lat="48.06141" lon="6.95066">
        <ele>989.80004882812</ele>
        <time>2022-11-01T15:25:39.000Z</time>
      </trkpt>
      <trkpt lat="48.06146" lon="6.95073">
        <ele>989.59997558594</ele>
        <time>2022-11-01T15:25:44.000Z</time>
      </trkpt>
      <trkpt lat="48.06148" lon="6.95075">
        <ele>989.59997558594</ele>
        <time>2022-11-01T15:25:46.000Z</time>
      </trkpt>
      <trkpt lat="48.06148" lon="6.95076">
        <ele>989.59997558594</ele>
        <time>2022-11-01T15:25:47.000Z</time>
      </trkpt>
      <trkpt lat="48.0615" lon="6.95078">
        <ele>989.59997558594</ele>
        <time>2022-11-01T15:25:49.000Z</time>
      </trkpt>
      <trkpt lat="48.06154" lon="6.95084">
        <ele>989.80004882812</ele>
        <time>2022-11-01T15:25:53.000Z</time>
      </trkpt>
      <trkpt lat="48.0616" lon="6.95088">
        <ele>990</ele>
        <time>2022-11-01T15:26:01.000Z</time>
      </trkpt>
      <trkpt lat="48.06165" lon="6.95083">
        <ele>990</ele>
        <time>2022-11-01T15:26:09.000Z</time>
      </trkpt>
      <trkpt lat="48.06165" lon="6.95078">
        <ele>989.40002441406</ele>
        <time>2022-11-01T15:26:17.000Z</time>
      </trkpt>
      <trkpt lat="48.06167" lon="6.95079">
        <ele>989.40002441406</ele>
        <time>2022-11-01T15:26:24.000Z</time>
      </trkpt>
      <trkpt lat="48.06166" lon="6.95082">
        <ele>989</ele>
        <time>2022-11-01T15:26:51.000Z</time>
      </trkpt>
      <trkpt lat="48.06166" lon="6.95084">
        <ele>989</ele>
        <time>2022-11-01T15:26:54.000Z</time>
      </trkpt>
      <trkpt lat="48.06166" lon="6.95086">
        <ele>988.80004882812</ele>
        <time>2022-11-01T15:26:56.000Z</time>
      </trkpt>
      <trkpt lat="48.06163" lon="6.95093">
        <ele>988.80004882812</ele>
        <time>2022-11-01T15:27:28.000Z</time>
      </trkpt>
      <trkpt lat="48.06163" lon="6.95092">
        <ele>988.80004882812</ele>
        <time>2022-11-01T15:27:39.000Z</time>
      </trkpt>
      <trkpt lat="48.06162" lon="6.95094">
        <ele>988.80004882812</ele>
        <time>2022-11-01T15:27:58.000Z</time>
      </trkpt>
      <trkpt lat="48.06163" lon="6.95096">
        <ele>988.80004882812</ele>
        <time>2022-11-01T15:28:06.000Z</time>
      </trkpt>
      <trkpt lat="48.06163" lon="6.95096">
        <ele>988.80004882812</ele>
        <time>2022-11-01T15:28:13.000Z</time>
      </trkpt>
      <trkpt lat="48.06163" lon="6.95097">
        <ele>988.80004882812</ele>
        <time>2022-11-01T15:28:17.000Z</time>
      </trkpt>
      <trkpt lat="48.0616" lon="6.95105">
        <ele>988.80004882812</ele>
        <time>2022-11-01T15:29:26.000Z</time>
      </trkpt>
      <trkpt lat="48.06159" lon="6.95106">
        <ele>988.80004882812</ele>
        <time>2022-11-01T15:29:45.000Z</time>
      </trkpt>
      <trkpt lat="48.06159" lon="6.95106">
        <ele>988.80004882812</ele>
        <time>2022-11-01T15:29:47.000Z</time>
      </trkpt>
      <trkpt lat="48.06155" lon="6.95097">
        <ele>988.80004882812</ele>
        <time>2022-11-01T15:29:59.000Z</time>
      </trkpt>
      <trkpt lat="48.0615" lon="6.95094">
        <ele>988.80004882812</ele>
        <time>2022-11-01T15:30:03.000Z</time>
      </trkpt>
      <trkpt lat="48.06148" lon="6.9509">
        <ele>988.80004882812</ele>
        <time>2022-11-01T15:30:08.000Z</time>
      </trkpt>
      <trkpt lat="48.06149" lon="6.95087">
        <ele>988.80004882812</ele>
        <time>2022-11-01T15:30:11.000Z</time>
      </trkpt>
      <trkpt lat="48.06149" lon="6.95082">
        <ele>988.80004882812</ele>
        <time>2022-11-01T15:30:18.000Z</time>
      </trkpt>
      <trkpt lat="48.06148" lon="6.95077">
        <ele>988.80004882812</ele>
        <time>2022-11-01T15:30:26.000Z</time>
      </trkpt>
      <trkpt lat="48.06149" lon="6.95075">
        <ele>988.80004882812</ele>
        <time>2022-11-01T15:30:31.000Z</time>
      </trkpt>
      <trkpt lat="48.06148" lon="6.95069">
        <ele>988.80004882812</ele>
        <time>2022-11-01T15:30:36.000Z</time>
      </trkpt>
      <trkpt lat="48.06148" lon="6.95067">
        <ele>988.80004882812</ele>
        <time>2022-11-01T15:30:37.000Z</time>
      </trkpt>
      <trkpt lat="48.06149" lon="6.95064">
        <ele>988.80004882812</ele>
        <time>2022-11-01T15:30:39.000Z</time>
      </trkpt>
      <trkpt lat="48.0615" lon="6.95061">
        <ele>988.80004882812</ele>
        <time>2022-11-01T15:30:46.000Z</time>
      </trkpt>
      <trkpt lat="48.06152" lon="6.95059">
        <ele>988.80004882812</ele>
        <time>2022-11-01T15:30:50.000Z</time>
      </trkpt>
      <trkpt lat="48.06152" lon="6.95056">
        <ele>988.80004882812</ele>
        <time>2022-11-01T15:30:54.000Z</time>
      </trkpt>
      <trkpt lat="48.06154" lon="6.95052">
        <ele>988.80004882812</ele>
        <time>2022-11-01T15:31:01.000Z</time>
      </trkpt>
      <trkpt lat="48.06156" lon="6.9505">
        <ele>988.80004882812</ele>
        <time>2022-11-01T15:31:07.000Z</time>
      </trkpt>
      <trkpt lat="48.06159" lon="6.95045">
        <ele>988.80004882812</ele>
        <time>2022-11-01T15:31:18.000Z</time>
      </trkpt>
      <trkpt lat="48.0616" lon="6.95047">
        <ele>988.80004882812</ele>
        <time>2022-11-01T15:31:26.000Z</time>
      </trkpt>
      <trkpt lat="48.06161" lon="6.95046">
        <ele>979.19995117188</ele>
        <time>2022-11-01T15:31:28.000Z</time>
      </trkpt>
      <trkpt lat="48.06164" lon="6.95048">
        <ele>978.80004882812</ele>
        <time>2022-11-01T15:31:33.000Z</time>
      </trkpt>
      <trkpt lat="48.06166" lon="6.95048">
        <ele>978.40002441406</ele>
        <time>2022-11-01T15:31:38.000Z</time>
      </trkpt>
      <trkpt lat="48.06168" lon="6.95047">
        <ele>978.19995117188</ele>
        <time>2022-11-01T15:31:42.000Z</time>
      </trkpt>
      <trkpt lat="48.06168" lon="6.95046">
        <ele>978</ele>
        <time>2022-11-01T15:31:45.000Z</time>
      </trkpt>
      <trkpt lat="48.0617" lon="6.95046">
        <ele>977.59997558594</ele>
        <time>2022-11-01T15:31:50.000Z</time>
      </trkpt>
      <trkpt lat="48.06172" lon="6.95046">
        <ele>977</ele>
        <time>2022-11-01T15:31:54.000Z</time>
      </trkpt>
      <trkpt lat="48.06174" lon="6.95046">
        <ele>976.80004882812</ele>
        <time>2022-11-01T15:31:57.000Z</time>
      </trkpt>
      <trkpt lat="48.06173" lon="6.95049">
        <ele>976.40002441406</ele>
        <time>2022-11-01T15:32:02.000Z</time>
      </trkpt>
      <trkpt lat="48.06173" lon="6.95051">
        <ele>976</ele>
        <time>2022-11-01T15:32:12.000Z</time>
      </trkpt>
      <trkpt lat="48.06173" lon="6.95049">
        <ele>976</ele>
        <time>2022-11-01T15:32:25.000Z</time>
      </trkpt>
      <trkpt lat="48.06174" lon="6.95049">
        <ele>976</ele>
        <time>2022-11-01T15:32:29.000Z</time>
      </trkpt>
      <trkpt lat="48.06175" lon="6.95049">
        <ele>975.40002441406</ele>
        <time>2022-11-01T15:32:37.000Z</time>
      </trkpt>
      <trkpt lat="48.06176" lon="6.95047">
        <ele>975</ele>
        <time>2022-11-01T15:32:41.000Z</time>
      </trkpt>
      <trkpt lat="48.06178" lon="6.95046">
        <ele>974</ele>
        <time>2022-11-01T15:32:51.000Z</time>
      </trkpt>
      <trkpt lat="48.06179" lon="6.95043">
        <ele>973.59997558594</ele>
        <time>2022-11-01T15:33:03.000Z</time>
      </trkpt>
      <trkpt lat="48.06179" lon="6.95043">
        <ele>973.40002441406</ele>
        <time>2022-11-01T15:33:04.000Z</time>
      </trkpt>
      <trkpt lat="48.06179" lon="6.95042">
        <ele>973</ele>
        <time>2022-11-01T15:33:08.000Z</time>
      </trkpt>
      <trkpt lat="48.06179" lon="6.95039">
        <ele>971.80004882812</ele>
        <time>2022-11-01T15:33:16.000Z</time>
      </trkpt>
      <trkpt lat="48.0618" lon="6.95037">
        <ele>970.80004882812</ele>
        <time>2022-11-01T15:33:25.000Z</time>
      </trkpt>
      <trkpt lat="48.06181" lon="6.95037">
        <ele>970</ele>
        <time>2022-11-01T15:33:32.000Z</time>
      </trkpt>
      <trkpt lat="48.06182" lon="6.95037">
        <ele>969.80004882812</ele>
        <time>2022-11-01T15:33:34.000Z</time>
      </trkpt>
      <trkpt lat="48.06183" lon="6.95036">
        <ele>969.59997558594</ele>
        <time>2022-11-01T15:33:40.000Z</time>
      </trkpt>
      <trkpt lat="48.06183" lon="6.95036">
        <ele>969.59997558594</ele>
        <time>2022-11-01T15:33:42.000Z</time>
      </trkpt>
      <trkpt lat="48.06186" lon="6.95037">
        <ele>969.40002441406</ele>
        <time>2022-11-01T15:33:56.000Z</time>
      </trkpt>
      <trkpt lat="48.06186" lon="6.95038">
        <ele>969.40002441406</ele>
        <time>2022-11-01T15:34:02.000Z</time>
      </trkpt>
      <trkpt lat="48.06186" lon="6.95038">
        <ele>969.19995117188</ele>
        <time>2022-11-01T15:34:05.000Z</time>
      </trkpt>
      <trkpt lat="48.06185" lon="6.95038">
        <ele>968.80004882812</ele>
        <time>2022-11-01T15:34:11.000Z</time>
      </trkpt>
      <trkpt lat="48.06184" lon="6.95038">
        <ele>968.19995117188</ele>
        <time>2022-11-01T15:34:16.000Z</time>
      </trkpt>
      <trkpt lat="48.06184" lon="6.95039">
        <ele>968</ele>
        <time>2022-11-01T15:34:18.000Z</time>
      </trkpt>
      <trkpt lat="48.06184" lon="6.95039">
        <ele>967.59997558594</ele>
        <time>2022-11-01T15:34:20.000Z</time>
      </trkpt>
      <trkpt lat="48.06184" lon="6.95036">
        <ele>966.59997558594</ele>
        <time>2022-11-01T15:34:28.000Z</time>
      </trkpt>
      <trkpt lat="48.06185" lon="6.95031">
        <ele>965.59997558594</ele>
        <time>2022-11-01T15:34:37.000Z</time>
      </trkpt>
      <trkpt lat="48.06185" lon="6.9503">
        <ele>965.40002441406</ele>
        <time>2022-11-01T15:34:39.000Z</time>
      </trkpt>
      <trkpt lat="48.06187" lon="6.95027">
        <ele>964.40002441406</ele>
        <time>2022-11-01T15:34:48.000Z</time>
      </trkpt>
      <trkpt lat="48.06189" lon="6.95025">
        <ele>963.80004882812</ele>
        <time>2022-11-01T15:34:52.000Z</time>
      </trkpt>
      <trkpt lat="48.06191" lon="6.95024">
        <ele>963.40002441406</ele>
        <time>2022-11-01T15:34:56.000Z</time>
      </trkpt>
      <trkpt lat="48.06192" lon="6.95021">
        <ele>962.40002441406</ele>
        <time>2022-11-01T15:35:04.000Z</time>
      </trkpt>
      <trkpt lat="48.06192" lon="6.95021">
        <ele>962.19995117188</ele>
        <time>2022-11-01T15:35:06.000Z</time>
      </trkpt>
      <trkpt lat="48.06194" lon="6.95018">
        <ele>961.40002441406</ele>
        <time>2022-11-01T15:35:18.000Z</time>
      </trkpt>
      <trkpt lat="48.06194" lon="6.95018">
        <ele>961.40002441406</ele>
        <time>2022-11-01T15:35:19.000Z</time>
      </trkpt>
      <trkpt lat="48.06194" lon="6.95018">
        <ele>961.40002441406</ele>
        <time>2022-11-01T15:35:35.000Z</time>
      </trkpt>
      <trkpt lat="48.06194" lon="6.95018">
        <ele>960.19995117188</ele>
        <time>2022-11-01T15:35:49.000Z</time>
      </trkpt>
      <trkpt lat="48.06194" lon="6.95018">
        <ele>959.19995117188</ele>
        <time>2022-11-01T15:35:57.000Z</time>
      </trkpt>
      <trkpt lat="48.06194" lon="6.95017">
        <ele>958.40002441406</ele>
        <time>2022-11-01T15:36:03.000Z</time>
      </trkpt>
      <trkpt lat="48.06194" lon="6.95017">
        <ele>958.19995117188</ele>
        <time>2022-11-01T15:36:07.000Z</time>
      </trkpt>
      <trkpt lat="48.06194" lon="6.95017">
        <ele>957</ele>
        <time>2022-11-01T15:36:13.000Z</time>
      </trkpt>
      <trkpt lat="48.06194" lon="6.95017">
        <ele>956</ele>
        <time>2022-11-01T15:36:21.000Z</time>
      </trkpt>
      <trkpt lat="48.06194" lon="6.95017">
        <ele>955</ele>
        <time>2022-11-01T15:36:29.000Z</time>
      </trkpt>
      <trkpt lat="48.06194" lon="6.95017">
        <ele>954</ele>
        <time>2022-11-01T15:36:38.000Z</time>
      </trkpt>
      <trkpt lat="48.06194" lon="6.95017">
        <ele>954</ele>
        <time>2022-11-01T15:36:39.000Z</time>
      </trkpt>
      <trkpt lat="48.06195" lon="6.95017">
        <ele>953.80004882812</ele>
        <time>2022-11-01T15:36:46.000Z</time>
      </trkpt>
      <trkpt lat="48.06195" lon="6.95016">
        <ele>953.80004882812</ele>
        <time>2022-11-01T15:36:54.000Z</time>
      </trkpt>
      <trkpt lat="48.06195" lon="6.95016">
        <ele>953.80004882812</ele>
        <time>2022-11-01T15:37:02.000Z</time>
      </trkpt>
      <trkpt lat="48.06196" lon="6.95016">
        <ele>953.59997558594</ele>
        <time>2022-11-01T15:37:10.000Z</time>
      </trkpt>
      <trkpt lat="48.06196" lon="6.95016">
        <ele>952.80004882812</ele>
        <time>2022-11-01T15:37:15.000Z</time>
      </trkpt>
      <trkpt lat="48.06196" lon="6.95016">
        <ele>951.80004882812</ele>
        <time>2022-11-01T15:37:41.000Z</time>
      </trkpt>
      <trkpt lat="48.06197" lon="6.95015">
        <ele>952</ele>
        <time>2022-11-01T15:38:01.000Z</time>
      </trkpt>
      <trkpt lat="48.06197" lon="6.95015">
        <ele>950.80004882812</ele>
        <time>2022-11-01T15:38:06.000Z</time>
      </trkpt>
      <trkpt lat="48.06197" lon="6.95015">
        <ele>949.59997558594</ele>
        <time>2022-11-01T15:38:12.000Z</time>
      </trkpt>
      <trkpt lat="48.06198" lon="6.95015">
        <ele>948.80004882812</ele>
        <time>2022-11-01T15:38:32.000Z</time>
      </trkpt>
      <trkpt lat="48.06198" lon="6.95015">
        <ele>948.80004882812</ele>
        <time>2022-11-01T15:38:33.000Z</time>
      </trkpt>
      <trkpt lat="48.06198" lon="6.95015">
        <ele>948.40002441406</ele>
        <time>2022-11-01T15:38:35.000Z</time>
      </trkpt>
      <trkpt lat="48.06199" lon="6.95015">
        <ele>947.40002441406</ele>
        <time>2022-11-01T15:38:45.000Z</time>
      </trkpt>
      <trkpt lat="48.06199" lon="6.95014">
        <ele>946.40002441406</ele>
        <time>2022-11-01T15:38:53.000Z</time>
      </trkpt>
      <trkpt lat="48.062" lon="6.95014">
        <ele>946</ele>
        <time>2022-11-01T15:39:10.000Z</time>
      </trkpt>
      <trkpt lat="48.062" lon="6.95014">
        <ele>945.19995117188</ele>
        <time>2022-11-01T15:39:18.000Z</time>
      </trkpt>
      <trkpt lat="48.06201" lon="6.95013">
        <ele>944.19995117188</ele>
        <time>2022-11-01T15:39:28.000Z</time>
      </trkpt>
      <trkpt lat="48.06201" lon="6.95013">
        <ele>944</ele>
        <time>2022-11-01T15:39:31.000Z</time>
      </trkpt>
      <trkpt lat="48.06201" lon="6.95013">
        <ele>943.80004882812</ele>
        <time>2022-11-01T15:39:33.000Z</time>
      </trkpt>
      <trkpt lat="48.06201" lon="6.95013">
        <ele>943</ele>
        <time>2022-11-01T15:39:39.000Z</time>
      </trkpt>
      <trkpt lat="48.06202" lon="6.95013">
        <ele>942.80004882812</ele>
        <time>2022-11-01T15:39:44.000Z</time>
      </trkpt>
      <trkpt lat="48.06202" lon="6.95013">
        <ele>942.80004882812</ele>
        <time>2022-11-01T15:39:47.000Z</time>
      </trkpt>
      <trkpt lat="48.06202" lon="6.95013">
        <ele>942</ele>
        <time>2022-11-01T15:39:51.000Z</time>
      </trkpt>
      <trkpt lat="48.06203" lon="6.95013">
        <ele>941</ele>
        <time>2022-11-01T15:39:57.000Z</time>
      </trkpt>
      <trkpt lat="48.06203" lon="6.95012">
        <ele>940</ele>
        <time>2022-11-01T15:40:08.000Z</time>
      </trkpt>
      <trkpt lat="48.06203" lon="6.95012">
        <ele>940</ele>
        <time>2022-11-01T15:40:09.000Z</time>
      </trkpt>
      <trkpt lat="48.06205" lon="6.95011">
        <ele>938.80004882812</ele>
        <time>2022-11-01T15:40:31.000Z</time>
      </trkpt>
      <trkpt lat="48.06206" lon="6.95011">
        <ele>937.59997558594</ele>
        <time>2022-11-01T15:40:37.000Z</time>
      </trkpt>
      <trkpt lat="48.06225" lon="6.94998">
        <ele>936.80004882812</ele>
        <time>2022-11-01T15:41:07.000Z</time>
      </trkpt>
      <trkpt lat="48.06231" lon="6.94994">
        <ele>936.59997558594</ele>
        <time>2022-11-01T15:41:08.000Z</time>
      </trkpt>
      <trkpt lat="48.06248" lon="6.9498">
        <ele>936.19995117188</ele>
        <time>2022-11-01T15:41:12.000Z</time>
      </trkpt>
      <trkpt lat="48.0625" lon="6.9498">
        <ele>936</ele>
        <time>2022-11-01T15:41:17.000Z</time>
      </trkpt>
      <trkpt lat="48.06249" lon="6.94976">
        <ele>935.59997558594</ele>
        <time>2022-11-01T15:41:22.000Z</time>
      </trkpt>
      <trkpt lat="48.06248" lon="6.94975">
        <ele>935.40002441406</ele>
        <time>2022-11-01T15:41:23.000Z</time>
      </trkpt>
      <trkpt lat="48.06246" lon="6.94972">
        <ele>934.80004882812</ele>
        <time>2022-11-01T15:41:29.000Z</time>
      </trkpt>
      <trkpt lat="48.06248" lon="6.94971">
        <ele>934.59997558594</ele>
        <time>2022-11-01T15:41:35.000Z</time>
      </trkpt>
      <trkpt lat="48.06248" lon="6.94971">
        <ele>934.59997558594</ele>
        <time>2022-11-01T15:41:36.000Z</time>
      </trkpt>
      <trkpt lat="48.06247" lon="6.94969">
        <ele>934.40002441406</ele>
        <time>2022-11-01T15:41:38.000Z</time>
      </trkpt>
      <trkpt lat="48.06251" lon="6.9497">
        <ele>933.80004882812</ele>
        <time>2022-11-01T15:41:43.000Z</time>
      </trkpt>
      <trkpt lat="48.06251" lon="6.94967">
        <ele>933.40002441406</ele>
        <time>2022-11-01T15:41:49.000Z</time>
      </trkpt>
      <trkpt lat="48.06252" lon="6.94967">
        <ele>933.19995117188</ele>
        <time>2022-11-01T15:41:50.000Z</time>
      </trkpt>
      <trkpt lat="48.06255" lon="6.94968">
        <ele>932.40002441406</ele>
        <time>2022-11-01T15:41:54.000Z</time>
      </trkpt>
      <trkpt lat="48.06255" lon="6.94968">
        <ele>932.40002441406</ele>
        <time>2022-11-01T15:41:55.000Z</time>
      </trkpt>
      <trkpt lat="48.0626" lon="6.94971">
        <ele>931.59997558594</ele>
        <time>2022-11-01T15:42:01.000Z</time>
      </trkpt>
      <trkpt lat="48.06262" lon="6.94974">
        <ele>931.59997558594</ele>
        <time>2022-11-01T15:42:07.000Z</time>
      </trkpt>
      <trkpt lat="48.06262" lon="6.9497">
        <ele>931.59997558594</ele>
        <time>2022-11-01T15:42:18.000Z</time>
      </trkpt>
      <trkpt lat="48.06262" lon="6.94971">
        <ele>930.59997558594</ele>
        <time>2022-11-01T15:42:34.000Z</time>
      </trkpt>
      <trkpt lat="48.06262" lon="6.94971">
        <ele>930.40002441406</ele>
        <time>2022-11-01T15:42:41.000Z</time>
      </trkpt>
      <trkpt lat="48.06261" lon="6.94972">
        <ele>930.40002441406</ele>
        <time>2022-11-01T15:42:49.000Z</time>
      </trkpt>
      <trkpt lat="48.06261" lon="6.94972">
        <ele>930.19995117188</ele>
        <time>2022-11-01T15:42:52.000Z</time>
      </trkpt>
      <trkpt lat="48.06261" lon="6.94973">
        <ele>930.19995117188</ele>
        <time>2022-11-01T15:42:53.000Z</time>
      </trkpt>
      <trkpt lat="48.06261" lon="6.94974">
        <ele>929.40002441406</ele>
        <time>2022-11-01T15:43:00.000Z</time>
      </trkpt>
      <trkpt lat="48.06261" lon="6.94975">
        <ele>929.19995117188</ele>
        <time>2022-11-01T15:43:04.000Z</time>
      </trkpt>
      <trkpt lat="48.06264" lon="6.94975">
        <ele>928</ele>
        <time>2022-11-01T15:43:14.000Z</time>
      </trkpt>
      <trkpt lat="48.06268" lon="6.94977">
        <ele>927</ele>
        <time>2022-11-01T15:43:21.000Z</time>
      </trkpt>
      <trkpt lat="48.06269" lon="6.94978">
        <ele>926.80004882812</ele>
        <time>2022-11-01T15:43:22.000Z</time>
      </trkpt>
      <trkpt lat="48.06267" lon="6.94979">
        <ele>926.19995117188</ele>
        <time>2022-11-01T15:43:27.000Z</time>
      </trkpt>
      <trkpt lat="48.06266" lon="6.94979">
        <ele>926</ele>
        <time>2022-11-01T15:43:28.000Z</time>
      </trkpt>
      <trkpt lat="48.06265" lon="6.9498">
        <ele>925.40002441406</ele>
        <time>2022-11-01T15:43:35.000Z</time>
      </trkpt>
      <trkpt lat="48.06263" lon="6.94979">
        <ele>925</ele>
        <time>2022-11-01T15:43:54.000Z</time>
      </trkpt>
      <trkpt lat="48.06262" lon="6.94978">
        <ele>923.80004882812</ele>
        <time>2022-11-01T15:44:02.000Z</time>
      </trkpt>
      <trkpt lat="48.06261" lon="6.94976">
        <ele>923.59997558594</ele>
        <time>2022-11-01T15:44:04.000Z</time>
      </trkpt>
      <trkpt lat="48.0626" lon="6.94976">
        <ele>923.59997558594</ele>
        <time>2022-11-01T15:44:12.000Z</time>
      </trkpt>
      <trkpt lat="48.0626" lon="6.94975">
        <ele>922.40002441406</ele>
        <time>2022-11-01T15:44:26.000Z</time>
      </trkpt>
      <trkpt lat="48.0626" lon="6.94974">
        <ele>921.40002441406</ele>
        <time>2022-11-01T15:44:33.000Z</time>
      </trkpt>
      <trkpt lat="48.06255" lon="6.94965">
        <ele>920.40002441406</ele>
        <time>2022-11-01T15:44:39.000Z</time>
      </trkpt>
      <trkpt lat="48.06255" lon="6.94964">
        <ele>920.40002441406</ele>
        <time>2022-11-01T15:44:40.000Z</time>
      </trkpt>
      <trkpt lat="48.06252" lon="6.9496">
        <ele>919.80004882812</ele>
        <time>2022-11-01T15:44:44.000Z</time>
      </trkpt>
      <trkpt lat="48.06252" lon="6.94955">
        <ele>919.40002441406</ele>
        <time>2022-11-01T15:44:49.000Z</time>
      </trkpt>
      <trkpt lat="48.06251" lon="6.94955">
        <ele>919.19995117188</ele>
        <time>2022-11-01T15:44:50.000Z</time>
      </trkpt>
      <trkpt lat="48.06252" lon="6.94951">
        <ele>918.80004882812</ele>
        <time>2022-11-01T15:44:58.000Z</time>
      </trkpt>
      <trkpt lat="48.06255" lon="6.94948">
        <ele>918.19995117188</ele>
        <time>2022-11-01T15:45:02.000Z</time>
      </trkpt>
      <trkpt lat="48.06256" lon="6.94947">
        <ele>918.19995117188</ele>
        <time>2022-11-01T15:45:03.000Z</time>
      </trkpt>
      <trkpt lat="48.06259" lon="6.94946">
        <ele>918</ele>
        <time>2022-11-01T15:45:09.000Z</time>
      </trkpt>
      <trkpt lat="48.06264" lon="6.94949">
        <ele>917.19995117188</ele>
        <time>2022-11-01T15:45:17.000Z</time>
      </trkpt>
      <trkpt lat="48.06267" lon="6.94947">
        <ele>916.59997558594</ele>
        <time>2022-11-01T15:45:24.000Z</time>
      </trkpt>
      <trkpt lat="48.06266" lon="6.9495">
        <ele>916.19995117188</ele>
        <time>2022-11-01T15:45:31.000Z</time>
      </trkpt>
      <trkpt lat="48.06265" lon="6.9495">
        <ele>916</ele>
        <time>2022-11-01T15:45:33.000Z</time>
      </trkpt>
      <trkpt lat="48.06265" lon="6.9495">
        <ele>915.80004882812</ele>
        <time>2022-11-01T15:45:36.000Z</time>
      </trkpt>
      <trkpt lat="48.06265" lon="6.9495">
        <ele>915</ele>
        <time>2022-11-01T15:45:42.000Z</time>
      </trkpt>
      <trkpt lat="48.06264" lon="6.9495">
        <ele>915</ele>
        <time>2022-11-01T15:45:43.000Z</time>
      </trkpt>
      <trkpt lat="48.06265" lon="6.94947">
        <ele>914.40002441406</ele>
        <time>2022-11-01T15:45:49.000Z</time>
      </trkpt>
      <trkpt lat="48.06264" lon="6.94945">
        <ele>913.80004882812</ele>
        <time>2022-11-01T15:45:52.000Z</time>
      </trkpt>
      <trkpt lat="48.06264" lon="6.94942">
        <ele>913.40002441406</ele>
        <time>2022-11-01T15:45:56.000Z</time>
      </trkpt>
      <trkpt lat="48.06265" lon="6.9494">
        <ele>913</ele>
        <time>2022-11-01T15:46:01.000Z</time>
      </trkpt>
      <trkpt lat="48.06265" lon="6.94941">
        <ele>912.80004882812</ele>
        <time>2022-11-01T15:46:03.000Z</time>
      </trkpt>
      <trkpt lat="48.06266" lon="6.9494">
        <ele>912</ele>
        <time>2022-11-01T15:46:07.000Z</time>
      </trkpt>
      <trkpt lat="48.06267" lon="6.94938">
        <ele>911.59997558594</ele>
        <time>2022-11-01T15:46:10.000Z</time>
      </trkpt>
      <trkpt lat="48.06265" lon="6.94933">
        <ele>910.80004882812</ele>
        <time>2022-11-01T15:46:15.000Z</time>
      </trkpt>
      <trkpt lat="48.06267" lon="6.94931">
        <ele>910.40002441406</ele>
        <time>2022-11-01T15:46:17.000Z</time>
      </trkpt>
      <trkpt lat="48.06268" lon="6.94928">
        <ele>909.59997558594</ele>
        <time>2022-11-01T15:46:20.000Z</time>
      </trkpt>
      <trkpt lat="48.06267" lon="6.94927">
        <ele>909.19995117188</ele>
        <time>2022-11-01T15:46:23.000Z</time>
      </trkpt>
      <trkpt lat="48.06267" lon="6.94928">
        <ele>909</ele>
        <time>2022-11-01T15:46:28.000Z</time>
      </trkpt>
      <trkpt lat="48.06266" lon="6.94929">
        <ele>909.19995117188</ele>
        <time>2022-11-01T15:46:46.000Z</time>
      </trkpt>
      <trkpt lat="48.06266" lon="6.94929">
        <ele>909.19995117188</ele>
        <time>2022-11-01T15:46:54.000Z</time>
      </trkpt>
      <trkpt lat="48.06261" lon="6.9493">
        <ele>908.19995117188</ele>
        <time>2022-11-01T15:47:14.000Z</time>
      </trkpt>
      <trkpt lat="48.06261" lon="6.9493">
        <ele>908.19995117188</ele>
        <time>2022-11-01T15:47:15.000Z</time>
      </trkpt>
      <trkpt lat="48.06261" lon="6.94929">
        <ele>907</ele>
        <time>2022-11-01T15:47:21.000Z</time>
      </trkpt>
      <trkpt lat="48.06265" lon="6.9492">
        <ele>906.19995117188</ele>
        <time>2022-11-01T15:47:25.000Z</time>
      </trkpt>
      <trkpt lat="48.06265" lon="6.94906">
        <ele>906.19995117188</ele>
        <time>2022-11-01T15:47:31.000Z</time>
      </trkpt>
      <trkpt lat="48.06265" lon="6.94903">
        <ele>906</ele>
        <time>2022-11-01T15:47:34.000Z</time>
      </trkpt>
      <trkpt lat="48.06267" lon="6.94901">
        <ele>905.59997558594</ele>
        <time>2022-11-01T15:47:37.000Z</time>
      </trkpt>
      <trkpt lat="48.06264" lon="6.94897">
        <ele>905</ele>
        <time>2022-11-01T15:47:42.000Z</time>
      </trkpt>
      <trkpt lat="48.06264" lon="6.94896">
        <ele>904.80004882812</ele>
        <time>2022-11-01T15:47:43.000Z</time>
      </trkpt>
      <trkpt lat="48.06265" lon="6.94892">
        <ele>904</ele>
        <time>2022-11-01T15:47:50.000Z</time>
      </trkpt>
      <trkpt lat="48.06265" lon="6.94891">
        <ele>903.80004882812</ele>
        <time>2022-11-01T15:47:51.000Z</time>
      </trkpt>
      <trkpt lat="48.06266" lon="6.94888">
        <ele>903</ele>
        <time>2022-11-01T15:47:57.000Z</time>
      </trkpt>
      <trkpt lat="48.06267" lon="6.94888">
        <ele>902.80004882812</ele>
        <time>2022-11-01T15:47:58.000Z</time>
      </trkpt>
      <trkpt lat="48.06267" lon="6.94887">
        <ele>902.19995117188</ele>
        <time>2022-11-01T15:48:01.000Z</time>
      </trkpt>
      <trkpt lat="48.06267" lon="6.94887">
        <ele>902.19995117188</ele>
        <time>2022-11-01T15:48:02.000Z</time>
      </trkpt>
      <trkpt lat="48.06266" lon="6.94886">
        <ele>902</ele>
        <time>2022-11-01T15:48:03.000Z</time>
      </trkpt>
      <trkpt lat="48.06266" lon="6.94886">
        <ele>901.59997558594</ele>
        <time>2022-11-01T15:48:05.000Z</time>
      </trkpt>
      <trkpt lat="48.06264" lon="6.94883">
        <ele>900.80004882812</ele>
        <time>2022-11-01T15:48:11.000Z</time>
      </trkpt>
      <trkpt lat="48.06264" lon="6.94882">
        <ele>900.59997558594</ele>
        <time>2022-11-01T15:48:12.000Z</time>
      </trkpt>
      <trkpt lat="48.06263" lon="6.94883">
        <ele>900.19995117188</ele>
        <time>2022-11-01T15:48:16.000Z</time>
      </trkpt>
      <trkpt lat="48.06311" lon="6.94871">
        <ele>899.80004882812</ele>
        <time>2022-11-01T15:48:51.000Z</time>
      </trkpt>
      <trkpt lat="48.06271" lon="6.94873">
        <ele>899.80004882812</ele>
        <time>2022-11-01T15:48:53.000Z</time>
      </trkpt>
      <trkpt lat="48.06267" lon="6.94874">
        <ele>900</ele>
        <time>2022-11-01T15:48:55.000Z</time>
      </trkpt>
      <trkpt lat="48.06266" lon="6.94876">
        <ele>899.80004882812</ele>
        <time>2022-11-01T15:48:57.000Z</time>
      </trkpt>
      <trkpt lat="48.06264" lon="6.94873">
        <ele>899.59997558594</ele>
        <time>2022-11-01T15:48:59.000Z</time>
      </trkpt>
      <trkpt lat="48.06261" lon="6.94868">
        <ele>899.19995117188</ele>
        <time>2022-11-01T15:49:03.000Z</time>
      </trkpt>
      <trkpt lat="48.06259" lon="6.94864">
        <ele>898.59997558594</ele>
        <time>2022-11-01T15:49:07.000Z</time>
      </trkpt>
      <trkpt lat="48.0626" lon="6.94863">
        <ele>898.40002441406</ele>
        <time>2022-11-01T15:49:08.000Z</time>
      </trkpt>
      <trkpt lat="48.06261" lon="6.94859">
        <ele>897.40002441406</ele>
        <time>2022-11-01T15:49:12.000Z</time>
      </trkpt>
      <trkpt lat="48.0626" lon="6.94858">
        <ele>897.40002441406</ele>
        <time>2022-11-01T15:49:13.000Z</time>
      </trkpt>
      <trkpt lat="48.06261" lon="6.9486">
        <ele>896.40002441406</ele>
        <time>2022-11-01T15:49:20.000Z</time>
      </trkpt>
      <trkpt lat="48.06257" lon="6.94856">
        <ele>896.19995117188</ele>
        <time>2022-11-01T15:49:25.000Z</time>
      </trkpt>
      <trkpt lat="48.06257" lon="6.94856">
        <ele>896.19995117188</ele>
        <time>2022-11-01T15:49:27.000Z</time>
      </trkpt>
      <trkpt lat="48.06257" lon="6.94856">
        <ele>896.59997558594</ele>
        <time>2022-11-01T15:49:35.000Z</time>
      </trkpt>
      <trkpt lat="48.06258" lon="6.94858">
        <ele>895.40002441406</ele>
        <time>2022-11-01T15:49:53.000Z</time>
      </trkpt>
      <trkpt lat="48.06258" lon="6.94858">
        <ele>894.19995117188</ele>
        <time>2022-11-01T15:49:59.000Z</time>
      </trkpt>
      <trkpt lat="48.06258" lon="6.94858">
        <ele>893</ele>
        <time>2022-11-01T15:50:04.000Z</time>
      </trkpt>
      <trkpt lat="48.06257" lon="6.94855">
        <ele>892</ele>
        <time>2022-11-01T15:50:10.000Z</time>
      </trkpt>
      <trkpt lat="48.06255" lon="6.94849">
        <ele>890.80004882812</ele>
        <time>2022-11-01T15:50:17.000Z</time>
      </trkpt>
      <trkpt lat="48.06253" lon="6.94847">
        <ele>889.59997558594</ele>
        <time>2022-11-01T15:50:23.000Z</time>
      </trkpt>
      <trkpt lat="48.0625" lon="6.94846">
        <ele>888.59997558594</ele>
        <time>2022-11-01T15:50:29.000Z</time>
      </trkpt>
      <trkpt lat="48.06248" lon="6.94841">
        <ele>887.40002441406</ele>
        <time>2022-11-01T15:50:37.000Z</time>
      </trkpt>
      <trkpt lat="48.06246" lon="6.94836">
        <ele>886.40002441406</ele>
        <time>2022-11-01T15:50:43.000Z</time>
      </trkpt>
      <trkpt lat="48.06246" lon="6.94833">
        <ele>885.19995117188</ele>
        <time>2022-11-01T15:50:48.000Z</time>
      </trkpt>
      <trkpt lat="48.06244" lon="6.94828">
        <ele>884</ele>
        <time>2022-11-01T15:50:54.000Z</time>
      </trkpt>
      <trkpt lat="48.06243" lon="6.94825">
        <ele>883.40002441406</ele>
        <time>2022-11-01T15:50:58.000Z</time>
      </trkpt>
      <trkpt lat="48.06242" lon="6.94823">
        <ele>882.80004882812</ele>
        <time>2022-11-01T15:51:00.000Z</time>
      </trkpt>
      <trkpt lat="48.06239" lon="6.94818">
        <ele>882.19995117188</ele>
        <time>2022-11-01T15:51:08.000Z</time>
      </trkpt>
      <trkpt lat="48.06239" lon="6.94815">
        <ele>882.19995117188</ele>
        <time>2022-11-01T15:51:13.000Z</time>
      </trkpt>
      <trkpt lat="48.06242" lon="6.94808">
        <ele>882</ele>
        <time>2022-11-01T15:51:34.000Z</time>
      </trkpt>
      <trkpt lat="48.06243" lon="6.94806">
        <ele>881.80004882812</ele>
        <time>2022-11-01T15:51:37.000Z</time>
      </trkpt>
      <trkpt lat="48.06244" lon="6.94805">
        <ele>881.80004882812</ele>
        <time>2022-11-01T15:51:41.000Z</time>
      </trkpt>
      <trkpt lat="48.06245" lon="6.94804">
        <ele>881.80004882812</ele>
        <time>2022-11-01T15:51:50.000Z</time>
      </trkpt>
      <trkpt lat="48.06246" lon="6.94804">
        <ele>880.80004882812</ele>
        <time>2022-11-01T15:52:08.000Z</time>
      </trkpt>
      <trkpt lat="48.06248" lon="6.94797">
        <ele>879.80004882812</ele>
        <time>2022-11-01T15:52:15.000Z</time>
      </trkpt>
      <trkpt lat="48.06251" lon="6.94794">
        <ele>879.40002441406</ele>
        <time>2022-11-01T15:52:17.000Z</time>
      </trkpt>
      <trkpt lat="48.06255" lon="6.94793">
        <ele>879</ele>
        <time>2022-11-01T15:52:19.000Z</time>
      </trkpt>
      <trkpt lat="48.06258" lon="6.94794">
        <ele>878.59997558594</ele>
        <time>2022-11-01T15:52:23.000Z</time>
      </trkpt>
      <trkpt lat="48.06261" lon="6.94793">
        <ele>877.80004882812</ele>
        <time>2022-11-01T15:52:28.000Z</time>
      </trkpt>
      <trkpt lat="48.06262" lon="6.94793">
        <ele>877.59997558594</ele>
        <time>2022-11-01T15:52:29.000Z</time>
      </trkpt>
      <trkpt lat="48.06262" lon="6.94793">
        <ele>877.59997558594</ele>
        <time>2022-11-01T15:52:30.000Z</time>
      </trkpt>
      <trkpt lat="48.06264" lon="6.94793">
        <ele>876.59997558594</ele>
        <time>2022-11-01T15:52:35.000Z</time>
      </trkpt>
      <trkpt lat="48.06267" lon="6.94791">
        <ele>876</ele>
        <time>2022-11-01T15:52:38.000Z</time>
      </trkpt>
      <trkpt lat="48.06269" lon="6.94789">
        <ele>875.40002441406</ele>
        <time>2022-11-01T15:52:40.000Z</time>
      </trkpt>
      <trkpt lat="48.06271" lon="6.94787">
        <ele>874.80004882812</ele>
        <time>2022-11-01T15:52:43.000Z</time>
      </trkpt>
      <trkpt lat="48.06273" lon="6.94784">
        <ele>874.19995117188</ele>
        <time>2022-11-01T15:52:46.000Z</time>
      </trkpt>
      <trkpt lat="48.06277" lon="6.94781">
        <ele>873.59997558594</ele>
        <time>2022-11-01T15:52:49.000Z</time>
      </trkpt>
      <trkpt lat="48.06282" lon="6.94785">
        <ele>873</ele>
        <time>2022-11-01T15:52:53.000Z</time>
      </trkpt>
      <trkpt lat="48.06284" lon="6.94787">
        <ele>872.80004882812</ele>
        <time>2022-11-01T15:52:55.000Z</time>
      </trkpt>
      <trkpt lat="48.06288" lon="6.94787">
        <ele>872</ele>
        <time>2022-11-01T15:53:00.000Z</time>
      </trkpt>
      <trkpt lat="48.06295" lon="6.94787">
        <ele>870.80004882812</ele>
        <time>2022-11-01T15:53:07.000Z</time>
      </trkpt>
      <trkpt lat="48.06298" lon="6.9479">
        <ele>869.80004882812</ele>
        <time>2022-11-01T15:53:13.000Z</time>
      </trkpt>
      <trkpt lat="48.06299" lon="6.9479">
        <ele>869.59997558594</ele>
        <time>2022-11-01T15:53:14.000Z</time>
      </trkpt>
      <trkpt lat="48.06302" lon="6.94792">
        <ele>869.40002441406</ele>
        <time>2022-11-01T15:53:21.000Z</time>
      </trkpt>
      <trkpt lat="48.06304" lon="6.94792">
        <ele>868.80004882812</ele>
        <time>2022-11-01T15:53:23.000Z</time>
      </trkpt>
      <trkpt lat="48.06304" lon="6.94792">
        <ele>868.80004882812</ele>
        <time>2022-11-01T15:53:24.000Z</time>
      </trkpt>
      <trkpt lat="48.06306" lon="6.94792">
        <ele>868.40002441406</ele>
        <time>2022-11-01T15:53:26.000Z</time>
      </trkpt>
      <trkpt lat="48.06308" lon="6.94791">
        <ele>867.59997558594</ele>
        <time>2022-11-01T15:53:29.000Z</time>
      </trkpt>
      <trkpt lat="48.06309" lon="6.94792">
        <ele>867.19995117188</ele>
        <time>2022-11-01T15:53:32.000Z</time>
      </trkpt>
      <trkpt lat="48.0631" lon="6.94791">
        <ele>866.59997558594</ele>
        <time>2022-11-01T15:53:34.000Z</time>
      </trkpt>
      <trkpt lat="48.06312" lon="6.94791">
        <ele>866.19995117188</ele>
        <time>2022-11-01T15:53:36.000Z</time>
      </trkpt>
      <trkpt lat="48.06314" lon="6.94793">
        <ele>865.80004882812</ele>
        <time>2022-11-01T15:53:38.000Z</time>
      </trkpt>
      <trkpt lat="48.06315" lon="6.94793">
        <ele>865.59997558594</ele>
        <time>2022-11-01T15:53:39.000Z</time>
      </trkpt>
      <trkpt lat="48.06318" lon="6.94792">
        <ele>864.59997558594</ele>
        <time>2022-11-01T15:53:43.000Z</time>
      </trkpt>
      <trkpt lat="48.06319" lon="6.94793">
        <ele>864.40002441406</ele>
        <time>2022-11-01T15:53:44.000Z</time>
      </trkpt>
      <trkpt lat="48.0632" lon="6.94793">
        <ele>864.19995117188</ele>
        <time>2022-11-01T15:53:45.000Z</time>
      </trkpt>
      <trkpt lat="48.06323" lon="6.94794">
        <ele>863.40002441406</ele>
        <time>2022-11-01T15:53:48.000Z</time>
      </trkpt>
      <trkpt lat="48.06325" lon="6.94792">
        <ele>862.80004882812</ele>
        <time>2022-11-01T15:53:50.000Z</time>
      </trkpt>
      <trkpt lat="48.06326" lon="6.94792">
        <ele>862.59997558594</ele>
        <time>2022-11-01T15:53:51.000Z</time>
      </trkpt>
      <trkpt lat="48.06327" lon="6.94792">
        <ele>862.19995117188</ele>
        <time>2022-11-01T15:53:53.000Z</time>
      </trkpt>
      <trkpt lat="48.06326" lon="6.94791">
        <ele>862</ele>
        <time>2022-11-01T15:53:54.000Z</time>
      </trkpt>
      <trkpt lat="48.06326" lon="6.9479">
        <ele>861.40002441406</ele>
        <time>2022-11-01T15:53:56.000Z</time>
      </trkpt>
      <trkpt lat="48.06327" lon="6.9479">
        <ele>861.19995117188</ele>
        <time>2022-11-01T15:53:57.000Z</time>
      </trkpt>
      <trkpt lat="48.06329" lon="6.94791">
        <ele>860</ele>
        <time>2022-11-01T15:54:01.000Z</time>
      </trkpt>
      <trkpt lat="48.06329" lon="6.94791">
        <ele>859.59997558594</ele>
        <time>2022-11-01T15:54:03.000Z</time>
      </trkpt>
      <trkpt lat="48.06331" lon="6.94791">
        <ele>859.19995117188</ele>
        <time>2022-11-01T15:54:05.000Z</time>
      </trkpt>
      <trkpt lat="48.06331" lon="6.94791">
        <ele>858.80004882812</ele>
        <time>2022-11-01T15:54:06.000Z</time>
      </trkpt>
      <trkpt lat="48.06334" lon="6.94791">
        <ele>858.59997558594</ele>
        <time>2022-11-01T15:54:08.000Z</time>
      </trkpt>
      <trkpt lat="48.06334" lon="6.94792">
        <ele>858.40002441406</ele>
        <time>2022-11-01T15:54:09.000Z</time>
      </trkpt>
      <trkpt lat="48.06338" lon="6.94795">
        <ele>857.59997558594</ele>
        <time>2022-11-01T15:54:13.000Z</time>
      </trkpt>
      <trkpt lat="48.0634" lon="6.94796">
        <ele>857</ele>
        <time>2022-11-01T15:54:17.000Z</time>
      </trkpt>
      <trkpt lat="48.0634" lon="6.94796">
        <ele>856.40002441406</ele>
        <time>2022-11-01T15:54:19.000Z</time>
      </trkpt>
      <trkpt lat="48.06342" lon="6.94796">
        <ele>855.80004882812</ele>
        <time>2022-11-01T15:54:23.000Z</time>
      </trkpt>
      <trkpt lat="48.06342" lon="6.94795">
        <ele>855.40002441406</ele>
        <time>2022-11-01T15:54:26.000Z</time>
      </trkpt>
      <trkpt lat="48.06344" lon="6.94795">
        <ele>854.80004882812</ele>
        <time>2022-11-01T15:54:29.000Z</time>
      </trkpt>
      <trkpt lat="48.06348" lon="6.94794">
        <ele>854.19995117188</ele>
        <time>2022-11-01T15:54:32.000Z</time>
      </trkpt>
      <trkpt lat="48.06351" lon="6.94796">
        <ele>853.59997558594</ele>
        <time>2022-11-01T15:54:36.000Z</time>
      </trkpt>
      <trkpt lat="48.06353" lon="6.94795">
        <ele>853</ele>
        <time>2022-11-01T15:54:39.000Z</time>
      </trkpt>
      <trkpt lat="48.06355" lon="6.94795">
        <ele>852.80004882812</ele>
        <time>2022-11-01T15:54:41.000Z</time>
      </trkpt>
      <trkpt lat="48.06358" lon="6.94797">
        <ele>852</ele>
        <time>2022-11-01T15:54:46.000Z</time>
      </trkpt>
      <trkpt lat="48.06359" lon="6.94801">
        <ele>851.80004882812</ele>
        <time>2022-11-01T15:54:51.000Z</time>
      </trkpt>
      <trkpt lat="48.06359" lon="6.94802">
        <ele>851.80004882812</ele>
        <time>2022-11-01T15:54:52.000Z</time>
      </trkpt>
      <trkpt lat="48.06358" lon="6.94803">
        <ele>851.80004882812</ele>
        <time>2022-11-01T15:54:59.000Z</time>
      </trkpt>
      <trkpt lat="48.0636" lon="6.94806">
        <ele>851.40002441406</ele>
        <time>2022-11-01T15:55:05.000Z</time>
      </trkpt>
      <trkpt lat="48.06362" lon="6.94806">
        <ele>850.80004882812</ele>
        <time>2022-11-01T15:55:09.000Z</time>
      </trkpt>
      <trkpt lat="48.06362" lon="6.94805">
        <ele>850.40002441406</ele>
        <time>2022-11-01T15:55:11.000Z</time>
      </trkpt>
      <trkpt lat="48.06362" lon="6.94805">
        <ele>849.80004882812</ele>
        <time>2022-11-01T15:55:16.000Z</time>
      </trkpt>
      <trkpt lat="48.06362" lon="6.94806">
        <ele>849.59997558594</ele>
        <time>2022-11-01T15:55:17.000Z</time>
      </trkpt>
      <trkpt lat="48.06362" lon="6.94806">
        <ele>848.80004882812</ele>
        <time>2022-11-01T15:55:25.000Z</time>
      </trkpt>
      <trkpt lat="48.06362" lon="6.94806">
        <ele>848.59997558594</ele>
        <time>2022-11-01T15:55:26.000Z</time>
      </trkpt>
      <trkpt lat="48.06363" lon="6.94804">
        <ele>848.19995117188</ele>
        <time>2022-11-01T15:55:30.000Z</time>
      </trkpt>
      <trkpt lat="48.06363" lon="6.94803">
        <ele>847.40002441406</ele>
        <time>2022-11-01T15:55:35.000Z</time>
      </trkpt>
      <trkpt lat="48.06365" lon="6.94803">
        <ele>846.59997558594</ele>
        <time>2022-11-01T15:55:41.000Z</time>
      </trkpt>
      <trkpt lat="48.06364" lon="6.94801">
        <ele>846.40002441406</ele>
        <time>2022-11-01T15:55:43.000Z</time>
      </trkpt>
      <trkpt lat="48.06366" lon="6.94801">
        <ele>845.59997558594</ele>
        <time>2022-11-01T15:55:48.000Z</time>
      </trkpt>
      <trkpt lat="48.06366" lon="6.94802">
        <ele>845.19995117188</ele>
        <time>2022-11-01T15:55:49.000Z</time>
      </trkpt>
      <trkpt lat="48.06367" lon="6.94802">
        <ele>844.80004882812</ele>
        <time>2022-11-01T15:55:54.000Z</time>
      </trkpt>
      <trkpt lat="48.0637" lon="6.94805">
        <ele>844.40002441406</ele>
        <time>2022-11-01T15:56:02.000Z</time>
      </trkpt>
      <trkpt lat="48.06371" lon="6.9481">
        <ele>844.40002441406</ele>
        <time>2022-11-01T15:56:46.000Z</time>
      </trkpt>
      <trkpt lat="48.06371" lon="6.94811">
        <ele>844.59997558594</ele>
        <time>2022-11-01T15:56:53.000Z</time>
      </trkpt>
      <trkpt lat="48.06369" lon="6.94811">
        <ele>844.59997558594</ele>
        <time>2022-11-01T15:56:56.000Z</time>
      </trkpt>
      <trkpt lat="48.06368" lon="6.94811">
        <ele>844.59997558594</ele>
        <time>2022-11-01T15:57:02.000Z</time>
      </trkpt>
      <trkpt lat="48.0637" lon="6.94809">
        <ele>844.59997558594</ele>
        <time>2022-11-01T15:57:20.000Z</time>
      </trkpt>
      <trkpt lat="48.0637" lon="6.94809">
        <ele>844.59997558594</ele>
        <time>2022-11-01T15:57:21.000Z</time>
      </trkpt>
      <trkpt lat="48.0637" lon="6.94809">
        <ele>844.59997558594</ele>
        <time>2022-11-01T15:57:22.000Z</time>
      </trkpt>
      <trkpt lat="48.0637" lon="6.94809">
        <ele>844.59997558594</ele>
        <time>2022-11-01T15:57:23.000Z</time>
      </trkpt>
      <trkpt lat="48.06371" lon="6.94808">
        <ele>844.59997558594</ele>
        <time>2022-11-01T15:57:25.000Z</time>
      </trkpt>
      <trkpt lat="48.06374" lon="6.94804">
        <ele>844.59997558594</ele>
        <time>2022-11-01T15:57:33.000Z</time>
      </trkpt>
      <trkpt lat="48.06375" lon="6.94803">
        <ele>844.59997558594</ele>
        <time>2022-11-01T15:57:38.000Z</time>
      </trkpt>
      <trkpt lat="48.06377" lon="6.94803">
        <ele>844.59997558594</ele>
        <time>2022-11-01T15:57:41.000Z</time>
      </trkpt>
      <trkpt lat="48.06381" lon="6.94803">
        <ele>844.59997558594</ele>
        <time>2022-11-01T15:57:44.000Z</time>
      </trkpt>
      <trkpt lat="48.06386" lon="6.94805">
        <ele>841</ele>
        <time>2022-11-01T15:57:54.000Z</time>
      </trkpt>
      <trkpt lat="48.06389" lon="6.94809">
        <ele>839.80004882812</ele>
        <time>2022-11-01T15:58:05.000Z</time>
      </trkpt>
      <trkpt lat="48.06398" lon="6.94811">
        <ele>839.19995117188</ele>
        <time>2022-11-01T15:58:11.000Z</time>
      </trkpt>
      <trkpt lat="48.06404" lon="6.94814">
        <ele>839</ele>
        <time>2022-11-01T15:58:15.000Z</time>
      </trkpt>
      <trkpt lat="48.06406" lon="6.94814">
        <ele>839</ele>
        <time>2022-11-01T15:58:16.000Z</time>
      </trkpt>
      <trkpt lat="48.06406" lon="6.94815">
        <ele>838.80004882812</ele>
        <time>2022-11-01T15:58:18.000Z</time>
      </trkpt>
      <trkpt lat="48.06407" lon="6.94816">
        <ele>838.59997558594</ele>
        <time>2022-11-01T15:58:20.000Z</time>
      </trkpt>
      <trkpt lat="48.06407" lon="6.94815">
        <ele>838.19995117188</ele>
        <time>2022-11-01T15:58:25.000Z</time>
      </trkpt>
      <trkpt lat="48.06407" lon="6.94814">
        <ele>838</ele>
        <time>2022-11-01T15:58:29.000Z</time>
      </trkpt>
      <trkpt lat="48.06407" lon="6.94814">
        <ele>837.80004882812</ele>
        <time>2022-11-01T15:58:31.000Z</time>
      </trkpt>
      <trkpt lat="48.06409" lon="6.94814">
        <ele>837.40002441406</ele>
        <time>2022-11-01T15:58:41.000Z</time>
      </trkpt>
      <trkpt lat="48.0641" lon="6.94811">
        <ele>836.80004882812</ele>
        <time>2022-11-01T15:58:47.000Z</time>
      </trkpt>
      <trkpt lat="48.0641" lon="6.94811">
        <ele>836.80004882812</ele>
        <time>2022-11-01T15:58:48.000Z</time>
      </trkpt>
      <trkpt lat="48.0641" lon="6.94812">
        <ele>836.19995117188</ele>
        <time>2022-11-01T15:58:51.000Z</time>
      </trkpt>
      <trkpt lat="48.0641" lon="6.94814">
        <ele>835.80004882812</ele>
        <time>2022-11-01T15:58:55.000Z</time>
      </trkpt>
      <trkpt lat="48.06409" lon="6.94814">
        <ele>835.40002441406</ele>
        <time>2022-11-01T15:58:57.000Z</time>
      </trkpt>
      <trkpt lat="48.06411" lon="6.94815">
        <ele>834.59997558594</ele>
        <time>2022-11-01T15:59:04.000Z</time>
      </trkpt>
      <trkpt lat="48.06411" lon="6.94815">
        <ele>834.40002441406</ele>
        <time>2022-11-01T15:59:05.000Z</time>
      </trkpt>
      <trkpt lat="48.06413" lon="6.94817">
        <ele>833.40002441406</ele>
        <time>2022-11-01T15:59:10.000Z</time>
      </trkpt>
      <trkpt lat="48.0641" lon="6.94816">
        <ele>832.40002441406</ele>
        <time>2022-11-01T15:59:15.000Z</time>
      </trkpt>
      <trkpt lat="48.06409" lon="6.94816">
        <ele>832.40002441406</ele>
        <time>2022-11-01T15:59:16.000Z</time>
      </trkpt>
      <trkpt lat="48.06409" lon="6.94815">
        <ele>831</ele>
        <time>2022-11-01T15:59:37.000Z</time>
      </trkpt>
      <trkpt lat="48.0641" lon="6.94814">
        <ele>830.40002441406</ele>
        <time>2022-11-01T15:59:40.000Z</time>
      </trkpt>
      <trkpt lat="48.06413" lon="6.94814">
        <ele>829.80004882812</ele>
        <time>2022-11-01T15:59:42.000Z</time>
      </trkpt>
      <trkpt lat="48.06419" lon="6.9481">
        <ele>828.80004882812</ele>
        <time>2022-11-01T15:59:47.000Z</time>
      </trkpt>
      <trkpt lat="48.0642" lon="6.9481">
        <ele>828.80004882812</ele>
        <time>2022-11-01T15:59:48.000Z</time>
      </trkpt>
      <trkpt lat="48.06423" lon="6.94808">
        <ele>827.80004882812</ele>
        <time>2022-11-01T15:59:52.000Z</time>
      </trkpt>
      <trkpt lat="48.06424" lon="6.94808">
        <ele>827.59997558594</ele>
        <time>2022-11-01T15:59:53.000Z</time>
      </trkpt>
      <trkpt lat="48.0643" lon="6.94805">
        <ele>826.40002441406</ele>
        <time>2022-11-01T16:00:00.000Z</time>
      </trkpt>
      <trkpt lat="48.0643" lon="6.94804">
        <ele>826.19995117188</ele>
        <time>2022-11-01T16:00:01.000Z</time>
      </trkpt>
      <trkpt lat="48.06431" lon="6.948">
        <ele>825.59997558594</ele>
        <time>2022-11-01T16:00:04.000Z</time>
      </trkpt>
      <trkpt lat="48.06432" lon="6.94799">
        <ele>825.40002441406</ele>
        <time>2022-11-01T16:00:05.000Z</time>
      </trkpt>
      <trkpt lat="48.06434" lon="6.94799">
        <ele>825.19995117188</ele>
        <time>2022-11-01T16:00:06.000Z</time>
      </trkpt>
      <trkpt lat="48.06439" lon="6.94798">
        <ele>824.40002441406</ele>
        <time>2022-11-01T16:00:10.000Z</time>
      </trkpt>
      <trkpt lat="48.06442" lon="6.94799">
        <ele>824</ele>
        <time>2022-11-01T16:00:12.000Z</time>
      </trkpt>
      <trkpt lat="48.06445" lon="6.948">
        <ele>823.19995117188</ele>
        <time>2022-11-01T16:00:18.000Z</time>
      </trkpt>
      <trkpt lat="48.06444" lon="6.94799">
        <ele>822.80004882812</ele>
        <time>2022-11-01T16:00:20.000Z</time>
      </trkpt>
      <trkpt lat="48.06448" lon="6.94799">
        <ele>821.80004882812</ele>
        <time>2022-11-01T16:00:26.000Z</time>
      </trkpt>
      <trkpt lat="48.06448" lon="6.948">
        <ele>821.59997558594</ele>
        <time>2022-11-01T16:00:27.000Z</time>
      </trkpt>
      <trkpt lat="48.06448" lon="6.948">
        <ele>821.40002441406</ele>
        <time>2022-11-01T16:00:28.000Z</time>
      </trkpt>
      <trkpt lat="48.0645" lon="6.948">
        <ele>820.80004882812</ele>
        <time>2022-11-01T16:00:32.000Z</time>
      </trkpt>
      <trkpt lat="48.0645" lon="6.94799">
        <ele>820.59997558594</ele>
        <time>2022-11-01T16:00:35.000Z</time>
      </trkpt>
      <trkpt lat="48.06454" lon="6.948">
        <ele>819.80004882812</ele>
        <time>2022-11-01T16:00:40.000Z</time>
      </trkpt>
      <trkpt lat="48.06454" lon="6.948">
        <ele>819.80004882812</ele>
        <time>2022-11-01T16:00:41.000Z</time>
      </trkpt>
      <trkpt lat="48.06454" lon="6.94798">
        <ele>819.40002441406</ele>
        <time>2022-11-01T16:00:43.000Z</time>
      </trkpt>
      <trkpt lat="48.06454" lon="6.94795">
        <ele>819</ele>
        <time>2022-11-01T16:00:46.000Z</time>
      </trkpt>
      <trkpt lat="48.06455" lon="6.94793">
        <ele>818.40002441406</ele>
        <time>2022-11-01T16:00:50.000Z</time>
      </trkpt>
      <trkpt lat="48.06457" lon="6.94794">
        <ele>818.19995117188</ele>
        <time>2022-11-01T16:00:52.000Z</time>
      </trkpt>
      <trkpt lat="48.06458" lon="6.94795">
        <ele>818</ele>
        <time>2022-11-01T16:00:53.000Z</time>
      </trkpt>
      <trkpt lat="48.06462" lon="6.94794">
        <ele>817.40002441406</ele>
        <time>2022-11-01T16:00:57.000Z</time>
      </trkpt>
      <trkpt lat="48.06463" lon="6.94794">
        <ele>817.40002441406</ele>
        <time>2022-11-01T16:00:58.000Z</time>
      </trkpt>
      <trkpt lat="48.06465" lon="6.94795">
        <ele>816.59997558594</ele>
        <time>2022-11-01T16:01:05.000Z</time>
      </trkpt>
      <trkpt lat="48.06469" lon="6.94799">
        <ele>816.40002441406</ele>
        <time>2022-11-01T16:01:10.000Z</time>
      </trkpt>
      <trkpt lat="48.06469" lon="6.94799">
        <ele>816.40002441406</ele>
        <time>2022-11-01T16:01:11.000Z</time>
      </trkpt>
      <trkpt lat="48.06469" lon="6.94799">
        <ele>816.19995117188</ele>
        <time>2022-11-01T16:01:13.000Z</time>
      </trkpt>
      <trkpt lat="48.06472" lon="6.94798">
        <ele>816</ele>
        <time>2022-11-01T16:01:18.000Z</time>
      </trkpt>
      <trkpt lat="48.06477" lon="6.94798">
        <ele>815.40002441406</ele>
        <time>2022-11-01T16:01:24.000Z</time>
      </trkpt>
      <trkpt lat="48.0648" lon="6.94796">
        <ele>815</ele>
        <time>2022-11-01T16:01:27.000Z</time>
      </trkpt>
      <trkpt lat="48.06483" lon="6.94794">
        <ele>814.59997558594</ele>
        <time>2022-11-01T16:01:29.000Z</time>
      </trkpt>
      <trkpt lat="48.06484" lon="6.94792">
        <ele>814.40002441406</ele>
        <time>2022-11-01T16:01:30.000Z</time>
      </trkpt>
      <trkpt lat="48.06484" lon="6.9479">
        <ele>814.40002441406</ele>
        <time>2022-11-01T16:01:32.000Z</time>
      </trkpt>
      <trkpt lat="48.06484" lon="6.94789">
        <ele>814.19995117188</ele>
        <time>2022-11-01T16:01:33.000Z</time>
      </trkpt>
      <trkpt lat="48.06488" lon="6.94787">
        <ele>813.19995117188</ele>
        <time>2022-11-01T16:01:37.000Z</time>
      </trkpt>
      <trkpt lat="48.06492" lon="6.94785">
        <ele>812.59997558594</ele>
        <time>2022-11-01T16:01:40.000Z</time>
      </trkpt>
      <trkpt lat="48.06493" lon="6.94782">
        <ele>812</ele>
        <time>2022-11-01T16:01:43.000Z</time>
      </trkpt>
      <trkpt lat="48.06493" lon="6.94781">
        <ele>811.80004882812</ele>
        <time>2022-11-01T16:01:45.000Z</time>
      </trkpt>
      <trkpt lat="48.06494" lon="6.94779">
        <ele>811</ele>
        <time>2022-11-01T16:01:50.000Z</time>
      </trkpt>
      <trkpt lat="48.06494" lon="6.94779">
        <ele>810.80004882812</ele>
        <time>2022-11-01T16:01:51.000Z</time>
      </trkpt>
      <trkpt lat="48.06497" lon="6.94776">
        <ele>810</ele>
        <time>2022-11-01T16:01:57.000Z</time>
      </trkpt>
      <trkpt lat="48.06499" lon="6.94774">
        <ele>809.80004882812</ele>
        <time>2022-11-01T16:02:00.000Z</time>
      </trkpt>
      <trkpt lat="48.06502" lon="6.94774">
        <ele>809.59997558594</ele>
        <time>2022-11-01T16:02:02.000Z</time>
      </trkpt>
      <trkpt lat="48.06503" lon="6.94772">
        <ele>809.19995117188</ele>
        <time>2022-11-01T16:02:05.000Z</time>
      </trkpt>
      <trkpt lat="48.06504" lon="6.9477">
        <ele>808.59997558594</ele>
        <time>2022-11-01T16:02:07.000Z</time>
      </trkpt>
      <trkpt lat="48.06507" lon="6.94769">
        <ele>807.59997558594</ele>
        <time>2022-11-01T16:02:13.000Z</time>
      </trkpt>
      <trkpt lat="48.06508" lon="6.94769">
        <ele>807.59997558594</ele>
        <time>2022-11-01T16:02:14.000Z</time>
      </trkpt>
      <trkpt lat="48.0651" lon="6.94766">
        <ele>807</ele>
        <time>2022-11-01T16:02:18.000Z</time>
      </trkpt>
      <trkpt lat="48.06513" lon="6.94763">
        <ele>806.40002441406</ele>
        <time>2022-11-01T16:02:22.000Z</time>
      </trkpt>
      <trkpt lat="48.06517" lon="6.94763">
        <ele>805.80004882812</ele>
        <time>2022-11-01T16:02:25.000Z</time>
      </trkpt>
      <trkpt lat="48.0652" lon="6.94763">
        <ele>805.40002441406</ele>
        <time>2022-11-01T16:02:28.000Z</time>
      </trkpt>
      <trkpt lat="48.06521" lon="6.94761">
        <ele>805.19995117188</ele>
        <time>2022-11-01T16:02:30.000Z</time>
      </trkpt>
      <trkpt lat="48.06523" lon="6.9476">
        <ele>804.80004882812</ele>
        <time>2022-11-01T16:02:32.000Z</time>
      </trkpt>
      <trkpt lat="48.06523" lon="6.9476">
        <ele>804.59997558594</ele>
        <time>2022-11-01T16:02:34.000Z</time>
      </trkpt>
      <trkpt lat="48.06524" lon="6.9476">
        <ele>804.40002441406</ele>
        <time>2022-11-01T16:02:36.000Z</time>
      </trkpt>
      <trkpt lat="48.06526" lon="6.94759">
        <ele>804.19995117188</ele>
        <time>2022-11-01T16:02:37.000Z</time>
      </trkpt>
      <trkpt lat="48.06532" lon="6.94758">
        <ele>803.19995117188</ele>
        <time>2022-11-01T16:02:42.000Z</time>
      </trkpt>
      <trkpt lat="48.06535" lon="6.94759">
        <ele>802.80004882812</ele>
        <time>2022-11-01T16:02:43.000Z</time>
      </trkpt>
      <trkpt lat="48.06539" lon="6.94758">
        <ele>802.40002441406</ele>
        <time>2022-11-01T16:02:46.000Z</time>
      </trkpt>
      <trkpt lat="48.0654" lon="6.94758">
        <ele>802.19995117188</ele>
        <time>2022-11-01T16:02:47.000Z</time>
      </trkpt>
      <trkpt lat="48.06543" lon="6.94754">
        <ele>802</ele>
        <time>2022-11-01T16:02:50.000Z</time>
      </trkpt>
      <trkpt lat="48.06544" lon="6.94754">
        <ele>801.80004882812</ele>
        <time>2022-11-01T16:02:51.000Z</time>
      </trkpt>
      <trkpt lat="48.06546" lon="6.94752">
        <ele>801.19995117188</ele>
        <time>2022-11-01T16:02:54.000Z</time>
      </trkpt>
      <trkpt lat="48.06547" lon="6.94751">
        <ele>801</ele>
        <time>2022-11-01T16:02:56.000Z</time>
      </trkpt>
      <trkpt lat="48.06548" lon="6.94751">
        <ele>800.80004882812</ele>
        <time>2022-11-01T16:02:57.000Z</time>
      </trkpt>
      <trkpt lat="48.06552" lon="6.94752">
        <ele>800.19995117188</ele>
        <time>2022-11-01T16:03:00.000Z</time>
      </trkpt>
      <trkpt lat="48.06552" lon="6.94751">
        <ele>799.80004882812</ele>
        <time>2022-11-01T16:03:02.000Z</time>
      </trkpt>
      <trkpt lat="48.06551" lon="6.94748">
        <ele>799.19995117188</ele>
        <time>2022-11-01T16:03:06.000Z</time>
      </trkpt>
      <trkpt lat="48.06552" lon="6.94746">
        <ele>798.59997558594</ele>
        <time>2022-11-01T16:03:09.000Z</time>
      </trkpt>
      <trkpt lat="48.06553" lon="6.94745">
        <ele>798.40002441406</ele>
        <time>2022-11-01T16:03:12.000Z</time>
      </trkpt>
      <trkpt lat="48.06553" lon="6.94745">
        <ele>798.19995117188</ele>
        <time>2022-11-01T16:03:13.000Z</time>
      </trkpt>
      <trkpt lat="48.06552" lon="6.94742">
        <ele>797.40002441406</ele>
        <time>2022-11-01T16:03:16.000Z</time>
      </trkpt>
      <trkpt lat="48.06553" lon="6.94741">
        <ele>796.80004882812</ele>
        <time>2022-11-01T16:03:19.000Z</time>
      </trkpt>
      <trkpt lat="48.06554" lon="6.94741">
        <ele>796.40002441406</ele>
        <time>2022-11-01T16:03:21.000Z</time>
      </trkpt>
      <trkpt lat="48.06553" lon="6.94738">
        <ele>795.59997558594</ele>
        <time>2022-11-01T16:03:25.000Z</time>
      </trkpt>
      <trkpt lat="48.06552" lon="6.94736">
        <ele>795.19995117188</ele>
        <time>2022-11-01T16:03:27.000Z</time>
      </trkpt>
      <trkpt lat="48.06552" lon="6.94737">
        <ele>794.59997558594</ele>
        <time>2022-11-01T16:03:31.000Z</time>
      </trkpt>
      <trkpt lat="48.06556" lon="6.94736">
        <ele>794.19995117188</ele>
        <time>2022-11-01T16:03:34.000Z</time>
      </trkpt>
      <trkpt lat="48.06557" lon="6.94737">
        <ele>794</ele>
        <time>2022-11-01T16:03:36.000Z</time>
      </trkpt>
      <trkpt lat="48.06555" lon="6.94734">
        <ele>792.80004882812</ele>
        <time>2022-11-01T16:03:42.000Z</time>
      </trkpt>
      <trkpt lat="48.06556" lon="6.94732">
        <ele>792</ele>
        <time>2022-11-01T16:03:46.000Z</time>
      </trkpt>
      <trkpt lat="48.06557" lon="6.94732">
        <ele>791.80004882812</ele>
        <time>2022-11-01T16:03:47.000Z</time>
      </trkpt>
      <trkpt lat="48.06558" lon="6.94732">
        <ele>791.59997558594</ele>
        <time>2022-11-01T16:03:48.000Z</time>
      </trkpt>
      <trkpt lat="48.06559" lon="6.94733">
        <ele>791.19995117188</ele>
        <time>2022-11-01T16:03:50.000Z</time>
      </trkpt>
      <trkpt lat="48.0656" lon="6.94733">
        <ele>791</ele>
        <time>2022-11-01T16:03:51.000Z</time>
      </trkpt>
      <trkpt lat="48.06562" lon="6.94732">
        <ele>790.80004882812</ele>
        <time>2022-11-01T16:03:53.000Z</time>
      </trkpt>
      <trkpt lat="48.06566" lon="6.94729">
        <ele>789.80004882812</ele>
        <time>2022-11-01T16:03:58.000Z</time>
      </trkpt>
      <trkpt lat="48.06566" lon="6.94728">
        <ele>789.59997558594</ele>
        <time>2022-11-01T16:03:59.000Z</time>
      </trkpt>
      <trkpt lat="48.06568" lon="6.94729">
        <ele>788.80004882812</ele>
        <time>2022-11-01T16:04:03.000Z</time>
      </trkpt>
      <trkpt lat="48.0657" lon="6.94728">
        <ele>788.59997558594</ele>
        <time>2022-11-01T16:04:05.000Z</time>
      </trkpt>
      <trkpt lat="48.06572" lon="6.94728">
        <ele>788.40002441406</ele>
        <time>2022-11-01T16:04:06.000Z</time>
      </trkpt>
      <trkpt lat="48.06573" lon="6.94726">
        <ele>787.80004882812</ele>
        <time>2022-11-01T16:04:08.000Z</time>
      </trkpt>
      <trkpt lat="48.06574" lon="6.94724">
        <ele>787.19995117188</ele>
        <time>2022-11-01T16:04:11.000Z</time>
      </trkpt>
      <trkpt lat="48.06576" lon="6.94724">
        <ele>787</ele>
        <time>2022-11-01T16:04:13.000Z</time>
      </trkpt>
      <trkpt lat="48.06576" lon="6.94723">
        <ele>786.59997558594</ele>
        <time>2022-11-01T16:04:15.000Z</time>
      </trkpt>
      <trkpt lat="48.06578" lon="6.9472">
        <ele>786.19995117188</ele>
        <time>2022-11-01T16:04:17.000Z</time>
      </trkpt>
      <trkpt lat="48.06583" lon="6.94717">
        <ele>785.59997558594</ele>
        <time>2022-11-01T16:04:21.000Z</time>
      </trkpt>
      <trkpt lat="48.06584" lon="6.94718">
        <ele>785.40002441406</ele>
        <time>2022-11-01T16:04:22.000Z</time>
      </trkpt>
      <trkpt lat="48.06586" lon="6.9472">
        <ele>785.40002441406</ele>
        <time>2022-11-01T16:04:26.000Z</time>
      </trkpt>
      <trkpt lat="48.06586" lon="6.9472">
        <ele>785.40002441406</ele>
        <time>2022-11-01T16:04:28.000Z</time>
      </trkpt>
      <trkpt lat="48.06587" lon="6.9472">
        <ele>785.19995117188</ele>
        <time>2022-11-01T16:04:30.000Z</time>
      </trkpt>
      <trkpt lat="48.06587" lon="6.9472">
        <ele>785.19995117188</ele>
        <time>2022-11-01T16:04:33.000Z</time>
      </trkpt>
      <trkpt lat="48.06587" lon="6.94719">
        <ele>785</ele>
        <time>2022-11-01T16:04:35.000Z</time>
      </trkpt>
      <trkpt lat="48.06587" lon="6.94715">
        <ele>784</ele>
        <time>2022-11-01T16:04:40.000Z</time>
      </trkpt>
      <trkpt lat="48.06588" lon="6.94713">
        <ele>783.19995117188</ele>
        <time>2022-11-01T16:04:43.000Z</time>
      </trkpt>
      <trkpt lat="48.0659" lon="6.94712">
        <ele>782.80004882812</ele>
        <time>2022-11-01T16:04:45.000Z</time>
      </trkpt>
      <trkpt lat="48.06595" lon="6.9471">
        <ele>782.19995117188</ele>
        <time>2022-11-01T16:04:49.000Z</time>
      </trkpt>
      <trkpt lat="48.06597" lon="6.94709">
        <ele>781.59997558594</ele>
        <time>2022-11-01T16:04:51.000Z</time>
      </trkpt>
      <trkpt lat="48.06598" lon="6.94707">
        <ele>781</ele>
        <time>2022-11-01T16:04:54.000Z</time>
      </trkpt>
      <trkpt lat="48.06603" lon="6.94702">
        <ele>780.40002441406</ele>
        <time>2022-11-01T16:04:59.000Z</time>
      </trkpt>
      <trkpt lat="48.06603" lon="6.94701">
        <ele>780.19995117188</ele>
        <time>2022-11-01T16:05:00.000Z</time>
      </trkpt>
      <trkpt lat="48.06606" lon="6.94701">
        <ele>779.19995117188</ele>
        <time>2022-11-01T16:05:04.000Z</time>
      </trkpt>
      <trkpt lat="48.06607" lon="6.94702">
        <ele>779.19995117188</ele>
        <time>2022-11-01T16:05:05.000Z</time>
      </trkpt>
      <trkpt lat="48.06609" lon="6.94703">
        <ele>779</ele>
        <time>2022-11-01T16:05:06.000Z</time>
      </trkpt>
      <trkpt lat="48.06614" lon="6.94705">
        <ele>778.19995117188</ele>
        <time>2022-11-01T16:05:11.000Z</time>
      </trkpt>
      <trkpt lat="48.06617" lon="6.94706">
        <ele>778</ele>
        <time>2022-11-01T16:05:13.000Z</time>
      </trkpt>
      <trkpt lat="48.06627" lon="6.94706">
        <ele>777.19995117188</ele>
        <time>2022-11-01T16:05:21.000Z</time>
      </trkpt>
      <trkpt lat="48.06631" lon="6.94708">
        <ele>776.80004882812</ele>
        <time>2022-11-01T16:05:24.000Z</time>
      </trkpt>
      <trkpt lat="48.06635" lon="6.94709">
        <ele>776.40002441406</ele>
        <time>2022-11-01T16:05:27.000Z</time>
      </trkpt>
      <trkpt lat="48.06638" lon="6.94712">
        <ele>776</ele>
        <time>2022-11-01T16:05:31.000Z</time>
      </trkpt>
      <trkpt lat="48.06641" lon="6.94713">
        <ele>775.59997558594</ele>
        <time>2022-11-01T16:05:34.000Z</time>
      </trkpt>
      <trkpt lat="48.0665" lon="6.94716">
        <ele>775</ele>
        <time>2022-11-01T16:05:39.000Z</time>
      </trkpt>
      <trkpt lat="48.0666" lon="6.94718">
        <ele>774.19995117188</ele>
        <time>2022-11-01T16:05:46.000Z</time>
      </trkpt>
      <trkpt lat="48.06662" lon="6.94718">
        <ele>773.80004882812</ele>
        <time>2022-11-01T16:05:49.000Z</time>
      </trkpt>
      <trkpt lat="48.06665" lon="6.9472">
        <ele>773.40002441406</ele>
        <time>2022-11-01T16:05:53.000Z</time>
      </trkpt>
      <trkpt lat="48.06669" lon="6.94725">
        <ele>772.80004882812</ele>
        <time>2022-11-01T16:06:01.000Z</time>
      </trkpt>
      <trkpt lat="48.06669" lon="6.94726">
        <ele>772.80004882812</ele>
        <time>2022-11-01T16:06:02.000Z</time>
      </trkpt>
      <trkpt lat="48.0667" lon="6.94731">
        <ele>772.80004882812</ele>
        <time>2022-11-01T16:06:11.000Z</time>
      </trkpt>
      <trkpt lat="48.06675" lon="6.94731">
        <ele>772.59997558594</ele>
        <time>2022-11-01T16:06:17.000Z</time>
      </trkpt>
      <trkpt lat="48.06676" lon="6.94732">
        <ele>772.59997558594</ele>
        <time>2022-11-01T16:06:18.000Z</time>
      </trkpt>
      <trkpt lat="48.06682" lon="6.9473">
        <ele>771.80004882812</ele>
        <time>2022-11-01T16:06:25.000Z</time>
      </trkpt>
      <trkpt lat="48.06694" lon="6.94734">
        <ele>771.40002441406</ele>
        <time>2022-11-01T16:06:31.000Z</time>
      </trkpt>
      <trkpt lat="48.06696" lon="6.94738">
        <ele>771.40002441406</ele>
        <time>2022-11-01T16:06:34.000Z</time>
      </trkpt>
      <trkpt lat="48.06699" lon="6.94741">
        <ele>771.40002441406</ele>
        <time>2022-11-01T16:06:37.000Z</time>
      </trkpt>
      <trkpt lat="48.06701" lon="6.94742">
        <ele>771.40002441406</ele>
        <time>2022-11-01T16:06:38.000Z</time>
      </trkpt>
      <trkpt lat="48.06704" lon="6.94746">
        <ele>770.80004882812</ele>
        <time>2022-11-01T16:06:42.000Z</time>
      </trkpt>
      <trkpt lat="48.06705" lon="6.94753">
        <ele>770.19995117188</ele>
        <time>2022-11-01T16:06:48.000Z</time>
      </trkpt>
      <trkpt lat="48.06705" lon="6.94761">
        <ele>770</ele>
        <time>2022-11-01T16:06:55.000Z</time>
      </trkpt>
      <trkpt lat="48.06705" lon="6.94764">
        <ele>769.59997558594</ele>
        <time>2022-11-01T16:06:57.000Z</time>
      </trkpt>
      <trkpt lat="48.06706" lon="6.94769">
        <ele>769.19995117188</ele>
        <time>2022-11-01T16:07:01.000Z</time>
      </trkpt>
      <trkpt lat="48.06708" lon="6.94775">
        <ele>768.40002441406</ele>
        <time>2022-11-01T16:07:06.000Z</time>
      </trkpt>
      <trkpt lat="48.06708" lon="6.94776">
        <ele>768.19995117188</ele>
        <time>2022-11-01T16:07:08.000Z</time>
      </trkpt>
      <trkpt lat="48.06711" lon="6.94787">
        <ele>767.40002441406</ele>
        <time>2022-11-01T16:07:14.000Z</time>
      </trkpt>
      <trkpt lat="48.0671" lon="6.94788">
        <ele>767.40002441406</ele>
        <time>2022-11-01T16:07:15.000Z</time>
      </trkpt>
      <trkpt lat="48.06709" lon="6.94793">
        <ele>766.59997558594</ele>
        <time>2022-11-01T16:07:21.000Z</time>
      </trkpt>
      <trkpt lat="48.06708" lon="6.94794">
        <ele>766.40002441406</ele>
        <time>2022-11-01T16:07:24.000Z</time>
      </trkpt>
      <trkpt lat="48.0671" lon="6.94794">
        <ele>766</ele>
        <time>2022-11-01T16:07:26.000Z</time>
      </trkpt>
      <trkpt lat="48.06714" lon="6.94798">
        <ele>765.40002441406</ele>
        <time>2022-11-01T16:07:32.000Z</time>
      </trkpt>
      <trkpt lat="48.06713" lon="6.94798">
        <ele>765.40002441406</ele>
        <time>2022-11-01T16:07:33.000Z</time>
      </trkpt>
      <trkpt lat="48.06714" lon="6.94798">
        <ele>765</ele>
        <time>2022-11-01T16:07:37.000Z</time>
      </trkpt>
      <trkpt lat="48.06715" lon="6.948">
        <ele>764.19995117188</ele>
        <time>2022-11-01T16:07:40.000Z</time>
      </trkpt>
      <trkpt lat="48.06719" lon="6.94799">
        <ele>763.40002441406</ele>
        <time>2022-11-01T16:07:46.000Z</time>
      </trkpt>
      <trkpt lat="48.06719" lon="6.94799">
        <ele>763.19995117188</ele>
        <time>2022-11-01T16:07:47.000Z</time>
      </trkpt>
      <trkpt lat="48.06722" lon="6.94796">
        <ele>762.19995117188</ele>
        <time>2022-11-01T16:07:52.000Z</time>
      </trkpt>
      <trkpt lat="48.06723" lon="6.94795">
        <ele>762.19995117188</ele>
        <time>2022-11-01T16:07:53.000Z</time>
      </trkpt>
      <trkpt lat="48.06726" lon="6.94794">
        <ele>761.40002441406</ele>
        <time>2022-11-01T16:07:59.000Z</time>
      </trkpt>
      <trkpt lat="48.06727" lon="6.94795">
        <ele>761.19995117188</ele>
        <time>2022-11-01T16:08:00.000Z</time>
      </trkpt>
      <trkpt lat="48.06728" lon="6.94796">
        <ele>761</ele>
        <time>2022-11-01T16:08:01.000Z</time>
      </trkpt>
      <trkpt lat="48.06731" lon="6.94797">
        <ele>760.59997558594</ele>
        <time>2022-11-01T16:08:04.000Z</time>
      </trkpt>
      <trkpt lat="48.06731" lon="6.94797">
        <ele>760.40002441406</ele>
        <time>2022-11-01T16:08:05.000Z</time>
      </trkpt>
      <trkpt lat="48.06733" lon="6.94797">
        <ele>760.19995117188</ele>
        <time>2022-11-01T16:08:07.000Z</time>
      </trkpt>
      <trkpt lat="48.06734" lon="6.94798">
        <ele>760</ele>
        <time>2022-11-01T16:08:08.000Z</time>
      </trkpt>
      <trkpt lat="48.06736" lon="6.94802">
        <ele>759.40002441406</ele>
        <time>2022-11-01T16:08:13.000Z</time>
      </trkpt>
      <trkpt lat="48.06736" lon="6.94803">
        <ele>759.40002441406</ele>
        <time>2022-11-01T16:08:14.000Z</time>
      </trkpt>
      <trkpt lat="48.06737" lon="6.94803">
        <ele>759</ele>
        <time>2022-11-01T16:08:15.000Z</time>
      </trkpt>
      <trkpt lat="48.06741" lon="6.94806">
        <ele>758.19995117188</ele>
        <time>2022-11-01T16:08:19.000Z</time>
      </trkpt>
      <trkpt lat="48.06742" lon="6.94806">
        <ele>758</ele>
        <time>2022-11-01T16:08:21.000Z</time>
      </trkpt>
      <trkpt lat="48.06742" lon="6.94806">
        <ele>757.59997558594</ele>
        <time>2022-11-01T16:08:22.000Z</time>
      </trkpt>
      <trkpt lat="48.06748" lon="6.94807">
        <ele>756.59997558594</ele>
        <time>2022-11-01T16:08:28.000Z</time>
      </trkpt>
      <trkpt lat="48.06747" lon="6.94809">
        <ele>756.40002441406</ele>
        <time>2022-11-01T16:08:29.000Z</time>
      </trkpt>
      <trkpt lat="48.06746" lon="6.94813">
        <ele>755.59997558594</ele>
        <time>2022-11-01T16:08:34.000Z</time>
      </trkpt>
      <trkpt lat="48.06746" lon="6.94813">
        <ele>755.40002441406</ele>
        <time>2022-11-01T16:08:35.000Z</time>
      </trkpt>
      <trkpt lat="48.06742" lon="6.94813">
        <ele>755.19995117188</ele>
        <time>2022-11-01T16:08:43.000Z</time>
      </trkpt>
      <trkpt lat="48.06739" lon="6.9481">
        <ele>754.80004882812</ele>
        <time>2022-11-01T16:09:03.000Z</time>
      </trkpt>
      <trkpt lat="48.06739" lon="6.9481">
        <ele>754.80004882812</ele>
        <time>2022-11-01T16:09:07.000Z</time>
      </trkpt>
      <trkpt lat="48.06738" lon="6.9481">
        <ele>754.59997558594</ele>
        <time>2022-11-01T16:09:18.000Z</time>
      </trkpt>
      <trkpt lat="48.06738" lon="6.94813">
        <ele>754.40002441406</ele>
        <time>2022-11-01T16:09:27.000Z</time>
      </trkpt>
      <trkpt lat="48.06739" lon="6.94816">
        <ele>754</ele>
        <time>2022-11-01T16:09:39.000Z</time>
      </trkpt>
      <trkpt lat="48.06741" lon="6.94816">
        <ele>753.59997558594</ele>
        <time>2022-11-01T16:09:47.000Z</time>
      </trkpt>
      <trkpt lat="48.06741" lon="6.94817">
        <ele>753.40002441406</ele>
        <time>2022-11-01T16:09:49.000Z</time>
      </trkpt>
      <trkpt lat="48.06741" lon="6.94817">
        <ele>753.40002441406</ele>
        <time>2022-11-01T16:09:51.000Z</time>
      </trkpt>
      <trkpt lat="48.06741" lon="6.94817">
        <ele>753.40002441406</ele>
        <time>2022-11-01T16:09:52.000Z</time>
      </trkpt>
      <trkpt lat="48.06741" lon="6.94817">
        <ele>753.40002441406</ele>
        <time>2022-11-01T16:09:54.000Z</time>
      </trkpt>
      <trkpt lat="48.06741" lon="6.94818">
        <ele>753.40002441406</ele>
        <time>2022-11-01T16:09:55.000Z</time>
      </trkpt>
      <trkpt lat="48.06739" lon="6.9482">
        <ele>753.40002441406</ele>
        <time>2022-11-01T16:10:11.000Z</time>
      </trkpt>
      <trkpt lat="48.06739" lon="6.9482">
        <ele>753.40002441406</ele>
        <time>2022-11-01T16:10:14.000Z</time>
      </trkpt>
      <trkpt lat="48.06741" lon="6.94815">
        <ele>753.40002441406</ele>
        <time>2022-11-01T16:10:24.000Z</time>
      </trkpt>
      <trkpt lat="48.06738" lon="6.94824">
        <ele>753.40002441406</ele>
        <time>2022-11-01T16:10:36.000Z</time>
      </trkpt>
      <trkpt lat="48.06731" lon="6.94834">
        <ele>753.40002441406</ele>
        <time>2022-11-01T16:10:47.000Z</time>
      </trkpt>
      <trkpt lat="48.06728" lon="6.94838">
        <ele>753.40002441406</ele>
        <time>2022-11-01T16:10:55.000Z</time>
      </trkpt>
      <trkpt lat="48.06722" lon="6.94844">
        <ele>753.40002441406</ele>
        <time>2022-11-01T16:11:03.000Z</time>
      </trkpt>
      <trkpt lat="48.06718" lon="6.94849">
        <ele>753.40002441406</ele>
        <time>2022-11-01T16:11:08.000Z</time>
      </trkpt>
      <trkpt lat="48.06714" lon="6.94856">
        <ele>753.40002441406</ele>
        <time>2022-11-01T16:11:15.000Z</time>
      </trkpt>
      <trkpt lat="48.06709" lon="6.94862">
        <ele>753.40002441406</ele>
        <time>2022-11-01T16:11:21.000Z</time>
      </trkpt>
      <trkpt lat="48.06706" lon="6.94867">
        <ele>753.40002441406</ele>
        <time>2022-11-01T16:11:26.000Z</time>
      </trkpt>
      <trkpt lat="48.06703" lon="6.94871">
        <ele>753.40002441406</ele>
        <time>2022-11-01T16:11:30.000Z</time>
      </trkpt>
      <trkpt lat="48.067" lon="6.94875">
        <ele>753.40002441406</ele>
        <time>2022-11-01T16:11:34.000Z</time>
      </trkpt>
      <trkpt lat="48.06694" lon="6.94884">
        <ele>753.40002441406</ele>
        <time>2022-11-01T16:11:46.000Z</time>
      </trkpt>
      <trkpt lat="48.06694" lon="6.94882">
        <ele>753.40002441406</ele>
        <time>2022-11-01T16:11:55.000Z</time>
      </trkpt>
      <trkpt lat="48.06691" lon="6.94887">
        <ele>753.40002441406</ele>
        <time>2022-11-01T16:12:02.000Z</time>
      </trkpt>
      <trkpt lat="48.06691" lon="6.94888">
        <ele>753.40002441406</ele>
        <time>2022-11-01T16:12:03.000Z</time>
      </trkpt>
      <trkpt lat="48.06687" lon="6.94897">
        <ele>753.40002441406</ele>
        <time>2022-11-01T16:12:12.000Z</time>
      </trkpt>
      <trkpt lat="48.0668" lon="6.94906">
        <ele>753.40002441406</ele>
        <time>2022-11-01T16:12:22.000Z</time>
      </trkpt>
      <trkpt lat="48.06673" lon="6.94918">
        <ele>753.40002441406</ele>
        <time>2022-11-01T16:12:34.000Z</time>
      </trkpt>
      <trkpt lat="48.06665" lon="6.94931">
        <ele>753.40002441406</ele>
        <time>2022-11-01T16:12:47.000Z</time>
      </trkpt>
      <trkpt lat="48.06661" lon="6.94936">
        <ele>753.40002441406</ele>
        <time>2022-11-01T16:12:53.000Z</time>
      </trkpt>
      <trkpt lat="48.06657" lon="6.94943">
        <ele>753.40002441406</ele>
        <time>2022-11-01T16:13:04.000Z</time>
      </trkpt>
      <trkpt lat="48.06658" lon="6.94948">
        <ele>749.80004882812</ele>
        <time>2022-11-01T16:13:09.000Z</time>
      </trkpt>
      <trkpt lat="48.06659" lon="6.94952">
        <ele>749.80004882812</ele>
        <time>2022-11-01T16:13:12.000Z</time>
      </trkpt>
      <trkpt lat="48.06658" lon="6.94951">
        <ele>750</ele>
        <time>2022-11-01T16:13:18.000Z</time>
      </trkpt>
      <trkpt lat="48.06659" lon="6.94951">
        <ele>750</ele>
        <time>2022-11-01T16:13:26.000Z</time>
      </trkpt>
      <trkpt lat="48.06659" lon="6.94953">
        <ele>749.59997558594</ele>
        <time>2022-11-01T16:13:54.000Z</time>
      </trkpt>
      <trkpt lat="48.06659" lon="6.94953">
        <ele>749.59997558594</ele>
        <time>2022-11-01T16:13:57.000Z</time>
      </trkpt>
      <trkpt lat="48.06658" lon="6.94952">
        <ele>749.80004882812</ele>
        <time>2022-11-01T16:14:10.000Z</time>
      </trkpt>
      <trkpt lat="48.06659" lon="6.9495">
        <ele>749.80004882812</ele>
        <time>2022-11-01T16:14:30.000Z</time>
      </trkpt>
      <trkpt lat="48.06658" lon="6.94946">
        <ele>749.80004882812</ele>
        <time>2022-11-01T16:14:51.000Z</time>
      </trkpt>
      <trkpt lat="48.06658" lon="6.94946">
        <ele>749.80004882812</ele>
        <time>2022-11-01T16:14:54.000Z</time>
      </trkpt>
    </trkseg>
  </trk>
</gpx>